<?xml version="1.0" encoding="UTF-8" standalone="no" ?><gpx xmlns="http://www.topografix.com/GPX/1/1" xmlns:gpxx="http://www.garmin.com/xmlschemas/GpxExtensions/v3" xmlns:wptx1="http://www.garmin.com/xmlschemas/WaypointExtension/v1" xmlns:gpxtpx="http://www.garmin.com/xmlschemas/TrackPointExtension/v1" creator="GuideVTT.com" version="1.1" xmlns:xsi="http://www.w3.org/2001/XMLSchema-instance" xsi:schemaLocation="http://www.topografix.com/GPX/1/1 http://www.topografix.com/GPX/1/1/gpx.xsd http://www.garmin.com/xmlschemas/GpxExtensions/v3 http://www8.garmin.com/xmlschemas/GpxExtensionsv3.xsd http://www.garmin.com/xmlschemas/WaypointExtension/v1 http://www8.garmin.com/xmlschemas/WaypointExtensionv1.xsd http://www.garmin.com/xmlschemas/TrackPointExtension/v1 http://www.garmin.com/xmlschemas/TrackPointExtensionv1.xsd">
<metadata><link href="http://www.garmin.com"><text>Garmin International</text></link><time>2013-06-22T15:13:50Z</time></metadata>
<trk><name>vtt_2015-03-15_55c0bf676cc1ce63fa0330eb.gpx</name><extensions><gpxx:TrackExtension><gpxx:DisplayColor>Cyan</gpxx:DisplayColor></gpxx:TrackExtension></extensions><trkseg>
<trkpt lat="48.884471893311" lon="2.8591232299805"><ele>105</ele><time>2026-4-28T20:8:31Z</time></trkpt>
<trkpt lat="48.884471893311" lon="2.8591232299805"><ele>105</ele><time>2026-4-28T20:8:34Z</time></trkpt>
<trkpt lat="48.884506225586" lon="2.8592171669006"><ele>109</ele><time>2026-4-28T20:8:37Z</time></trkpt>
<trkpt lat="48.884559631348" lon="2.8593096733093"><ele>105</ele><time>2026-4-28T20:8:40Z</time></trkpt>
<trkpt lat="48.884624481201" lon="2.8594372272491"><ele>101</ele><time>2026-4-28T20:8:43Z</time></trkpt>
<trkpt lat="48.884624481201" lon="2.8594372272491"><ele>101</ele><time>2026-4-28T20:8:46Z</time></trkpt>
<trkpt lat="48.884677886963" lon="2.8595163822174"><ele>98</ele><time>2026-4-28T20:8:49Z</time></trkpt>
<trkpt lat="48.884677886963" lon="2.8595163822174"><ele>98</ele><time>2026-4-28T20:8:52Z</time></trkpt>
<trkpt lat="48.884731292725" lon="2.8595762252808"><ele>98</ele><time>2026-4-28T20:8:55Z</time></trkpt>
<trkpt lat="48.884731292725" lon="2.8595762252808"><ele>98</ele><time>2026-4-28T20:8:58Z</time></trkpt>
<trkpt lat="48.884777069092" lon="2.8596343994141"><ele>99</ele><time>2026-4-28T20:9:1Z</time></trkpt>
<trkpt lat="48.884777069092" lon="2.8596343994141"><ele>99</ele><time>2026-4-28T20:9:4Z</time></trkpt>
<trkpt lat="48.884777069092" lon="2.8596343994141"><ele>99</ele><time>2026-4-28T20:9:7Z</time></trkpt>
<trkpt lat="48.884841918945" lon="2.8597087860107"><ele>100</ele><time>2026-4-28T20:9:10Z</time></trkpt>
<trkpt lat="48.884841918945" lon="2.8597087860107"><ele>100</ele><time>2026-4-28T20:9:13Z</time></trkpt>
<trkpt lat="48.884841918945" lon="2.8597087860107"><ele>100</ele><time>2026-4-28T20:9:16Z</time></trkpt>
<trkpt lat="48.884895324707" lon="2.8598153591156"><ele>100</ele><time>2026-4-28T20:9:19Z</time></trkpt>
<trkpt lat="48.884895324707" lon="2.8598153591156"><ele>100</ele><time>2026-4-28T20:9:22Z</time></trkpt>
<trkpt lat="48.884906768799" lon="2.8599293231964"><ele>101</ele><time>2026-4-28T20:9:25Z</time></trkpt>
<trkpt lat="48.884887695312" lon="2.8600661754608"><ele>101</ele><time>2026-4-28T20:9:28Z</time></trkpt>
<trkpt lat="48.884841918945" lon="2.8602039813995"><ele>102</ele><time>2026-4-28T20:9:31Z</time></trkpt>
<trkpt lat="48.884799957275" lon="2.8602795600891"><ele>102</ele><time>2026-4-28T20:9:34Z</time></trkpt>
<trkpt lat="48.884746551514" lon="2.8603572845459"><ele>102</ele><time>2026-4-28T20:9:37Z</time></trkpt>
<trkpt lat="48.884693145752" lon="2.8604373931885"><ele>101</ele><time>2026-4-28T20:9:40Z</time></trkpt>
<trkpt lat="48.884651184082" lon="2.8605201244354"><ele>101</ele><time>2026-4-28T20:9:43Z</time></trkpt>
<trkpt lat="48.884601593018" lon="2.8606169223785"><ele>101</ele><time>2026-4-28T20:9:46Z</time></trkpt>
<trkpt lat="48.884552001953" lon="2.8607277870178"><ele>101</ele><time>2026-4-28T20:9:49Z</time></trkpt>
<trkpt lat="48.884490966797" lon="2.8608498573303"><ele>100</ele><time>2026-4-28T20:9:52Z</time></trkpt>
<trkpt lat="48.884418487549" lon="2.860965013504"><ele>99</ele><time>2026-4-28T20:9:55Z</time></trkpt>
<trkpt lat="48.884338378906" lon="2.861067533493"><ele>99</ele><time>2026-4-28T20:9:58Z</time></trkpt>
<trkpt lat="48.884258270264" lon="2.8611578941345"><ele>99</ele><time>2026-4-28T20:10:1Z</time></trkpt>
<trkpt lat="48.884155273438" lon="2.8612434864044"><ele>99</ele><time>2026-4-28T20:10:4Z</time></trkpt>
<trkpt lat="48.884048461914" lon="2.8613169193268"><ele>99</ele><time>2026-4-28T20:10:7Z</time></trkpt>
<trkpt lat="48.883937835693" lon="2.861353635788"><ele>100</ele><time>2026-4-28T20:10:10Z</time></trkpt>
<trkpt lat="48.883850097656" lon="2.861380815506"><ele>100</ele><time>2026-4-28T20:10:13Z</time></trkpt>
<trkpt lat="48.883769989014" lon="2.8614187240601"><ele>100</ele><time>2026-4-28T20:10:16Z</time></trkpt>
<trkpt lat="48.883693695068" lon="2.8614706993103"><ele>100</ele><time>2026-4-28T20:10:19Z</time></trkpt>
<trkpt lat="48.883636474609" lon="2.8615324497223"><ele>100</ele><time>2026-4-28T20:10:22Z</time></trkpt>
<trkpt lat="48.883636474609" lon="2.8615324497223"><ele>100</ele><time>2026-4-28T20:10:25Z</time></trkpt>
<trkpt lat="48.883674621582" lon="2.8616881370544"><ele>100</ele><time>2026-4-28T20:10:28Z</time></trkpt>
<trkpt lat="48.883724212646" lon="2.8617572784424"><ele>100</ele><time>2026-4-28T20:10:31Z</time></trkpt>
<trkpt lat="48.883773803711" lon="2.8618214130402"><ele>100</ele><time>2026-4-28T20:10:34Z</time></trkpt>
<trkpt lat="48.883815765381" lon="2.8618812561035"><ele>100</ele><time>2026-4-28T20:10:37Z</time></trkpt>
<trkpt lat="48.883865356445" lon="2.8619365692139"><ele>101</ele><time>2026-4-28T20:10:40Z</time></trkpt>
<trkpt lat="48.883865356445" lon="2.8619365692139"><ele>101</ele><time>2026-4-28T20:10:43Z</time></trkpt>
<trkpt lat="48.883918762207" lon="2.86203956604"><ele>101</ele><time>2026-4-28T20:10:46Z</time></trkpt>
<trkpt lat="48.883911132812" lon="2.8621327877045"><ele>101</ele><time>2026-4-28T20:10:49Z</time></trkpt>
<trkpt lat="48.883888244629" lon="2.8622152805328"><ele>101</ele><time>2026-4-28T20:10:52Z</time></trkpt>
<trkpt lat="48.883857727051" lon="2.8623008728027"><ele>101</ele><time>2026-4-28T20:10:55Z</time></trkpt>
<trkpt lat="48.883819580078" lon="2.8623807430267"><ele>101</ele><time>2026-4-28T20:10:58Z</time></trkpt>
<trkpt lat="48.8837890625" lon="2.8624577522278"><ele>101</ele><time>2026-4-28T20:11:1Z</time></trkpt>
<trkpt lat="48.883754730225" lon="2.8625330924988"><ele>101</ele><time>2026-4-28T20:11:4Z</time></trkpt>
<trkpt lat="48.883754730225" lon="2.8625330924988"><ele>101</ele><time>2026-4-28T20:11:7Z</time></trkpt>
<trkpt lat="48.883693695068" lon="2.8626668453217"><ele>101</ele><time>2026-4-28T20:11:10Z</time></trkpt>
<trkpt lat="48.883659362793" lon="2.862744808197"><ele>100</ele><time>2026-4-28T20:11:13Z</time></trkpt>
<trkpt lat="48.883659362793" lon="2.862744808197"><ele>100</ele><time>2026-4-28T20:11:16Z</time></trkpt>
<trkpt lat="48.883613586426" lon="2.8628692626953"><ele>100</ele><time>2026-4-28T20:11:19Z</time></trkpt>
<trkpt lat="48.883613586426" lon="2.8628692626953"><ele>100</ele><time>2026-4-28T20:11:22Z</time></trkpt>
<trkpt lat="48.883556365967" lon="2.8629910945892"><ele>100</ele><time>2026-4-28T20:11:25Z</time></trkpt>
<trkpt lat="48.883529663086" lon="2.8630726337433"><ele>101</ele><time>2026-4-28T20:11:28Z</time></trkpt>
<trkpt lat="48.883506774902" lon="2.8631529808044"><ele>101</ele><time>2026-4-28T20:11:31Z</time></trkpt>
<trkpt lat="48.883506774902" lon="2.8631529808044"><ele>101</ele><time>2026-4-28T20:11:34Z</time></trkpt>
<trkpt lat="48.883453369141" lon="2.863294839859"><ele>101</ele><time>2026-4-28T20:11:37Z</time></trkpt>
<trkpt lat="48.883453369141" lon="2.863294839859"><ele>101</ele><time>2026-4-28T20:11:40Z</time></trkpt>
<trkpt lat="48.883407592773" lon="2.8634285926819"><ele>101</ele><time>2026-4-28T20:11:43Z</time></trkpt>
<trkpt lat="48.883407592773" lon="2.8634285926819"><ele>101</ele><time>2026-4-28T20:11:46Z</time></trkpt>
<trkpt lat="48.883350372314" lon="2.8635492324829"><ele>101</ele><time>2026-4-28T20:11:49Z</time></trkpt>
<trkpt lat="48.883350372314" lon="2.8635492324829"><ele>101</ele><time>2026-4-28T20:11:52Z</time></trkpt>
<trkpt lat="48.883316040039" lon="2.8636410236359"><ele>101</ele><time>2026-4-28T20:11:55Z</time></trkpt>
<trkpt lat="48.883316040039" lon="2.8636410236359"><ele>101</ele><time>2026-4-28T20:11:58Z</time></trkpt>
<trkpt lat="48.883285522461" lon="2.8637387752533"><ele>101</ele><time>2026-4-28T20:12:1Z</time></trkpt>
<trkpt lat="48.883285522461" lon="2.8637387752533"><ele>101</ele><time>2026-4-28T20:12:4Z</time></trkpt>
<trkpt lat="48.88325881958" lon="2.8638372421265"><ele>102</ele><time>2026-4-28T20:12:7Z</time></trkpt>
<trkpt lat="48.88325881958" lon="2.8638372421265"><ele>102</ele><time>2026-4-28T20:12:10Z</time></trkpt>
<trkpt lat="48.883224487305" lon="2.8639423847198"><ele>102</ele><time>2026-4-28T20:12:13Z</time></trkpt>
<trkpt lat="48.883224487305" lon="2.8639423847198"><ele>102</ele><time>2026-4-28T20:12:16Z</time></trkpt>
<trkpt lat="48.883182525635" lon="2.8640699386597"><ele>102</ele><time>2026-4-28T20:12:19Z</time></trkpt>
<trkpt lat="48.883182525635" lon="2.8640699386597"><ele>102</ele><time>2026-4-28T20:12:22Z</time></trkpt>
<trkpt lat="48.883152008057" lon="2.8641581535339"><ele>103</ele><time>2026-4-28T20:12:25Z</time></trkpt>
<trkpt lat="48.883152008057" lon="2.8641581535339"><ele>103</ele><time>2026-4-28T20:12:28Z</time></trkpt>
<trkpt lat="48.883117675781" lon="2.8642275333405"><ele>103</ele><time>2026-4-28T20:12:31Z</time></trkpt>
<trkpt lat="48.883117675781" lon="2.8642275333405"><ele>103</ele><time>2026-4-28T20:12:34Z</time></trkpt>
<trkpt lat="48.883083343506" lon="2.8643064498901"><ele>104</ele><time>2026-4-28T20:12:37Z</time></trkpt>
<trkpt lat="48.883083343506" lon="2.8643064498901"><ele>104</ele><time>2026-4-28T20:12:40Z</time></trkpt>
<trkpt lat="48.88306427002" lon="2.8643476963043"><ele>104</ele><time>2026-4-28T20:12:43Z</time></trkpt>
<trkpt lat="48.883052825928" lon="2.8643937110901"><ele>105</ele><time>2026-4-28T20:12:46Z</time></trkpt>
<trkpt lat="48.883037567139" lon="2.8644413948059"><ele>105</ele><time>2026-4-28T20:12:49Z</time></trkpt>
<trkpt lat="48.883026123047" lon="2.8644897937775"><ele>105</ele><time>2026-4-28T20:12:52Z</time></trkpt>
<trkpt lat="48.883014678955" lon="2.8645389080048"><ele>106</ele><time>2026-4-28T20:12:55Z</time></trkpt>
<trkpt lat="48.882995605469" lon="2.864636182785"><ele>106</ele><time>2026-4-28T20:12:58Z</time></trkpt>
<trkpt lat="48.882995605469" lon="2.864636182785"><ele>106</ele><time>2026-4-28T20:13:1Z</time></trkpt>
<trkpt lat="48.88298034668" lon="2.8647232055664"><ele>107</ele><time>2026-4-28T20:13:4Z</time></trkpt>
<trkpt lat="48.88298034668" lon="2.8647232055664"><ele>107</ele><time>2026-4-28T20:13:7Z</time></trkpt>
<trkpt lat="48.882949829102" lon="2.8648073673248"><ele>108</ele><time>2026-4-28T20:13:10Z</time></trkpt>
<trkpt lat="48.882949829102" lon="2.8648073673248"><ele>108</ele><time>2026-4-28T20:13:13Z</time></trkpt>
<trkpt lat="48.882923126221" lon="2.8649108409882"><ele>108</ele><time>2026-4-28T20:13:16Z</time></trkpt>
<trkpt lat="48.882923126221" lon="2.8649108409882"><ele>108</ele><time>2026-4-28T20:13:19Z</time></trkpt>
<trkpt lat="48.88289642334" lon="2.8650062084198"><ele>109</ele><time>2026-4-28T20:13:22Z</time></trkpt>
<trkpt lat="48.88289642334" lon="2.8650062084198"><ele>109</ele><time>2026-4-28T20:13:25Z</time></trkpt>
<trkpt lat="48.88289642334" lon="2.8650062084198"><ele>109</ele><time>2026-4-28T20:13:28Z</time></trkpt>
<trkpt lat="48.882869720459" lon="2.8651173114777"><ele>110</ele><time>2026-4-28T20:13:31Z</time></trkpt>
<trkpt lat="48.882869720459" lon="2.8651173114777"><ele>110</ele><time>2026-4-28T20:13:34Z</time></trkpt>
<trkpt lat="48.882843017578" lon="2.8652110099792"><ele>110</ele><time>2026-4-28T20:13:37Z</time></trkpt>
<trkpt lat="48.882843017578" lon="2.8652110099792"><ele>110</ele><time>2026-4-28T20:13:40Z</time></trkpt>
<trkpt lat="48.882843017578" lon="2.8652110099792"><ele>110</ele><time>2026-4-28T20:13:43Z</time></trkpt>
<trkpt lat="48.882843017578" lon="2.8652110099792"><ele>110</ele><time>2026-4-28T20:13:46Z</time></trkpt>
<trkpt lat="48.8828125" lon="2.8653092384338"><ele>111</ele><time>2026-4-28T20:13:49Z</time></trkpt>
<trkpt lat="48.8828125" lon="2.8653092384338"><ele>111</ele><time>2026-4-28T20:13:52Z</time></trkpt>
<trkpt lat="48.882793426514" lon="2.8654117584229"><ele>111</ele><time>2026-4-28T20:13:55Z</time></trkpt>
<trkpt lat="48.882793426514" lon="2.8654117584229"><ele>111</ele><time>2026-4-28T20:13:58Z</time></trkpt>
<trkpt lat="48.882778167725" lon="2.8655395507812"><ele>112</ele><time>2026-4-28T20:14:1Z</time></trkpt>
<trkpt lat="48.882762908936" lon="2.8656532764435"><ele>112</ele><time>2026-4-28T20:14:4Z</time></trkpt>
<trkpt lat="48.882762908936" lon="2.8656532764435"><ele>112</ele><time>2026-4-28T20:14:7Z</time></trkpt>
<trkpt lat="48.882736206055" lon="2.8657689094543"><ele>112</ele><time>2026-4-28T20:14:10Z</time></trkpt>
<trkpt lat="48.882736206055" lon="2.8657689094543"><ele>112</ele><time>2026-4-28T20:14:13Z</time></trkpt>
<trkpt lat="48.88272857666" lon="2.8658912181854"><ele>112</ele><time>2026-4-28T20:14:16Z</time></trkpt>
<trkpt lat="48.882717132568" lon="2.8659992218018"><ele>113</ele><time>2026-4-28T20:14:19Z</time></trkpt>
<trkpt lat="48.882717132568" lon="2.8659992218018"><ele>113</ele><time>2026-4-28T20:14:22Z</time></trkpt>
<trkpt lat="48.882698059082" lon="2.8660981655121"><ele>113</ele><time>2026-4-28T20:14:25Z</time></trkpt>
<trkpt lat="48.882698059082" lon="2.8660981655121"><ele>113</ele><time>2026-4-28T20:14:28Z</time></trkpt>
<trkpt lat="48.88268661499" lon="2.866203546524"><ele>114</ele><time>2026-4-28T20:14:31Z</time></trkpt>
<trkpt lat="48.882671356201" lon="2.8663153648376"><ele>114</ele><time>2026-4-28T20:14:34Z</time></trkpt>
<trkpt lat="48.882671356201" lon="2.8663153648376"><ele>114</ele><time>2026-4-28T20:14:37Z</time></trkpt>
<trkpt lat="48.882652282715" lon="2.8664267063141"><ele>114</ele><time>2026-4-28T20:14:40Z</time></trkpt>
<trkpt lat="48.882652282715" lon="2.8664267063141"><ele>114</ele><time>2026-4-28T20:14:43Z</time></trkpt>
<trkpt lat="48.882652282715" lon="2.8664267063141"><ele>114</ele><time>2026-4-28T20:14:46Z</time></trkpt>
<trkpt lat="48.882633209229" lon="2.8665251731873"><ele>115</ele><time>2026-4-28T20:14:49Z</time></trkpt>
<trkpt lat="48.882633209229" lon="2.8665251731873"><ele>115</ele><time>2026-4-28T20:14:52Z</time></trkpt>
<trkpt lat="48.882617950439" lon="2.8666522502899"><ele>116</ele><time>2026-4-28T20:14:55Z</time></trkpt>
<trkpt lat="48.882617950439" lon="2.8666522502899"><ele>116</ele><time>2026-4-28T20:14:58Z</time></trkpt>
<trkpt lat="48.882617950439" lon="2.8666522502899"><ele>116</ele><time>2026-4-28T20:15:1Z</time></trkpt>
<trkpt lat="48.882598876953" lon="2.8667786121368"><ele>116</ele><time>2026-4-28T20:15:4Z</time></trkpt>
<trkpt lat="48.882598876953" lon="2.8667786121368"><ele>116</ele><time>2026-4-28T20:15:7Z</time></trkpt>
<trkpt lat="48.882598876953" lon="2.8667786121368"><ele>116</ele><time>2026-4-28T20:15:10Z</time></trkpt>
<trkpt lat="48.882572174072" lon="2.8668992519379"><ele>116</ele><time>2026-4-28T20:15:13Z</time></trkpt>
<trkpt lat="48.882545471191" lon="2.8670237064362"><ele>116</ele><time>2026-4-28T20:15:16Z</time></trkpt>
<trkpt lat="48.882545471191" lon="2.8670237064362"><ele>116</ele><time>2026-4-28T20:15:19Z</time></trkpt>
<trkpt lat="48.882514953613" lon="2.8671696186066"><ele>117</ele><time>2026-4-28T20:15:22Z</time></trkpt>
<trkpt lat="48.882514953613" lon="2.8671696186066"><ele>117</ele><time>2026-4-28T20:15:25Z</time></trkpt>
<trkpt lat="48.882484436035" lon="2.8673074245453"><ele>117</ele><time>2026-4-28T20:15:28Z</time></trkpt>
<trkpt lat="48.882453918457" lon="2.8674507141113"><ele>117</ele><time>2026-4-28T20:15:31Z</time></trkpt>
<trkpt lat="48.882453918457" lon="2.8674507141113"><ele>117</ele><time>2026-4-28T20:15:34Z</time></trkpt>
<trkpt lat="48.882423400879" lon="2.8675830364227"><ele>117</ele><time>2026-4-28T20:15:37Z</time></trkpt>
<trkpt lat="48.882423400879" lon="2.8675830364227"><ele>117</ele><time>2026-4-28T20:15:40Z</time></trkpt>
<trkpt lat="48.882400512695" lon="2.8677129745483"><ele>117</ele><time>2026-4-28T20:15:43Z</time></trkpt>
<trkpt lat="48.882381439209" lon="2.8678646087646"><ele>118</ele><time>2026-4-28T20:15:46Z</time></trkpt>
<trkpt lat="48.882381439209" lon="2.8678646087646"><ele>118</ele><time>2026-4-28T20:15:49Z</time></trkpt>
<trkpt lat="48.882381439209" lon="2.8678646087646"><ele>118</ele><time>2026-4-28T20:15:52Z</time></trkpt>
<trkpt lat="48.882377624512" lon="2.8679325580597"><ele>118</ele><time>2026-4-28T20:15:55Z</time></trkpt>
<trkpt lat="48.882369995117" lon="2.8680000305176"><ele>118</ele><time>2026-4-28T20:15:58Z</time></trkpt>
<trkpt lat="48.882369995117" lon="2.8680000305176"><ele>118</ele><time>2026-4-28T20:16:1Z</time></trkpt>
<trkpt lat="48.882362365723" lon="2.8680639266968"><ele>118</ele><time>2026-4-28T20:16:4Z</time></trkpt>
<trkpt lat="48.882354736328" lon="2.8681273460388"><ele>118</ele><time>2026-4-28T20:16:7Z</time></trkpt>
<trkpt lat="48.882343292236" lon="2.8681924343109"><ele>118</ele><time>2026-4-28T20:16:10Z</time></trkpt>
<trkpt lat="48.882343292236" lon="2.8681924343109"><ele>118</ele><time>2026-4-28T20:16:13Z</time></trkpt>
<trkpt lat="48.882320404053" lon="2.8683183193207"><ele>119</ele><time>2026-4-28T20:16:16Z</time></trkpt>
<trkpt lat="48.882320404053" lon="2.8683183193207"><ele>119</ele><time>2026-4-28T20:16:19Z</time></trkpt>
<trkpt lat="48.882301330566" lon="2.8684296607971"><ele>119</ele><time>2026-4-28T20:16:22Z</time></trkpt>
<trkpt lat="48.882301330566" lon="2.8684296607971"><ele>119</ele><time>2026-4-28T20:16:25Z</time></trkpt>
<trkpt lat="48.882301330566" lon="2.8684296607971"><ele>119</ele><time>2026-4-28T20:16:28Z</time></trkpt>
<trkpt lat="48.882274627686" lon="2.8685657978058"><ele>119</ele><time>2026-4-28T20:16:31Z</time></trkpt>
<trkpt lat="48.882274627686" lon="2.8685657978058"><ele>119</ele><time>2026-4-28T20:16:34Z</time></trkpt>
<trkpt lat="48.882274627686" lon="2.8685657978058"><ele>119</ele><time>2026-4-28T20:16:37Z</time></trkpt>
<trkpt lat="48.882236480713" lon="2.8687427043915"><ele>119</ele><time>2026-4-28T20:16:40Z</time></trkpt>
<trkpt lat="48.882213592529" lon="2.8688397407532"><ele>120</ele><time>2026-4-28T20:16:43Z</time></trkpt>
<trkpt lat="48.882186889648" lon="2.8689460754395"><ele>120</ele><time>2026-4-28T20:16:46Z</time></trkpt>
<trkpt lat="48.882186889648" lon="2.8689460754395"><ele>120</ele><time>2026-4-28T20:16:49Z</time></trkpt>
<trkpt lat="48.882164001465" lon="2.8690531253815"><ele>120</ele><time>2026-4-28T20:16:52Z</time></trkpt>
<trkpt lat="48.882137298584" lon="2.8691556453705"><ele>120</ele><time>2026-4-28T20:16:55Z</time></trkpt>
<trkpt lat="48.8821144104" lon="2.8692548274994"><ele>120</ele><time>2026-4-28T20:16:58Z</time></trkpt>
<trkpt lat="48.8821144104" lon="2.8692548274994"><ele>120</ele><time>2026-4-28T20:17:1Z</time></trkpt>
<trkpt lat="48.882095336914" lon="2.8693470954895"><ele>120</ele><time>2026-4-28T20:17:4Z</time></trkpt>
<trkpt lat="48.882080078125" lon="2.8694505691528"><ele>120</ele><time>2026-4-28T20:17:7Z</time></trkpt>
<trkpt lat="48.882064819336" lon="2.8695569038391"><ele>120</ele><time>2026-4-28T20:17:10Z</time></trkpt>
<trkpt lat="48.882064819336" lon="2.8695569038391"><ele>120</ele><time>2026-4-28T20:17:13Z</time></trkpt>
<trkpt lat="48.882053375244" lon="2.869660615921"><ele>120</ele><time>2026-4-28T20:17:16Z</time></trkpt>
<trkpt lat="48.882041931152" lon="2.8697543144226"><ele>120</ele><time>2026-4-28T20:17:19Z</time></trkpt>
<trkpt lat="48.882030487061" lon="2.8698534965515"><ele>120</ele><time>2026-4-28T20:17:22Z</time></trkpt>
<trkpt lat="48.882030487061" lon="2.8698534965515"><ele>120</ele><time>2026-4-28T20:17:25Z</time></trkpt>
<trkpt lat="48.882015228271" lon="2.8699405193329"><ele>120</ele><time>2026-4-28T20:17:28Z</time></trkpt>
<trkpt lat="48.88200378418" lon="2.8700292110443"><ele>120</ele><time>2026-4-28T20:17:31Z</time></trkpt>
<trkpt lat="48.881984710693" lon="2.870133638382"><ele>120</ele><time>2026-4-28T20:17:34Z</time></trkpt>
<trkpt lat="48.881984710693" lon="2.870133638382"><ele>120</ele><time>2026-4-28T20:17:37Z</time></trkpt>
<trkpt lat="48.881969451904" lon="2.8702323436737"><ele>120</ele><time>2026-4-28T20:17:40Z</time></trkpt>
<trkpt lat="48.881958007812" lon="2.8703360557556"><ele>120</ele><time>2026-4-28T20:17:43Z</time></trkpt>
<trkpt lat="48.881958007812" lon="2.8703360557556"><ele>120</ele><time>2026-4-28T20:17:46Z</time></trkpt>
<trkpt lat="48.881958007812" lon="2.8703360557556"><ele>120</ele><time>2026-4-28T20:17:49Z</time></trkpt>
<trkpt lat="48.881927490234" lon="2.8705093860626"><ele>120</ele><time>2026-4-28T20:17:52Z</time></trkpt>
<trkpt lat="48.881927490234" lon="2.8705093860626"><ele>120</ele><time>2026-4-28T20:17:55Z</time></trkpt>
<trkpt lat="48.881889343262" lon="2.8706667423248"><ele>120</ele><time>2026-4-28T20:17:58Z</time></trkpt>
<trkpt lat="48.881889343262" lon="2.8706667423248"><ele>120</ele><time>2026-4-28T20:18:1Z</time></trkpt>
<trkpt lat="48.881874084473" lon="2.8707568645477"><ele>120</ele><time>2026-4-28T20:18:4Z</time></trkpt>
<trkpt lat="48.881874084473" lon="2.8707568645477"><ele>120</ele><time>2026-4-28T20:18:7Z</time></trkpt>
<trkpt lat="48.881832122803" lon="2.8709125518799"><ele>120</ele><time>2026-4-28T20:18:10Z</time></trkpt>
<trkpt lat="48.881832122803" lon="2.8709125518799"><ele>120</ele><time>2026-4-28T20:18:13Z</time></trkpt>
<trkpt lat="48.881809234619" lon="2.8710067272186"><ele>121</ele><time>2026-4-28T20:18:16Z</time></trkpt>
<trkpt lat="48.881809234619" lon="2.8710067272186"><ele>121</ele><time>2026-4-28T20:18:19Z</time></trkpt>
<trkpt lat="48.881763458252" lon="2.8711664676666"><ele>121</ele><time>2026-4-28T20:18:22Z</time></trkpt>
<trkpt lat="48.881763458252" lon="2.8711664676666"><ele>121</ele><time>2026-4-28T20:18:25Z</time></trkpt>
<trkpt lat="48.881740570068" lon="2.8712527751923"><ele>121</ele><time>2026-4-28T20:18:28Z</time></trkpt>
<trkpt lat="48.881717681885" lon="2.8713321685791"><ele>122</ele><time>2026-4-28T20:18:31Z</time></trkpt>
<trkpt lat="48.881717681885" lon="2.8713321685791"><ele>122</ele><time>2026-4-28T20:18:34Z</time></trkpt>
<trkpt lat="48.881717681885" lon="2.8713321685791"><ele>122</ele><time>2026-4-28T20:18:37Z</time></trkpt>
<trkpt lat="48.881671905518" lon="2.8714745044708"><ele>122</ele><time>2026-4-28T20:18:40Z</time></trkpt>
<trkpt lat="48.881671905518" lon="2.8714745044708"><ele>122</ele><time>2026-4-28T20:18:43Z</time></trkpt>
<trkpt lat="48.881629943848" lon="2.87162733078"><ele>122</ele><time>2026-4-28T20:18:46Z</time></trkpt>
<trkpt lat="48.881629943848" lon="2.87162733078"><ele>122</ele><time>2026-4-28T20:18:49Z</time></trkpt>
<trkpt lat="48.881629943848" lon="2.87162733078"><ele>122</ele><time>2026-4-28T20:18:52Z</time></trkpt>
<trkpt lat="48.881591796875" lon="2.8717758655548"><ele>123</ele><time>2026-4-28T20:18:55Z</time></trkpt>
<trkpt lat="48.881591796875" lon="2.8717758655548"><ele>123</ele><time>2026-4-28T20:18:58Z</time></trkpt>
<trkpt lat="48.881591796875" lon="2.8717758655548"><ele>123</ele><time>2026-4-28T20:19:1Z</time></trkpt>
<trkpt lat="48.881553649902" lon="2.8719174861908"><ele>123</ele><time>2026-4-28T20:19:4Z</time></trkpt>
<trkpt lat="48.881553649902" lon="2.8719174861908"><ele>123</ele><time>2026-4-28T20:19:7Z</time></trkpt>
<trkpt lat="48.88151550293" lon="2.8720571994781"><ele>123</ele><time>2026-4-28T20:19:10Z</time></trkpt>
<trkpt lat="48.88151550293" lon="2.8720571994781"><ele>123</ele><time>2026-4-28T20:19:13Z</time></trkpt>
<trkpt lat="48.88151550293" lon="2.8720571994781"><ele>123</ele><time>2026-4-28T20:19:16Z</time></trkpt>
<trkpt lat="48.881484985352" lon="2.8722112178802"><ele>124</ele><time>2026-4-28T20:19:19Z</time></trkpt>
<trkpt lat="48.881481170654" lon="2.8722999095917"><ele>124</ele><time>2026-4-28T20:19:22Z</time></trkpt>
<trkpt lat="48.881481170654" lon="2.8722999095917"><ele>124</ele><time>2026-4-28T20:19:25Z</time></trkpt>
<trkpt lat="48.881488800049" lon="2.872398853302"><ele>124</ele><time>2026-4-28T20:19:28Z</time></trkpt>
<trkpt lat="48.881496429443" lon="2.8725657463074"><ele>124</ele><time>2026-4-28T20:19:31Z</time></trkpt>
<trkpt lat="48.881496429443" lon="2.8727080821991"><ele>125</ele><time>2026-4-28T20:19:34Z</time></trkpt>
<trkpt lat="48.881496429443" lon="2.8727080821991"><ele>125</ele><time>2026-4-28T20:19:37Z</time></trkpt>
<trkpt lat="48.881496429443" lon="2.8728492259979"><ele>125</ele><time>2026-4-28T20:19:40Z</time></trkpt>
<trkpt lat="48.881496429443" lon="2.8728492259979"><ele>125</ele><time>2026-4-28T20:19:43Z</time></trkpt>
<trkpt lat="48.881488800049" lon="2.8730044364929"><ele>125</ele><time>2026-4-28T20:19:46Z</time></trkpt>
<trkpt lat="48.881488800049" lon="2.8730044364929"><ele>125</ele><time>2026-4-28T20:19:49Z</time></trkpt>
<trkpt lat="48.881477355957" lon="2.8731691837311"><ele>125</ele><time>2026-4-28T20:19:52Z</time></trkpt>
<trkpt lat="48.88147354126" lon="2.8732588291168"><ele>125</ele><time>2026-4-28T20:19:55Z</time></trkpt>
<trkpt lat="48.881477355957" lon="2.8733460903168"><ele>125</ele><time>2026-4-28T20:19:58Z</time></trkpt>
<trkpt lat="48.881477355957" lon="2.8733460903168"><ele>125</ele><time>2026-4-28T20:20:1Z</time></trkpt>
<trkpt lat="48.881488800049" lon="2.873509645462"><ele>125</ele><time>2026-4-28T20:20:4Z</time></trkpt>
<trkpt lat="48.881488800049" lon="2.873509645462"><ele>125</ele><time>2026-4-28T20:20:7Z</time></trkpt>
<trkpt lat="48.881496429443" lon="2.8736851215363"><ele>125</ele><time>2026-4-28T20:20:10Z</time></trkpt>
<trkpt lat="48.881500244141" lon="2.8737761974335"><ele>125</ele><time>2026-4-28T20:20:13Z</time></trkpt>
<trkpt lat="48.881507873535" lon="2.8739399909973"><ele>125</ele><time>2026-4-28T20:20:16Z</time></trkpt>
<trkpt lat="48.881507873535" lon="2.8739399909973"><ele>125</ele><time>2026-4-28T20:20:19Z</time></trkpt>
<trkpt lat="48.88151550293" lon="2.8740885257721"><ele>125</ele><time>2026-4-28T20:20:22Z</time></trkpt>
<trkpt lat="48.88151550293" lon="2.8740885257721"><ele>125</ele><time>2026-4-28T20:20:25Z</time></trkpt>
<trkpt lat="48.881526947021" lon="2.8742272853851"><ele>126</ele><time>2026-4-28T20:20:28Z</time></trkpt>
<trkpt lat="48.881526947021" lon="2.8742272853851"><ele>126</ele><time>2026-4-28T20:20:31Z</time></trkpt>
<trkpt lat="48.881534576416" lon="2.8743743896484"><ele>126</ele><time>2026-4-28T20:20:34Z</time></trkpt>
<trkpt lat="48.881542205811" lon="2.874470949173"><ele>126</ele><time>2026-4-28T20:20:37Z</time></trkpt>
<trkpt lat="48.881542205811" lon="2.874470949173"><ele>126</ele><time>2026-4-28T20:20:40Z</time></trkpt>
<trkpt lat="48.881553649902" lon="2.8746082782745"><ele>126</ele><time>2026-4-28T20:20:43Z</time></trkpt>
<trkpt lat="48.881553649902" lon="2.8746082782745"><ele>126</ele><time>2026-4-28T20:20:46Z</time></trkpt>
<trkpt lat="48.881568908691" lon="2.874772310257"><ele>126</ele><time>2026-4-28T20:20:49Z</time></trkpt>
<trkpt lat="48.881568908691" lon="2.874772310257"><ele>126</ele><time>2026-4-28T20:20:52Z</time></trkpt>
<trkpt lat="48.881576538086" lon="2.8749341964722"><ele>127</ele><time>2026-4-28T20:20:55Z</time></trkpt>
<trkpt lat="48.88158416748" lon="2.8750851154327"><ele>127</ele><time>2026-4-28T20:20:58Z</time></trkpt>
<trkpt lat="48.88158416748" lon="2.8750851154327"><ele>127</ele><time>2026-4-28T20:21:1Z</time></trkpt>
<trkpt lat="48.88158416748" lon="2.8752453327179"><ele>127</ele><time>2026-4-28T20:21:4Z</time></trkpt>
<trkpt lat="48.88158416748" lon="2.8753457069397"><ele>127</ele><time>2026-4-28T20:21:7Z</time></trkpt>
<trkpt lat="48.881591796875" lon="2.8754408359528"><ele>127</ele><time>2026-4-28T20:21:10Z</time></trkpt>
<trkpt lat="48.88159942627" lon="2.8755278587341"><ele>126</ele><time>2026-4-28T20:21:13Z</time></trkpt>
<trkpt lat="48.881607055664" lon="2.8756082057953"><ele>126</ele><time>2026-4-28T20:21:16Z</time></trkpt>
<trkpt lat="48.881614685059" lon="2.875684261322"><ele>126</ele><time>2026-4-28T20:21:19Z</time></trkpt>
<trkpt lat="48.88162612915" lon="2.8757548332214"><ele>126</ele><time>2026-4-28T20:21:22Z</time></trkpt>
<trkpt lat="48.881633758545" lon="2.8758263587952"><ele>126</ele><time>2026-4-28T20:21:25Z</time></trkpt>
<trkpt lat="48.881649017334" lon="2.8759722709656"><ele>126</ele><time>2026-4-28T20:21:28Z</time></trkpt>
<trkpt lat="48.881664276123" lon="2.8760576248169"><ele>126</ele><time>2026-4-28T20:21:31Z</time></trkpt>
<trkpt lat="48.881664276123" lon="2.8760576248169"><ele>126</ele><time>2026-4-28T20:21:34Z</time></trkpt>
<trkpt lat="48.88166809082" lon="2.8762156963348"><ele>127</ele><time>2026-4-28T20:21:37Z</time></trkpt>
<trkpt lat="48.88166809082" lon="2.8763582706451"><ele>127</ele><time>2026-4-28T20:21:40Z</time></trkpt>
<trkpt lat="48.88166809082" lon="2.8763582706451"><ele>127</ele><time>2026-4-28T20:21:43Z</time></trkpt>
<trkpt lat="48.881664276123" lon="2.8765187263489"><ele>127</ele><time>2026-4-28T20:21:46Z</time></trkpt>
<trkpt lat="48.881664276123" lon="2.8765187263489"><ele>127</ele><time>2026-4-28T20:21:49Z</time></trkpt>
<trkpt lat="48.881664276123" lon="2.8766677379608"><ele>128</ele><time>2026-4-28T20:21:52Z</time></trkpt>
<trkpt lat="48.881664276123" lon="2.8768224716187"><ele>128</ele><time>2026-4-28T20:21:55Z</time></trkpt>
<trkpt lat="48.881656646729" lon="2.876971244812"><ele>129</ele><time>2026-4-28T20:21:58Z</time></trkpt>
<trkpt lat="48.881656646729" lon="2.876971244812"><ele>129</ele><time>2026-4-28T20:22:1Z</time></trkpt>
<trkpt lat="48.881652832031" lon="2.8771266937256"><ele>129</ele><time>2026-4-28T20:22:4Z</time></trkpt>
<trkpt lat="48.881652832031" lon="2.877213716507"><ele>129</ele><time>2026-4-28T20:22:7Z</time></trkpt>
<trkpt lat="48.881652832031" lon="2.877213716507"><ele>129</ele><time>2026-4-28T20:22:10Z</time></trkpt>
<trkpt lat="48.881656646729" lon="2.8773746490479"><ele>129</ele><time>2026-4-28T20:22:13Z</time></trkpt>
<trkpt lat="48.881656646729" lon="2.8773746490479"><ele>129</ele><time>2026-4-28T20:22:16Z</time></trkpt>
<trkpt lat="48.881652832031" lon="2.8775141239166"><ele>130</ele><time>2026-4-28T20:22:19Z</time></trkpt>
<trkpt lat="48.881652832031" lon="2.8775141239166"><ele>130</ele><time>2026-4-28T20:22:22Z</time></trkpt>
<trkpt lat="48.881633758545" lon="2.8776593208313"><ele>130</ele><time>2026-4-28T20:22:25Z</time></trkpt>
<trkpt lat="48.881633758545" lon="2.8776593208313"><ele>130</ele><time>2026-4-28T20:22:28Z</time></trkpt>
<trkpt lat="48.881614685059" lon="2.8778021335602"><ele>130</ele><time>2026-4-28T20:22:31Z</time></trkpt>
<trkpt lat="48.881610870361" lon="2.8779542446136"><ele>131</ele><time>2026-4-28T20:22:34Z</time></trkpt>
<trkpt lat="48.881603240967" lon="2.8780980110168"><ele>131</ele><time>2026-4-28T20:22:37Z</time></trkpt>
<trkpt lat="48.881603240967" lon="2.8780980110168"><ele>131</ele><time>2026-4-28T20:22:40Z</time></trkpt>
<trkpt lat="48.88159942627" lon="2.8782632350922"><ele>131</ele><time>2026-4-28T20:22:43Z</time></trkpt>
<trkpt lat="48.881595611572" lon="2.8784110546112"><ele>131</ele><time>2026-4-28T20:22:46Z</time></trkpt>
<trkpt lat="48.881591796875" lon="2.8784983158112"><ele>132</ele><time>2026-4-28T20:22:49Z</time></trkpt>
<trkpt lat="48.881587982178" lon="2.8785946369171"><ele>132</ele><time>2026-4-28T20:22:52Z</time></trkpt>
<trkpt lat="48.88158416748" lon="2.8786923885345"><ele>132</ele><time>2026-4-28T20:22:55Z</time></trkpt>
<trkpt lat="48.881580352783" lon="2.8788568973541"><ele>132</ele><time>2026-4-28T20:22:58Z</time></trkpt>
<trkpt lat="48.881580352783" lon="2.8788568973541"><ele>132</ele><time>2026-4-28T20:23:1Z</time></trkpt>
<trkpt lat="48.881576538086" lon="2.8790144920349"><ele>131</ele><time>2026-4-28T20:23:4Z</time></trkpt>
<trkpt lat="48.881576538086" lon="2.8791012763977"><ele>131</ele><time>2026-4-28T20:23:7Z</time></trkpt>
<trkpt lat="48.881576538086" lon="2.8791012763977"><ele>131</ele><time>2026-4-28T20:23:10Z</time></trkpt>
<trkpt lat="48.881572723389" lon="2.8792653083801"><ele>131</ele><time>2026-4-28T20:23:13Z</time></trkpt>
<trkpt lat="48.881565093994" lon="2.8794527053833"><ele>131</ele><time>2026-4-28T20:23:16Z</time></trkpt>
<trkpt lat="48.881565093994" lon="2.8795480728149"><ele>131</ele><time>2026-4-28T20:23:19Z</time></trkpt>
<trkpt lat="48.881568908691" lon="2.8796374797821"><ele>131</ele><time>2026-4-28T20:23:22Z</time></trkpt>
<trkpt lat="48.881568908691" lon="2.8796374797821"><ele>131</ele><time>2026-4-28T20:23:25Z</time></trkpt>
<trkpt lat="48.881587982178" lon="2.8798136711121"><ele>130</ele><time>2026-4-28T20:23:28Z</time></trkpt>
<trkpt lat="48.881595611572" lon="2.8799026012421"><ele>130</ele><time>2026-4-28T20:23:31Z</time></trkpt>
<trkpt lat="48.881607055664" lon="2.879988193512"><ele>130</ele><time>2026-4-28T20:23:34Z</time></trkpt>
<trkpt lat="48.881607055664" lon="2.879988193512"><ele>130</ele><time>2026-4-28T20:23:37Z</time></trkpt>
<trkpt lat="48.881641387939" lon="2.8801438808441"><ele>130</ele><time>2026-4-28T20:23:40Z</time></trkpt>
<trkpt lat="48.881641387939" lon="2.8801438808441"><ele>130</ele><time>2026-4-28T20:23:43Z</time></trkpt>
<trkpt lat="48.881656646729" lon="2.8802361488342"><ele>130</ele><time>2026-4-28T20:23:46Z</time></trkpt>
<trkpt lat="48.881671905518" lon="2.8803355693817"><ele>130</ele><time>2026-4-28T20:23:49Z</time></trkpt>
<trkpt lat="48.881671905518" lon="2.8803355693817"><ele>130</ele><time>2026-4-28T20:23:52Z</time></trkpt>
<trkpt lat="48.881671905518" lon="2.8803355693817"><ele>130</ele><time>2026-4-28T20:23:55Z</time></trkpt>
<trkpt lat="48.881717681885" lon="2.8804881572723"><ele>130</ele><time>2026-4-28T20:23:58Z</time></trkpt>
<trkpt lat="48.881717681885" lon="2.8804881572723"><ele>130</ele><time>2026-4-28T20:24:1Z</time></trkpt>
<trkpt lat="48.881786346436" lon="2.8806290626526"><ele>130</ele><time>2026-4-28T20:24:4Z</time></trkpt>
<trkpt lat="48.881786346436" lon="2.8806290626526"><ele>130</ele><time>2026-4-28T20:24:7Z</time></trkpt>
<trkpt lat="48.881786346436" lon="2.8806290626526"><ele>130</ele><time>2026-4-28T20:24:10Z</time></trkpt>
<trkpt lat="48.881843566895" lon="2.8807656764984"><ele>130</ele><time>2026-4-28T20:24:13Z</time></trkpt>
<trkpt lat="48.881874084473" lon="2.8808438777924"><ele>131</ele><time>2026-4-28T20:24:16Z</time></trkpt>
<trkpt lat="48.881874084473" lon="2.8808438777924"><ele>131</ele><time>2026-4-28T20:24:19Z</time></trkpt>
<trkpt lat="48.881904602051" lon="2.8809192180634"><ele>131</ele><time>2026-4-28T20:24:22Z</time></trkpt>
<trkpt lat="48.881946563721" lon="2.8810439109802"><ele>131</ele><time>2026-4-28T20:24:25Z</time></trkpt>
<trkpt lat="48.881984710693" lon="2.8811676502228"><ele>131</ele><time>2026-4-28T20:24:28Z</time></trkpt>
<trkpt lat="48.881984710693" lon="2.8811676502228"><ele>131</ele><time>2026-4-28T20:24:31Z</time></trkpt>
<trkpt lat="48.882015228271" lon="2.8812623023987"><ele>131</ele><time>2026-4-28T20:24:34Z</time></trkpt>
<trkpt lat="48.882041931152" lon="2.881361246109"><ele>131</ele><time>2026-4-28T20:24:37Z</time></trkpt>
<trkpt lat="48.88207244873" lon="2.8814563751221"><ele>131</ele><time>2026-4-28T20:24:40Z</time></trkpt>
<trkpt lat="48.88207244873" lon="2.8814563751221"><ele>131</ele><time>2026-4-28T20:24:43Z</time></trkpt>
<trkpt lat="48.882099151611" lon="2.8815495967865"><ele>131</ele><time>2026-4-28T20:24:46Z</time></trkpt>
<trkpt lat="48.882125854492" lon="2.8816394805908"><ele>131</ele><time>2026-4-28T20:24:49Z</time></trkpt>
<trkpt lat="48.882148742676" lon="2.8817439079285"><ele>131</ele><time>2026-4-28T20:24:52Z</time></trkpt>
<trkpt lat="48.882148742676" lon="2.8817439079285"><ele>131</ele><time>2026-4-28T20:24:55Z</time></trkpt>
<trkpt lat="48.882164001465" lon="2.8818597793579"><ele>131</ele><time>2026-4-28T20:24:58Z</time></trkpt>
<trkpt lat="48.882179260254" lon="2.881977558136"><ele>131</ele><time>2026-4-28T20:25:1Z</time></trkpt>
<trkpt lat="48.88219833374" lon="2.8821396827698"><ele>131</ele><time>2026-4-28T20:25:4Z</time></trkpt>
<trkpt lat="48.88219833374" lon="2.8821396827698"><ele>131</ele><time>2026-4-28T20:25:7Z</time></trkpt>
<trkpt lat="48.882221221924" lon="2.882316827774"><ele>130</ele><time>2026-4-28T20:25:10Z</time></trkpt>
<trkpt lat="48.882236480713" lon="2.8825011253357"><ele>129</ele><time>2026-4-28T20:25:13Z</time></trkpt>
<trkpt lat="48.882266998291" lon="2.8827018737793"><ele>127</ele><time>2026-4-28T20:25:16Z</time></trkpt>
<trkpt lat="48.882266998291" lon="2.8827018737793"><ele>127</ele><time>2026-4-28T20:25:19Z</time></trkpt>
<trkpt lat="48.882301330566" lon="2.8828699588776"><ele>127</ele><time>2026-4-28T20:25:22Z</time></trkpt>
<trkpt lat="48.882343292236" lon="2.8830606937408"><ele>126</ele><time>2026-4-28T20:25:25Z</time></trkpt>
<trkpt lat="48.882389068604" lon="2.8832652568817"><ele>125</ele><time>2026-4-28T20:25:28Z</time></trkpt>
<trkpt lat="48.882389068604" lon="2.8832652568817"><ele>125</ele><time>2026-4-28T20:25:31Z</time></trkpt>
<trkpt lat="48.882431030273" lon="2.8834252357483"><ele>124</ele><time>2026-4-28T20:25:34Z</time></trkpt>
<trkpt lat="48.882476806641" lon="2.8835656642914"><ele>123</ele><time>2026-4-28T20:25:37Z</time></trkpt>
<trkpt lat="48.8825340271" lon="2.8837337493896"><ele>122</ele><time>2026-4-28T20:25:40Z</time></trkpt>
<trkpt lat="48.8825340271" lon="2.8837337493896"><ele>122</ele><time>2026-4-28T20:25:43Z</time></trkpt>
<trkpt lat="48.882579803467" lon="2.8838839530945"><ele>122</ele><time>2026-4-28T20:25:46Z</time></trkpt>
<trkpt lat="48.882633209229" lon="2.8840043544769"><ele>122</ele><time>2026-4-28T20:25:49Z</time></trkpt>
<trkpt lat="48.882713317871" lon="2.8841433525085"><ele>121</ele><time>2026-4-28T20:25:52Z</time></trkpt>
<trkpt lat="48.882713317871" lon="2.8841433525085"><ele>121</ele><time>2026-4-28T20:25:55Z</time></trkpt>
<trkpt lat="48.882801055908" lon="2.8842968940735"><ele>120</ele><time>2026-4-28T20:25:58Z</time></trkpt>
<trkpt lat="48.882865905762" lon="2.8844501972198"><ele>120</ele><time>2026-4-28T20:26:1Z</time></trkpt>
<trkpt lat="48.882915496826" lon="2.8845825195312"><ele>121</ele><time>2026-4-28T20:26:4Z</time></trkpt>
<trkpt lat="48.882915496826" lon="2.8845825195312"><ele>121</ele><time>2026-4-28T20:26:7Z</time></trkpt>
<trkpt lat="48.882946014404" lon="2.8847002983093"><ele>121</ele><time>2026-4-28T20:26:10Z</time></trkpt>
<trkpt lat="48.882976531982" lon="2.8848092556"><ele>121</ele><time>2026-4-28T20:26:13Z</time></trkpt>
<trkpt lat="48.883014678955" lon="2.8849287033081"><ele>121</ele><time>2026-4-28T20:26:16Z</time></trkpt>
<trkpt lat="48.883014678955" lon="2.8849287033081"><ele>121</ele><time>2026-4-28T20:26:19Z</time></trkpt>
<trkpt lat="48.88304901123" lon="2.8850522041321"><ele>121</ele><time>2026-4-28T20:26:22Z</time></trkpt>
<trkpt lat="48.883075714111" lon="2.8851613998413"><ele>122</ele><time>2026-4-28T20:26:25Z</time></trkpt>
<trkpt lat="48.883098602295" lon="2.8852598667145"><ele>122</ele><time>2026-4-28T20:26:28Z</time></trkpt>
<trkpt lat="48.883098602295" lon="2.8852598667145"><ele>122</ele><time>2026-4-28T20:26:31Z</time></trkpt>
<trkpt lat="48.883098602295" lon="2.8852598667145"><ele>122</ele><time>2026-4-28T20:26:34Z</time></trkpt>
<trkpt lat="48.883136749268" lon="2.8854124546051"><ele>122</ele><time>2026-4-28T20:26:37Z</time></trkpt>
<trkpt lat="48.883155822754" lon="2.8854947090149"><ele>122</ele><time>2026-4-28T20:26:40Z</time></trkpt>
<trkpt lat="48.883155822754" lon="2.8854947090149"><ele>122</ele><time>2026-4-28T20:26:43Z</time></trkpt>
<trkpt lat="48.88317489624" lon="2.885582447052"><ele>122</ele><time>2026-4-28T20:26:46Z</time></trkpt>
<trkpt lat="48.883193969727" lon="2.8856775760651"><ele>122</ele><time>2026-4-28T20:26:49Z</time></trkpt>
<trkpt lat="48.883220672607" lon="2.8857805728912"><ele>122</ele><time>2026-4-28T20:26:52Z</time></trkpt>
<trkpt lat="48.883220672607" lon="2.8857805728912"><ele>122</ele><time>2026-4-28T20:26:55Z</time></trkpt>
<trkpt lat="48.883243560791" lon="2.8858907222748"><ele>122</ele><time>2026-4-28T20:26:58Z</time></trkpt>
<trkpt lat="48.883270263672" lon="2.885986328125"><ele>122</ele><time>2026-4-28T20:27:1Z</time></trkpt>
<trkpt lat="48.883304595947" lon="2.8860881328583"><ele>122</ele><time>2026-4-28T20:27:4Z</time></trkpt>
<trkpt lat="48.883304595947" lon="2.8860881328583"><ele>122</ele><time>2026-4-28T20:27:7Z</time></trkpt>
<trkpt lat="48.883335113525" lon="2.8861720561981"><ele>122</ele><time>2026-4-28T20:27:10Z</time></trkpt>
<trkpt lat="48.883365631104" lon="2.886253118515"><ele>122</ele><time>2026-4-28T20:27:13Z</time></trkpt>
<trkpt lat="48.883396148682" lon="2.886335849762"><ele>122</ele><time>2026-4-28T20:27:16Z</time></trkpt>
<trkpt lat="48.883396148682" lon="2.886335849762"><ele>122</ele><time>2026-4-28T20:27:19Z</time></trkpt>
<trkpt lat="48.883396148682" lon="2.886335849762"><ele>122</ele><time>2026-4-28T20:27:22Z</time></trkpt>
<trkpt lat="48.883445739746" lon="2.8864696025848"><ele>122</ele><time>2026-4-28T20:27:25Z</time></trkpt>
<trkpt lat="48.883445739746" lon="2.8864696025848"><ele>122</ele><time>2026-4-28T20:27:28Z</time></trkpt>
<trkpt lat="48.883445739746" lon="2.8864696025848"><ele>122</ele><time>2026-4-28T20:27:31Z</time></trkpt>
<trkpt lat="48.883460998535" lon="2.8866276741028"><ele>122</ele><time>2026-4-28T20:27:34Z</time></trkpt>
<trkpt lat="48.88346862793" lon="2.8867158889771"><ele>122</ele><time>2026-4-28T20:27:37Z</time></trkpt>
<trkpt lat="48.88346862793" lon="2.8867158889771"><ele>122</ele><time>2026-4-28T20:27:40Z</time></trkpt>
<trkpt lat="48.88346862793" lon="2.8867158889771"><ele>122</ele><time>2026-4-28T20:27:43Z</time></trkpt>
<trkpt lat="48.883415222168" lon="2.8868198394775"><ele>122</ele><time>2026-4-28T20:27:46Z</time></trkpt>
<trkpt lat="48.883247375488" lon="2.8868846893311"><ele>120</ele><time>2026-4-28T20:27:49Z</time></trkpt>
<trkpt lat="48.88313293457" lon="2.8869214057922"><ele>119</ele><time>2026-4-28T20:27:52Z</time></trkpt>
<trkpt lat="48.882984161377" lon="2.8869676589966"><ele>118</ele><time>2026-4-28T20:27:55Z</time></trkpt>
<trkpt lat="48.882839202881" lon="2.8870158195496"><ele>116</ele><time>2026-4-28T20:27:58Z</time></trkpt>
<trkpt lat="48.882701873779" lon="2.8870668411255"><ele>114</ele><time>2026-4-28T20:28:1Z</time></trkpt>
<trkpt lat="48.882541656494" lon="2.8871121406555"><ele>113</ele><time>2026-4-28T20:28:4Z</time></trkpt>
<trkpt lat="48.882385253906" lon="2.8871569633484"><ele>113</ele><time>2026-4-28T20:28:7Z</time></trkpt>
<trkpt lat="48.882251739502" lon="2.8872277736664"><ele>112</ele><time>2026-4-28T20:28:10Z</time></trkpt>
<trkpt lat="48.882194519043" lon="2.8873448371887"><ele>111</ele><time>2026-4-28T20:28:13Z</time></trkpt>
<trkpt lat="48.882179260254" lon="2.8874843120575"><ele>110</ele><time>2026-4-28T20:28:16Z</time></trkpt>
<trkpt lat="48.882186889648" lon="2.8876559734344"><ele>110</ele><time>2026-4-28T20:28:19Z</time></trkpt>
<trkpt lat="48.882217407227" lon="2.8877959251404"><ele>110</ele><time>2026-4-28T20:28:22Z</time></trkpt>
<trkpt lat="48.882247924805" lon="2.8879151344299"><ele>110</ele><time>2026-4-28T20:28:25Z</time></trkpt>
<trkpt lat="48.882274627686" lon="2.8880145549774"><ele>110</ele><time>2026-4-28T20:28:28Z</time></trkpt>
<trkpt lat="48.882274627686" lon="2.8880145549774"><ele>110</ele><time>2026-4-28T20:28:31Z</time></trkpt>
<trkpt lat="48.882308959961" lon="2.888174533844"><ele>109</ele><time>2026-4-28T20:28:34Z</time></trkpt>
<trkpt lat="48.882328033447" lon="2.8882803916931"><ele>109</ele><time>2026-4-28T20:28:37Z</time></trkpt>
<trkpt lat="48.88236618042" lon="2.888377904892"><ele>109</ele><time>2026-4-28T20:28:40Z</time></trkpt>
<trkpt lat="48.88240814209" lon="2.8884718418121"><ele>109</ele><time>2026-4-28T20:28:43Z</time></trkpt>
<trkpt lat="48.88245010376" lon="2.888546705246"><ele>109</ele><time>2026-4-28T20:28:46Z</time></trkpt>
<trkpt lat="48.882495880127" lon="2.8886246681213"><ele>109</ele><time>2026-4-28T20:28:49Z</time></trkpt>
<trkpt lat="48.882537841797" lon="2.8886978626251"><ele>109</ele><time>2026-4-28T20:28:52Z</time></trkpt>
<trkpt lat="48.882583618164" lon="2.888774394989"><ele>109</ele><time>2026-4-28T20:28:55Z</time></trkpt>
<trkpt lat="48.882625579834" lon="2.8888535499573"><ele>109</ele><time>2026-4-28T20:28:58Z</time></trkpt>
<trkpt lat="48.882625579834" lon="2.8888535499573"><ele>109</ele><time>2026-4-28T20:29:1Z</time></trkpt>
<trkpt lat="48.882625579834" lon="2.8888535499573"><ele>109</ele><time>2026-4-28T20:29:4Z</time></trkpt>
<trkpt lat="48.882625579834" lon="2.8888535499573"><ele>109</ele><time>2026-4-28T20:29:7Z</time></trkpt>
<trkpt lat="48.882625579834" lon="2.8888535499573"><ele>109</ele><time>2026-4-28T20:29:10Z</time></trkpt>
<trkpt lat="48.882591247559" lon="2.888879776001"><ele>109</ele><time>2026-4-28T20:29:13Z</time></trkpt>
<trkpt lat="48.882553100586" lon="2.8888969421387"><ele>109</ele><time>2026-4-28T20:29:16Z</time></trkpt>
<trkpt lat="48.882553100586" lon="2.8888969421387"><ele>109</ele><time>2026-4-28T20:29:19Z</time></trkpt>
<trkpt lat="48.882553100586" lon="2.8888969421387"><ele>109</ele><time>2026-4-28T20:29:22Z</time></trkpt>
<trkpt lat="48.882553100586" lon="2.8888969421387"><ele>109</ele><time>2026-4-28T20:29:25Z</time></trkpt>
<trkpt lat="48.882553100586" lon="2.8888969421387"><ele>109</ele><time>2026-4-28T20:29:28Z</time></trkpt>
<trkpt lat="48.882553100586" lon="2.8888969421387"><ele>109</ele><time>2026-4-28T20:29:31Z</time></trkpt>
<trkpt lat="48.882553100586" lon="2.8888969421387"><ele>109</ele><time>2026-4-28T20:29:34Z</time></trkpt>
<trkpt lat="48.882484436035" lon="2.8889517784119"><ele>109</ele><time>2026-4-28T20:29:37Z</time></trkpt>
<trkpt lat="48.882484436035" lon="2.8889517784119"><ele>109</ele><time>2026-4-28T20:29:40Z</time></trkpt>
<trkpt lat="48.882404327393" lon="2.8890397548676"><ele>108</ele><time>2026-4-28T20:29:43Z</time></trkpt>
<trkpt lat="48.882404327393" lon="2.8890397548676"><ele>108</ele><time>2026-4-28T20:29:46Z</time></trkpt>
<trkpt lat="48.882404327393" lon="2.8890397548676"><ele>108</ele><time>2026-4-28T20:29:49Z</time></trkpt>
<trkpt lat="48.882362365723" lon="2.8891978263855"><ele>108</ele><time>2026-4-28T20:29:52Z</time></trkpt>
<trkpt lat="48.882362365723" lon="2.8891978263855"><ele>108</ele><time>2026-4-28T20:29:55Z</time></trkpt>
<trkpt lat="48.882362365723" lon="2.8891978263855"><ele>108</ele><time>2026-4-28T20:29:58Z</time></trkpt>
<trkpt lat="48.88232421875" lon="2.8893446922302"><ele>108</ele><time>2026-4-28T20:30:1Z</time></trkpt>
<trkpt lat="48.88228225708" lon="2.8894410133362"><ele>109</ele><time>2026-4-28T20:30:4Z</time></trkpt>
<trkpt lat="48.88228225708" lon="2.8894410133362"><ele>109</ele><time>2026-4-28T20:30:7Z</time></trkpt>
<trkpt lat="48.882213592529" lon="2.8895609378815"><ele>109</ele><time>2026-4-28T20:30:10Z</time></trkpt>
<trkpt lat="48.882213592529" lon="2.8895609378815"><ele>109</ele><time>2026-4-28T20:30:13Z</time></trkpt>
<trkpt lat="48.882164001465" lon="2.8896415233612"><ele>110</ele><time>2026-4-28T20:30:16Z</time></trkpt>
<trkpt lat="48.882164001465" lon="2.8896415233612"><ele>110</ele><time>2026-4-28T20:30:19Z</time></trkpt>
<trkpt lat="48.882209777832" lon="2.8897950649261"><ele>111</ele><time>2026-4-28T20:30:22Z</time></trkpt>
<trkpt lat="48.882244110107" lon="2.8898899555206"><ele>112</ele><time>2026-4-28T20:30:25Z</time></trkpt>
<trkpt lat="48.882270812988" lon="2.8899714946747"><ele>112</ele><time>2026-4-28T20:30:28Z</time></trkpt>
<trkpt lat="48.882301330566" lon="2.8900506496429"><ele>112</ele><time>2026-4-28T20:30:31Z</time></trkpt>
<trkpt lat="48.882301330566" lon="2.8900506496429"><ele>112</ele><time>2026-4-28T20:30:34Z</time></trkpt>
<trkpt lat="48.882354736328" lon="2.8901846408844"><ele>113</ele><time>2026-4-28T20:30:37Z</time></trkpt>
<trkpt lat="48.882377624512" lon="2.8902759552002"><ele>114</ele><time>2026-4-28T20:30:40Z</time></trkpt>
<trkpt lat="48.882377624512" lon="2.8902759552002"><ele>114</ele><time>2026-4-28T20:30:43Z</time></trkpt>
<trkpt lat="48.882415771484" lon="2.8904182910919"><ele>115</ele><time>2026-4-28T20:30:46Z</time></trkpt>
<trkpt lat="48.882415771484" lon="2.8904182910919"><ele>115</ele><time>2026-4-28T20:30:49Z</time></trkpt>
<trkpt lat="48.882415771484" lon="2.8904182910919"><ele>115</ele><time>2026-4-28T20:30:52Z</time></trkpt>
<trkpt lat="48.882419586182" lon="2.8905646800995"><ele>117</ele><time>2026-4-28T20:30:55Z</time></trkpt>
<trkpt lat="48.882419586182" lon="2.8905646800995"><ele>117</ele><time>2026-4-28T20:30:58Z</time></trkpt>
<trkpt lat="48.882419586182" lon="2.8905646800995"><ele>117</ele><time>2026-4-28T20:31:1Z</time></trkpt>
<trkpt lat="48.882419586182" lon="2.8905646800995"><ele>117</ele><time>2026-4-28T20:31:4Z</time></trkpt>
<trkpt lat="48.882301330566" lon="2.8906900882721"><ele>117</ele><time>2026-4-28T20:31:7Z</time></trkpt>
<trkpt lat="48.882175445557" lon="2.8906977176666"><ele>116</ele><time>2026-4-28T20:31:10Z</time></trkpt>
<trkpt lat="48.88204574585" lon="2.8907256126404"><ele>116</ele><time>2026-4-28T20:31:13Z</time></trkpt>
<trkpt lat="48.88204574585" lon="2.8907256126404"><ele>116</ele><time>2026-4-28T20:31:16Z</time></trkpt>
<trkpt lat="48.882038116455" lon="2.8908684253693"><ele>116</ele><time>2026-4-28T20:31:19Z</time></trkpt>
<trkpt lat="48.882061004639" lon="2.890967130661"><ele>116</ele><time>2026-4-28T20:31:22Z</time></trkpt>
<trkpt lat="48.88207244873" lon="2.8910579681396"><ele>116</ele><time>2026-4-28T20:31:25Z</time></trkpt>
<trkpt lat="48.882095336914" lon="2.8911657333374"><ele>116</ele><time>2026-4-28T20:31:28Z</time></trkpt>
<trkpt lat="48.882122039795" lon="2.891250371933"><ele>116</ele><time>2026-4-28T20:31:31Z</time></trkpt>
<trkpt lat="48.882167816162" lon="2.8913555145264"><ele>116</ele><time>2026-4-28T20:31:34Z</time></trkpt>
<trkpt lat="48.882202148438" lon="2.8914701938629"><ele>116</ele><time>2026-4-28T20:31:37Z</time></trkpt>
<trkpt lat="48.882232666016" lon="2.891569852829"><ele>116</ele><time>2026-4-28T20:31:40Z</time></trkpt>
<trkpt lat="48.882266998291" lon="2.8916656970978"><ele>116</ele><time>2026-4-28T20:31:43Z</time></trkpt>
<trkpt lat="48.882301330566" lon="2.8917901515961"><ele>116</ele><time>2026-4-28T20:31:46Z</time></trkpt>
<trkpt lat="48.882343292236" lon="2.8919072151184"><ele>116</ele><time>2026-4-28T20:31:49Z</time></trkpt>
<trkpt lat="48.882381439209" lon="2.8920254707336"><ele>116</ele><time>2026-4-28T20:31:52Z</time></trkpt>
<trkpt lat="48.88240814209" lon="2.8921210765839"><ele>116</ele><time>2026-4-28T20:31:55Z</time></trkpt>
<trkpt lat="48.882427215576" lon="2.8922238349915"><ele>116</ele><time>2026-4-28T20:31:58Z</time></trkpt>
<trkpt lat="48.88245010376" lon="2.8923275470734"><ele>116</ele><time>2026-4-28T20:32:1Z</time></trkpt>
<trkpt lat="48.88245010376" lon="2.8923275470734"><ele>116</ele><time>2026-4-28T20:32:4Z</time></trkpt>
<trkpt lat="48.882511138916" lon="2.8924674987793"><ele>116</ele><time>2026-4-28T20:32:7Z</time></trkpt>
<trkpt lat="48.882511138916" lon="2.8924674987793"><ele>116</ele><time>2026-4-28T20:32:10Z</time></trkpt>
<trkpt lat="48.882564544678" lon="2.8925981521606"><ele>117</ele><time>2026-4-28T20:32:13Z</time></trkpt>
<trkpt lat="48.882564544678" lon="2.8925981521606"><ele>117</ele><time>2026-4-28T20:32:16Z</time></trkpt>
<trkpt lat="48.882614135742" lon="2.8927688598633"><ele>117</ele><time>2026-4-28T20:32:19Z</time></trkpt>
<trkpt lat="48.882663726807" lon="2.8928737640381"><ele>117</ele><time>2026-4-28T20:32:22Z</time></trkpt>
<trkpt lat="48.882705688477" lon="2.8929581642151"><ele>117</ele><time>2026-4-28T20:32:25Z</time></trkpt>
<trkpt lat="48.882705688477" lon="2.8929581642151"><ele>117</ele><time>2026-4-28T20:32:28Z</time></trkpt>
<trkpt lat="48.882705688477" lon="2.8929581642151"><ele>117</ele><time>2026-4-28T20:32:31Z</time></trkpt>
<trkpt lat="48.882781982422" lon="2.8930304050446"><ele>116</ele><time>2026-4-28T20:32:34Z</time></trkpt>
<trkpt lat="48.882781982422" lon="2.8930304050446"><ele>116</ele><time>2026-4-28T20:32:37Z</time></trkpt>
<trkpt lat="48.882835388184" lon="2.8931221961975"><ele>117</ele><time>2026-4-28T20:32:40Z</time></trkpt>
<trkpt lat="48.882862091064" lon="2.893203496933"><ele>117</ele><time>2026-4-28T20:32:43Z</time></trkpt>
<trkpt lat="48.882904052734" lon="2.8933198451996"><ele>117</ele><time>2026-4-28T20:32:46Z</time></trkpt>
<trkpt lat="48.882904052734" lon="2.8933198451996"><ele>117</ele><time>2026-4-28T20:32:49Z</time></trkpt>
<trkpt lat="48.882942199707" lon="2.893387556076"><ele>118</ele><time>2026-4-28T20:32:52Z</time></trkpt>
<trkpt lat="48.882942199707" lon="2.893387556076"><ele>118</ele><time>2026-4-28T20:32:55Z</time></trkpt>
<trkpt lat="48.882991790771" lon="2.8935525417328"><ele>118</ele><time>2026-4-28T20:32:58Z</time></trkpt>
<trkpt lat="48.883029937744" lon="2.8936452865601"><ele>118</ele><time>2026-4-28T20:33:1Z</time></trkpt>
<trkpt lat="48.883071899414" lon="2.893723487854"><ele>118</ele><time>2026-4-28T20:33:4Z</time></trkpt>
<trkpt lat="48.883113861084" lon="2.893812417984"><ele>118</ele><time>2026-4-28T20:33:7Z</time></trkpt>
<trkpt lat="48.883152008057" lon="2.893892288208"><ele>118</ele><time>2026-4-28T20:33:10Z</time></trkpt>
<trkpt lat="48.883193969727" lon="2.8939723968506"><ele>118</ele><time>2026-4-28T20:33:13Z</time></trkpt>
<trkpt lat="48.883193969727" lon="2.8939723968506"><ele>118</ele><time>2026-4-28T20:33:16Z</time></trkpt>
<trkpt lat="48.883243560791" lon="2.8940734863281"><ele>118</ele><time>2026-4-28T20:33:19Z</time></trkpt>
<trkpt lat="48.883243560791" lon="2.8940734863281"><ele>118</ele><time>2026-4-28T20:33:22Z</time></trkpt>
<trkpt lat="48.883262634277" lon="2.8942005634308"><ele>118</ele><time>2026-4-28T20:33:25Z</time></trkpt>
<trkpt lat="48.883262634277" lon="2.8942005634308"><ele>118</ele><time>2026-4-28T20:33:28Z</time></trkpt>
<trkpt lat="48.883235931396" lon="2.8943226337433"><ele>118</ele><time>2026-4-28T20:33:31Z</time></trkpt>
<trkpt lat="48.883235931396" lon="2.8943226337433"><ele>118</ele><time>2026-4-28T20:33:34Z</time></trkpt>
<trkpt lat="48.883171081543" lon="2.8944184780121"><ele>119</ele><time>2026-4-28T20:33:37Z</time></trkpt>
<trkpt lat="48.883171081543" lon="2.8944184780121"><ele>119</ele><time>2026-4-28T20:33:40Z</time></trkpt>
<trkpt lat="48.883171081543" lon="2.8944184780121"><ele>119</ele><time>2026-4-28T20:33:43Z</time></trkpt>
<trkpt lat="48.883113861084" lon="2.8944764137268"><ele>119</ele><time>2026-4-28T20:33:46Z</time></trkpt>
<trkpt lat="48.883079528809" lon="2.8945510387421"><ele>119</ele><time>2026-4-28T20:33:49Z</time></trkpt>
<trkpt lat="48.883079528809" lon="2.8945510387421"><ele>119</ele><time>2026-4-28T20:33:52Z</time></trkpt>
<trkpt lat="48.883041381836" lon="2.8946690559387"><ele>119</ele><time>2026-4-28T20:33:55Z</time></trkpt>
<trkpt lat="48.883041381836" lon="2.8946690559387"><ele>119</ele><time>2026-4-28T20:33:58Z</time></trkpt>
<trkpt lat="48.88298034668" lon="2.8947546482086"><ele>119</ele><time>2026-4-28T20:34:1Z</time></trkpt>
<trkpt lat="48.88298034668" lon="2.8947546482086"><ele>119</ele><time>2026-4-28T20:34:4Z</time></trkpt>
<trkpt lat="48.88298034668" lon="2.8947546482086"><ele>119</ele><time>2026-4-28T20:34:7Z</time></trkpt>
<trkpt lat="48.88298034668" lon="2.8947546482086"><ele>119</ele><time>2026-4-28T20:34:10Z</time></trkpt>
<trkpt lat="48.88293838501" lon="2.8948693275452"><ele>120</ele><time>2026-4-28T20:34:13Z</time></trkpt>
<trkpt lat="48.88293838501" lon="2.8948693275452"><ele>120</ele><time>2026-4-28T20:34:16Z</time></trkpt>
<trkpt lat="48.88293838501" lon="2.8948693275452"><ele>120</ele><time>2026-4-28T20:34:19Z</time></trkpt>
<trkpt lat="48.88293838501" lon="2.8948693275452"><ele>120</ele><time>2026-4-28T20:34:22Z</time></trkpt>
<trkpt lat="48.882915496826" lon="2.894956111908"><ele>120</ele><time>2026-4-28T20:34:25Z</time></trkpt>
<trkpt lat="48.882915496826" lon="2.894956111908"><ele>120</ele><time>2026-4-28T20:34:28Z</time></trkpt>
<trkpt lat="48.882915496826" lon="2.894956111908"><ele>120</ele><time>2026-4-28T20:34:31Z</time></trkpt>
<trkpt lat="48.882888793945" lon="2.8950324058533"><ele>120</ele><time>2026-4-28T20:34:34Z</time></trkpt>
<trkpt lat="48.882888793945" lon="2.8950324058533"><ele>120</ele><time>2026-4-28T20:34:37Z</time></trkpt>
<trkpt lat="48.882862091064" lon="2.8951115608215"><ele>121</ele><time>2026-4-28T20:34:40Z</time></trkpt>
<trkpt lat="48.882862091064" lon="2.8951115608215"><ele>121</ele><time>2026-4-28T20:34:43Z</time></trkpt>
<trkpt lat="48.882850646973" lon="2.8951740264893"><ele>121</ele><time>2026-4-28T20:34:46Z</time></trkpt>
<trkpt lat="48.882850646973" lon="2.8951740264893"><ele>121</ele><time>2026-4-28T20:34:49Z</time></trkpt>
<trkpt lat="48.882843017578" lon="2.8952240943909"><ele>121</ele><time>2026-4-28T20:34:52Z</time></trkpt>
<trkpt lat="48.882831573486" lon="2.8952686786652"><ele>121</ele><time>2026-4-28T20:34:55Z</time></trkpt>
<trkpt lat="48.882823944092" lon="2.8953101634979"><ele>122</ele><time>2026-4-28T20:34:58Z</time></trkpt>
<trkpt lat="48.882823944092" lon="2.8953101634979"><ele>122</ele><time>2026-4-28T20:35:1Z</time></trkpt>
<trkpt lat="48.8828125" lon="2.8953547477722"><ele>122</ele><time>2026-4-28T20:35:4Z</time></trkpt>
<trkpt lat="48.8828125" lon="2.8953547477722"><ele>122</ele><time>2026-4-28T20:35:7Z</time></trkpt>
<trkpt lat="48.882797241211" lon="2.8954703807831"><ele>122</ele><time>2026-4-28T20:35:10Z</time></trkpt>
<trkpt lat="48.882797241211" lon="2.8954703807831"><ele>122</ele><time>2026-4-28T20:35:13Z</time></trkpt>
<trkpt lat="48.882797241211" lon="2.8954703807831"><ele>122</ele><time>2026-4-28T20:35:16Z</time></trkpt>
<trkpt lat="48.882778167725" lon="2.8955566883087"><ele>123</ele><time>2026-4-28T20:35:19Z</time></trkpt>
<trkpt lat="48.882778167725" lon="2.8955566883087"><ele>123</ele><time>2026-4-28T20:35:22Z</time></trkpt>
<trkpt lat="48.882778167725" lon="2.8955566883087"><ele>123</ele><time>2026-4-28T20:35:25Z</time></trkpt>
<trkpt lat="48.882778167725" lon="2.8955566883087"><ele>123</ele><time>2026-4-28T20:35:28Z</time></trkpt>
<trkpt lat="48.882759094238" lon="2.8956661224365"><ele>123</ele><time>2026-4-28T20:35:31Z</time></trkpt>
<trkpt lat="48.882759094238" lon="2.8956661224365"><ele>123</ele><time>2026-4-28T20:35:34Z</time></trkpt>
<trkpt lat="48.882759094238" lon="2.8956661224365"><ele>123</ele><time>2026-4-28T20:35:37Z</time></trkpt>
<trkpt lat="48.882759094238" lon="2.8956661224365"><ele>123</ele><time>2026-4-28T20:35:40Z</time></trkpt>
<trkpt lat="48.882732391357" lon="2.895763874054"><ele>124</ele><time>2026-4-28T20:35:43Z</time></trkpt>
<trkpt lat="48.882732391357" lon="2.895763874054"><ele>124</ele><time>2026-4-28T20:35:46Z</time></trkpt>
<trkpt lat="48.882705688477" lon="2.8958420753479"><ele>125</ele><time>2026-4-28T20:35:49Z</time></trkpt>
<trkpt lat="48.882678985596" lon="2.8959300518036"><ele>125</ele><time>2026-4-28T20:35:52Z</time></trkpt>
<trkpt lat="48.882678985596" lon="2.8959300518036"><ele>125</ele><time>2026-4-28T20:35:55Z</time></trkpt>
<trkpt lat="48.882652282715" lon="2.8960075378418"><ele>126</ele><time>2026-4-28T20:35:58Z</time></trkpt>
<trkpt lat="48.882652282715" lon="2.8960075378418"><ele>126</ele><time>2026-4-28T20:36:1Z</time></trkpt>
<trkpt lat="48.882633209229" lon="2.8960950374603"><ele>126</ele><time>2026-4-28T20:36:4Z</time></trkpt>
<trkpt lat="48.882617950439" lon="2.8962032794952"><ele>127</ele><time>2026-4-28T20:36:7Z</time></trkpt>
<trkpt lat="48.882617950439" lon="2.8962032794952"><ele>127</ele><time>2026-4-28T20:36:10Z</time></trkpt>
<trkpt lat="48.882583618164" lon="2.896303653717"><ele>128</ele><time>2026-4-28T20:36:13Z</time></trkpt>
<trkpt lat="48.882583618164" lon="2.896303653717"><ele>128</ele><time>2026-4-28T20:36:16Z</time></trkpt>
<trkpt lat="48.882556915283" lon="2.8963878154755"><ele>128</ele><time>2026-4-28T20:36:19Z</time></trkpt>
<trkpt lat="48.882530212402" lon="2.8964965343475"><ele>128</ele><time>2026-4-28T20:36:22Z</time></trkpt>
<trkpt lat="48.882530212402" lon="2.8964965343475"><ele>128</ele><time>2026-4-28T20:36:25Z</time></trkpt>
<trkpt lat="48.882499694824" lon="2.8965892791748"><ele>129</ele><time>2026-4-28T20:36:28Z</time></trkpt>
<trkpt lat="48.882499694824" lon="2.8965892791748"><ele>129</ele><time>2026-4-28T20:36:31Z</time></trkpt>
<trkpt lat="48.882465362549" lon="2.8966734409332"><ele>129</ele><time>2026-4-28T20:36:34Z</time></trkpt>
<trkpt lat="48.882411956787" lon="2.8967983722687"><ele>130</ele><time>2026-4-28T20:36:37Z</time></trkpt>
<trkpt lat="48.882411956787" lon="2.8967983722687"><ele>130</ele><time>2026-4-28T20:36:40Z</time></trkpt>
<trkpt lat="48.88236618042" lon="2.8969421386719"><ele>130</ele><time>2026-4-28T20:36:43Z</time></trkpt>
<trkpt lat="48.88236618042" lon="2.8969421386719"><ele>130</ele><time>2026-4-28T20:36:46Z</time></trkpt>
<trkpt lat="48.882316589355" lon="2.8970556259155"><ele>130</ele><time>2026-4-28T20:36:49Z</time></trkpt>
<trkpt lat="48.88228225708" lon="2.8971698284149"><ele>131</ele><time>2026-4-28T20:36:52Z</time></trkpt>
<trkpt lat="48.88228225708" lon="2.8971698284149"><ele>131</ele><time>2026-4-28T20:36:55Z</time></trkpt>
<trkpt lat="48.882251739502" lon="2.8972985744476"><ele>131</ele><time>2026-4-28T20:36:58Z</time></trkpt>
<trkpt lat="48.882251739502" lon="2.8972985744476"><ele>131</ele><time>2026-4-28T20:37:1Z</time></trkpt>
<trkpt lat="48.882225036621" lon="2.8974030017853"><ele>131</ele><time>2026-4-28T20:37:4Z</time></trkpt>
<trkpt lat="48.882225036621" lon="2.8974030017853"><ele>131</ele><time>2026-4-28T20:37:7Z</time></trkpt>
<trkpt lat="48.882202148438" lon="2.8975131511688"><ele>132</ele><time>2026-4-28T20:37:10Z</time></trkpt>
<trkpt lat="48.882202148438" lon="2.8975131511688"><ele>132</ele><time>2026-4-28T20:37:13Z</time></trkpt>
<trkpt lat="48.882202148438" lon="2.8975131511688"><ele>132</ele><time>2026-4-28T20:37:16Z</time></trkpt>
<trkpt lat="48.882183074951" lon="2.8976259231567"><ele>132</ele><time>2026-4-28T20:37:19Z</time></trkpt>
<trkpt lat="48.882183074951" lon="2.8976259231567"><ele>132</ele><time>2026-4-28T20:37:22Z</time></trkpt>
<trkpt lat="48.882183074951" lon="2.8976259231567"><ele>132</ele><time>2026-4-28T20:37:25Z</time></trkpt>
<trkpt lat="48.882183074951" lon="2.8977427482605"><ele>132</ele><time>2026-4-28T20:37:28Z</time></trkpt>
<trkpt lat="48.882183074951" lon="2.8977427482605"><ele>132</ele><time>2026-4-28T20:37:31Z</time></trkpt>
<trkpt lat="48.882183074951" lon="2.897846698761"><ele>133</ele><time>2026-4-28T20:37:34Z</time></trkpt>
<trkpt lat="48.882183074951" lon="2.897846698761"><ele>133</ele><time>2026-4-28T20:37:37Z</time></trkpt>
<trkpt lat="48.882183074951" lon="2.897846698761"><ele>133</ele><time>2026-4-28T20:37:40Z</time></trkpt>
<trkpt lat="48.882183074951" lon="2.897999048233"><ele>134</ele><time>2026-4-28T20:37:43Z</time></trkpt>
<trkpt lat="48.882183074951" lon="2.897999048233"><ele>134</ele><time>2026-4-28T20:37:46Z</time></trkpt>
<trkpt lat="48.882186889648" lon="2.8981554508209"><ele>134</ele><time>2026-4-28T20:37:49Z</time></trkpt>
<trkpt lat="48.882183074951" lon="2.8982934951782"><ele>134</ele><time>2026-4-28T20:37:52Z</time></trkpt>
<trkpt lat="48.882183074951" lon="2.8982934951782"><ele>134</ele><time>2026-4-28T20:37:55Z</time></trkpt>
<trkpt lat="48.882179260254" lon="2.898362159729"><ele>135</ele><time>2026-4-28T20:37:58Z</time></trkpt>
<trkpt lat="48.882179260254" lon="2.8984324932098"><ele>135</ele><time>2026-4-28T20:38:1Z</time></trkpt>
<trkpt lat="48.882179260254" lon="2.8984324932098"><ele>135</ele><time>2026-4-28T20:38:4Z</time></trkpt>
<trkpt lat="48.882179260254" lon="2.8985064029694"><ele>135</ele><time>2026-4-28T20:38:7Z</time></trkpt>
<trkpt lat="48.882179260254" lon="2.898580789566"><ele>135</ele><time>2026-4-28T20:38:10Z</time></trkpt>
<trkpt lat="48.882179260254" lon="2.8986523151398"><ele>136</ele><time>2026-4-28T20:38:13Z</time></trkpt>
<trkpt lat="48.882179260254" lon="2.8986523151398"><ele>136</ele><time>2026-4-28T20:38:16Z</time></trkpt>
<trkpt lat="48.882175445557" lon="2.8987922668457"><ele>136</ele><time>2026-4-28T20:38:19Z</time></trkpt>
<trkpt lat="48.882175445557" lon="2.8989279270172"><ele>136</ele><time>2026-4-28T20:38:22Z</time></trkpt>
<trkpt lat="48.882175445557" lon="2.8989279270172"><ele>136</ele><time>2026-4-28T20:38:25Z</time></trkpt>
<trkpt lat="48.882171630859" lon="2.8990383148193"><ele>137</ele><time>2026-4-28T20:38:28Z</time></trkpt>
<trkpt lat="48.882171630859" lon="2.8990383148193"><ele>137</ele><time>2026-4-28T20:38:31Z</time></trkpt>
<trkpt lat="48.882083892822" lon="2.8990728855133"><ele>137</ele><time>2026-4-28T20:38:34Z</time></trkpt>
<trkpt lat="48.8818359375" lon="2.8989038467407"><ele>137</ele><time>2026-4-28T20:38:37Z</time></trkpt>
<trkpt lat="48.881717681885" lon="2.8988184928894"><ele>136</ele><time>2026-4-28T20:38:40Z</time></trkpt>
<trkpt lat="48.881553649902" lon="2.8987092971802"><ele>134</ele><time>2026-4-28T20:38:43Z</time></trkpt>
<trkpt lat="48.88138961792" lon="2.8986072540283"><ele>133</ele><time>2026-4-28T20:38:46Z</time></trkpt>
<trkpt lat="48.881256103516" lon="2.8985261917114"><ele>131</ele><time>2026-4-28T20:38:49Z</time></trkpt>
<trkpt lat="48.881156921387" lon="2.8984694480896"><ele>129</ele><time>2026-4-28T20:38:52Z</time></trkpt>
<trkpt lat="48.881080627441" lon="2.8984227180481"><ele>128</ele><time>2026-4-28T20:38:55Z</time></trkpt>
<trkpt lat="48.881080627441" lon="2.8984227180481"><ele>128</ele><time>2026-4-28T20:38:58Z</time></trkpt>
<trkpt lat="48.881011962891" lon="2.8983938694"><ele>128</ele><time>2026-4-28T20:39:1Z</time></trkpt>
<trkpt lat="48.881011962891" lon="2.8983938694"><ele>128</ele><time>2026-4-28T20:39:4Z</time></trkpt>
<trkpt lat="48.881011962891" lon="2.8983938694"><ele>128</ele><time>2026-4-28T20:39:7Z</time></trkpt>
<trkpt lat="48.881011962891" lon="2.8983938694"><ele>128</ele><time>2026-4-28T20:39:10Z</time></trkpt>
<trkpt lat="48.881011962891" lon="2.8983938694"><ele>128</ele><time>2026-4-28T20:39:13Z</time></trkpt>
<trkpt lat="48.881011962891" lon="2.8983938694"><ele>128</ele><time>2026-4-28T20:39:16Z</time></trkpt>
<trkpt lat="48.881011962891" lon="2.8983938694"><ele>128</ele><time>2026-4-28T20:39:19Z</time></trkpt>
<trkpt lat="48.881011962891" lon="2.8983938694"><ele>128</ele><time>2026-4-28T20:39:22Z</time></trkpt>
<trkpt lat="48.881011962891" lon="2.8983938694"><ele>128</ele><time>2026-4-28T20:39:25Z</time></trkpt>
<trkpt lat="48.881011962891" lon="2.8983938694"><ele>128</ele><time>2026-4-28T20:39:28Z</time></trkpt>
<trkpt lat="48.881011962891" lon="2.8983938694"><ele>128</ele><time>2026-4-28T20:39:31Z</time></trkpt>
<trkpt lat="48.881011962891" lon="2.8983938694"><ele>128</ele><time>2026-4-28T20:39:34Z</time></trkpt>
<trkpt lat="48.881011962891" lon="2.8983938694"><ele>128</ele><time>2026-4-28T20:39:37Z</time></trkpt>
<trkpt lat="48.880924224854" lon="2.8983182907104"><ele>128</ele><time>2026-4-28T20:39:40Z</time></trkpt>
<trkpt lat="48.880924224854" lon="2.8983182907104"><ele>128</ele><time>2026-4-28T20:39:43Z</time></trkpt>
<trkpt lat="48.880836486816" lon="2.898289680481"><ele>128</ele><time>2026-4-28T20:39:46Z</time></trkpt>
<trkpt lat="48.880836486816" lon="2.898289680481"><ele>128</ele><time>2026-4-28T20:39:49Z</time></trkpt>
<trkpt lat="48.880767822266" lon="2.8982741832733"><ele>129</ele><time>2026-4-28T20:39:52Z</time></trkpt>
<trkpt lat="48.880767822266" lon="2.8982741832733"><ele>129</ele><time>2026-4-28T20:39:55Z</time></trkpt>
<trkpt lat="48.880767822266" lon="2.8982741832733"><ele>129</ele><time>2026-4-28T20:39:58Z</time></trkpt>
<trkpt lat="48.880767822266" lon="2.8982741832733"><ele>129</ele><time>2026-4-28T20:40:1Z</time></trkpt>
<trkpt lat="48.880767822266" lon="2.8982741832733"><ele>129</ele><time>2026-4-28T20:40:4Z</time></trkpt>
<trkpt lat="48.880767822266" lon="2.8982741832733"><ele>129</ele><time>2026-4-28T20:40:7Z</time></trkpt>
<trkpt lat="48.880767822266" lon="2.8982741832733"><ele>129</ele><time>2026-4-28T20:40:10Z</time></trkpt>
<trkpt lat="48.880672454834" lon="2.8982212543488"><ele>132</ele><time>2026-4-28T20:40:13Z</time></trkpt>
<trkpt lat="48.880672454834" lon="2.8982212543488"><ele>132</ele><time>2026-4-28T20:40:16Z</time></trkpt>
<trkpt lat="48.880672454834" lon="2.8982212543488"><ele>132</ele><time>2026-4-28T20:40:19Z</time></trkpt>
<trkpt lat="48.880599975586" lon="2.8981876373291"><ele>133</ele><time>2026-4-28T20:40:22Z</time></trkpt>
<trkpt lat="48.880599975586" lon="2.8981876373291"><ele>133</ele><time>2026-4-28T20:40:25Z</time></trkpt>
<trkpt lat="48.880599975586" lon="2.8981876373291"><ele>133</ele><time>2026-4-28T20:40:28Z</time></trkpt>
<trkpt lat="48.880599975586" lon="2.8981876373291"><ele>133</ele><time>2026-4-28T20:40:31Z</time></trkpt>
<trkpt lat="48.880500793457" lon="2.8981695175171"><ele>136</ele><time>2026-4-28T20:40:34Z</time></trkpt>
<trkpt lat="48.880500793457" lon="2.8981695175171"><ele>136</ele><time>2026-4-28T20:40:37Z</time></trkpt>
<trkpt lat="48.880500793457" lon="2.8981695175171"><ele>136</ele><time>2026-4-28T20:40:40Z</time></trkpt>
<trkpt lat="48.880500793457" lon="2.8981695175171"><ele>136</ele><time>2026-4-28T20:40:43Z</time></trkpt>
<trkpt lat="48.880401611328" lon="2.8981564044952"><ele>136</ele><time>2026-4-28T20:40:46Z</time></trkpt>
<trkpt lat="48.880401611328" lon="2.8981564044952"><ele>136</ele><time>2026-4-28T20:40:49Z</time></trkpt>
<trkpt lat="48.880401611328" lon="2.8981564044952"><ele>136</ele><time>2026-4-28T20:40:52Z</time></trkpt>
<trkpt lat="48.880401611328" lon="2.8981564044952"><ele>136</ele><time>2026-4-28T20:40:55Z</time></trkpt>
<trkpt lat="48.880310058594" lon="2.8981935977936"><ele>137</ele><time>2026-4-28T20:40:58Z</time></trkpt>
<trkpt lat="48.880310058594" lon="2.8981935977936"><ele>137</ele><time>2026-4-28T20:41:1Z</time></trkpt>
<trkpt lat="48.880237579346" lon="2.8982253074646"><ele>137</ele><time>2026-4-28T20:41:4Z</time></trkpt>
<trkpt lat="48.880237579346" lon="2.8982253074646"><ele>137</ele><time>2026-4-28T20:41:7Z</time></trkpt>
<trkpt lat="48.880176544189" lon="2.8982253074646"><ele>138</ele><time>2026-4-28T20:41:10Z</time></trkpt>
<trkpt lat="48.880176544189" lon="2.8982253074646"><ele>138</ele><time>2026-4-28T20:41:13Z</time></trkpt>
<trkpt lat="48.880176544189" lon="2.8982253074646"><ele>138</ele><time>2026-4-28T20:41:16Z</time></trkpt>
<trkpt lat="48.880176544189" lon="2.8982253074646"><ele>138</ele><time>2026-4-28T20:41:19Z</time></trkpt>
<trkpt lat="48.880176544189" lon="2.8982253074646"><ele>138</ele><time>2026-4-28T20:41:22Z</time></trkpt>
<trkpt lat="48.880084991455" lon="2.8982112407684"><ele>139</ele><time>2026-4-28T20:41:25Z</time></trkpt>
<trkpt lat="48.88000869751" lon="2.8982157707214"><ele>140</ele><time>2026-4-28T20:41:28Z</time></trkpt>
<trkpt lat="48.88000869751" lon="2.8982157707214"><ele>140</ele><time>2026-4-28T20:41:31Z</time></trkpt>
<trkpt lat="48.879947662354" lon="2.898211479187"><ele>140</ele><time>2026-4-28T20:41:34Z</time></trkpt>
<trkpt lat="48.879947662354" lon="2.898211479187"><ele>140</ele><time>2026-4-28T20:41:37Z</time></trkpt>
<trkpt lat="48.879947662354" lon="2.898211479187"><ele>140</ele><time>2026-4-28T20:41:40Z</time></trkpt>
<trkpt lat="48.879947662354" lon="2.898211479187"><ele>140</ele><time>2026-4-28T20:41:43Z</time></trkpt>
<trkpt lat="48.879886627197" lon="2.89817070961"><ele>140</ele><time>2026-4-28T20:41:46Z</time></trkpt>
<trkpt lat="48.879886627197" lon="2.89817070961"><ele>140</ele><time>2026-4-28T20:41:49Z</time></trkpt>
<trkpt lat="48.879886627197" lon="2.89817070961"><ele>140</ele><time>2026-4-28T20:41:52Z</time></trkpt>
<trkpt lat="48.87984085083" lon="2.8981101512909"><ele>140</ele><time>2026-4-28T20:41:55Z</time></trkpt>
<trkpt lat="48.879817962646" lon="2.8980147838593"><ele>140</ele><time>2026-4-28T20:41:58Z</time></trkpt>
<trkpt lat="48.879817962646" lon="2.8980147838593"><ele>140</ele><time>2026-4-28T20:42:1Z</time></trkpt>
<trkpt lat="48.879817962646" lon="2.8980147838593"><ele>140</ele><time>2026-4-28T20:42:4Z</time></trkpt>
<trkpt lat="48.879817962646" lon="2.8980147838593"><ele>140</ele><time>2026-4-28T20:42:7Z</time></trkpt>
<trkpt lat="48.879844665527" lon="2.8978481292725"><ele>140</ele><time>2026-4-28T20:42:10Z</time></trkpt>
<trkpt lat="48.879844665527" lon="2.8978481292725"><ele>140</ele><time>2026-4-28T20:42:13Z</time></trkpt>
<trkpt lat="48.879890441895" lon="2.8977539539337"><ele>140</ele><time>2026-4-28T20:42:16Z</time></trkpt>
<trkpt lat="48.879890441895" lon="2.8977539539337"><ele>140</ele><time>2026-4-28T20:42:19Z</time></trkpt>
<trkpt lat="48.87992477417" lon="2.8976743221283"><ele>139</ele><time>2026-4-28T20:42:22Z</time></trkpt>
<trkpt lat="48.87992477417" lon="2.8976743221283"><ele>139</ele><time>2026-4-28T20:42:25Z</time></trkpt>
<trkpt lat="48.87992477417" lon="2.8976743221283"><ele>139</ele><time>2026-4-28T20:42:28Z</time></trkpt>
<trkpt lat="48.87992477417" lon="2.8976743221283"><ele>139</ele><time>2026-4-28T20:42:31Z</time></trkpt>
<trkpt lat="48.87992477417" lon="2.8976743221283"><ele>139</ele><time>2026-4-28T20:42:34Z</time></trkpt>
<trkpt lat="48.879928588867" lon="2.8974869251251"><ele>140</ele><time>2026-4-28T20:42:37Z</time></trkpt>
<trkpt lat="48.879917144775" lon="2.8973515033722"><ele>140</ele><time>2026-4-28T20:42:40Z</time></trkpt>
<trkpt lat="48.879886627197" lon="2.8972399234772"><ele>140</ele><time>2026-4-28T20:42:43Z</time></trkpt>
<trkpt lat="48.879844665527" lon="2.89714884758"><ele>141</ele><time>2026-4-28T20:42:46Z</time></trkpt>
<trkpt lat="48.879802703857" lon="2.8970832824707"><ele>141</ele><time>2026-4-28T20:42:49Z</time></trkpt>
<trkpt lat="48.879722595215" lon="2.8969857692719"><ele>141</ele><time>2026-4-28T20:42:52Z</time></trkpt>
<trkpt lat="48.879722595215" lon="2.8969857692719"><ele>141</ele><time>2026-4-28T20:42:55Z</time></trkpt>
<trkpt lat="48.879661560059" lon="2.8969130516052"><ele>142</ele><time>2026-4-28T20:42:58Z</time></trkpt>
<trkpt lat="48.879661560059" lon="2.8969130516052"><ele>142</ele><time>2026-4-28T20:43:1Z</time></trkpt>
<trkpt lat="48.879592895508" lon="2.8968551158905"><ele>143</ele><time>2026-4-28T20:43:4Z</time></trkpt>
<trkpt lat="48.879592895508" lon="2.8968551158905"><ele>143</ele><time>2026-4-28T20:43:7Z</time></trkpt>
<trkpt lat="48.879543304443" lon="2.8967914581299"><ele>143</ele><time>2026-4-28T20:43:10Z</time></trkpt>
<trkpt lat="48.879543304443" lon="2.8967914581299"><ele>143</ele><time>2026-4-28T20:43:13Z</time></trkpt>
<trkpt lat="48.879489898682" lon="2.8967483043671"><ele>144</ele><time>2026-4-28T20:43:16Z</time></trkpt>
<trkpt lat="48.879489898682" lon="2.8967483043671"><ele>144</ele><time>2026-4-28T20:43:19Z</time></trkpt>
<trkpt lat="48.879405975342" lon="2.8966875076294"><ele>144</ele><time>2026-4-28T20:43:22Z</time></trkpt>
<trkpt lat="48.879405975342" lon="2.8966875076294"><ele>144</ele><time>2026-4-28T20:43:25Z</time></trkpt>
<trkpt lat="48.879405975342" lon="2.8966875076294"><ele>144</ele><time>2026-4-28T20:43:28Z</time></trkpt>
<trkpt lat="48.879314422607" lon="2.8966498374939"><ele>144</ele><time>2026-4-28T20:43:31Z</time></trkpt>
<trkpt lat="48.879234313965" lon="2.8966116905212"><ele>145</ele><time>2026-4-28T20:43:34Z</time></trkpt>
<trkpt lat="48.879234313965" lon="2.8966116905212"><ele>145</ele><time>2026-4-28T20:43:37Z</time></trkpt>
<trkpt lat="48.879177093506" lon="2.8965859413147"><ele>145</ele><time>2026-4-28T20:43:40Z</time></trkpt>
<trkpt lat="48.879177093506" lon="2.8965859413147"><ele>145</ele><time>2026-4-28T20:43:43Z</time></trkpt>
<trkpt lat="48.879177093506" lon="2.8965859413147"><ele>145</ele><time>2026-4-28T20:43:46Z</time></trkpt>
<trkpt lat="48.879108428955" lon="2.8965599536896"><ele>146</ele><time>2026-4-28T20:43:49Z</time></trkpt>
<trkpt lat="48.879108428955" lon="2.8965599536896"><ele>146</ele><time>2026-4-28T20:43:52Z</time></trkpt>
<trkpt lat="48.879039764404" lon="2.896523475647"><ele>146</ele><time>2026-4-28T20:43:55Z</time></trkpt>
<trkpt lat="48.879039764404" lon="2.896523475647"><ele>146</ele><time>2026-4-28T20:43:58Z</time></trkpt>
<trkpt lat="48.878974914551" lon="2.8964698314667"><ele>147</ele><time>2026-4-28T20:44:1Z</time></trkpt>
<trkpt lat="48.878974914551" lon="2.8964698314667"><ele>147</ele><time>2026-4-28T20:44:4Z</time></trkpt>
<trkpt lat="48.878974914551" lon="2.8964698314667"><ele>147</ele><time>2026-4-28T20:44:7Z</time></trkpt>
<trkpt lat="48.878974914551" lon="2.8964698314667"><ele>147</ele><time>2026-4-28T20:44:10Z</time></trkpt>
<trkpt lat="48.878974914551" lon="2.8964698314667"><ele>147</ele><time>2026-4-28T20:44:13Z</time></trkpt>
<trkpt lat="48.878974914551" lon="2.8964698314667"><ele>147</ele><time>2026-4-28T20:44:16Z</time></trkpt>
<trkpt lat="48.878711700439" lon="2.8962504863739"><ele>148</ele><time>2026-4-28T20:44:19Z</time></trkpt>
<trkpt lat="48.878711700439" lon="2.8962504863739"><ele>148</ele><time>2026-4-28T20:44:22Z</time></trkpt>
<trkpt lat="48.878623962402" lon="2.8961856365204"><ele>148</ele><time>2026-4-28T20:44:25Z</time></trkpt>
<trkpt lat="48.878623962402" lon="2.8961856365204"><ele>148</ele><time>2026-4-28T20:44:28Z</time></trkpt>
<trkpt lat="48.878623962402" lon="2.8961856365204"><ele>148</ele><time>2026-4-28T20:44:31Z</time></trkpt>
<trkpt lat="48.878559112549" lon="2.8962149620056"><ele>148</ele><time>2026-4-28T20:44:34Z</time></trkpt>
<trkpt lat="48.878559112549" lon="2.8962149620056"><ele>148</ele><time>2026-4-28T20:44:37Z</time></trkpt>
<trkpt lat="48.878490447998" lon="2.8962707519531"><ele>148</ele><time>2026-4-28T20:44:40Z</time></trkpt>
<trkpt lat="48.878490447998" lon="2.8962707519531"><ele>148</ele><time>2026-4-28T20:44:43Z</time></trkpt>
<trkpt lat="48.878490447998" lon="2.8962707519531"><ele>148</ele><time>2026-4-28T20:44:46Z</time></trkpt>
<trkpt lat="48.878421783447" lon="2.8963143825531"><ele>148</ele><time>2026-4-28T20:44:49Z</time></trkpt>
<trkpt lat="48.878372192383" lon="2.8963589668274"><ele>148</ele><time>2026-4-28T20:44:52Z</time></trkpt>
<trkpt lat="48.878330230713" lon="2.8964369297028"><ele>148</ele><time>2026-4-28T20:44:55Z</time></trkpt>
<trkpt lat="48.878330230713" lon="2.8964369297028"><ele>148</ele><time>2026-4-28T20:44:58Z</time></trkpt>
<trkpt lat="48.878303527832" lon="2.8964684009552"><ele>148</ele><time>2026-4-28T20:45:1Z</time></trkpt>
<trkpt lat="48.878280639648" lon="2.8964953422546"><ele>148</ele><time>2026-4-28T20:45:4Z</time></trkpt>
<trkpt lat="48.87825012207" lon="2.896520614624"><ele>148</ele><time>2026-4-28T20:45:7Z</time></trkpt>
<trkpt lat="48.878219604492" lon="2.8965449333191"><ele>148</ele><time>2026-4-28T20:45:10Z</time></trkpt>
<trkpt lat="48.878219604492" lon="2.8965449333191"><ele>148</ele><time>2026-4-28T20:45:13Z</time></trkpt>
<trkpt lat="48.878219604492" lon="2.8965449333191"><ele>148</ele><time>2026-4-28T20:45:16Z</time></trkpt>
<trkpt lat="48.878219604492" lon="2.8965449333191"><ele>148</ele><time>2026-4-28T20:45:19Z</time></trkpt>
<trkpt lat="48.878219604492" lon="2.8965449333191"><ele>148</ele><time>2026-4-28T20:45:22Z</time></trkpt>
<trkpt lat="48.878219604492" lon="2.8965449333191"><ele>148</ele><time>2026-4-28T20:45:25Z</time></trkpt>
<trkpt lat="48.878219604492" lon="2.8965449333191"><ele>148</ele><time>2026-4-28T20:45:28Z</time></trkpt>
<trkpt lat="48.878219604492" lon="2.8965449333191"><ele>148</ele><time>2026-4-28T20:45:31Z</time></trkpt>
<trkpt lat="48.878219604492" lon="2.8965449333191"><ele>148</ele><time>2026-4-28T20:45:34Z</time></trkpt>
<trkpt lat="48.878219604492" lon="2.8965449333191"><ele>148</ele><time>2026-4-28T20:45:37Z</time></trkpt>
<trkpt lat="48.878219604492" lon="2.8965449333191"><ele>148</ele><time>2026-4-28T20:45:40Z</time></trkpt>
<trkpt lat="48.878219604492" lon="2.8965449333191"><ele>148</ele><time>2026-4-28T20:45:43Z</time></trkpt>
<trkpt lat="48.878219604492" lon="2.8965449333191"><ele>148</ele><time>2026-4-28T20:45:46Z</time></trkpt>
<trkpt lat="48.878219604492" lon="2.8965449333191"><ele>148</ele><time>2026-4-28T20:45:49Z</time></trkpt>
<trkpt lat="48.878219604492" lon="2.8965449333191"><ele>148</ele><time>2026-4-28T20:45:52Z</time></trkpt>
<trkpt lat="48.878219604492" lon="2.8965449333191"><ele>148</ele><time>2026-4-28T20:45:55Z</time></trkpt>
<trkpt lat="48.87818145752" lon="2.8966307640076"><ele>148</ele><time>2026-4-28T20:45:58Z</time></trkpt>
<trkpt lat="48.87818145752" lon="2.8966307640076"><ele>148</ele><time>2026-4-28T20:46:1Z</time></trkpt>
<trkpt lat="48.878219604492" lon="2.8965797424316"><ele>148</ele><time>2026-4-28T20:46:4Z</time></trkpt>
<trkpt lat="48.878265380859" lon="2.8965365886688"><ele>149</ele><time>2026-4-28T20:46:7Z</time></trkpt>
<trkpt lat="48.878311157227" lon="2.8965170383453"><ele>149</ele><time>2026-4-28T20:46:10Z</time></trkpt>
<trkpt lat="48.878311157227" lon="2.8965170383453"><ele>149</ele><time>2026-4-28T20:46:13Z</time></trkpt>
<trkpt lat="48.878311157227" lon="2.8965170383453"><ele>149</ele><time>2026-4-28T20:46:16Z</time></trkpt>
<trkpt lat="48.878311157227" lon="2.8965170383453"><ele>149</ele><time>2026-4-28T20:46:19Z</time></trkpt>
<trkpt lat="48.878311157227" lon="2.8965170383453"><ele>149</ele><time>2026-4-28T20:46:22Z</time></trkpt>
<trkpt lat="48.878311157227" lon="2.8965170383453"><ele>149</ele><time>2026-4-28T20:46:25Z</time></trkpt>
<trkpt lat="48.878311157227" lon="2.8965170383453"><ele>149</ele><time>2026-4-28T20:46:28Z</time></trkpt>
<trkpt lat="48.878311157227" lon="2.8965170383453"><ele>149</ele><time>2026-4-28T20:46:31Z</time></trkpt>
<trkpt lat="48.878368377686" lon="2.8966388702393"><ele>151</ele><time>2026-4-28T20:46:34Z</time></trkpt>
<trkpt lat="48.878391265869" lon="2.8967652320862"><ele>151</ele><time>2026-4-28T20:46:37Z</time></trkpt>
<trkpt lat="48.878391265869" lon="2.8967652320862"><ele>151</ele><time>2026-4-28T20:46:40Z</time></trkpt>
<trkpt lat="48.878391265869" lon="2.8968856334686"><ele>150</ele><time>2026-4-28T20:46:43Z</time></trkpt>
<trkpt lat="48.878372192383" lon="2.8970022201538"><ele>150</ele><time>2026-4-28T20:46:46Z</time></trkpt>
<trkpt lat="48.878349304199" lon="2.8971259593964"><ele>150</ele><time>2026-4-28T20:46:49Z</time></trkpt>
<trkpt lat="48.878349304199" lon="2.8971259593964"><ele>150</ele><time>2026-4-28T20:46:52Z</time></trkpt>
<trkpt lat="48.878295898438" lon="2.8973829746246"><ele>150</ele><time>2026-4-28T20:46:55Z</time></trkpt>
<trkpt lat="48.878284454346" lon="2.897513628006"><ele>150</ele><time>2026-4-28T20:46:58Z</time></trkpt>
<trkpt lat="48.878273010254" lon="2.8976547718048"><ele>150</ele><time>2026-4-28T20:47:1Z</time></trkpt>
<trkpt lat="48.878273010254" lon="2.8976547718048"><ele>150</ele><time>2026-4-28T20:47:4Z</time></trkpt>
<trkpt lat="48.878257751465" lon="2.897798538208"><ele>150</ele><time>2026-4-28T20:47:7Z</time></trkpt>
<trkpt lat="48.878238677979" lon="2.8979465961456"><ele>149</ele><time>2026-4-28T20:47:10Z</time></trkpt>
<trkpt lat="48.878215789795" lon="2.8980796337128"><ele>150</ele><time>2026-4-28T20:47:13Z</time></trkpt>
<trkpt lat="48.878215789795" lon="2.8980796337128"><ele>150</ele><time>2026-4-28T20:47:16Z</time></trkpt>
<trkpt lat="48.878196716309" lon="2.8982200622559"><ele>150</ele><time>2026-4-28T20:47:19Z</time></trkpt>
<trkpt lat="48.87818145752" lon="2.8983654975891"><ele>149</ele><time>2026-4-28T20:47:22Z</time></trkpt>
<trkpt lat="48.87816619873" lon="2.8984696865082"><ele>149</ele><time>2026-4-28T20:47:25Z</time></trkpt>
<trkpt lat="48.87816619873" lon="2.8984696865082"><ele>149</ele><time>2026-4-28T20:47:28Z</time></trkpt>
<trkpt lat="48.878150939941" lon="2.8985977172852"><ele>150</ele><time>2026-4-28T20:47:31Z</time></trkpt>
<trkpt lat="48.87813949585" lon="2.8986921310425"><ele>150</ele><time>2026-4-28T20:47:34Z</time></trkpt>
<trkpt lat="48.878124237061" lon="2.8988325595856"><ele>149</ele><time>2026-4-28T20:47:37Z</time></trkpt>
<trkpt lat="48.878124237061" lon="2.8988325595856"><ele>149</ele><time>2026-4-28T20:47:40Z</time></trkpt>
<trkpt lat="48.878112792969" lon="2.8989462852478"><ele>149</ele><time>2026-4-28T20:47:43Z</time></trkpt>
<trkpt lat="48.87809753418" lon="2.8990874290466"><ele>149</ele><time>2026-4-28T20:47:46Z</time></trkpt>
<trkpt lat="48.878086090088" lon="2.899228811264"><ele>149</ele><time>2026-4-28T20:47:49Z</time></trkpt>
<trkpt lat="48.878086090088" lon="2.899228811264"><ele>149</ele><time>2026-4-28T20:47:52Z</time></trkpt>
<trkpt lat="48.878074645996" lon="2.8993446826935"><ele>148</ele><time>2026-4-28T20:47:55Z</time></trkpt>
<trkpt lat="48.878067016602" lon="2.8994843959808"><ele>148</ele><time>2026-4-28T20:47:58Z</time></trkpt>
<trkpt lat="48.878059387207" lon="2.8995907306671"><ele>148</ele><time>2026-4-28T20:48:1Z</time></trkpt>
<trkpt lat="48.878059387207" lon="2.8995907306671"><ele>148</ele><time>2026-4-28T20:48:4Z</time></trkpt>
<trkpt lat="48.878051757812" lon="2.899688243866"><ele>148</ele><time>2026-4-28T20:48:7Z</time></trkpt>
<trkpt lat="48.878047943115" lon="2.8997874259949"><ele>148</ele><time>2026-4-28T20:48:10Z</time></trkpt>
<trkpt lat="48.878044128418" lon="2.8998937606812"><ele>148</ele><time>2026-4-28T20:48:13Z</time></trkpt>
<trkpt lat="48.878044128418" lon="2.8998937606812"><ele>148</ele><time>2026-4-28T20:48:16Z</time></trkpt>
<trkpt lat="48.878040313721" lon="2.8999817371368"><ele>148</ele><time>2026-4-28T20:48:19Z</time></trkpt>
<trkpt lat="48.878040313721" lon="2.8999817371368"><ele>148</ele><time>2026-4-28T20:48:22Z</time></trkpt>
<trkpt lat="48.878028869629" lon="2.9001746177673"><ele>148</ele><time>2026-4-28T20:48:25Z</time></trkpt>
<trkpt lat="48.878028869629" lon="2.9001746177673"><ele>148</ele><time>2026-4-28T20:48:28Z</time></trkpt>
<trkpt lat="48.878036499023" lon="2.900265455246"><ele>148</ele><time>2026-4-28T20:48:31Z</time></trkpt>
<trkpt lat="48.878036499023" lon="2.900265455246"><ele>148</ele><time>2026-4-28T20:48:34Z</time></trkpt>
<trkpt lat="48.878032684326" lon="2.9004185199738"><ele>148</ele><time>2026-4-28T20:48:37Z</time></trkpt>
<trkpt lat="48.878032684326" lon="2.9004185199738"><ele>148</ele><time>2026-4-28T20:48:40Z</time></trkpt>
<trkpt lat="48.878032684326" lon="2.9004185199738"><ele>148</ele><time>2026-4-28T20:48:43Z</time></trkpt>
<trkpt lat="48.878025054932" lon="2.9005579948425"><ele>149</ele><time>2026-4-28T20:48:46Z</time></trkpt>
<trkpt lat="48.878025054932" lon="2.9005579948425"><ele>149</ele><time>2026-4-28T20:48:49Z</time></trkpt>
<trkpt lat="48.878025054932" lon="2.9005579948425"><ele>149</ele><time>2026-4-28T20:48:52Z</time></trkpt>
<trkpt lat="48.87801361084" lon="2.9007053375244"><ele>149</ele><time>2026-4-28T20:48:55Z</time></trkpt>
<trkpt lat="48.87801361084" lon="2.9007053375244"><ele>149</ele><time>2026-4-28T20:48:58Z</time></trkpt>
<trkpt lat="48.878009796143" lon="2.9008772373199"><ele>149</ele><time>2026-4-28T20:49:1Z</time></trkpt>
<trkpt lat="48.878009796143" lon="2.9008772373199"><ele>149</ele><time>2026-4-28T20:49:4Z</time></trkpt>
<trkpt lat="48.878009796143" lon="2.9008772373199"><ele>149</ele><time>2026-4-28T20:49:7Z</time></trkpt>
<trkpt lat="48.878002166748" lon="2.9010467529297"><ele>149</ele><time>2026-4-28T20:49:10Z</time></trkpt>
<trkpt lat="48.878002166748" lon="2.9010467529297"><ele>149</ele><time>2026-4-28T20:49:13Z</time></trkpt>
<trkpt lat="48.878002166748" lon="2.9010467529297"><ele>149</ele><time>2026-4-28T20:49:16Z</time></trkpt>
<trkpt lat="48.877990722656" lon="2.9011843204498"><ele>149</ele><time>2026-4-28T20:49:19Z</time></trkpt>
<trkpt lat="48.877990722656" lon="2.9011843204498"><ele>149</ele><time>2026-4-28T20:49:22Z</time></trkpt>
<trkpt lat="48.877975463867" lon="2.9013295173645"><ele>149</ele><time>2026-4-28T20:49:25Z</time></trkpt>
<trkpt lat="48.877975463867" lon="2.9013295173645"><ele>149</ele><time>2026-4-28T20:49:28Z</time></trkpt>
<trkpt lat="48.877975463867" lon="2.9013295173645"><ele>149</ele><time>2026-4-28T20:49:31Z</time></trkpt>
<trkpt lat="48.877964019775" lon="2.9014661312103"><ele>149</ele><time>2026-4-28T20:49:34Z</time></trkpt>
<trkpt lat="48.877964019775" lon="2.9014661312103"><ele>149</ele><time>2026-4-28T20:49:37Z</time></trkpt>
<trkpt lat="48.877964019775" lon="2.9014661312103"><ele>149</ele><time>2026-4-28T20:49:40Z</time></trkpt>
<trkpt lat="48.877956390381" lon="2.9016046524048"><ele>149</ele><time>2026-4-28T20:49:43Z</time></trkpt>
<trkpt lat="48.877948760986" lon="2.9016969203949"><ele>149</ele><time>2026-4-28T20:49:46Z</time></trkpt>
<trkpt lat="48.877948760986" lon="2.9016969203949"><ele>149</ele><time>2026-4-28T20:49:49Z</time></trkpt>
<trkpt lat="48.877937316895" lon="2.9018402099609"><ele>149</ele><time>2026-4-28T20:49:52Z</time></trkpt>
<trkpt lat="48.8779296875" lon="2.9019701480865"><ele>149</ele><time>2026-4-28T20:49:55Z</time></trkpt>
<trkpt lat="48.8779296875" lon="2.9019701480865"><ele>149</ele><time>2026-4-28T20:49:58Z</time></trkpt>
<trkpt lat="48.877925872803" lon="2.9021084308624"><ele>149</ele><time>2026-4-28T20:50:1Z</time></trkpt>
<trkpt lat="48.877925872803" lon="2.9021084308624"><ele>149</ele><time>2026-4-28T20:50:4Z</time></trkpt>
<trkpt lat="48.877925872803" lon="2.9021084308624"><ele>149</ele><time>2026-4-28T20:50:7Z</time></trkpt>
<trkpt lat="48.877922058105" lon="2.9022347927094"><ele>150</ele><time>2026-4-28T20:50:10Z</time></trkpt>
<trkpt lat="48.877922058105" lon="2.9022347927094"><ele>150</ele><time>2026-4-28T20:50:13Z</time></trkpt>
<trkpt lat="48.877895355225" lon="2.9023277759552"><ele>150</ele><time>2026-4-28T20:50:16Z</time></trkpt>
<trkpt lat="48.877895355225" lon="2.9023277759552"><ele>150</ele><time>2026-4-28T20:50:19Z</time></trkpt>
<trkpt lat="48.8779296875" lon="2.9022128582001"><ele>150</ele><time>2026-4-28T20:50:22Z</time></trkpt>
<trkpt lat="48.877944946289" lon="2.9020349979401"><ele>150</ele><time>2026-4-28T20:50:25Z</time></trkpt>
<trkpt lat="48.877948760986" lon="2.9019272327423"><ele>150</ele><time>2026-4-28T20:50:28Z</time></trkpt>
<trkpt lat="48.877964019775" lon="2.9018054008484"><ele>151</ele><time>2026-4-28T20:50:31Z</time></trkpt>
<trkpt lat="48.877975463867" lon="2.9017000198364"><ele>151</ele><time>2026-4-28T20:50:34Z</time></trkpt>
<trkpt lat="48.877983093262" lon="2.9015789031982"><ele>151</ele><time>2026-4-28T20:50:37Z</time></trkpt>
<trkpt lat="48.877994537354" lon="2.9014310836792"><ele>151</ele><time>2026-4-28T20:50:40Z</time></trkpt>
<trkpt lat="48.878002166748" lon="2.9012558460236"><ele>151</ele><time>2026-4-28T20:50:43Z</time></trkpt>
<trkpt lat="48.878005981445" lon="2.9011001586914"><ele>151</ele><time>2026-4-28T20:50:46Z</time></trkpt>
<trkpt lat="48.878009796143" lon="2.9009435176849"><ele>152</ele><time>2026-4-28T20:50:49Z</time></trkpt>
<trkpt lat="48.878017425537" lon="2.9007811546326"><ele>152</ele><time>2026-4-28T20:50:52Z</time></trkpt>
<trkpt lat="48.878028869629" lon="2.9006199836731"><ele>151</ele><time>2026-4-28T20:50:55Z</time></trkpt>
<trkpt lat="48.878040313721" lon="2.9004573822021"><ele>151</ele><time>2026-4-28T20:50:58Z</time></trkpt>
<trkpt lat="48.878047943115" lon="2.9002854824066"><ele>151</ele><time>2026-4-28T20:51:1Z</time></trkpt>
<trkpt lat="48.87805557251" lon="2.9001059532166"><ele>150</ele><time>2026-4-28T20:51:4Z</time></trkpt>
<trkpt lat="48.878063201904" lon="2.899943113327"><ele>150</ele><time>2026-4-28T20:51:7Z</time></trkpt>
<trkpt lat="48.878070831299" lon="2.8997695446014"><ele>149</ele><time>2026-4-28T20:51:10Z</time></trkpt>
<trkpt lat="48.878078460693" lon="2.8995957374573"><ele>150</ele><time>2026-4-28T20:51:13Z</time></trkpt>
<trkpt lat="48.878082275391" lon="2.8994414806366"><ele>150</ele><time>2026-4-28T20:51:16Z</time></trkpt>
<trkpt lat="48.878093719482" lon="2.8992857933044"><ele>150</ele><time>2026-4-28T20:51:19Z</time></trkpt>
<trkpt lat="48.878101348877" lon="2.8991422653198"><ele>150</ele><time>2026-4-28T20:51:22Z</time></trkpt>
<trkpt lat="48.878105163574" lon="2.8989872932434"><ele>149</ele><time>2026-4-28T20:51:25Z</time></trkpt>
<trkpt lat="48.878112792969" lon="2.8988513946533"><ele>149</ele><time>2026-4-28T20:51:28Z</time></trkpt>
<trkpt lat="48.878124237061" lon="2.8987228870392"><ele>149</ele><time>2026-4-28T20:51:31Z</time></trkpt>
<trkpt lat="48.87813949585" lon="2.8985900878906"><ele>149</ele><time>2026-4-28T20:51:34Z</time></trkpt>
<trkpt lat="48.878150939941" lon="2.8984458446503"><ele>149</ele><time>2026-4-28T20:51:37Z</time></trkpt>
<trkpt lat="48.878162384033" lon="2.8983068466187"><ele>149</ele><time>2026-4-28T20:51:40Z</time></trkpt>
<trkpt lat="48.878177642822" lon="2.8981778621674"><ele>150</ele><time>2026-4-28T20:51:43Z</time></trkpt>
<trkpt lat="48.878192901611" lon="2.8980734348297"><ele>150</ele><time>2026-4-28T20:51:46Z</time></trkpt>
<trkpt lat="48.878211975098" lon="2.8979604244232"><ele>150</ele><time>2026-4-28T20:51:49Z</time></trkpt>
<trkpt lat="48.878227233887" lon="2.8978316783905"><ele>150</ele><time>2026-4-28T20:51:52Z</time></trkpt>
<trkpt lat="48.878234863281" lon="2.897741317749"><ele>150</ele><time>2026-4-28T20:51:55Z</time></trkpt>
<trkpt lat="48.878242492676" lon="2.8976376056671"><ele>150</ele><time>2026-4-28T20:51:58Z</time></trkpt>
<trkpt lat="48.878257751465" lon="2.8975284099579"><ele>150</ele><time>2026-4-28T20:52:1Z</time></trkpt>
<trkpt lat="48.878273010254" lon="2.8974144458771"><ele>150</ele><time>2026-4-28T20:52:4Z</time></trkpt>
<trkpt lat="48.878288269043" lon="2.8972766399384"><ele>150</ele><time>2026-4-28T20:52:7Z</time></trkpt>
<trkpt lat="48.878299713135" lon="2.8971619606018"><ele>151</ele><time>2026-4-28T20:52:10Z</time></trkpt>
<trkpt lat="48.878314971924" lon="2.8970546722412"><ele>151</ele><time>2026-4-28T20:52:13Z</time></trkpt>
<trkpt lat="48.878330230713" lon="2.8969352245331"><ele>151</ele><time>2026-4-28T20:52:16Z</time></trkpt>
<trkpt lat="48.878353118896" lon="2.8968110084534"><ele>151</ele><time>2026-4-28T20:52:19Z</time></trkpt>
<trkpt lat="48.878372192383" lon="2.8966808319092"><ele>151</ele><time>2026-4-28T20:52:22Z</time></trkpt>
<trkpt lat="48.878398895264" lon="2.8965420722961"><ele>151</ele><time>2026-4-28T20:52:25Z</time></trkpt>
<trkpt lat="48.87841796875" lon="2.8964228630066"><ele>151</ele><time>2026-4-28T20:52:28Z</time></trkpt>
<trkpt lat="48.878433227539" lon="2.8962831497192"><ele>151</ele><time>2026-4-28T20:52:31Z</time></trkpt>
<trkpt lat="48.878456115723" lon="2.8961374759674"><ele>151</ele><time>2026-4-28T20:52:34Z</time></trkpt>
<trkpt lat="48.878486633301" lon="2.8959791660309"><ele>151</ele><time>2026-4-28T20:52:37Z</time></trkpt>
<trkpt lat="48.878517150879" lon="2.8958323001862"><ele>151</ele><time>2026-4-28T20:52:40Z</time></trkpt>
<trkpt lat="48.878547668457" lon="2.895690202713"><ele>151</ele><time>2026-4-28T20:52:43Z</time></trkpt>
<trkpt lat="48.878574371338" lon="2.8955659866333"><ele>151</ele><time>2026-4-28T20:52:46Z</time></trkpt>
<trkpt lat="48.878597259521" lon="2.8954360485077"><ele>152</ele><time>2026-4-28T20:52:49Z</time></trkpt>
<trkpt lat="48.878620147705" lon="2.8952960968018"><ele>152</ele><time>2026-4-28T20:52:52Z</time></trkpt>
<trkpt lat="48.878631591797" lon="2.8951561450958"><ele>152</ele><time>2026-4-28T20:52:55Z</time></trkpt>
<trkpt lat="48.878631591797" lon="2.8950188159943"><ele>152</ele><time>2026-4-28T20:52:58Z</time></trkpt>
<trkpt lat="48.878620147705" lon="2.8949031829834"><ele>152</ele><time>2026-4-28T20:53:1Z</time></trkpt>
<trkpt lat="48.878604888916" lon="2.8947727680206"><ele>152</ele><time>2026-4-28T20:53:4Z</time></trkpt>
<trkpt lat="48.87858581543" lon="2.894633769989"><ele>152</ele><time>2026-4-28T20:53:7Z</time></trkpt>
<trkpt lat="48.878570556641" lon="2.894523859024"><ele>152</ele><time>2026-4-28T20:53:10Z</time></trkpt>
<trkpt lat="48.878559112549" lon="2.8944330215454"><ele>152</ele><time>2026-4-28T20:53:13Z</time></trkpt>
<trkpt lat="48.878536224365" lon="2.8943257331848"><ele>152</ele><time>2026-4-28T20:53:16Z</time></trkpt>
<trkpt lat="48.878513336182" lon="2.8941993713379"><ele>151</ele><time>2026-4-28T20:53:19Z</time></trkpt>
<trkpt lat="48.878494262695" lon="2.8940591812134"><ele>150</ele><time>2026-4-28T20:53:22Z</time></trkpt>
<trkpt lat="48.878482818604" lon="2.8939216136932"><ele>149</ele><time>2026-4-28T20:53:25Z</time></trkpt>
<trkpt lat="48.878463745117" lon="2.893782377243"><ele>148</ele><time>2026-4-28T20:53:28Z</time></trkpt>
<trkpt lat="48.878440856934" lon="2.89364361763"><ele>148</ele><time>2026-4-28T20:53:31Z</time></trkpt>
<trkpt lat="48.878421783447" lon="2.8935041427612"><ele>148</ele><time>2026-4-28T20:53:34Z</time></trkpt>
<trkpt lat="48.878410339355" lon="2.8933837413788"><ele>148</ele><time>2026-4-28T20:53:37Z</time></trkpt>
<trkpt lat="48.878402709961" lon="2.8932795524597"><ele>148</ele><time>2026-4-28T20:53:40Z</time></trkpt>
<trkpt lat="48.878391265869" lon="2.8931350708008"><ele>148</ele><time>2026-4-28T20:53:43Z</time></trkpt>
<trkpt lat="48.878387451172" lon="2.8929941654205"><ele>148</ele><time>2026-4-28T20:53:46Z</time></trkpt>
<trkpt lat="48.878387451172" lon="2.892838716507"><ele>148</ele><time>2026-4-28T20:53:49Z</time></trkpt>
<trkpt lat="48.878383636475" lon="2.892694234848"><ele>147</ele><time>2026-4-28T20:53:52Z</time></trkpt>
<trkpt lat="48.878379821777" lon="2.8925511837006"><ele>147</ele><time>2026-4-28T20:53:55Z</time></trkpt>
<trkpt lat="48.878368377686" lon="2.89240193367"><ele>148</ele><time>2026-4-28T20:53:58Z</time></trkpt>
<trkpt lat="48.878353118896" lon="2.8922519683838"><ele>147</ele><time>2026-4-28T20:54:1Z</time></trkpt>
<trkpt lat="48.878341674805" lon="2.8921155929565"><ele>148</ele><time>2026-4-28T20:54:4Z</time></trkpt>
<trkpt lat="48.878326416016" lon="2.8919677734375"><ele>149</ele><time>2026-4-28T20:54:7Z</time></trkpt>
<trkpt lat="48.878307342529" lon="2.8918261528015"><ele>149</ele><time>2026-4-28T20:54:10Z</time></trkpt>
<trkpt lat="48.878288269043" lon="2.8917071819305"><ele>149</ele><time>2026-4-28T20:54:13Z</time></trkpt>
<trkpt lat="48.878253936768" lon="2.8915524482727"><ele>149</ele><time>2026-4-28T20:54:16Z</time></trkpt>
<trkpt lat="48.878219604492" lon="2.8913764953613"><ele>147</ele><time>2026-4-28T20:54:19Z</time></trkpt>
<trkpt lat="48.878192901611" lon="2.8912222385406"><ele>145</ele><time>2026-4-28T20:54:22Z</time></trkpt>
<trkpt lat="48.878158569336" lon="2.8911175727844"><ele>145</ele><time>2026-4-28T20:54:25Z</time></trkpt>
<trkpt lat="48.878074645996" lon="2.8910713195801"><ele>145</ele><time>2026-4-28T20:54:28Z</time></trkpt>
<trkpt lat="48.877983093262" lon="2.8910982608795"><ele>143</ele><time>2026-4-28T20:54:31Z</time></trkpt>
<trkpt lat="48.877910614014" lon="2.8911528587341"><ele>143</ele><time>2026-4-28T20:54:34Z</time></trkpt>
<trkpt lat="48.87784576416" lon="2.8912038803101"><ele>143</ele><time>2026-4-28T20:54:37Z</time></trkpt>
<trkpt lat="48.877777099609" lon="2.8912627696991"><ele>143</ele><time>2026-4-28T20:54:40Z</time></trkpt>
<trkpt lat="48.877704620361" lon="2.8913221359253"><ele>143</ele><time>2026-4-28T20:54:43Z</time></trkpt>
<trkpt lat="48.877632141113" lon="2.8913733959198"><ele>143</ele><time>2026-4-28T20:54:46Z</time></trkpt>
<trkpt lat="48.877555847168" lon="2.8914108276367"><ele>144</ele><time>2026-4-28T20:54:49Z</time></trkpt>
<trkpt lat="48.877479553223" lon="2.8914377689362"><ele>143</ele><time>2026-4-28T20:54:52Z</time></trkpt>
<trkpt lat="48.87739944458" lon="2.8914601802826"><ele>143</ele><time>2026-4-28T20:54:55Z</time></trkpt>
<trkpt lat="48.87731552124" lon="2.89146900177"><ele>143</ele><time>2026-4-28T20:54:58Z</time></trkpt>
<trkpt lat="48.877220153809" lon="2.8914587497711"><ele>144</ele><time>2026-4-28T20:55:1Z</time></trkpt>
<trkpt lat="48.877132415771" lon="2.8914225101471"><ele>144</ele><time>2026-4-28T20:55:4Z</time></trkpt>
<trkpt lat="48.877059936523" lon="2.8913671970367"><ele>144</ele><time>2026-4-28T20:55:7Z</time></trkpt>
<trkpt lat="48.876979827881" lon="2.8913195133209"><ele>144</ele><time>2026-4-28T20:55:10Z</time></trkpt>
<trkpt lat="48.876914978027" lon="2.8912973403931"><ele>145</ele><time>2026-4-28T20:55:13Z</time></trkpt>
<trkpt lat="48.876914978027" lon="2.8912973403931"><ele>145</ele><time>2026-4-28T20:55:16Z</time></trkpt>
<trkpt lat="48.876846313477" lon="2.8912858963013"><ele>145</ele><time>2026-4-28T20:55:19Z</time></trkpt>
<trkpt lat="48.876777648926" lon="2.8912789821625"><ele>145</ele><time>2026-4-28T20:55:22Z</time></trkpt>
<trkpt lat="48.876720428467" lon="2.8912851810455"><ele>145</ele><time>2026-4-28T20:55:25Z</time></trkpt>
<trkpt lat="48.876720428467" lon="2.8912851810455"><ele>145</ele><time>2026-4-28T20:55:28Z</time></trkpt>
<trkpt lat="48.876647949219" lon="2.8912947177887"><ele>145</ele><time>2026-4-28T20:55:31Z</time></trkpt>
<trkpt lat="48.876575469971" lon="2.8913025856018"><ele>145</ele><time>2026-4-28T20:55:34Z</time></trkpt>
<trkpt lat="48.876514434814" lon="2.8913071155548"><ele>145</ele><time>2026-4-28T20:55:37Z</time></trkpt>
<trkpt lat="48.876514434814" lon="2.8913071155548"><ele>145</ele><time>2026-4-28T20:55:40Z</time></trkpt>
<trkpt lat="48.876441955566" lon="2.8913135528564"><ele>145</ele><time>2026-4-28T20:55:43Z</time></trkpt>
<trkpt lat="48.876377105713" lon="2.8913226127625"><ele>146</ele><time>2026-4-28T20:55:46Z</time></trkpt>
<trkpt lat="48.876304626465" lon="2.8913276195526"><ele>146</ele><time>2026-4-28T20:55:49Z</time></trkpt>
<trkpt lat="48.876304626465" lon="2.8913276195526"><ele>146</ele><time>2026-4-28T20:55:52Z</time></trkpt>
<trkpt lat="48.876235961914" lon="2.8913369178772"><ele>146</ele><time>2026-4-28T20:55:55Z</time></trkpt>
<trkpt lat="48.876163482666" lon="2.8913457393646"><ele>146</ele><time>2026-4-28T20:55:58Z</time></trkpt>
<trkpt lat="48.87610244751" lon="2.8913481235504"><ele>146</ele><time>2026-4-28T20:56:1Z</time></trkpt>
<trkpt lat="48.87610244751" lon="2.8913481235504"><ele>146</ele><time>2026-4-28T20:56:4Z</time></trkpt>
<trkpt lat="48.876029968262" lon="2.8913424015045"><ele>146</ele><time>2026-4-28T20:56:7Z</time></trkpt>
<trkpt lat="48.875957489014" lon="2.8913459777832"><ele>147</ele><time>2026-4-28T20:56:10Z</time></trkpt>
<trkpt lat="48.875888824463" lon="2.8913521766663"><ele>147</ele><time>2026-4-28T20:56:13Z</time></trkpt>
<trkpt lat="48.875888824463" lon="2.8913521766663"><ele>147</ele><time>2026-4-28T20:56:16Z</time></trkpt>
<trkpt lat="48.875831604004" lon="2.8913567066193"><ele>147</ele><time>2026-4-28T20:56:19Z</time></trkpt>
<trkpt lat="48.875770568848" lon="2.8913626670837"><ele>147</ele><time>2026-4-28T20:56:22Z</time></trkpt>
<trkpt lat="48.875705718994" lon="2.8913676738739"><ele>147</ele><time>2026-4-28T20:56:25Z</time></trkpt>
<trkpt lat="48.875705718994" lon="2.8913676738739"><ele>147</ele><time>2026-4-28T20:56:28Z</time></trkpt>
<trkpt lat="48.875633239746" lon="2.8913772106171"><ele>147</ele><time>2026-4-28T20:56:31Z</time></trkpt>
<trkpt lat="48.875560760498" lon="2.8913896083832"><ele>147</ele><time>2026-4-28T20:56:34Z</time></trkpt>
<trkpt lat="48.87548828125" lon="2.891401052475"><ele>147</ele><time>2026-4-28T20:56:37Z</time></trkpt>
<trkpt lat="48.87548828125" lon="2.891401052475"><ele>147</ele><time>2026-4-28T20:56:40Z</time></trkpt>
<trkpt lat="48.875419616699" lon="2.8914084434509"><ele>147</ele><time>2026-4-28T20:56:43Z</time></trkpt>
<trkpt lat="48.875350952148" lon="2.8914220333099"><ele>147</ele><time>2026-4-28T20:56:46Z</time></trkpt>
<trkpt lat="48.875286102295" lon="2.8914306163788"><ele>147</ele><time>2026-4-28T20:56:49Z</time></trkpt>
<trkpt lat="48.875286102295" lon="2.8914306163788"><ele>147</ele><time>2026-4-28T20:56:52Z</time></trkpt>
<trkpt lat="48.875225067139" lon="2.8914315700531"><ele>148</ele><time>2026-4-28T20:56:55Z</time></trkpt>
<trkpt lat="48.875156402588" lon="2.8914301395416"><ele>148</ele><time>2026-4-28T20:56:58Z</time></trkpt>
<trkpt lat="48.875091552734" lon="2.8914330005646"><ele>148</ele><time>2026-4-28T20:57:1Z</time></trkpt>
<trkpt lat="48.875091552734" lon="2.8914330005646"><ele>148</ele><time>2026-4-28T20:57:4Z</time></trkpt>
<trkpt lat="48.875026702881" lon="2.8914399147034"><ele>148</ele><time>2026-4-28T20:57:7Z</time></trkpt>
<trkpt lat="48.874961853027" lon="2.8914430141449"><ele>148</ele><time>2026-4-28T20:57:10Z</time></trkpt>
<trkpt lat="48.874897003174" lon="2.8914458751678"><ele>148</ele><time>2026-4-28T20:57:13Z</time></trkpt>
<trkpt lat="48.874897003174" lon="2.8914458751678"><ele>148</ele><time>2026-4-28T20:57:16Z</time></trkpt>
<trkpt lat="48.874820709229" lon="2.891449213028"><ele>148</ele><time>2026-4-28T20:57:19Z</time></trkpt>
<trkpt lat="48.87474822998" lon="2.8914542198181"><ele>149</ele><time>2026-4-28T20:57:22Z</time></trkpt>
<trkpt lat="48.874675750732" lon="2.8914642333984"><ele>149</ele><time>2026-4-28T20:57:25Z</time></trkpt>
<trkpt lat="48.874675750732" lon="2.8914642333984"><ele>149</ele><time>2026-4-28T20:57:28Z</time></trkpt>
<trkpt lat="48.874599456787" lon="2.8914754390717"><ele>149</ele><time>2026-4-28T20:57:31Z</time></trkpt>
<trkpt lat="48.874523162842" lon="2.8914847373962"><ele>149</ele><time>2026-4-28T20:57:34Z</time></trkpt>
<trkpt lat="48.874446868896" lon="2.8914949893951"><ele>149</ele><time>2026-4-28T20:57:37Z</time></trkpt>
<trkpt lat="48.874446868896" lon="2.8914949893951"><ele>149</ele><time>2026-4-28T20:57:40Z</time></trkpt>
<trkpt lat="48.874378204346" lon="2.891500711441"><ele>149</ele><time>2026-4-28T20:57:43Z</time></trkpt>
<trkpt lat="48.874309539795" lon="2.8915083408356"><ele>149</ele><time>2026-4-28T20:57:46Z</time></trkpt>
<trkpt lat="48.874237060547" lon="2.8915185928345"><ele>149</ele><time>2026-4-28T20:57:49Z</time></trkpt>
<trkpt lat="48.874237060547" lon="2.8915185928345"><ele>149</ele><time>2026-4-28T20:57:52Z</time></trkpt>
<trkpt lat="48.874160766602" lon="2.891530752182"><ele>149</ele><time>2026-4-28T20:57:55Z</time></trkpt>
<trkpt lat="48.874080657959" lon="2.8915476799011"><ele>150</ele><time>2026-4-28T20:57:58Z</time></trkpt>
<trkpt lat="48.873996734619" lon="2.8915693759918"><ele>150</ele><time>2026-4-28T20:58:1Z</time></trkpt>
<trkpt lat="48.873996734619" lon="2.8915693759918"><ele>150</ele><time>2026-4-28T20:58:4Z</time></trkpt>
<trkpt lat="48.873931884766" lon="2.8915944099426"><ele>150</ele><time>2026-4-28T20:58:7Z</time></trkpt>
<trkpt lat="48.873867034912" lon="2.891622543335"><ele>150</ele><time>2026-4-28T20:58:10Z</time></trkpt>
<trkpt lat="48.873798370361" lon="2.8916504383087"><ele>150</ele><time>2026-4-28T20:58:13Z</time></trkpt>
<trkpt lat="48.873798370361" lon="2.8916504383087"><ele>150</ele><time>2026-4-28T20:58:16Z</time></trkpt>
<trkpt lat="48.873741149902" lon="2.8916749954224"><ele>150</ele><time>2026-4-28T20:58:19Z</time></trkpt>
<trkpt lat="48.873676300049" lon="2.8917064666748"><ele>150</ele><time>2026-4-28T20:58:22Z</time></trkpt>
<trkpt lat="48.873615264893" lon="2.8917410373688"><ele>150</ele><time>2026-4-28T20:58:25Z</time></trkpt>
<trkpt lat="48.873615264893" lon="2.8917410373688"><ele>150</ele><time>2026-4-28T20:58:28Z</time></trkpt>
<trkpt lat="48.873561859131" lon="2.8917784690857"><ele>150</ele><time>2026-4-28T20:58:31Z</time></trkpt>
<trkpt lat="48.873500823975" lon="2.8918087482452"><ele>149</ele><time>2026-4-28T20:58:34Z</time></trkpt>
<trkpt lat="48.873424530029" lon="2.89182472229"><ele>149</ele><time>2026-4-28T20:58:37Z</time></trkpt>
<trkpt lat="48.873424530029" lon="2.89182472229"><ele>149</ele><time>2026-4-28T20:58:40Z</time></trkpt>
<trkpt lat="48.873352050781" lon="2.891850233078"><ele>149</ele><time>2026-4-28T20:58:43Z</time></trkpt>
<trkpt lat="48.873291015625" lon="2.8918752670288"><ele>149</ele><time>2026-4-28T20:58:46Z</time></trkpt>
<trkpt lat="48.873226165771" lon="2.8918850421906"><ele>150</ele><time>2026-4-28T20:58:49Z</time></trkpt>
<trkpt lat="48.873226165771" lon="2.8918850421906"><ele>150</ele><time>2026-4-28T20:58:52Z</time></trkpt>
<trkpt lat="48.873157501221" lon="2.8919017314911"><ele>150</ele><time>2026-4-28T20:58:55Z</time></trkpt>
<trkpt lat="48.873100280762" lon="2.8919212818146"><ele>150</ele><time>2026-4-28T20:58:58Z</time></trkpt>
<trkpt lat="48.873043060303" lon="2.8919396400452"><ele>149</ele><time>2026-4-28T20:59:1Z</time></trkpt>
<trkpt lat="48.873043060303" lon="2.8919396400452"><ele>149</ele><time>2026-4-28T20:59:4Z</time></trkpt>
<trkpt lat="48.872989654541" lon="2.8919558525085"><ele>149</ele><time>2026-4-28T20:59:7Z</time></trkpt>
<trkpt lat="48.872932434082" lon="2.8919770717621"><ele>149</ele><time>2026-4-28T20:59:10Z</time></trkpt>
<trkpt lat="48.872932434082" lon="2.8919770717621"><ele>149</ele><time>2026-4-28T20:59:13Z</time></trkpt>
<trkpt lat="48.872932434082" lon="2.8919770717621"><ele>149</ele><time>2026-4-28T20:59:16Z</time></trkpt>
<trkpt lat="48.872840881348" lon="2.8920075893402"><ele>149</ele><time>2026-4-28T20:59:19Z</time></trkpt>
<trkpt lat="48.872764587402" lon="2.8920350074768"><ele>149</ele><time>2026-4-28T20:59:22Z</time></trkpt>
<trkpt lat="48.872688293457" lon="2.8920638561249"><ele>149</ele><time>2026-4-28T20:59:25Z</time></trkpt>
<trkpt lat="48.872688293457" lon="2.8920638561249"><ele>149</ele><time>2026-4-28T20:59:28Z</time></trkpt>
<trkpt lat="48.872611999512" lon="2.8920903205872"><ele>149</ele><time>2026-4-28T20:59:31Z</time></trkpt>
<trkpt lat="48.872535705566" lon="2.8921167850494"><ele>149</ele><time>2026-4-28T20:59:34Z</time></trkpt>
<trkpt lat="48.872463226318" lon="2.892139673233"><ele>149</ele><time>2026-4-28T20:59:37Z</time></trkpt>
<trkpt lat="48.872463226318" lon="2.892139673233"><ele>149</ele><time>2026-4-28T20:59:40Z</time></trkpt>
<trkpt lat="48.872394561768" lon="2.8921601772308"><ele>149</ele><time>2026-4-28T20:59:43Z</time></trkpt>
<trkpt lat="48.872333526611" lon="2.8921775817871"><ele>150</ele><time>2026-4-28T20:59:46Z</time></trkpt>
<trkpt lat="48.872272491455" lon="2.8922004699707"><ele>150</ele><time>2026-4-28T20:59:49Z</time></trkpt>
<trkpt lat="48.872272491455" lon="2.8922004699707"><ele>150</ele><time>2026-4-28T20:59:52Z</time></trkpt>
<trkpt lat="48.872211456299" lon="2.8922231197357"><ele>150</ele><time>2026-4-28T20:59:55Z</time></trkpt>
<trkpt lat="48.872211456299" lon="2.8922231197357"><ele>150</ele><time>2026-4-28T20:59:58Z</time></trkpt>
<trkpt lat="48.87211227417" lon="2.8922574520111"><ele>151</ele><time>2026-4-28T21:0:1Z</time></trkpt>
<trkpt lat="48.87211227417" lon="2.8922574520111"><ele>151</ele><time>2026-4-28T21:0:4Z</time></trkpt>
<trkpt lat="48.87211227417" lon="2.8922574520111"><ele>151</ele><time>2026-4-28T21:0:7Z</time></trkpt>
<trkpt lat="48.872047424316" lon="2.8922851085663"><ele>151</ele><time>2026-4-28T21:0:10Z</time></trkpt>
<trkpt lat="48.872047424316" lon="2.8922851085663"><ele>151</ele><time>2026-4-28T21:0:13Z</time></trkpt>
<trkpt lat="48.872047424316" lon="2.8922851085663"><ele>151</ele><time>2026-4-28T21:0:16Z</time></trkpt>
<trkpt lat="48.871967315674" lon="2.8923146724701"><ele>151</ele><time>2026-4-28T21:0:19Z</time></trkpt>
<trkpt lat="48.871967315674" lon="2.8923146724701"><ele>151</ele><time>2026-4-28T21:0:22Z</time></trkpt>
<trkpt lat="48.871883392334" lon="2.8923435211182"><ele>151</ele><time>2026-4-28T21:0:25Z</time></trkpt>
<trkpt lat="48.871883392334" lon="2.8923435211182"><ele>151</ele><time>2026-4-28T21:0:28Z</time></trkpt>
<trkpt lat="48.871883392334" lon="2.8923435211182"><ele>151</ele><time>2026-4-28T21:0:31Z</time></trkpt>
<trkpt lat="48.871784210205" lon="2.8923811912537"><ele>151</ele><time>2026-4-28T21:0:34Z</time></trkpt>
<trkpt lat="48.871784210205" lon="2.8923811912537"><ele>151</ele><time>2026-4-28T21:0:37Z</time></trkpt>
<trkpt lat="48.871784210205" lon="2.8923811912537"><ele>151</ele><time>2026-4-28T21:0:40Z</time></trkpt>
<trkpt lat="48.871700286865" lon="2.8924131393433"><ele>151</ele><time>2026-4-28T21:0:43Z</time></trkpt>
<trkpt lat="48.871700286865" lon="2.8924131393433"><ele>151</ele><time>2026-4-28T21:0:46Z</time></trkpt>
<trkpt lat="48.871612548828" lon="2.8924396038055"><ele>151</ele><time>2026-4-28T21:0:49Z</time></trkpt>
<trkpt lat="48.871612548828" lon="2.8924396038055"><ele>151</ele><time>2026-4-28T21:0:52Z</time></trkpt>
<trkpt lat="48.871612548828" lon="2.8924396038055"><ele>151</ele><time>2026-4-28T21:0:55Z</time></trkpt>
<trkpt lat="48.871532440186" lon="2.8924627304077"><ele>151</ele><time>2026-4-28T21:0:58Z</time></trkpt>
<trkpt lat="48.871532440186" lon="2.8924627304077"><ele>151</ele><time>2026-4-28T21:1:1Z</time></trkpt>
<trkpt lat="48.871532440186" lon="2.8924627304077"><ele>151</ele><time>2026-4-28T21:1:4Z</time></trkpt>
<trkpt lat="48.871444702148" lon="2.8924806118011"><ele>151</ele><time>2026-4-28T21:1:7Z</time></trkpt>
<trkpt lat="48.871444702148" lon="2.8924806118011"><ele>151</ele><time>2026-4-28T21:1:10Z</time></trkpt>
<trkpt lat="48.871360778809" lon="2.8924996852875"><ele>152</ele><time>2026-4-28T21:1:13Z</time></trkpt>
<trkpt lat="48.871360778809" lon="2.8924996852875"><ele>152</ele><time>2026-4-28T21:1:16Z</time></trkpt>
<trkpt lat="48.871360778809" lon="2.8924996852875"><ele>152</ele><time>2026-4-28T21:1:19Z</time></trkpt>
<trkpt lat="48.871315002441" lon="2.8925096988678"><ele>152</ele><time>2026-4-28T21:1:22Z</time></trkpt>
<trkpt lat="48.871265411377" lon="2.8925218582153"><ele>152</ele><time>2026-4-28T21:1:25Z</time></trkpt>
<trkpt lat="48.871265411377" lon="2.8925218582153"><ele>152</ele><time>2026-4-28T21:1:28Z</time></trkpt>
<trkpt lat="48.87121963501" lon="2.8925330638885"><ele>153</ele><time>2026-4-28T21:1:31Z</time></trkpt>
<trkpt lat="48.87117767334" lon="2.8925454616547"><ele>153</ele><time>2026-4-28T21:1:34Z</time></trkpt>
<trkpt lat="48.871139526367" lon="2.8925547599792"><ele>153</ele><time>2026-4-28T21:1:37Z</time></trkpt>
<trkpt lat="48.871139526367" lon="2.8925547599792"><ele>153</ele><time>2026-4-28T21:1:40Z</time></trkpt>
<trkpt lat="48.871063232422" lon="2.8925726413727"><ele>154</ele><time>2026-4-28T21:1:43Z</time></trkpt>
<trkpt lat="48.871063232422" lon="2.8925726413727"><ele>154</ele><time>2026-4-28T21:1:46Z</time></trkpt>
<trkpt lat="48.871002197266" lon="2.8925912380219"><ele>154</ele><time>2026-4-28T21:1:49Z</time></trkpt>
<trkpt lat="48.871002197266" lon="2.8925912380219"><ele>154</ele><time>2026-4-28T21:1:52Z</time></trkpt>
<trkpt lat="48.871002197266" lon="2.8925912380219"><ele>154</ele><time>2026-4-28T21:1:55Z</time></trkpt>
<trkpt lat="48.870918273926" lon="2.8926153182983"><ele>155</ele><time>2026-4-28T21:1:58Z</time></trkpt>
<trkpt lat="48.870918273926" lon="2.8926153182983"><ele>155</ele><time>2026-4-28T21:2:1Z</time></trkpt>
<trkpt lat="48.870861053467" lon="2.8926372528076"><ele>156</ele><time>2026-4-28T21:2:4Z</time></trkpt>
<trkpt lat="48.870861053467" lon="2.8926372528076"><ele>156</ele><time>2026-4-28T21:2:7Z</time></trkpt>
<trkpt lat="48.870796203613" lon="2.8926649093628"><ele>156</ele><time>2026-4-28T21:2:10Z</time></trkpt>
<trkpt lat="48.870796203613" lon="2.8926649093628"><ele>156</ele><time>2026-4-28T21:2:13Z</time></trkpt>
<trkpt lat="48.870727539062" lon="2.8926887512207"><ele>156</ele><time>2026-4-28T21:2:16Z</time></trkpt>
<trkpt lat="48.870655059814" lon="2.8927059173584"><ele>157</ele><time>2026-4-28T21:2:19Z</time></trkpt>
<trkpt lat="48.870655059814" lon="2.8927059173584"><ele>157</ele><time>2026-4-28T21:2:22Z</time></trkpt>
<trkpt lat="48.870655059814" lon="2.8927059173584"><ele>157</ele><time>2026-4-28T21:2:25Z</time></trkpt>
<trkpt lat="48.870574951172" lon="2.8927102088928"><ele>157</ele><time>2026-4-28T21:2:28Z</time></trkpt>
<trkpt lat="48.870574951172" lon="2.8927102088928"><ele>157</ele><time>2026-4-28T21:2:31Z</time></trkpt>
<trkpt lat="48.870498657227" lon="2.8927223682404"><ele>157</ele><time>2026-4-28T21:2:34Z</time></trkpt>
<trkpt lat="48.870498657227" lon="2.8927223682404"><ele>157</ele><time>2026-4-28T21:2:37Z</time></trkpt>
<trkpt lat="48.870429992676" lon="2.8927419185638"><ele>158</ele><time>2026-4-28T21:2:40Z</time></trkpt>
<trkpt lat="48.87036895752" lon="2.8927481174469"><ele>158</ele><time>2026-4-28T21:2:43Z</time></trkpt>
<trkpt lat="48.87036895752" lon="2.8927481174469"><ele>158</ele><time>2026-4-28T21:2:46Z</time></trkpt>
<trkpt lat="48.870307922363" lon="2.892763376236"><ele>159</ele><time>2026-4-28T21:2:49Z</time></trkpt>
<trkpt lat="48.870307922363" lon="2.892763376236"><ele>159</ele><time>2026-4-28T21:2:52Z</time></trkpt>
<trkpt lat="48.870262145996" lon="2.8928167819977"><ele>159</ele><time>2026-4-28T21:2:55Z</time></trkpt>
<trkpt lat="48.870262145996" lon="2.8928167819977"><ele>159</ele><time>2026-4-28T21:2:58Z</time></trkpt>
<trkpt lat="48.870239257812" lon="2.892945766449"><ele>159</ele><time>2026-4-28T21:3:1Z</time></trkpt>
<trkpt lat="48.870239257812" lon="2.892945766449"><ele>159</ele><time>2026-4-28T21:3:4Z</time></trkpt>
<trkpt lat="48.87024307251" lon="2.8930830955505"><ele>160</ele><time>2026-4-28T21:3:7Z</time></trkpt>
<trkpt lat="48.870269775391" lon="2.8932349681854"><ele>160</ele><time>2026-4-28T21:3:10Z</time></trkpt>
<trkpt lat="48.870304107666" lon="2.8933935165405"><ele>160</ele><time>2026-4-28T21:3:13Z</time></trkpt>
<trkpt lat="48.870323181152" lon="2.893486738205"><ele>160</ele><time>2026-4-28T21:3:16Z</time></trkpt>
<trkpt lat="48.870357513428" lon="2.8936405181885"><ele>161</ele><time>2026-4-28T21:3:19Z</time></trkpt>
<trkpt lat="48.870357513428" lon="2.8936405181885"><ele>161</ele><time>2026-4-28T21:3:22Z</time></trkpt>
<trkpt lat="48.870391845703" lon="2.8937618732452"><ele>161</ele><time>2026-4-28T21:3:25Z</time></trkpt>
<trkpt lat="48.870391845703" lon="2.8937618732452"><ele>161</ele><time>2026-4-28T21:3:28Z</time></trkpt>
<trkpt lat="48.870429992676" lon="2.8939146995544"><ele>161</ele><time>2026-4-28T21:3:31Z</time></trkpt>
<trkpt lat="48.870449066162" lon="2.8940782546997"><ele>161</ele><time>2026-4-28T21:3:34Z</time></trkpt>
<trkpt lat="48.870449066162" lon="2.8940782546997"><ele>161</ele><time>2026-4-28T21:3:37Z</time></trkpt>
<trkpt lat="48.870468139648" lon="2.8942365646362"><ele>161</ele><time>2026-4-28T21:3:40Z</time></trkpt>
<trkpt lat="48.870494842529" lon="2.894385099411"><ele>161</ele><time>2026-4-28T21:3:43Z</time></trkpt>
<trkpt lat="48.87052154541" lon="2.8945345878601"><ele>161</ele><time>2026-4-28T21:3:46Z</time></trkpt>
<trkpt lat="48.87052154541" lon="2.8945345878601"><ele>161</ele><time>2026-4-28T21:3:49Z</time></trkpt>
<trkpt lat="48.870544433594" lon="2.8946704864502"><ele>161</ele><time>2026-4-28T21:3:52Z</time></trkpt>
<trkpt lat="48.870544433594" lon="2.8946704864502"><ele>161</ele><time>2026-4-28T21:3:55Z</time></trkpt>
<trkpt lat="48.87056350708" lon="2.8947896957397"><ele>162</ele><time>2026-4-28T21:3:58Z</time></trkpt>
<trkpt lat="48.87056350708" lon="2.8947896957397"><ele>162</ele><time>2026-4-28T21:4:1Z</time></trkpt>
<trkpt lat="48.870586395264" lon="2.8949337005615"><ele>162</ele><time>2026-4-28T21:4:4Z</time></trkpt>
<trkpt lat="48.870586395264" lon="2.8949337005615"><ele>162</ele><time>2026-4-28T21:4:7Z</time></trkpt>
<trkpt lat="48.870609283447" lon="2.8950533866882"><ele>162</ele><time>2026-4-28T21:4:10Z</time></trkpt>
<trkpt lat="48.870609283447" lon="2.8950533866882"><ele>162</ele><time>2026-4-28T21:4:13Z</time></trkpt>
<trkpt lat="48.870620727539" lon="2.8951346874237"><ele>163</ele><time>2026-4-28T21:4:16Z</time></trkpt>
<trkpt lat="48.870632171631" lon="2.8952081203461"><ele>163</ele><time>2026-4-28T21:4:19Z</time></trkpt>
<trkpt lat="48.870635986328" lon="2.8952796459198"><ele>163</ele><time>2026-4-28T21:4:22Z</time></trkpt>
<trkpt lat="48.870643615723" lon="2.895350933075"><ele>164</ele><time>2026-4-28T21:4:25Z</time></trkpt>
<trkpt lat="48.87064743042" lon="2.8954181671143"><ele>164</ele><time>2026-4-28T21:4:28Z</time></trkpt>
<trkpt lat="48.870655059814" lon="2.8955490589142"><ele>164</ele><time>2026-4-28T21:4:31Z</time></trkpt>
<trkpt lat="48.870655059814" lon="2.8955490589142"><ele>164</ele><time>2026-4-28T21:4:34Z</time></trkpt>
<trkpt lat="48.870632171631" lon="2.895664691925"><ele>164</ele><time>2026-4-28T21:4:37Z</time></trkpt>
<trkpt lat="48.870632171631" lon="2.895664691925"><ele>164</ele><time>2026-4-28T21:4:40Z</time></trkpt>
<trkpt lat="48.870620727539" lon="2.8957929611206"><ele>165</ele><time>2026-4-28T21:4:43Z</time></trkpt>
<trkpt lat="48.870620727539" lon="2.8957929611206"><ele>165</ele><time>2026-4-28T21:4:46Z</time></trkpt>
<trkpt lat="48.870628356934" lon="2.8959362506866"><ele>165</ele><time>2026-4-28T21:4:49Z</time></trkpt>
<trkpt lat="48.870628356934" lon="2.8959362506866"><ele>165</ele><time>2026-4-28T21:4:52Z</time></trkpt>
<trkpt lat="48.870639801025" lon="2.896098613739"><ele>165</ele><time>2026-4-28T21:4:55Z</time></trkpt>
<trkpt lat="48.870655059814" lon="2.8962023258209"><ele>166</ele><time>2026-4-28T21:4:58Z</time></trkpt>
<trkpt lat="48.870658874512" lon="2.8963298797607"><ele>167</ele><time>2026-4-28T21:5:1Z</time></trkpt>
<trkpt lat="48.870658874512" lon="2.8963298797607"><ele>167</ele><time>2026-4-28T21:5:4Z</time></trkpt>
<trkpt lat="48.870666503906" lon="2.8964505195618"><ele>167</ele><time>2026-4-28T21:5:7Z</time></trkpt>
<trkpt lat="48.870681762695" lon="2.8965961933136"><ele>168</ele><time>2026-4-28T21:5:10Z</time></trkpt>
<trkpt lat="48.870681762695" lon="2.8965961933136"><ele>168</ele><time>2026-4-28T21:5:13Z</time></trkpt>
<trkpt lat="48.870681762695" lon="2.8967163562775"><ele>168</ele><time>2026-4-28T21:5:16Z</time></trkpt>
<trkpt lat="48.870681762695" lon="2.8967163562775"><ele>168</ele><time>2026-4-28T21:5:19Z</time></trkpt>
<trkpt lat="48.870677947998" lon="2.8968660831451"><ele>168</ele><time>2026-4-28T21:5:22Z</time></trkpt>
<trkpt lat="48.870674133301" lon="2.8970055580139"><ele>168</ele><time>2026-4-28T21:5:25Z</time></trkpt>
<trkpt lat="48.870677947998" lon="2.8971481323242"><ele>168</ele><time>2026-4-28T21:5:28Z</time></trkpt>
<trkpt lat="48.870677947998" lon="2.8971481323242"><ele>168</ele><time>2026-4-28T21:5:31Z</time></trkpt>
<trkpt lat="48.870697021484" lon="2.8972856998444"><ele>169</ele><time>2026-4-28T21:5:34Z</time></trkpt>
<trkpt lat="48.870712280273" lon="2.8974347114563"><ele>169</ele><time>2026-4-28T21:5:37Z</time></trkpt>
<trkpt lat="48.870719909668" lon="2.8975734710693"><ele>169</ele><time>2026-4-28T21:5:40Z</time></trkpt>
<trkpt lat="48.870719909668" lon="2.8975734710693"><ele>169</ele><time>2026-4-28T21:5:43Z</time></trkpt>
<trkpt lat="48.870746612549" lon="2.8977308273315"><ele>169</ele><time>2026-4-28T21:5:46Z</time></trkpt>
<trkpt lat="48.87077331543" lon="2.8979086875916"><ele>170</ele><time>2026-4-28T21:5:49Z</time></trkpt>
<trkpt lat="48.870780944824" lon="2.8980023860931"><ele>170</ele><time>2026-4-28T21:5:52Z</time></trkpt>
<trkpt lat="48.870811462402" lon="2.8981664180756"><ele>170</ele><time>2026-4-28T21:5:55Z</time></trkpt>
<trkpt lat="48.870830535889" lon="2.8982584476471"><ele>170</ele><time>2026-4-28T21:5:58Z</time></trkpt>
<trkpt lat="48.870849609375" lon="2.8983640670776"><ele>170</ele><time>2026-4-28T21:6:1Z</time></trkpt>
<trkpt lat="48.870849609375" lon="2.8983640670776"><ele>170</ele><time>2026-4-28T21:6:4Z</time></trkpt>
<trkpt lat="48.870868682861" lon="2.8984632492065"><ele>170</ele><time>2026-4-28T21:6:7Z</time></trkpt>
<trkpt lat="48.870891571045" lon="2.8985617160797"><ele>170</ele><time>2026-4-28T21:6:10Z</time></trkpt>
<trkpt lat="48.870906829834" lon="2.8986535072327"><ele>170</ele><time>2026-4-28T21:6:13Z</time></trkpt>
<trkpt lat="48.870906829834" lon="2.8986535072327"><ele>170</ele><time>2026-4-28T21:6:16Z</time></trkpt>
<trkpt lat="48.87092590332" lon="2.8987481594086"><ele>170</ele><time>2026-4-28T21:6:19Z</time></trkpt>
<trkpt lat="48.870944976807" lon="2.8988416194916"><ele>170</ele><time>2026-4-28T21:6:22Z</time></trkpt>
<trkpt lat="48.870960235596" lon="2.8989317417145"><ele>171</ele><time>2026-4-28T21:6:25Z</time></trkpt>
<trkpt lat="48.870960235596" lon="2.8989317417145"><ele>171</ele><time>2026-4-28T21:6:28Z</time></trkpt>
<trkpt lat="48.870975494385" lon="2.8990194797516"><ele>171</ele><time>2026-4-28T21:6:31Z</time></trkpt>
<trkpt lat="48.870986938477" lon="2.8991088867188"><ele>171</ele><time>2026-4-28T21:6:34Z</time></trkpt>
<trkpt lat="48.871002197266" lon="2.8992009162903"><ele>171</ele><time>2026-4-28T21:6:37Z</time></trkpt>
<trkpt lat="48.871002197266" lon="2.8992009162903"><ele>171</ele><time>2026-4-28T21:6:40Z</time></trkpt>
<trkpt lat="48.871013641357" lon="2.8992929458618"><ele>171</ele><time>2026-4-28T21:6:43Z</time></trkpt>
<trkpt lat="48.871025085449" lon="2.8993816375732"><ele>171</ele><time>2026-4-28T21:6:46Z</time></trkpt>
<trkpt lat="48.871028900146" lon="2.8994839191437"><ele>171</ele><time>2026-4-28T21:6:49Z</time></trkpt>
<trkpt lat="48.871028900146" lon="2.8994839191437"><ele>171</ele><time>2026-4-28T21:6:52Z</time></trkpt>
<trkpt lat="48.871028900146" lon="2.8995966911316"><ele>171</ele><time>2026-4-28T21:6:55Z</time></trkpt>
<trkpt lat="48.871028900146" lon="2.8996932506561"><ele>171</ele><time>2026-4-28T21:6:58Z</time></trkpt>
<trkpt lat="48.871028900146" lon="2.8997886180878"><ele>172</ele><time>2026-4-28T21:7:1Z</time></trkpt>
<trkpt lat="48.871028900146" lon="2.8997886180878"><ele>172</ele><time>2026-4-28T21:7:4Z</time></trkpt>
<trkpt lat="48.871028900146" lon="2.8998944759369"><ele>172</ele><time>2026-4-28T21:7:7Z</time></trkpt>
<trkpt lat="48.871028900146" lon="2.89998960495"><ele>172</ele><time>2026-4-28T21:7:10Z</time></trkpt>
<trkpt lat="48.871028900146" lon="2.900114774704"><ele>173</ele><time>2026-4-28T21:7:13Z</time></trkpt>
<trkpt lat="48.871028900146" lon="2.900114774704"><ele>173</ele><time>2026-4-28T21:7:16Z</time></trkpt>
<trkpt lat="48.871025085449" lon="2.9002501964569"><ele>174</ele><time>2026-4-28T21:7:19Z</time></trkpt>
<trkpt lat="48.871025085449" lon="2.9003772735596"><ele>174</ele><time>2026-4-28T21:7:22Z</time></trkpt>
<trkpt lat="48.871021270752" lon="2.9004888534546"><ele>174</ele><time>2026-4-28T21:7:25Z</time></trkpt>
<trkpt lat="48.871021270752" lon="2.9004888534546"><ele>174</ele><time>2026-4-28T21:7:28Z</time></trkpt>
<trkpt lat="48.871021270752" lon="2.9006009101868"><ele>174</ele><time>2026-4-28T21:7:31Z</time></trkpt>
<trkpt lat="48.871021270752" lon="2.9007246494293"><ele>174</ele><time>2026-4-28T21:7:34Z</time></trkpt>
<trkpt lat="48.871017456055" lon="2.9008638858795"><ele>174</ele><time>2026-4-28T21:7:37Z</time></trkpt>
<trkpt lat="48.871017456055" lon="2.9008638858795"><ele>174</ele><time>2026-4-28T21:7:40Z</time></trkpt>
<trkpt lat="48.871017456055" lon="2.9010090827942"><ele>174</ele><time>2026-4-28T21:7:43Z</time></trkpt>
<trkpt lat="48.871021270752" lon="2.9011154174805"><ele>175</ele><time>2026-4-28T21:7:46Z</time></trkpt>
<trkpt lat="48.871021270752" lon="2.9012217521667"><ele>174</ele><time>2026-4-28T21:7:49Z</time></trkpt>
<trkpt lat="48.871021270752" lon="2.9012217521667"><ele>174</ele><time>2026-4-28T21:7:52Z</time></trkpt>
<trkpt lat="48.871017456055" lon="2.9013497829437"><ele>174</ele><time>2026-4-28T21:7:55Z</time></trkpt>
<trkpt lat="48.87100982666" lon="2.9014897346497"><ele>174</ele><time>2026-4-28T21:7:58Z</time></trkpt>
<trkpt lat="48.871006011963" lon="2.9016110897064"><ele>175</ele><time>2026-4-28T21:8:1Z</time></trkpt>
<trkpt lat="48.871006011963" lon="2.9016110897064"><ele>175</ele><time>2026-4-28T21:8:4Z</time></trkpt>
<trkpt lat="48.870998382568" lon="2.9017446041107"><ele>174</ele><time>2026-4-28T21:8:7Z</time></trkpt>
<trkpt lat="48.870994567871" lon="2.9018437862396"><ele>174</ele><time>2026-4-28T21:8:10Z</time></trkpt>
<trkpt lat="48.870990753174" lon="2.9019553661346"><ele>174</ele><time>2026-4-28T21:8:13Z</time></trkpt>
<trkpt lat="48.870990753174" lon="2.9019553661346"><ele>174</ele><time>2026-4-28T21:8:16Z</time></trkpt>
<trkpt lat="48.870986938477" lon="2.9020617008209"><ele>174</ele><time>2026-4-28T21:8:19Z</time></trkpt>
<trkpt lat="48.870986938477" lon="2.9020617008209"><ele>174</ele><time>2026-4-28T21:8:22Z</time></trkpt>
<trkpt lat="48.870986938477" lon="2.9022164344788"><ele>174</ele><time>2026-4-28T21:8:25Z</time></trkpt>
<trkpt lat="48.870986938477" lon="2.9022164344788"><ele>174</ele><time>2026-4-28T21:8:28Z</time></trkpt>
<trkpt lat="48.870986938477" lon="2.9023098945618"><ele>174</ele><time>2026-4-28T21:8:31Z</time></trkpt>
<trkpt lat="48.870986938477" lon="2.9023098945618"><ele>174</ele><time>2026-4-28T21:8:34Z</time></trkpt>
<trkpt lat="48.870990753174" lon="2.9024775028229"><ele>173</ele><time>2026-4-28T21:8:37Z</time></trkpt>
<trkpt lat="48.870990753174" lon="2.9024775028229"><ele>173</ele><time>2026-4-28T21:8:40Z</time></trkpt>
<trkpt lat="48.870990753174" lon="2.9024775028229"><ele>173</ele><time>2026-4-28T21:8:43Z</time></trkpt>
<trkpt lat="48.870990753174" lon="2.9026520252228"><ele>173</ele><time>2026-4-28T21:8:46Z</time></trkpt>
<trkpt lat="48.870986938477" lon="2.9027585983276"><ele>173</ele><time>2026-4-28T21:8:49Z</time></trkpt>
<trkpt lat="48.870986938477" lon="2.9027585983276"><ele>173</ele><time>2026-4-28T21:8:52Z</time></trkpt>
<trkpt lat="48.870986938477" lon="2.9028558731079"><ele>173</ele><time>2026-4-28T21:8:55Z</time></trkpt>
<trkpt lat="48.870971679688" lon="2.9029686450958"><ele>173</ele><time>2026-4-28T21:8:58Z</time></trkpt>
<trkpt lat="48.870910644531" lon="2.9030137062073"><ele>173</ele><time>2026-4-28T21:9:1Z</time></trkpt>
<trkpt lat="48.870910644531" lon="2.9030137062073"><ele>173</ele><time>2026-4-28T21:9:4Z</time></trkpt>
<trkpt lat="48.8708152771" lon="2.9030358791351"><ele>173</ele><time>2026-4-28T21:9:7Z</time></trkpt>
<trkpt lat="48.87073135376" lon="2.9030725955963"><ele>173</ele><time>2026-4-28T21:9:10Z</time></trkpt>
<trkpt lat="48.870677947998" lon="2.9031555652618"><ele>173</ele><time>2026-4-28T21:9:13Z</time></trkpt>
<trkpt lat="48.870677947998" lon="2.9031555652618"><ele>173</ele><time>2026-4-28T21:9:16Z</time></trkpt>
<trkpt lat="48.870635986328" lon="2.9032576084137"><ele>173</ele><time>2026-4-28T21:9:19Z</time></trkpt>
<trkpt lat="48.87060546875" lon="2.9033570289612"><ele>174</ele><time>2026-4-28T21:9:22Z</time></trkpt>
<trkpt lat="48.870578765869" lon="2.9034841060638"><ele>174</ele><time>2026-4-28T21:9:25Z</time></trkpt>
<trkpt lat="48.870578765869" lon="2.9034841060638"><ele>174</ele><time>2026-4-28T21:9:28Z</time></trkpt>
<trkpt lat="48.87056350708" lon="2.9035942554474"><ele>174</ele><time>2026-4-28T21:9:31Z</time></trkpt>
<trkpt lat="48.870548248291" lon="2.9037039279938"><ele>175</ele><time>2026-4-28T21:9:34Z</time></trkpt>
<trkpt lat="48.870529174805" lon="2.9038136005402"><ele>175</ele><time>2026-4-28T21:9:37Z</time></trkpt>
<trkpt lat="48.870529174805" lon="2.9038136005402"><ele>175</ele><time>2026-4-28T21:9:40Z</time></trkpt>
<trkpt lat="48.870502471924" lon="2.9039254188538"><ele>174</ele><time>2026-4-28T21:9:43Z</time></trkpt>
<trkpt lat="48.870475769043" lon="2.9040443897247"><ele>175</ele><time>2026-4-28T21:9:46Z</time></trkpt>
<trkpt lat="48.870449066162" lon="2.9041755199432"><ele>175</ele><time>2026-4-28T21:9:49Z</time></trkpt>
<trkpt lat="48.870449066162" lon="2.9041755199432"><ele>175</ele><time>2026-4-28T21:9:52Z</time></trkpt>
<trkpt lat="48.870429992676" lon="2.9042730331421"><ele>175</ele><time>2026-4-28T21:9:55Z</time></trkpt>
<trkpt lat="48.870407104492" lon="2.904369354248"><ele>174</ele><time>2026-4-28T21:9:58Z</time></trkpt>
<trkpt lat="48.870403289795" lon="2.9044625759125"><ele>174</ele><time>2026-4-28T21:10:1Z</time></trkpt>
<trkpt lat="48.870403289795" lon="2.9044625759125"><ele>174</ele><time>2026-4-28T21:10:4Z</time></trkpt>
<trkpt lat="48.8703956604" lon="2.9045600891113"><ele>175</ele><time>2026-4-28T21:10:7Z</time></trkpt>
<trkpt lat="48.870384216309" lon="2.9046921730042"><ele>175</ele><time>2026-4-28T21:10:10Z</time></trkpt>
<trkpt lat="48.870372772217" lon="2.904824256897"><ele>175</ele><time>2026-4-28T21:10:13Z</time></trkpt>
<trkpt lat="48.870372772217" lon="2.904824256897"><ele>175</ele><time>2026-4-28T21:10:16Z</time></trkpt>
<trkpt lat="48.870365142822" lon="2.9049334526062"><ele>175</ele><time>2026-4-28T21:10:19Z</time></trkpt>
<trkpt lat="48.870346069336" lon="2.9050362110138"><ele>175</ele><time>2026-4-28T21:10:22Z</time></trkpt>
<trkpt lat="48.870330810547" lon="2.9051518440247"><ele>175</ele><time>2026-4-28T21:10:25Z</time></trkpt>
<trkpt lat="48.870330810547" lon="2.9051518440247"><ele>175</ele><time>2026-4-28T21:10:28Z</time></trkpt>
<trkpt lat="48.870323181152" lon="2.9052803516388"><ele>175</ele><time>2026-4-28T21:10:31Z</time></trkpt>
<trkpt lat="48.870315551758" lon="2.905392408371"><ele>175</ele><time>2026-4-28T21:10:34Z</time></trkpt>
<trkpt lat="48.870311737061" lon="2.905483007431"><ele>175</ele><time>2026-4-28T21:10:37Z</time></trkpt>
<trkpt lat="48.870311737061" lon="2.905483007431"><ele>175</ele><time>2026-4-28T21:10:40Z</time></trkpt>
<trkpt lat="48.870304107666" lon="2.9056587219238"><ele>176</ele><time>2026-4-28T21:10:43Z</time></trkpt>
<trkpt lat="48.870296478271" lon="2.9057633876801"><ele>176</ele><time>2026-4-28T21:10:46Z</time></trkpt>
<trkpt lat="48.870296478271" lon="2.9057633876801"><ele>176</ele><time>2026-4-28T21:10:49Z</time></trkpt>
<trkpt lat="48.870281219482" lon="2.9058752059937"><ele>175</ele><time>2026-4-28T21:10:52Z</time></trkpt>
<trkpt lat="48.870269775391" lon="2.9059805870056"><ele>175</ele><time>2026-4-28T21:10:55Z</time></trkpt>
<trkpt lat="48.870258331299" lon="2.9060893058777"><ele>175</ele><time>2026-4-28T21:10:58Z</time></trkpt>
<trkpt lat="48.870258331299" lon="2.9060893058777"><ele>175</ele><time>2026-4-28T21:11:1Z</time></trkpt>
<trkpt lat="48.870246887207" lon="2.9062056541443"><ele>175</ele><time>2026-4-28T21:11:4Z</time></trkpt>
<trkpt lat="48.870235443115" lon="2.9063274860382"><ele>176</ele><time>2026-4-28T21:11:7Z</time></trkpt>
<trkpt lat="48.870223999023" lon="2.9064319133759"><ele>176</ele><time>2026-4-28T21:11:10Z</time></trkpt>
<trkpt lat="48.870223999023" lon="2.9064319133759"><ele>176</ele><time>2026-4-28T21:11:13Z</time></trkpt>
<trkpt lat="48.870216369629" lon="2.9065506458282"><ele>176</ele><time>2026-4-28T21:11:16Z</time></trkpt>
<trkpt lat="48.870208740234" lon="2.9066779613495"><ele>176</ele><time>2026-4-28T21:11:19Z</time></trkpt>
<trkpt lat="48.87020111084" lon="2.9067862033844"><ele>176</ele><time>2026-4-28T21:11:22Z</time></trkpt>
<trkpt lat="48.87020111084" lon="2.9067862033844"><ele>176</ele><time>2026-4-28T21:11:25Z</time></trkpt>
<trkpt lat="48.870197296143" lon="2.9068865776062"><ele>176</ele><time>2026-4-28T21:11:28Z</time></trkpt>
<trkpt lat="48.870197296143" lon="2.9070680141449"><ele>176</ele><time>2026-4-28T21:11:31Z</time></trkpt>
<trkpt lat="48.870197296143" lon="2.9070680141449"><ele>176</ele><time>2026-4-28T21:11:34Z</time></trkpt>
<trkpt lat="48.870193481445" lon="2.9071662425995"><ele>176</ele><time>2026-4-28T21:11:37Z</time></trkpt>
<trkpt lat="48.870189666748" lon="2.907258272171"><ele>176</ele><time>2026-4-28T21:11:40Z</time></trkpt>
<trkpt lat="48.870189666748" lon="2.907258272171"><ele>176</ele><time>2026-4-28T21:11:43Z</time></trkpt>
<trkpt lat="48.870189666748" lon="2.907258272171"><ele>176</ele><time>2026-4-28T21:11:46Z</time></trkpt>
<trkpt lat="48.870185852051" lon="2.9073979854584"><ele>176</ele><time>2026-4-28T21:11:49Z</time></trkpt>
<trkpt lat="48.870185852051" lon="2.9073979854584"><ele>176</ele><time>2026-4-28T21:11:52Z</time></trkpt>
<trkpt lat="48.870174407959" lon="2.9075322151184"><ele>176</ele><time>2026-4-28T21:11:55Z</time></trkpt>
<trkpt lat="48.870174407959" lon="2.9075322151184"><ele>176</ele><time>2026-4-28T21:11:58Z</time></trkpt>
<trkpt lat="48.870174407959" lon="2.9075322151184"><ele>176</ele><time>2026-4-28T21:12:1Z</time></trkpt>
<trkpt lat="48.870166778564" lon="2.9076340198517"><ele>176</ele><time>2026-4-28T21:12:4Z</time></trkpt>
<trkpt lat="48.870166778564" lon="2.9076340198517"><ele>176</ele><time>2026-4-28T21:12:7Z</time></trkpt>
<trkpt lat="48.870166778564" lon="2.9076340198517"><ele>176</ele><time>2026-4-28T21:12:10Z</time></trkpt>
<trkpt lat="48.87015914917" lon="2.9077360630035"><ele>176</ele><time>2026-4-28T21:12:13Z</time></trkpt>
<trkpt lat="48.87015914917" lon="2.9077360630035"><ele>176</ele><time>2026-4-28T21:12:16Z</time></trkpt>
<trkpt lat="48.87015914917" lon="2.9077360630035"><ele>176</ele><time>2026-4-28T21:12:19Z</time></trkpt>
<trkpt lat="48.87015914917" lon="2.9077360630035"><ele>176</ele><time>2026-4-28T21:12:22Z</time></trkpt>
<trkpt lat="48.87015914917" lon="2.9077360630035"><ele>176</ele><time>2026-4-28T21:12:25Z</time></trkpt>
<trkpt lat="48.87015914917" lon="2.9077360630035"><ele>176</ele><time>2026-4-28T21:12:28Z</time></trkpt>
<trkpt lat="48.87015914917" lon="2.9077360630035"><ele>176</ele><time>2026-4-28T21:12:31Z</time></trkpt>
<trkpt lat="48.87015914917" lon="2.9077360630035"><ele>176</ele><time>2026-4-28T21:12:34Z</time></trkpt>
<trkpt lat="48.870162963867" lon="2.9078462123871"><ele>176</ele><time>2026-4-28T21:12:37Z</time></trkpt>
<trkpt lat="48.870162963867" lon="2.9078462123871"><ele>176</ele><time>2026-4-28T21:12:40Z</time></trkpt>
<trkpt lat="48.870162963867" lon="2.9079337120056"><ele>176</ele><time>2026-4-28T21:12:43Z</time></trkpt>
<trkpt lat="48.870162963867" lon="2.9080145359039"><ele>176</ele><time>2026-4-28T21:12:46Z</time></trkpt>
<trkpt lat="48.87015914917" lon="2.9080700874329"><ele>176</ele><time>2026-4-28T21:12:49Z</time></trkpt>
<trkpt lat="48.87015914917" lon="2.9081263542175"><ele>176</ele><time>2026-4-28T21:12:52Z</time></trkpt>
<trkpt lat="48.870166778564" lon="2.9082541465759"><ele>176</ele><time>2026-4-28T21:12:55Z</time></trkpt>
<trkpt lat="48.870193481445" lon="2.9084050655365"><ele>177</ele><time>2026-4-28T21:12:58Z</time></trkpt>
<trkpt lat="48.870292663574" lon="2.9084887504578"><ele>177</ele><time>2026-4-28T21:13:1Z</time></trkpt>
<trkpt lat="48.870357513428" lon="2.9084870815277"><ele>177</ele><time>2026-4-28T21:13:4Z</time></trkpt>
<trkpt lat="48.870426177979" lon="2.9084846973419"><ele>177</ele><time>2026-4-28T21:13:7Z</time></trkpt>
<trkpt lat="48.870536804199" lon="2.9084632396698"><ele>177</ele><time>2026-4-28T21:13:10Z</time></trkpt>
<trkpt lat="48.870597839355" lon="2.908459186554"><ele>177</ele><time>2026-4-28T21:13:13Z</time></trkpt>
<trkpt lat="48.870674133301" lon="2.9084601402283"><ele>177</ele><time>2026-4-28T21:13:16Z</time></trkpt>
<trkpt lat="48.870738983154" lon="2.9084987640381"><ele>177</ele><time>2026-4-28T21:13:19Z</time></trkpt>
<trkpt lat="48.870784759521" lon="2.908588886261"><ele>177</ele><time>2026-4-28T21:13:22Z</time></trkpt>
<trkpt lat="48.870780944824" lon="2.9087030887604"><ele>176</ele><time>2026-4-28T21:13:25Z</time></trkpt>
<trkpt lat="48.870742797852" lon="2.9088010787964"><ele>175</ele><time>2026-4-28T21:13:28Z</time></trkpt>
<trkpt lat="48.87068939209" lon="2.908878326416"><ele>175</ele><time>2026-4-28T21:13:31Z</time></trkpt>
<trkpt lat="48.87060546875" lon="2.9089925289154"><ele>175</ele><time>2026-4-28T21:13:34Z</time></trkpt>
<trkpt lat="48.87060546875" lon="2.9089925289154"><ele>175</ele><time>2026-4-28T21:13:37Z</time></trkpt>
<trkpt lat="48.870540618896" lon="2.9091081619263"><ele>175</ele><time>2026-4-28T21:13:40Z</time></trkpt>
<trkpt lat="48.870540618896" lon="2.9091081619263"><ele>175</ele><time>2026-4-28T21:13:43Z</time></trkpt>
<trkpt lat="48.870468139648" lon="2.9092395305634"><ele>175</ele><time>2026-4-28T21:13:46Z</time></trkpt>
<trkpt lat="48.870429992676" lon="2.9093222618103"><ele>175</ele><time>2026-4-28T21:13:49Z</time></trkpt>
<trkpt lat="48.870384216309" lon="2.909423828125"><ele>175</ele><time>2026-4-28T21:13:52Z</time></trkpt>
<trkpt lat="48.87035369873" lon="2.9095211029053"><ele>175</ele><time>2026-4-28T21:13:55Z</time></trkpt>
<trkpt lat="48.87032699585" lon="2.9096038341522"><ele>174</ele><time>2026-4-28T21:13:58Z</time></trkpt>
<trkpt lat="48.870304107666" lon="2.9096884727478"><ele>175</ele><time>2026-4-28T21:14:1Z</time></trkpt>
<trkpt lat="48.870273590088" lon="2.9097921848297"><ele>175</ele><time>2026-4-28T21:14:4Z</time></trkpt>
<trkpt lat="48.870250701904" lon="2.9098744392395"><ele>175</ele><time>2026-4-28T21:14:7Z</time></trkpt>
<trkpt lat="48.870227813721" lon="2.9099614620209"><ele>175</ele><time>2026-4-28T21:14:10Z</time></trkpt>
<trkpt lat="48.870212554932" lon="2.9100449085236"><ele>175</ele><time>2026-4-28T21:14:13Z</time></trkpt>
<trkpt lat="48.870189666748" lon="2.9101498126984"><ele>175</ele><time>2026-4-28T21:14:16Z</time></trkpt>
<trkpt lat="48.870166778564" lon="2.9102435112"><ele>175</ele><time>2026-4-28T21:14:19Z</time></trkpt>
<trkpt lat="48.870166778564" lon="2.9102435112"><ele>175</ele><time>2026-4-28T21:14:22Z</time></trkpt>
<trkpt lat="48.870136260986" lon="2.9103915691376"><ele>175</ele><time>2026-4-28T21:14:25Z</time></trkpt>
<trkpt lat="48.870136260986" lon="2.9103915691376"><ele>175</ele><time>2026-4-28T21:14:28Z</time></trkpt>
<trkpt lat="48.870094299316" lon="2.910552740097"><ele>176</ele><time>2026-4-28T21:14:31Z</time></trkpt>
<trkpt lat="48.870067596436" lon="2.910651922226"><ele>176</ele><time>2026-4-28T21:14:34Z</time></trkpt>
<trkpt lat="48.870040893555" lon="2.9107460975647"><ele>176</ele><time>2026-4-28T21:14:37Z</time></trkpt>
<trkpt lat="48.870010375977" lon="2.9109077453613"><ele>176</ele><time>2026-4-28T21:14:40Z</time></trkpt>
<trkpt lat="48.869987487793" lon="2.9110052585602"><ele>176</ele><time>2026-4-28T21:14:43Z</time></trkpt>
<trkpt lat="48.869968414307" lon="2.9111032485962"><ele>176</ele><time>2026-4-28T21:14:46Z</time></trkpt>
<trkpt lat="48.869953155518" lon="2.9112000465393"><ele>176</ele><time>2026-4-28T21:14:49Z</time></trkpt>
<trkpt lat="48.869937896729" lon="2.9112954139709"><ele>176</ele><time>2026-4-28T21:14:52Z</time></trkpt>
<trkpt lat="48.869922637939" lon="2.9113788604736"><ele>177</ele><time>2026-4-28T21:14:55Z</time></trkpt>
<trkpt lat="48.869903564453" lon="2.9114720821381"><ele>177</ele><time>2026-4-28T21:14:58Z</time></trkpt>
<trkpt lat="48.869888305664" lon="2.9115753173828"><ele>177</ele><time>2026-4-28T21:15:1Z</time></trkpt>
<trkpt lat="48.869876861572" lon="2.9116759300232"><ele>177</ele><time>2026-4-28T21:15:4Z</time></trkpt>
<trkpt lat="48.869857788086" lon="2.9117748737335"><ele>177</ele><time>2026-4-28T21:15:7Z</time></trkpt>
<trkpt lat="48.869842529297" lon="2.9118812084198"><ele>177</ele><time>2026-4-28T21:15:10Z</time></trkpt>
<trkpt lat="48.869823455811" lon="2.9119846820831"><ele>177</ele><time>2026-4-28T21:15:13Z</time></trkpt>
<trkpt lat="48.869789123535" lon="2.9121453762054"><ele>177</ele><time>2026-4-28T21:15:16Z</time></trkpt>
<trkpt lat="48.869770050049" lon="2.9122388362885"><ele>177</ele><time>2026-4-28T21:15:19Z</time></trkpt>
<trkpt lat="48.869750976562" lon="2.9123349189758"><ele>177</ele><time>2026-4-28T21:15:22Z</time></trkpt>
<trkpt lat="48.869731903076" lon="2.9124357700348"><ele>177</ele><time>2026-4-28T21:15:25Z</time></trkpt>
<trkpt lat="48.86971282959" lon="2.9125361442566"><ele>177</ele><time>2026-4-28T21:15:28Z</time></trkpt>
<trkpt lat="48.869689941406" lon="2.9126303195953"><ele>177</ele><time>2026-4-28T21:15:31Z</time></trkpt>
<trkpt lat="48.86967086792" lon="2.9127185344696"><ele>177</ele><time>2026-4-28T21:15:34Z</time></trkpt>
<trkpt lat="48.869647979736" lon="2.9128034114838"><ele>177</ele><time>2026-4-28T21:15:37Z</time></trkpt>
<trkpt lat="48.869647979736" lon="2.9128034114838"><ele>177</ele><time>2026-4-28T21:15:40Z</time></trkpt>
<trkpt lat="48.869617462158" lon="2.9129490852356"><ele>177</ele><time>2026-4-28T21:15:43Z</time></trkpt>
<trkpt lat="48.869617462158" lon="2.9129490852356"><ele>177</ele><time>2026-4-28T21:15:46Z</time></trkpt>
<trkpt lat="48.86958694458" lon="2.9130890369415"><ele>177</ele><time>2026-4-28T21:15:49Z</time></trkpt>
<trkpt lat="48.869567871094" lon="2.9131770133972"><ele>177</ele><time>2026-4-28T21:15:52Z</time></trkpt>
<trkpt lat="48.869552612305" lon="2.913268327713"><ele>177</ele><time>2026-4-28T21:15:55Z</time></trkpt>
<trkpt lat="48.869533538818" lon="2.9133636951447"><ele>177</ele><time>2026-4-28T21:15:58Z</time></trkpt>
<trkpt lat="48.869514465332" lon="2.9134495258331"><ele>178</ele><time>2026-4-28T21:16:1Z</time></trkpt>
<trkpt lat="48.869491577148" lon="2.9135432243347"><ele>178</ele><time>2026-4-28T21:16:4Z</time></trkpt>
<trkpt lat="48.869472503662" lon="2.913635969162"><ele>178</ele><time>2026-4-28T21:16:7Z</time></trkpt>
<trkpt lat="48.869472503662" lon="2.913635969162"><ele>178</ele><time>2026-4-28T21:16:10Z</time></trkpt>
<trkpt lat="48.869434356689" lon="2.9138097763062"><ele>178</ele><time>2026-4-28T21:16:13Z</time></trkpt>
<trkpt lat="48.869400024414" lon="2.9139585494995"><ele>178</ele><time>2026-4-28T21:16:16Z</time></trkpt>
<trkpt lat="48.86937713623" lon="2.9140486717224"><ele>178</ele><time>2026-4-28T21:16:19Z</time></trkpt>
<trkpt lat="48.869354248047" lon="2.9141454696655"><ele>178</ele><time>2026-4-28T21:16:22Z</time></trkpt>
<trkpt lat="48.869331359863" lon="2.9142465591431"><ele>178</ele><time>2026-4-28T21:16:25Z</time></trkpt>
<trkpt lat="48.86930847168" lon="2.9143385887146"><ele>178</ele><time>2026-4-28T21:16:28Z</time></trkpt>
<trkpt lat="48.869285583496" lon="2.914425611496"><ele>179</ele><time>2026-4-28T21:16:31Z</time></trkpt>
<trkpt lat="48.869262695312" lon="2.9145112037659"><ele>179</ele><time>2026-4-28T21:16:34Z</time></trkpt>
<trkpt lat="48.869239807129" lon="2.9146008491516"><ele>179</ele><time>2026-4-28T21:16:37Z</time></trkpt>
<trkpt lat="48.869216918945" lon="2.9146909713745"><ele>179</ele><time>2026-4-28T21:16:40Z</time></trkpt>
<trkpt lat="48.869194030762" lon="2.9147772789001"><ele>179</ele><time>2026-4-28T21:16:43Z</time></trkpt>
<trkpt lat="48.869167327881" lon="2.914871931076"><ele>179</ele><time>2026-4-28T21:16:46Z</time></trkpt>
<trkpt lat="48.869140625" lon="2.9149663448334"><ele>179</ele><time>2026-4-28T21:16:49Z</time></trkpt>
<trkpt lat="48.869117736816" lon="2.9150536060333"><ele>180</ele><time>2026-4-28T21:16:52Z</time></trkpt>
<trkpt lat="48.869091033936" lon="2.915141582489"><ele>180</ele><time>2026-4-28T21:16:55Z</time></trkpt>
<trkpt lat="48.869060516357" lon="2.9152495861053"><ele>180</ele><time>2026-4-28T21:16:58Z</time></trkpt>
<trkpt lat="48.869029998779" lon="2.9153561592102"><ele>180</ele><time>2026-4-28T21:17:1Z</time></trkpt>
<trkpt lat="48.869003295898" lon="2.9154491424561"><ele>181</ele><time>2026-4-28T21:17:4Z</time></trkpt>
<trkpt lat="48.868976593018" lon="2.9155395030975"><ele>181</ele><time>2026-4-28T21:17:7Z</time></trkpt>
<trkpt lat="48.868953704834" lon="2.9156317710876"><ele>181</ele><time>2026-4-28T21:17:10Z</time></trkpt>
<trkpt lat="48.868938446045" lon="2.9157147407532"><ele>181</ele><time>2026-4-28T21:17:13Z</time></trkpt>
<trkpt lat="48.868938446045" lon="2.9157147407532"><ele>181</ele><time>2026-4-28T21:17:16Z</time></trkpt>
<trkpt lat="48.868892669678" lon="2.9158864021301"><ele>182</ele><time>2026-4-28T21:17:19Z</time></trkpt>
<trkpt lat="48.868892669678" lon="2.9158864021301"><ele>182</ele><time>2026-4-28T21:17:22Z</time></trkpt>
<trkpt lat="48.868850708008" lon="2.9160203933716"><ele>182</ele><time>2026-4-28T21:17:25Z</time></trkpt>
<trkpt lat="48.868850708008" lon="2.9160203933716"><ele>182</ele><time>2026-4-28T21:17:28Z</time></trkpt>
<trkpt lat="48.86882019043" lon="2.9160995483398"><ele>182</ele><time>2026-4-28T21:17:31Z</time></trkpt>
<trkpt lat="48.86882019043" lon="2.9160995483398"><ele>182</ele><time>2026-4-28T21:17:34Z</time></trkpt>
<trkpt lat="48.86882019043" lon="2.9160995483398"><ele>182</ele><time>2026-4-28T21:17:37Z</time></trkpt>
<trkpt lat="48.868789672852" lon="2.9162125587463"><ele>182</ele><time>2026-4-28T21:17:40Z</time></trkpt>
<trkpt lat="48.868789672852" lon="2.9162125587463"><ele>182</ele><time>2026-4-28T21:17:43Z</time></trkpt>
<trkpt lat="48.868774414062" lon="2.9163112640381"><ele>183</ele><time>2026-4-28T21:17:46Z</time></trkpt>
<trkpt lat="48.868774414062" lon="2.9163112640381"><ele>183</ele><time>2026-4-28T21:17:49Z</time></trkpt>
<trkpt lat="48.868762969971" lon="2.9164505004883"><ele>183</ele><time>2026-4-28T21:17:52Z</time></trkpt>
<trkpt lat="48.868762969971" lon="2.9164505004883"><ele>183</ele><time>2026-4-28T21:17:55Z</time></trkpt>
<trkpt lat="48.868759155273" lon="2.9165740013123"><ele>183</ele><time>2026-4-28T21:17:58Z</time></trkpt>
<trkpt lat="48.868759155273" lon="2.9165740013123"><ele>183</ele><time>2026-4-28T21:18:1Z</time></trkpt>
<trkpt lat="48.868751525879" lon="2.9166619777679"><ele>184</ele><time>2026-4-28T21:18:4Z</time></trkpt>
<trkpt lat="48.868751525879" lon="2.9166619777679"><ele>184</ele><time>2026-4-28T21:18:7Z</time></trkpt>
<trkpt lat="48.868751525879" lon="2.9166619777679"><ele>184</ele><time>2026-4-28T21:18:10Z</time></trkpt>
<trkpt lat="48.868740081787" lon="2.9168086051941"><ele>184</ele><time>2026-4-28T21:18:13Z</time></trkpt>
<trkpt lat="48.868740081787" lon="2.9168086051941"><ele>184</ele><time>2026-4-28T21:18:16Z</time></trkpt>
<trkpt lat="48.86873626709" lon="2.9168965816498"><ele>185</ele><time>2026-4-28T21:18:19Z</time></trkpt>
<trkpt lat="48.86873626709" lon="2.9168965816498"><ele>185</ele><time>2026-4-28T21:18:22Z</time></trkpt>
<trkpt lat="48.868743896484" lon="2.9170072078705"><ele>185</ele><time>2026-4-28T21:18:25Z</time></trkpt>
<trkpt lat="48.868759155273" lon="2.9171266555786"><ele>185</ele><time>2026-4-28T21:18:28Z</time></trkpt>
<trkpt lat="48.868782043457" lon="2.9172625541687"><ele>185</ele><time>2026-4-28T21:18:31Z</time></trkpt>
<trkpt lat="48.868782043457" lon="2.9172625541687"><ele>185</ele><time>2026-4-28T21:18:34Z</time></trkpt>
<trkpt lat="48.868793487549" lon="2.9173409938812"><ele>184</ele><time>2026-4-28T21:18:37Z</time></trkpt>
<trkpt lat="48.868804931641" lon="2.9174180030823"><ele>184</ele><time>2026-4-28T21:18:40Z</time></trkpt>
<trkpt lat="48.86882019043" lon="2.9174997806549"><ele>184</ele><time>2026-4-28T21:18:43Z</time></trkpt>
<trkpt lat="48.868831634521" lon="2.9175820350647"><ele>184</ele><time>2026-4-28T21:18:46Z</time></trkpt>
<trkpt lat="48.868839263916" lon="2.9176638126373"><ele>184</ele><time>2026-4-28T21:18:49Z</time></trkpt>
<trkpt lat="48.868858337402" lon="2.9178326129913"><ele>184</ele><time>2026-4-28T21:18:52Z</time></trkpt>
<trkpt lat="48.868873596191" lon="2.9179697036743"><ele>184</ele><time>2026-4-28T21:18:55Z</time></trkpt>
<trkpt lat="48.868873596191" lon="2.9179697036743"><ele>184</ele><time>2026-4-28T21:18:58Z</time></trkpt>
<trkpt lat="48.868900299072" lon="2.9181268215179"><ele>184</ele><time>2026-4-28T21:19:1Z</time></trkpt>
<trkpt lat="48.868919372559" lon="2.9182143211365"><ele>184</ele><time>2026-4-28T21:19:4Z</time></trkpt>
<trkpt lat="48.868919372559" lon="2.9182143211365"><ele>184</ele><time>2026-4-28T21:19:7Z</time></trkpt>
<trkpt lat="48.868957519531" lon="2.9183712005615"><ele>183</ele><time>2026-4-28T21:19:10Z</time></trkpt>
<trkpt lat="48.868999481201" lon="2.9185409545898"><ele>183</ele><time>2026-4-28T21:19:13Z</time></trkpt>
<trkpt lat="48.869022369385" lon="2.9186315536499"><ele>183</ele><time>2026-4-28T21:19:16Z</time></trkpt>
<trkpt lat="48.869064331055" lon="2.9187786579132"><ele>183</ele><time>2026-4-28T21:19:19Z</time></trkpt>
<trkpt lat="48.869102478027" lon="2.9189326763153"><ele>183</ele><time>2026-4-28T21:19:22Z</time></trkpt>
<trkpt lat="48.869125366211" lon="2.9190154075623"><ele>183</ele><time>2026-4-28T21:19:25Z</time></trkpt>
<trkpt lat="48.869125366211" lon="2.9190154075623"><ele>183</ele><time>2026-4-28T21:19:28Z</time></trkpt>
<trkpt lat="48.869155883789" lon="2.9191522598267"><ele>183</ele><time>2026-4-28T21:19:31Z</time></trkpt>
<trkpt lat="48.869155883789" lon="2.9191522598267"><ele>183</ele><time>2026-4-28T21:19:34Z</time></trkpt>
<trkpt lat="48.869201660156" lon="2.919303894043"><ele>184</ele><time>2026-4-28T21:19:37Z</time></trkpt>
<trkpt lat="48.869220733643" lon="2.9193923473358"><ele>184</ele><time>2026-4-28T21:19:40Z</time></trkpt>
<trkpt lat="48.869220733643" lon="2.9193923473358"><ele>184</ele><time>2026-4-28T21:19:43Z</time></trkpt>
<trkpt lat="48.869262695312" lon="2.9195580482483"><ele>184</ele><time>2026-4-28T21:19:46Z</time></trkpt>
<trkpt lat="48.869293212891" lon="2.9197142124176"><ele>185</ele><time>2026-4-28T21:19:49Z</time></trkpt>
<trkpt lat="48.869323730469" lon="2.9198713302612"><ele>185</ele><time>2026-4-28T21:19:52Z</time></trkpt>
<trkpt lat="48.869323730469" lon="2.9198713302612"><ele>185</ele><time>2026-4-28T21:19:55Z</time></trkpt>
<trkpt lat="48.869346618652" lon="2.920018196106"><ele>185</ele><time>2026-4-28T21:19:58Z</time></trkpt>
<trkpt lat="48.869346618652" lon="2.920018196106"><ele>185</ele><time>2026-4-28T21:20:1Z</time></trkpt>
<trkpt lat="48.869380950928" lon="2.9201865196228"><ele>185</ele><time>2026-4-28T21:20:4Z</time></trkpt>
<trkpt lat="48.86939239502" lon="2.9202740192413"><ele>185</ele><time>2026-4-28T21:20:7Z</time></trkpt>
<trkpt lat="48.869407653809" lon="2.9203622341156"><ele>185</ele><time>2026-4-28T21:20:10Z</time></trkpt>
<trkpt lat="48.869407653809" lon="2.9203622341156"><ele>185</ele><time>2026-4-28T21:20:13Z</time></trkpt>
<trkpt lat="48.869445800781" lon="2.9205260276794"><ele>185</ele><time>2026-4-28T21:20:16Z</time></trkpt>
<trkpt lat="48.86946105957" lon="2.9206173419952"><ele>185</ele><time>2026-4-28T21:20:19Z</time></trkpt>
<trkpt lat="48.86946105957" lon="2.9206173419952"><ele>185</ele><time>2026-4-28T21:20:22Z</time></trkpt>
<trkpt lat="48.869491577148" lon="2.920804977417"><ele>185</ele><time>2026-4-28T21:20:25Z</time></trkpt>
<trkpt lat="48.86950302124" lon="2.9209086894989"><ele>185</ele><time>2026-4-28T21:20:28Z</time></trkpt>
<trkpt lat="48.86950302124" lon="2.9209086894989"><ele>185</ele><time>2026-4-28T21:20:31Z</time></trkpt>
<trkpt lat="48.869525909424" lon="2.9210636615753"><ele>185</ele><time>2026-4-28T21:20:34Z</time></trkpt>
<trkpt lat="48.869548797607" lon="2.9211552143097"><ele>185</ele><time>2026-4-28T21:20:37Z</time></trkpt>
<trkpt lat="48.869567871094" lon="2.9212396144867"><ele>185</ele><time>2026-4-28T21:20:40Z</time></trkpt>
<trkpt lat="48.869590759277" lon="2.9213325977325"><ele>185</ele><time>2026-4-28T21:20:43Z</time></trkpt>
<trkpt lat="48.869621276855" lon="2.9214227199554"><ele>185</ele><time>2026-4-28T21:20:46Z</time></trkpt>
<trkpt lat="48.869647979736" lon="2.9215104579926"><ele>185</ele><time>2026-4-28T21:20:49Z</time></trkpt>
<trkpt lat="48.869674682617" lon="2.9215922355652"><ele>185</ele><time>2026-4-28T21:20:52Z</time></trkpt>
<trkpt lat="48.869728088379" lon="2.9217500686646"><ele>185</ele><time>2026-4-28T21:20:55Z</time></trkpt>
<trkpt lat="48.86975479126" lon="2.9218392372131"><ele>185</ele><time>2026-4-28T21:20:58Z</time></trkpt>
<trkpt lat="48.869777679443" lon="2.921932220459"><ele>185</ele><time>2026-4-28T21:21:1Z</time></trkpt>
<trkpt lat="48.869777679443" lon="2.921932220459"><ele>185</ele><time>2026-4-28T21:21:4Z</time></trkpt>
<trkpt lat="48.869804382324" lon="2.9220230579376"><ele>185</ele><time>2026-4-28T21:21:7Z</time></trkpt>
<trkpt lat="48.869831085205" lon="2.9221251010895"><ele>185</ele><time>2026-4-28T21:21:10Z</time></trkpt>
<trkpt lat="48.869853973389" lon="2.9222183227539"><ele>185</ele><time>2026-4-28T21:21:13Z</time></trkpt>
<trkpt lat="48.869853973389" lon="2.9222183227539"><ele>185</ele><time>2026-4-28T21:21:16Z</time></trkpt>
<trkpt lat="48.86988067627" lon="2.9223175048828"><ele>185</ele><time>2026-4-28T21:21:19Z</time></trkpt>
<trkpt lat="48.86990737915" lon="2.9224164485931"><ele>185</ele><time>2026-4-28T21:21:22Z</time></trkpt>
<trkpt lat="48.86990737915" lon="2.9224164485931"><ele>185</ele><time>2026-4-28T21:21:25Z</time></trkpt>
<trkpt lat="48.869934082031" lon="2.9225733280182"><ele>185</ele><time>2026-4-28T21:21:28Z</time></trkpt>
<trkpt lat="48.869956970215" lon="2.9226899147034"><ele>185</ele><time>2026-4-28T21:21:31Z</time></trkpt>
<trkpt lat="48.869983673096" lon="2.9227888584137"><ele>185</ele><time>2026-4-28T21:21:34Z</time></trkpt>
<trkpt lat="48.869983673096" lon="2.9227888584137"><ele>185</ele><time>2026-4-28T21:21:37Z</time></trkpt>
<trkpt lat="48.870025634766" lon="2.9229664802551"><ele>186</ele><time>2026-4-28T21:21:40Z</time></trkpt>
<trkpt lat="48.870048522949" lon="2.9230673313141"><ele>186</ele><time>2026-4-28T21:21:43Z</time></trkpt>
<trkpt lat="48.870067596436" lon="2.923159122467"><ele>186</ele><time>2026-4-28T21:21:46Z</time></trkpt>
<trkpt lat="48.870090484619" lon="2.9232647418976"><ele>186</ele><time>2026-4-28T21:21:49Z</time></trkpt>
<trkpt lat="48.870109558105" lon="2.9233591556549"><ele>186</ele><time>2026-4-28T21:21:52Z</time></trkpt>
<trkpt lat="48.870109558105" lon="2.9233591556549"><ele>186</ele><time>2026-4-28T21:21:55Z</time></trkpt>
<trkpt lat="48.870143890381" lon="2.9235405921936"><ele>186</ele><time>2026-4-28T21:21:58Z</time></trkpt>
<trkpt lat="48.870162963867" lon="2.9236435890198"><ele>186</ele><time>2026-4-28T21:22:1Z</time></trkpt>
<trkpt lat="48.870182037354" lon="2.9237439632416"><ele>186</ele><time>2026-4-28T21:22:4Z</time></trkpt>
<trkpt lat="48.870204925537" lon="2.9238481521606"><ele>186</ele><time>2026-4-28T21:22:7Z</time></trkpt>
<trkpt lat="48.870223999023" lon="2.9239413738251"><ele>186</ele><time>2026-4-28T21:22:10Z</time></trkpt>
<trkpt lat="48.87024307251" lon="2.924026966095"><ele>186</ele><time>2026-4-28T21:22:13Z</time></trkpt>
<trkpt lat="48.870262145996" lon="2.9241199493408"><ele>186</ele><time>2026-4-28T21:22:16Z</time></trkpt>
<trkpt lat="48.870281219482" lon="2.9242143630981"><ele>186</ele><time>2026-4-28T21:22:19Z</time></trkpt>
<trkpt lat="48.870296478271" lon="2.9243001937866"><ele>187</ele><time>2026-4-28T21:22:22Z</time></trkpt>
<trkpt lat="48.870296478271" lon="2.9243001937866"><ele>187</ele><time>2026-4-28T21:22:25Z</time></trkpt>
<trkpt lat="48.870315551758" lon="2.924480676651"><ele>187</ele><time>2026-4-28T21:22:28Z</time></trkpt>
<trkpt lat="48.870323181152" lon="2.924567937851"><ele>187</ele><time>2026-4-28T21:22:31Z</time></trkpt>
<trkpt lat="48.870330810547" lon="2.9246654510498"><ele>187</ele><time>2026-4-28T21:22:34Z</time></trkpt>
<trkpt lat="48.870334625244" lon="2.9247686862946"><ele>187</ele><time>2026-4-28T21:22:37Z</time></trkpt>
<trkpt lat="48.870334625244" lon="2.924859046936"><ele>187</ele><time>2026-4-28T21:22:40Z</time></trkpt>
<trkpt lat="48.870334625244" lon="2.9249606132507"><ele>187</ele><time>2026-4-28T21:22:43Z</time></trkpt>
<trkpt lat="48.87032699585" lon="2.9250497817993"><ele>187</ele><time>2026-4-28T21:22:46Z</time></trkpt>
<trkpt lat="48.870330810547" lon="2.9251403808594"><ele>187</ele><time>2026-4-28T21:22:49Z</time></trkpt>
<trkpt lat="48.870338439941" lon="2.9252443313599"><ele>187</ele><time>2026-4-28T21:22:52Z</time></trkpt>
<trkpt lat="48.870349884033" lon="2.9253528118134"><ele>187</ele><time>2026-4-28T21:22:55Z</time></trkpt>
<trkpt lat="48.87035369873" lon="2.9254491329193"><ele>187</ele><time>2026-4-28T21:22:58Z</time></trkpt>
<trkpt lat="48.870357513428" lon="2.9255468845367"><ele>187</ele><time>2026-4-28T21:23:1Z</time></trkpt>
<trkpt lat="48.870365142822" lon="2.9256360530853"><ele>187</ele><time>2026-4-28T21:23:4Z</time></trkpt>
<trkpt lat="48.87036895752" lon="2.9257352352142"><ele>187</ele><time>2026-4-28T21:23:7Z</time></trkpt>
<trkpt lat="48.87036895752" lon="2.925831079483"><ele>187</ele><time>2026-4-28T21:23:10Z</time></trkpt>
<trkpt lat="48.870372772217" lon="2.9259259700775"><ele>188</ele><time>2026-4-28T21:23:13Z</time></trkpt>
<trkpt lat="48.870376586914" lon="2.9260141849518"><ele>188</ele><time>2026-4-28T21:23:16Z</time></trkpt>
<trkpt lat="48.870380401611" lon="2.9261045455933"><ele>188</ele><time>2026-4-28T21:23:19Z</time></trkpt>
<trkpt lat="48.870380401611" lon="2.9261045455933"><ele>188</ele><time>2026-4-28T21:23:22Z</time></trkpt>
<trkpt lat="48.870372772217" lon="2.9262747764587"><ele>188</ele><time>2026-4-28T21:23:25Z</time></trkpt>
<trkpt lat="48.870372772217" lon="2.9263710975647"><ele>188</ele><time>2026-4-28T21:23:28Z</time></trkpt>
<trkpt lat="48.870372772217" lon="2.9264664649963"><ele>188</ele><time>2026-4-28T21:23:31Z</time></trkpt>
<trkpt lat="48.870372772217" lon="2.9265594482422"><ele>188</ele><time>2026-4-28T21:23:34Z</time></trkpt>
<trkpt lat="48.87036895752" lon="2.9266583919525"><ele>188</ele><time>2026-4-28T21:23:37Z</time></trkpt>
<trkpt lat="48.870365142822" lon="2.9268231391907"><ele>188</ele><time>2026-4-28T21:23:40Z</time></trkpt>
<trkpt lat="48.870361328125" lon="2.9269230365753"><ele>188</ele><time>2026-4-28T21:23:43Z</time></trkpt>
<trkpt lat="48.870357513428" lon="2.9270288944244"><ele>188</ele><time>2026-4-28T21:23:46Z</time></trkpt>
<trkpt lat="48.870346069336" lon="2.9271280765533"><ele>188</ele><time>2026-4-28T21:23:49Z</time></trkpt>
<trkpt lat="48.870334625244" lon="2.9272227287292"><ele>188</ele><time>2026-4-28T21:23:52Z</time></trkpt>
<trkpt lat="48.870323181152" lon="2.9273195266724"><ele>188</ele><time>2026-4-28T21:23:55Z</time></trkpt>
<trkpt lat="48.870311737061" lon="2.9274091720581"><ele>188</ele><time>2026-4-28T21:23:58Z</time></trkpt>
<trkpt lat="48.870296478271" lon="2.9275069236755"><ele>188</ele><time>2026-4-28T21:24:1Z</time></trkpt>
<trkpt lat="48.870281219482" lon="2.9276070594788"><ele>188</ele><time>2026-4-28T21:24:4Z</time></trkpt>
<trkpt lat="48.870262145996" lon="2.927708864212"><ele>188</ele><time>2026-4-28T21:24:7Z</time></trkpt>
<trkpt lat="48.87024307251" lon="2.9278059005737"><ele>188</ele><time>2026-4-28T21:24:10Z</time></trkpt>
<trkpt lat="48.870223999023" lon="2.9279029369354"><ele>188</ele><time>2026-4-28T21:24:13Z</time></trkpt>
<trkpt lat="48.87020111084" lon="2.9280123710632"><ele>188</ele><time>2026-4-28T21:24:16Z</time></trkpt>
<trkpt lat="48.870174407959" lon="2.9281108379364"><ele>188</ele><time>2026-4-28T21:24:19Z</time></trkpt>
<trkpt lat="48.87015914917" lon="2.9281947612762"><ele>189</ele><time>2026-4-28T21:24:22Z</time></trkpt>
<trkpt lat="48.87015914917" lon="2.9281947612762"><ele>189</ele><time>2026-4-28T21:24:25Z</time></trkpt>
<trkpt lat="48.870136260986" lon="2.9283638000488"><ele>189</ele><time>2026-4-28T21:24:28Z</time></trkpt>
<trkpt lat="48.870128631592" lon="2.928462266922"><ele>189</ele><time>2026-4-28T21:24:31Z</time></trkpt>
<trkpt lat="48.870124816895" lon="2.9285490512848"><ele>189</ele><time>2026-4-28T21:24:34Z</time></trkpt>
<trkpt lat="48.870113372803" lon="2.9286437034607"><ele>189</ele><time>2026-4-28T21:24:37Z</time></trkpt>
<trkpt lat="48.870098114014" lon="2.9287345409393"><ele>189</ele><time>2026-4-28T21:24:40Z</time></trkpt>
<trkpt lat="48.870079040527" lon="2.9288332462311"><ele>189</ele><time>2026-4-28T21:24:43Z</time></trkpt>
<trkpt lat="48.870063781738" lon="2.9289307594299"><ele>189</ele><time>2026-4-28T21:24:46Z</time></trkpt>
<trkpt lat="48.870044708252" lon="2.9290392398834"><ele>189</ele><time>2026-4-28T21:24:49Z</time></trkpt>
<trkpt lat="48.870025634766" lon="2.9291470050812"><ele>189</ele><time>2026-4-28T21:24:52Z</time></trkpt>
<trkpt lat="48.870014190674" lon="2.9292414188385"><ele>189</ele><time>2026-4-28T21:24:55Z</time></trkpt>
<trkpt lat="48.869995117188" lon="2.9293570518494"><ele>189</ele><time>2026-4-28T21:24:58Z</time></trkpt>
<trkpt lat="48.869976043701" lon="2.9294748306274"><ele>189</ele><time>2026-4-28T21:25:1Z</time></trkpt>
<trkpt lat="48.869956970215" lon="2.9295823574066"><ele>189</ele><time>2026-4-28T21:25:4Z</time></trkpt>
<trkpt lat="48.869945526123" lon="2.9296782016754"><ele>189</ele><time>2026-4-28T21:25:7Z</time></trkpt>
<trkpt lat="48.869945526123" lon="2.9296782016754"><ele>189</ele><time>2026-4-28T21:25:10Z</time></trkpt>
<trkpt lat="48.869922637939" lon="2.9298486709595"><ele>189</ele><time>2026-4-28T21:25:13Z</time></trkpt>
<trkpt lat="48.86990737915" lon="2.9299347400665"><ele>189</ele><time>2026-4-28T21:25:16Z</time></trkpt>
<trkpt lat="48.869892120361" lon="2.9300374984741"><ele>189</ele><time>2026-4-28T21:25:19Z</time></trkpt>
<trkpt lat="48.869873046875" lon="2.9301435947418"><ele>189</ele><time>2026-4-28T21:25:22Z</time></trkpt>
<trkpt lat="48.869857788086" lon="2.9302389621735"><ele>189</ele><time>2026-4-28T21:25:25Z</time></trkpt>
<trkpt lat="48.869842529297" lon="2.9303417205811"><ele>189</ele><time>2026-4-28T21:25:28Z</time></trkpt>
<trkpt lat="48.869834899902" lon="2.9304275512695"><ele>189</ele><time>2026-4-28T21:25:31Z</time></trkpt>
<trkpt lat="48.869834899902" lon="2.9304275512695"><ele>189</ele><time>2026-4-28T21:25:34Z</time></trkpt>
<trkpt lat="48.869815826416" lon="2.9305462837219"><ele>189</ele><time>2026-4-28T21:25:37Z</time></trkpt>
<trkpt lat="48.869815826416" lon="2.9305462837219"><ele>189</ele><time>2026-4-28T21:25:40Z</time></trkpt>
<trkpt lat="48.869800567627" lon="2.9306750297546"><ele>189</ele><time>2026-4-28T21:25:43Z</time></trkpt>
<trkpt lat="48.869800567627" lon="2.9306750297546"><ele>189</ele><time>2026-4-28T21:25:46Z</time></trkpt>
<trkpt lat="48.869777679443" lon="2.9308042526245"><ele>190</ele><time>2026-4-28T21:25:49Z</time></trkpt>
<trkpt lat="48.869777679443" lon="2.9308042526245"><ele>190</ele><time>2026-4-28T21:25:52Z</time></trkpt>
<trkpt lat="48.869747161865" lon="2.9309566020966"><ele>189</ele><time>2026-4-28T21:25:55Z</time></trkpt>
<trkpt lat="48.869747161865" lon="2.9309566020966"><ele>189</ele><time>2026-4-28T21:25:58Z</time></trkpt>
<trkpt lat="48.869731903076" lon="2.9310364723206"><ele>189</ele><time>2026-4-28T21:26:1Z</time></trkpt>
<trkpt lat="48.869720458984" lon="2.9311130046844"><ele>189</ele><time>2026-4-28T21:26:4Z</time></trkpt>
<trkpt lat="48.869705200195" lon="2.9311909675598"><ele>189</ele><time>2026-4-28T21:26:7Z</time></trkpt>
<trkpt lat="48.869689941406" lon="2.9312682151794"><ele>189</ele><time>2026-4-28T21:26:10Z</time></trkpt>
<trkpt lat="48.869678497314" lon="2.9313452243805"><ele>189</ele><time>2026-4-28T21:26:13Z</time></trkpt>
<trkpt lat="48.869655609131" lon="2.9314970970154"><ele>189</ele><time>2026-4-28T21:26:16Z</time></trkpt>
<trkpt lat="48.869655609131" lon="2.9314970970154"><ele>189</ele><time>2026-4-28T21:26:19Z</time></trkpt>
<trkpt lat="48.869632720947" lon="2.9316122531891"><ele>189</ele><time>2026-4-28T21:26:22Z</time></trkpt>
<trkpt lat="48.869632720947" lon="2.9316122531891"><ele>189</ele><time>2026-4-28T21:26:25Z</time></trkpt>
<trkpt lat="48.869632720947" lon="2.9316122531891"><ele>189</ele><time>2026-4-28T21:26:28Z</time></trkpt>
<trkpt lat="48.869632720947" lon="2.9316122531891"><ele>189</ele><time>2026-4-28T21:26:31Z</time></trkpt>
<trkpt lat="48.869632720947" lon="2.9316122531891"><ele>189</ele><time>2026-4-28T21:26:34Z</time></trkpt>
<trkpt lat="48.869632720947" lon="2.9316122531891"><ele>189</ele><time>2026-4-28T21:26:37Z</time></trkpt>
<trkpt lat="48.869632720947" lon="2.9316122531891"><ele>189</ele><time>2026-4-28T21:26:40Z</time></trkpt>
<trkpt lat="48.869632720947" lon="2.9316122531891"><ele>189</ele><time>2026-4-28T21:26:43Z</time></trkpt>
<trkpt lat="48.869632720947" lon="2.9316122531891"><ele>189</ele><time>2026-4-28T21:26:46Z</time></trkpt>
<trkpt lat="48.869632720947" lon="2.9316122531891"><ele>189</ele><time>2026-4-28T21:26:49Z</time></trkpt>
<trkpt lat="48.869632720947" lon="2.9316122531891"><ele>189</ele><time>2026-4-28T21:26:52Z</time></trkpt>
<trkpt lat="48.869632720947" lon="2.9316122531891"><ele>189</ele><time>2026-4-28T21:26:55Z</time></trkpt>
<trkpt lat="48.869632720947" lon="2.9316122531891"><ele>189</ele><time>2026-4-28T21:26:58Z</time></trkpt>
<trkpt lat="48.869632720947" lon="2.9316122531891"><ele>189</ele><time>2026-4-28T21:27:1Z</time></trkpt>
<trkpt lat="48.869632720947" lon="2.9316122531891"><ele>189</ele><time>2026-4-28T21:27:4Z</time></trkpt>
<trkpt lat="48.869632720947" lon="2.9316122531891"><ele>189</ele><time>2026-4-28T21:27:7Z</time></trkpt>
<trkpt lat="48.869640350342" lon="2.9317245483398"><ele>189</ele><time>2026-4-28T21:27:10Z</time></trkpt>
<trkpt lat="48.869655609131" lon="2.931809425354"><ele>189</ele><time>2026-4-28T21:27:13Z</time></trkpt>
<trkpt lat="48.86967086792" lon="2.9318857192993"><ele>189</ele><time>2026-4-28T21:27:16Z</time></trkpt>
<trkpt lat="48.869686126709" lon="2.9319620132446"><ele>189</ele><time>2026-4-28T21:27:19Z</time></trkpt>
<trkpt lat="48.869709014893" lon="2.9320471286774"><ele>189</ele><time>2026-4-28T21:27:22Z</time></trkpt>
<trkpt lat="48.869762420654" lon="2.9322242736816"><ele>189</ele><time>2026-4-28T21:27:25Z</time></trkpt>
<trkpt lat="48.869800567627" lon="2.9323201179504"><ele>189</ele><time>2026-4-28T21:27:28Z</time></trkpt>
<trkpt lat="48.869819641113" lon="2.9324078559875"><ele>189</ele><time>2026-4-28T21:27:31Z</time></trkpt>
<trkpt lat="48.869842529297" lon="2.9325058460236"><ele>189</ele><time>2026-4-28T21:27:34Z</time></trkpt>
<trkpt lat="48.869861602783" lon="2.9325933456421"><ele>189</ele><time>2026-4-28T21:27:37Z</time></trkpt>
<trkpt lat="48.869884490967" lon="2.9326906204224"><ele>189</ele><time>2026-4-28T21:27:40Z</time></trkpt>
<trkpt lat="48.86990737915" lon="2.9327752590179"><ele>189</ele><time>2026-4-28T21:27:43Z</time></trkpt>
<trkpt lat="48.869926452637" lon="2.9328656196594"><ele>189</ele><time>2026-4-28T21:27:46Z</time></trkpt>
<trkpt lat="48.86994934082" lon="2.9329595565796"><ele>189</ele><time>2026-4-28T21:27:49Z</time></trkpt>
<trkpt lat="48.869976043701" lon="2.9330544471741"><ele>189</ele><time>2026-4-28T21:27:52Z</time></trkpt>
<trkpt lat="48.869998931885" lon="2.9331386089325"><ele>189</ele><time>2026-4-28T21:27:55Z</time></trkpt>
<trkpt lat="48.870018005371" lon="2.9332337379456"><ele>189</ele><time>2026-4-28T21:27:58Z</time></trkpt>
<trkpt lat="48.870037078857" lon="2.9333262443542"><ele>189</ele><time>2026-4-28T21:28:1Z</time></trkpt>
<trkpt lat="48.870037078857" lon="2.9333262443542"><ele>189</ele><time>2026-4-28T21:28:4Z</time></trkpt>
<trkpt lat="48.870071411133" lon="2.9334852695465"><ele>189</ele><time>2026-4-28T21:28:7Z</time></trkpt>
<trkpt lat="48.870071411133" lon="2.9334852695465"><ele>189</ele><time>2026-4-28T21:28:10Z</time></trkpt>
<trkpt lat="48.8701171875" lon="2.9336531162262"><ele>189</ele><time>2026-4-28T21:28:13Z</time></trkpt>
<trkpt lat="48.870140075684" lon="2.9337379932404"><ele>189</ele><time>2026-4-28T21:28:16Z</time></trkpt>
<trkpt lat="48.870140075684" lon="2.9337379932404"><ele>189</ele><time>2026-4-28T21:28:19Z</time></trkpt>
<trkpt lat="48.870178222656" lon="2.9338986873627"><ele>189</ele><time>2026-4-28T21:28:22Z</time></trkpt>
<trkpt lat="48.870197296143" lon="2.9339816570282"><ele>189</ele><time>2026-4-28T21:28:25Z</time></trkpt>
<trkpt lat="48.870231628418" lon="2.9341449737549"><ele>189</ele><time>2026-4-28T21:28:28Z</time></trkpt>
<trkpt lat="48.870250701904" lon="2.9342355728149"><ele>189</ele><time>2026-4-28T21:28:31Z</time></trkpt>
<trkpt lat="48.870269775391" lon="2.9343233108521"><ele>189</ele><time>2026-4-28T21:28:34Z</time></trkpt>
<trkpt lat="48.870269775391" lon="2.9343233108521"><ele>189</ele><time>2026-4-28T21:28:37Z</time></trkpt>
<trkpt lat="48.870304107666" lon="2.9344716072083"><ele>189</ele><time>2026-4-28T21:28:40Z</time></trkpt>
<trkpt lat="48.870304107666" lon="2.9344716072083"><ele>189</ele><time>2026-4-28T21:28:43Z</time></trkpt>
<trkpt lat="48.870342254639" lon="2.9346160888672"><ele>189</ele><time>2026-4-28T21:28:46Z</time></trkpt>
<trkpt lat="48.870342254639" lon="2.9346160888672"><ele>189</ele><time>2026-4-28T21:28:49Z</time></trkpt>
<trkpt lat="48.87036895752" lon="2.9347548484802"><ele>189</ele><time>2026-4-28T21:28:52Z</time></trkpt>
<trkpt lat="48.87036895752" lon="2.9347548484802"><ele>189</ele><time>2026-4-28T21:28:55Z</time></trkpt>
<trkpt lat="48.870410919189" lon="2.9349000453949"><ele>189</ele><time>2026-4-28T21:28:58Z</time></trkpt>
<trkpt lat="48.870410919189" lon="2.9349000453949"><ele>189</ele><time>2026-4-28T21:29:1Z</time></trkpt>
<trkpt lat="48.870452880859" lon="2.9350543022156"><ele>189</ele><time>2026-4-28T21:29:4Z</time></trkpt>
<trkpt lat="48.870494842529" lon="2.9352178573608"><ele>189</ele><time>2026-4-28T21:29:7Z</time></trkpt>
<trkpt lat="48.870513916016" lon="2.9353115558624"><ele>189</ele><time>2026-4-28T21:29:10Z</time></trkpt>
<trkpt lat="48.870540618896" lon="2.9354004859924"><ele>189</ele><time>2026-4-28T21:29:13Z</time></trkpt>
<trkpt lat="48.870567321777" lon="2.9354932308197"><ele>189</ele><time>2026-4-28T21:29:16Z</time></trkpt>
<trkpt lat="48.870594024658" lon="2.9355802536011"><ele>189</ele><time>2026-4-28T21:29:19Z</time></trkpt>
<trkpt lat="48.870628356934" lon="2.9357318878174"><ele>189</ele><time>2026-4-28T21:29:22Z</time></trkpt>
<trkpt lat="48.870628356934" lon="2.9357318878174"><ele>189</ele><time>2026-4-28T21:29:25Z</time></trkpt>
<trkpt lat="48.870658874512" lon="2.9359118938446"><ele>189</ele><time>2026-4-28T21:29:28Z</time></trkpt>
<trkpt lat="48.870658874512" lon="2.9359118938446"><ele>189</ele><time>2026-4-28T21:29:31Z</time></trkpt>
<trkpt lat="48.87068939209" lon="2.9360942840576"><ele>189</ele><time>2026-4-28T21:29:34Z</time></trkpt>
<trkpt lat="48.870708465576" lon="2.9361917972565"><ele>189</ele><time>2026-4-28T21:29:37Z</time></trkpt>
<trkpt lat="48.870727539062" lon="2.9362783432007"><ele>189</ele><time>2026-4-28T21:29:40Z</time></trkpt>
<trkpt lat="48.870750427246" lon="2.9363625049591"><ele>189</ele><time>2026-4-28T21:29:43Z</time></trkpt>
<trkpt lat="48.870769500732" lon="2.9364550113678"><ele>189</ele><time>2026-4-28T21:29:46Z</time></trkpt>
<trkpt lat="48.870803833008" lon="2.9365599155426"><ele>189</ele><time>2026-4-28T21:29:49Z</time></trkpt>
<trkpt lat="48.870834350586" lon="2.9366619586945"><ele>189</ele><time>2026-4-28T21:29:52Z</time></trkpt>
<trkpt lat="48.870861053467" lon="2.9367620944977"><ele>189</ele><time>2026-4-28T21:29:55Z</time></trkpt>
<trkpt lat="48.870891571045" lon="2.9368624687195"><ele>189</ele><time>2026-4-28T21:29:58Z</time></trkpt>
<trkpt lat="48.870891571045" lon="2.9368624687195"><ele>189</ele><time>2026-4-28T21:30:1Z</time></trkpt>
<trkpt lat="48.870914459229" lon="2.9369580745697"><ele>189</ele><time>2026-4-28T21:30:4Z</time></trkpt>
<trkpt lat="48.870941162109" lon="2.9370605945587"><ele>189</ele><time>2026-4-28T21:30:7Z</time></trkpt>
<trkpt lat="48.870964050293" lon="2.9371602535248"><ele>189</ele><time>2026-4-28T21:30:10Z</time></trkpt>
<trkpt lat="48.870964050293" lon="2.9371602535248"><ele>189</ele><time>2026-4-28T21:30:13Z</time></trkpt>
<trkpt lat="48.870990753174" lon="2.9372658729553"><ele>189</ele><time>2026-4-28T21:30:16Z</time></trkpt>
<trkpt lat="48.871017456055" lon="2.9373691082001"><ele>189</ele><time>2026-4-28T21:30:19Z</time></trkpt>
<trkpt lat="48.871040344238" lon="2.9374656677246"><ele>189</ele><time>2026-4-28T21:30:22Z</time></trkpt>
<trkpt lat="48.871040344238" lon="2.9374656677246"><ele>189</ele><time>2026-4-28T21:30:25Z</time></trkpt>
<trkpt lat="48.871063232422" lon="2.9375648498535"><ele>189</ele><time>2026-4-28T21:30:28Z</time></trkpt>
<trkpt lat="48.871086120605" lon="2.9376583099365"><ele>189</ele><time>2026-4-28T21:30:31Z</time></trkpt>
<trkpt lat="48.871109008789" lon="2.9377436637878"><ele>189</ele><time>2026-4-28T21:30:34Z</time></trkpt>
<trkpt lat="48.871109008789" lon="2.9377436637878"><ele>189</ele><time>2026-4-28T21:30:37Z</time></trkpt>
<trkpt lat="48.87113571167" lon="2.9378418922424"><ele>189</ele><time>2026-4-28T21:30:40Z</time></trkpt>
<trkpt lat="48.871158599854" lon="2.9379363059998"><ele>189</ele><time>2026-4-28T21:30:43Z</time></trkpt>
<trkpt lat="48.871181488037" lon="2.938027381897"><ele>189</ele><time>2026-4-28T21:30:46Z</time></trkpt>
<trkpt lat="48.871181488037" lon="2.938027381897"><ele>189</ele><time>2026-4-28T21:30:49Z</time></trkpt>
<trkpt lat="48.871204376221" lon="2.9381098747253"><ele>189</ele><time>2026-4-28T21:30:52Z</time></trkpt>
<trkpt lat="48.871204376221" lon="2.9381098747253"><ele>189</ele><time>2026-4-28T21:30:55Z</time></trkpt>
<trkpt lat="48.871242523193" lon="2.9382567405701"><ele>189</ele><time>2026-4-28T21:30:58Z</time></trkpt>
<trkpt lat="48.871242523193" lon="2.9382567405701"><ele>189</ele><time>2026-4-28T21:31:1Z</time></trkpt>
<trkpt lat="48.871273040771" lon="2.9383940696716"><ele>189</ele><time>2026-4-28T21:31:4Z</time></trkpt>
<trkpt lat="48.871273040771" lon="2.9383940696716"><ele>189</ele><time>2026-4-28T21:31:7Z</time></trkpt>
<trkpt lat="48.871311187744" lon="2.9385290145874"><ele>189</ele><time>2026-4-28T21:31:10Z</time></trkpt>
<trkpt lat="48.871311187744" lon="2.9385290145874"><ele>189</ele><time>2026-4-28T21:31:13Z</time></trkpt>
<trkpt lat="48.871356964111" lon="2.9386804103851"><ele>189</ele><time>2026-4-28T21:31:16Z</time></trkpt>
<trkpt lat="48.871379852295" lon="2.9387607574463"><ele>189</ele><time>2026-4-28T21:31:19Z</time></trkpt>
<trkpt lat="48.871406555176" lon="2.9388473033905"><ele>189</ele><time>2026-4-28T21:31:22Z</time></trkpt>
<trkpt lat="48.871433258057" lon="2.9389252662659"><ele>189</ele><time>2026-4-28T21:31:25Z</time></trkpt>
<trkpt lat="48.871433258057" lon="2.9389252662659"><ele>189</ele><time>2026-4-28T21:31:28Z</time></trkpt>
<trkpt lat="48.871490478516" lon="2.9390561580658"><ele>189</ele><time>2026-4-28T21:31:31Z</time></trkpt>
<trkpt lat="48.871513366699" lon="2.9391379356384"><ele>189</ele><time>2026-4-28T21:31:34Z</time></trkpt>
<trkpt lat="48.871513366699" lon="2.9391379356384"><ele>189</ele><time>2026-4-28T21:31:37Z</time></trkpt>
<trkpt lat="48.871551513672" lon="2.9392731189728"><ele>190</ele><time>2026-4-28T21:31:40Z</time></trkpt>
<trkpt lat="48.871551513672" lon="2.9392731189728"><ele>190</ele><time>2026-4-28T21:31:43Z</time></trkpt>
<trkpt lat="48.871589660645" lon="2.9394264221191"><ele>190</ele><time>2026-4-28T21:31:46Z</time></trkpt>
<trkpt lat="48.871631622314" lon="2.9395813941956"><ele>190</ele><time>2026-4-28T21:31:49Z</time></trkpt>
<trkpt lat="48.871673583984" lon="2.939722776413"><ele>190</ele><time>2026-4-28T21:31:52Z</time></trkpt>
<trkpt lat="48.871673583984" lon="2.939722776413"><ele>190</ele><time>2026-4-28T21:31:55Z</time></trkpt>
<trkpt lat="48.871711730957" lon="2.9398646354675"><ele>190</ele><time>2026-4-28T21:31:58Z</time></trkpt>
<trkpt lat="48.871711730957" lon="2.9398646354675"><ele>190</ele><time>2026-4-28T21:32:1Z</time></trkpt>
<trkpt lat="48.871746063232" lon="2.9399991035461"><ele>190</ele><time>2026-4-28T21:32:4Z</time></trkpt>
<trkpt lat="48.871746063232" lon="2.9399991035461"><ele>190</ele><time>2026-4-28T21:32:7Z</time></trkpt>
<trkpt lat="48.871795654297" lon="2.9401557445526"><ele>190</ele><time>2026-4-28T21:32:10Z</time></trkpt>
<trkpt lat="48.871795654297" lon="2.9401557445526"><ele>190</ele><time>2026-4-28T21:32:13Z</time></trkpt>
<trkpt lat="48.871845245361" lon="2.9402930736542"><ele>190</ele><time>2026-4-28T21:32:16Z</time></trkpt>
<trkpt lat="48.871845245361" lon="2.9402930736542"><ele>190</ele><time>2026-4-28T21:32:19Z</time></trkpt>
<trkpt lat="48.871879577637" lon="2.9404096603394"><ele>190</ele><time>2026-4-28T21:32:22Z</time></trkpt>
<trkpt lat="48.871879577637" lon="2.9404096603394"><ele>190</ele><time>2026-4-28T21:32:25Z</time></trkpt>
<trkpt lat="48.871913909912" lon="2.9405460357666"><ele>190</ele><time>2026-4-28T21:32:28Z</time></trkpt>
<trkpt lat="48.871913909912" lon="2.9405460357666"><ele>190</ele><time>2026-4-28T21:32:31Z</time></trkpt>
<trkpt lat="48.871948242188" lon="2.9406797885895"><ele>190</ele><time>2026-4-28T21:32:34Z</time></trkpt>
<trkpt lat="48.871948242188" lon="2.9406797885895"><ele>190</ele><time>2026-4-28T21:32:37Z</time></trkpt>
<trkpt lat="48.871967315674" lon="2.9407474994659"><ele>190</ele><time>2026-4-28T21:32:40Z</time></trkpt>
<trkpt lat="48.87198638916" lon="2.9408123493195"><ele>190</ele><time>2026-4-28T21:32:43Z</time></trkpt>
<trkpt lat="48.872009277344" lon="2.9408760070801"><ele>190</ele><time>2026-4-28T21:32:46Z</time></trkpt>
<trkpt lat="48.87202835083" lon="2.9409391880035"><ele>191</ele><time>2026-4-28T21:32:49Z</time></trkpt>
<trkpt lat="48.872051239014" lon="2.9409954547882"><ele>191</ele><time>2026-4-28T21:32:52Z</time></trkpt>
<trkpt lat="48.872093200684" lon="2.9411141872406"><ele>191</ele><time>2026-4-28T21:32:55Z</time></trkpt>
<trkpt lat="48.872093200684" lon="2.9411141872406"><ele>191</ele><time>2026-4-28T21:32:58Z</time></trkpt>
<trkpt lat="48.872138977051" lon="2.9412453174591"><ele>191</ele><time>2026-4-28T21:33:1Z</time></trkpt>
<trkpt lat="48.872161865234" lon="2.9413573741913"><ele>191</ele><time>2026-4-28T21:33:4Z</time></trkpt>
<trkpt lat="48.872161865234" lon="2.9413573741913"><ele>191</ele><time>2026-4-28T21:33:7Z</time></trkpt>
<trkpt lat="48.872100830078" lon="2.941477060318"><ele>191</ele><time>2026-4-28T21:33:10Z</time></trkpt>
<trkpt lat="48.872047424316" lon="2.9415352344513"><ele>191</ele><time>2026-4-28T21:33:13Z</time></trkpt>
<trkpt lat="48.871978759766" lon="2.9415667057037"><ele>191</ele><time>2026-4-28T21:33:16Z</time></trkpt>
<trkpt lat="48.871917724609" lon="2.9415979385376"><ele>191</ele><time>2026-4-28T21:33:19Z</time></trkpt>
<trkpt lat="48.871917724609" lon="2.9415979385376"><ele>191</ele><time>2026-4-28T21:33:22Z</time></trkpt>
<trkpt lat="48.871826171875" lon="2.9416925907135"><ele>192</ele><time>2026-4-28T21:33:25Z</time></trkpt>
<trkpt lat="48.871772766113" lon="2.9417502880096"><ele>191</ele><time>2026-4-28T21:33:28Z</time></trkpt>
<trkpt lat="48.871772766113" lon="2.9417502880096"><ele>191</ele><time>2026-4-28T21:33:31Z</time></trkpt>
<trkpt lat="48.871681213379" lon="2.9418666362762"><ele>191</ele><time>2026-4-28T21:33:34Z</time></trkpt>
<trkpt lat="48.871616363525" lon="2.9419367313385"><ele>192</ele><time>2026-4-28T21:33:37Z</time></trkpt>
<trkpt lat="48.871547698975" lon="2.9420099258423"><ele>192</ele><time>2026-4-28T21:33:40Z</time></trkpt>
<trkpt lat="48.871482849121" lon="2.942075252533"><ele>192</ele><time>2026-4-28T21:33:43Z</time></trkpt>
<trkpt lat="48.871429443359" lon="2.9421439170837"><ele>192</ele><time>2026-4-28T21:33:46Z</time></trkpt>
<trkpt lat="48.871391296387" lon="2.9422104358673"><ele>192</ele><time>2026-4-28T21:33:49Z</time></trkpt>
<trkpt lat="48.871349334717" lon="2.9423081874847"><ele>192</ele><time>2026-4-28T21:33:52Z</time></trkpt>
<trkpt lat="48.871326446533" lon="2.9424209594727"><ele>192</ele><time>2026-4-28T21:33:55Z</time></trkpt>
<trkpt lat="48.871311187744" lon="2.9425277709961"><ele>192</ele><time>2026-4-28T21:33:58Z</time></trkpt>
<trkpt lat="48.871311187744" lon="2.9427149295807"><ele>192</ele><time>2026-4-28T21:34:1Z</time></trkpt>
<trkpt lat="48.871322631836" lon="2.9428145885468"><ele>192</ele><time>2026-4-28T21:34:4Z</time></trkpt>
<trkpt lat="48.871334075928" lon="2.9429137706757"><ele>192</ele><time>2026-4-28T21:34:7Z</time></trkpt>
<trkpt lat="48.871360778809" lon="2.9429965019226"><ele>192</ele><time>2026-4-28T21:34:10Z</time></trkpt>
<trkpt lat="48.871360778809" lon="2.9429965019226"><ele>192</ele><time>2026-4-28T21:34:13Z</time></trkpt>
<trkpt lat="48.87141418457" lon="2.9431574344635"><ele>192</ele><time>2026-4-28T21:34:16Z</time></trkpt>
<trkpt lat="48.871448516846" lon="2.94322681427"><ele>192</ele><time>2026-4-28T21:34:19Z</time></trkpt>
<trkpt lat="48.871486663818" lon="2.9433059692383"><ele>192</ele><time>2026-4-28T21:34:22Z</time></trkpt>
<trkpt lat="48.871528625488" lon="2.9433863162994"><ele>192</ele><time>2026-4-28T21:34:25Z</time></trkpt>
<trkpt lat="48.871570587158" lon="2.9434630870819"><ele>192</ele><time>2026-4-28T21:34:28Z</time></trkpt>
<trkpt lat="48.871570587158" lon="2.9434630870819"><ele>192</ele><time>2026-4-28T21:34:31Z</time></trkpt>
<trkpt lat="48.871639251709" lon="2.9435980319977"><ele>191</ele><time>2026-4-28T21:34:34Z</time></trkpt>
<trkpt lat="48.871685028076" lon="2.9436800479889"><ele>191</ele><time>2026-4-28T21:34:37Z</time></trkpt>
<trkpt lat="48.871726989746" lon="2.9437596797943"><ele>191</ele><time>2026-4-28T21:34:40Z</time></trkpt>
<trkpt lat="48.871768951416" lon="2.9438502788544"><ele>191</ele><time>2026-4-28T21:34:43Z</time></trkpt>
<trkpt lat="48.871807098389" lon="2.9439280033112"><ele>191</ele><time>2026-4-28T21:34:46Z</time></trkpt>
<trkpt lat="48.871852874756" lon="2.9440035820007"><ele>191</ele><time>2026-4-28T21:34:49Z</time></trkpt>
<trkpt lat="48.871852874756" lon="2.9440035820007"><ele>191</ele><time>2026-4-28T21:34:52Z</time></trkpt>
<trkpt lat="48.871910095215" lon="2.9441101551056"><ele>191</ele><time>2026-4-28T21:34:55Z</time></trkpt>
<trkpt lat="48.871910095215" lon="2.9441101551056"><ele>191</ele><time>2026-4-28T21:34:58Z</time></trkpt>
<trkpt lat="48.871910095215" lon="2.9441101551056"><ele>191</ele><time>2026-4-28T21:35:1Z</time></trkpt>
<trkpt lat="48.871910095215" lon="2.9441101551056"><ele>191</ele><time>2026-4-28T21:35:4Z</time></trkpt>
<trkpt lat="48.871910095215" lon="2.9441101551056"><ele>191</ele><time>2026-4-28T21:35:7Z</time></trkpt>
<trkpt lat="48.871910095215" lon="2.9441101551056"><ele>191</ele><time>2026-4-28T21:35:10Z</time></trkpt>
<trkpt lat="48.871910095215" lon="2.9441101551056"><ele>191</ele><time>2026-4-28T21:35:13Z</time></trkpt>
<trkpt lat="48.871910095215" lon="2.9441101551056"><ele>191</ele><time>2026-4-28T21:35:16Z</time></trkpt>
<trkpt lat="48.871871948242" lon="2.9444372653961"><ele>191</ele><time>2026-4-28T21:35:19Z</time></trkpt>
<trkpt lat="48.871822357178" lon="2.9445023536682"><ele>191</ele><time>2026-4-28T21:35:22Z</time></trkpt>
<trkpt lat="48.87174987793" lon="2.9445631504059"><ele>190</ele><time>2026-4-28T21:35:25Z</time></trkpt>
<trkpt lat="48.871662139893" lon="2.944634437561"><ele>189</ele><time>2026-4-28T21:35:28Z</time></trkpt>
<trkpt lat="48.871559143066" lon="2.944700717926"><ele>189</ele><time>2026-4-28T21:35:31Z</time></trkpt>
<trkpt lat="48.871440887451" lon="2.9447720050812"><ele>187</ele><time>2026-4-28T21:35:34Z</time></trkpt>
<trkpt lat="48.871326446533" lon="2.944849729538"><ele>187</ele><time>2026-4-28T21:35:37Z</time></trkpt>
<trkpt lat="48.871204376221" lon="2.9449319839478"><ele>186</ele><time>2026-4-28T21:35:40Z</time></trkpt>
<trkpt lat="48.871082305908" lon="2.9450168609619"><ele>185</ele><time>2026-4-28T21:35:43Z</time></trkpt>
<trkpt lat="48.87096786499" lon="2.945102930069"><ele>184</ele><time>2026-4-28T21:35:46Z</time></trkpt>
<trkpt lat="48.870861053467" lon="2.9451882839203"><ele>184</ele><time>2026-4-28T21:35:49Z</time></trkpt>
<trkpt lat="48.870758056641" lon="2.9452664852142"><ele>184</ele><time>2026-4-28T21:35:52Z</time></trkpt>
<trkpt lat="48.870674133301" lon="2.9452722072601"><ele>184</ele><time>2026-4-28T21:35:55Z</time></trkpt>
<trkpt lat="48.870616912842" lon="2.9452562332153"><ele>184</ele><time>2026-4-28T21:35:58Z</time></trkpt>
<trkpt lat="48.870616912842" lon="2.9452562332153"><ele>184</ele><time>2026-4-28T21:36:1Z</time></trkpt>
<trkpt lat="48.870616912842" lon="2.9452562332153"><ele>184</ele><time>2026-4-28T21:36:4Z</time></trkpt>
<trkpt lat="48.870616912842" lon="2.9452562332153"><ele>184</ele><time>2026-4-28T21:36:7Z</time></trkpt>
<trkpt lat="48.870616912842" lon="2.9452562332153"><ele>184</ele><time>2026-4-28T21:36:10Z</time></trkpt>
<trkpt lat="48.870616912842" lon="2.9452562332153"><ele>184</ele><time>2026-4-28T21:36:13Z</time></trkpt>
<trkpt lat="48.870616912842" lon="2.9452562332153"><ele>184</ele><time>2026-4-28T21:36:16Z</time></trkpt>
<trkpt lat="48.870616912842" lon="2.9452562332153"><ele>184</ele><time>2026-4-28T21:36:19Z</time></trkpt>
<trkpt lat="48.870616912842" lon="2.9452562332153"><ele>184</ele><time>2026-4-28T21:36:22Z</time></trkpt>
<trkpt lat="48.870677947998" lon="2.94526720047"><ele>184</ele><time>2026-4-28T21:36:25Z</time></trkpt>
<trkpt lat="48.870754241943" lon="2.9453010559082"><ele>184</ele><time>2026-4-28T21:36:28Z</time></trkpt>
<trkpt lat="48.870754241943" lon="2.9453010559082"><ele>184</ele><time>2026-4-28T21:36:31Z</time></trkpt>
<trkpt lat="48.870849609375" lon="2.9452517032623"><ele>185</ele><time>2026-4-28T21:36:34Z</time></trkpt>
<trkpt lat="48.870849609375" lon="2.9452517032623"><ele>185</ele><time>2026-4-28T21:36:37Z</time></trkpt>
<trkpt lat="48.870929718018" lon="2.9451808929443"><ele>185</ele><time>2026-4-28T21:36:40Z</time></trkpt>
<trkpt lat="48.871028900146" lon="2.9450902938843"><ele>185</ele><time>2026-4-28T21:36:43Z</time></trkpt>
<trkpt lat="48.871028900146" lon="2.9450902938843"><ele>185</ele><time>2026-4-28T21:36:46Z</time></trkpt>
<trkpt lat="48.871028900146" lon="2.9450902938843"><ele>185</ele><time>2026-4-28T21:36:49Z</time></trkpt>
<trkpt lat="48.871112823486" lon="2.9449987411499"><ele>185</ele><time>2026-4-28T21:36:52Z</time></trkpt>
<trkpt lat="48.871112823486" lon="2.9449987411499"><ele>185</ele><time>2026-4-28T21:36:55Z</time></trkpt>
<trkpt lat="48.871112823486" lon="2.9449987411499"><ele>185</ele><time>2026-4-28T21:36:58Z</time></trkpt>
<trkpt lat="48.871158599854" lon="2.9449667930603"><ele>185</ele><time>2026-4-28T21:37:1Z</time></trkpt>
<trkpt lat="48.871200561523" lon="2.9449369907379"><ele>185</ele><time>2026-4-28T21:37:4Z</time></trkpt>
<trkpt lat="48.871250152588" lon="2.9449036121368"><ele>186</ele><time>2026-4-28T21:37:7Z</time></trkpt>
<trkpt lat="48.871250152588" lon="2.9449036121368"><ele>186</ele><time>2026-4-28T21:37:10Z</time></trkpt>
<trkpt lat="48.871295928955" lon="2.9448721408844"><ele>186</ele><time>2026-4-28T21:37:13Z</time></trkpt>
<trkpt lat="48.871341705322" lon="2.9448425769806"><ele>186</ele><time>2026-4-28T21:37:16Z</time></trkpt>
<trkpt lat="48.871429443359" lon="2.9447803497314"><ele>186</ele><time>2026-4-28T21:37:19Z</time></trkpt>
<trkpt lat="48.871429443359" lon="2.9447803497314"><ele>186</ele><time>2026-4-28T21:37:22Z</time></trkpt>
<trkpt lat="48.871509552002" lon="2.9447181224823"><ele>186</ele><time>2026-4-28T21:37:25Z</time></trkpt>
<trkpt lat="48.871509552002" lon="2.9447181224823"><ele>186</ele><time>2026-4-28T21:37:28Z</time></trkpt>
<trkpt lat="48.871509552002" lon="2.9447181224823"><ele>186</ele><time>2026-4-28T21:37:31Z</time></trkpt>
<trkpt lat="48.87158203125" lon="2.9446685314178"><ele>186</ele><time>2026-4-28T21:37:34Z</time></trkpt>
<trkpt lat="48.87158203125" lon="2.9446685314178"><ele>186</ele><time>2026-4-28T21:37:37Z</time></trkpt>
<trkpt lat="48.87158203125" lon="2.9446685314178"><ele>186</ele><time>2026-4-28T21:37:40Z</time></trkpt>
<trkpt lat="48.871662139893" lon="2.9446051120758"><ele>187</ele><time>2026-4-28T21:37:43Z</time></trkpt>
<trkpt lat="48.871742248535" lon="2.9445436000824"><ele>187</ele><time>2026-4-28T21:37:46Z</time></trkpt>
<trkpt lat="48.871742248535" lon="2.9445436000824"><ele>187</ele><time>2026-4-28T21:37:49Z</time></trkpt>
<trkpt lat="48.871742248535" lon="2.9445436000824"><ele>187</ele><time>2026-4-28T21:37:52Z</time></trkpt>
<trkpt lat="48.87181854248" lon="2.9444875717163"><ele>187</ele><time>2026-4-28T21:37:55Z</time></trkpt>
<trkpt lat="48.87181854248" lon="2.9444875717163"><ele>187</ele><time>2026-4-28T21:37:58Z</time></trkpt>
<trkpt lat="48.87181854248" lon="2.9444875717163"><ele>187</ele><time>2026-4-28T21:38:1Z</time></trkpt>
<trkpt lat="48.871871948242" lon="2.9444389343262"><ele>187</ele><time>2026-4-28T21:38:4Z</time></trkpt>
<trkpt lat="48.871871948242" lon="2.9444389343262"><ele>187</ele><time>2026-4-28T21:38:7Z</time></trkpt>
<trkpt lat="48.871871948242" lon="2.9444389343262"><ele>187</ele><time>2026-4-28T21:38:10Z</time></trkpt>
<trkpt lat="48.871871948242" lon="2.9444389343262"><ele>187</ele><time>2026-4-28T21:38:13Z</time></trkpt>
<trkpt lat="48.871955871582" lon="2.9444148540497"><ele>187</ele><time>2026-4-28T21:38:16Z</time></trkpt>
<trkpt lat="48.871955871582" lon="2.9444148540497"><ele>187</ele><time>2026-4-28T21:38:19Z</time></trkpt>
<trkpt lat="48.872020721436" lon="2.9444091320038"><ele>188</ele><time>2026-4-28T21:38:22Z</time></trkpt>
<trkpt lat="48.872020721436" lon="2.9444091320038"><ele>188</ele><time>2026-4-28T21:38:25Z</time></trkpt>
<trkpt lat="48.872020721436" lon="2.9444091320038"><ele>188</ele><time>2026-4-28T21:38:28Z</time></trkpt>
<trkpt lat="48.872077941895" lon="2.9444282054901"><ele>188</ele><time>2026-4-28T21:38:31Z</time></trkpt>
<trkpt lat="48.872077941895" lon="2.9444282054901"><ele>188</ele><time>2026-4-28T21:38:34Z</time></trkpt>
<trkpt lat="48.872119903564" lon="2.9445252418518"><ele>188</ele><time>2026-4-28T21:38:37Z</time></trkpt>
<trkpt lat="48.872177124023" lon="2.9446542263031"><ele>189</ele><time>2026-4-28T21:38:40Z</time></trkpt>
<trkpt lat="48.872177124023" lon="2.9446542263031"><ele>189</ele><time>2026-4-28T21:38:43Z</time></trkpt>
<trkpt lat="48.872230529785" lon="2.9447770118713"><ele>189</ele><time>2026-4-28T21:38:46Z</time></trkpt>
<trkpt lat="48.872230529785" lon="2.9447770118713"><ele>189</ele><time>2026-4-28T21:38:49Z</time></trkpt>
<trkpt lat="48.872291564941" lon="2.9448869228363"><ele>189</ele><time>2026-4-28T21:38:52Z</time></trkpt>
<trkpt lat="48.872367858887" lon="2.9450211524963"><ele>189</ele><time>2026-4-28T21:38:55Z</time></trkpt>
<trkpt lat="48.872367858887" lon="2.9450211524963"><ele>189</ele><time>2026-4-28T21:38:58Z</time></trkpt>
<trkpt lat="48.872398376465" lon="2.945098400116"><ele>190</ele><time>2026-4-28T21:39:1Z</time></trkpt>
<trkpt lat="48.872398376465" lon="2.945098400116"><ele>190</ele><time>2026-4-28T21:39:4Z</time></trkpt>
<trkpt lat="48.872455596924" lon="2.945250749588"><ele>190</ele><time>2026-4-28T21:39:7Z</time></trkpt>
<trkpt lat="48.872455596924" lon="2.945250749588"><ele>190</ele><time>2026-4-28T21:39:10Z</time></trkpt>
<trkpt lat="48.872497558594" lon="2.9453802108765"><ele>191</ele><time>2026-4-28T21:39:13Z</time></trkpt>
<trkpt lat="48.872497558594" lon="2.9453802108765"><ele>191</ele><time>2026-4-28T21:39:16Z</time></trkpt>
<trkpt lat="48.872562408447" lon="2.945522069931"><ele>191</ele><time>2026-4-28T21:39:19Z</time></trkpt>
<trkpt lat="48.872562408447" lon="2.945522069931"><ele>191</ele><time>2026-4-28T21:39:22Z</time></trkpt>
<trkpt lat="48.872615814209" lon="2.9456329345703"><ele>191</ele><time>2026-4-28T21:39:25Z</time></trkpt>
<trkpt lat="48.872615814209" lon="2.9456329345703"><ele>191</ele><time>2026-4-28T21:39:28Z</time></trkpt>
<trkpt lat="48.872669219971" lon="2.9457533359528"><ele>192</ele><time>2026-4-28T21:39:31Z</time></trkpt>
<trkpt lat="48.872669219971" lon="2.9457533359528"><ele>192</ele><time>2026-4-28T21:39:34Z</time></trkpt>
<trkpt lat="48.872657775879" lon="2.9458892345428"><ele>192</ele><time>2026-4-28T21:39:37Z</time></trkpt>
<trkpt lat="48.872615814209" lon="2.9459564685822"><ele>192</ele><time>2026-4-28T21:39:40Z</time></trkpt>
<trkpt lat="48.872570037842" lon="2.9460182189941"><ele>192</ele><time>2026-4-28T21:39:43Z</time></trkpt>
<trkpt lat="48.872505187988" lon="2.9460728168488"><ele>192</ele><time>2026-4-28T21:39:46Z</time></trkpt>
<trkpt lat="48.87243270874" lon="2.946129322052"><ele>192</ele><time>2026-4-28T21:39:49Z</time></trkpt>
<trkpt lat="48.872352600098" lon="2.9461901187897"><ele>191</ele><time>2026-4-28T21:39:52Z</time></trkpt>
<trkpt lat="48.872268676758" lon="2.9462540149689"><ele>191</ele><time>2026-4-28T21:39:55Z</time></trkpt>
<trkpt lat="48.872188568115" lon="2.9463114738464"><ele>190</ele><time>2026-4-28T21:39:58Z</time></trkpt>
<trkpt lat="48.872081756592" lon="2.9463977813721"><ele>190</ele><time>2026-4-28T21:40:1Z</time></trkpt>
<trkpt lat="48.872081756592" lon="2.9463977813721"><ele>190</ele><time>2026-4-28T21:40:4Z</time></trkpt>
<trkpt lat="48.871978759766" lon="2.9464852809906"><ele>189</ele><time>2026-4-28T21:40:7Z</time></trkpt>
<trkpt lat="48.871868133545" lon="2.9465820789337"><ele>188</ele><time>2026-4-28T21:40:10Z</time></trkpt>
<trkpt lat="48.871768951416" lon="2.9466781616211"><ele>188</ele><time>2026-4-28T21:40:13Z</time></trkpt>
<trkpt lat="48.871768951416" lon="2.9466781616211"><ele>188</ele><time>2026-4-28T21:40:16Z</time></trkpt>
<trkpt lat="48.871669769287" lon="2.9467725753784"><ele>187</ele><time>2026-4-28T21:40:19Z</time></trkpt>
<trkpt lat="48.871562957764" lon="2.9468574523926"><ele>186</ele><time>2026-4-28T21:40:22Z</time></trkpt>
<trkpt lat="48.871467590332" lon="2.9469225406647"><ele>186</ele><time>2026-4-28T21:40:25Z</time></trkpt>
<trkpt lat="48.871467590332" lon="2.9469225406647"><ele>186</ele><time>2026-4-28T21:40:28Z</time></trkpt>
<trkpt lat="48.871368408203" lon="2.9469919204712"><ele>185</ele><time>2026-4-28T21:40:31Z</time></trkpt>
<trkpt lat="48.87126159668" lon="2.9470658302307"><ele>184</ele><time>2026-4-28T21:40:34Z</time></trkpt>
<trkpt lat="48.871166229248" lon="2.9471411705017"><ele>183</ele><time>2026-4-28T21:40:37Z</time></trkpt>
<trkpt lat="48.871166229248" lon="2.9471411705017"><ele>183</ele><time>2026-4-28T21:40:40Z</time></trkpt>
<trkpt lat="48.871067047119" lon="2.9472200870514"><ele>183</ele><time>2026-4-28T21:40:43Z</time></trkpt>
<trkpt lat="48.87096786499" lon="2.9472975730896"><ele>182</ele><time>2026-4-28T21:40:46Z</time></trkpt>
<trkpt lat="48.870872497559" lon="2.9473581314087"><ele>180</ele><time>2026-4-28T21:40:49Z</time></trkpt>
<trkpt lat="48.870872497559" lon="2.9473581314087"><ele>180</ele><time>2026-4-28T21:40:52Z</time></trkpt>
<trkpt lat="48.870769500732" lon="2.9474339485168"><ele>180</ele><time>2026-4-28T21:40:55Z</time></trkpt>
<trkpt lat="48.870674133301" lon="2.9475092887878"><ele>179</ele><time>2026-4-28T21:40:58Z</time></trkpt>
<trkpt lat="48.870635986328" lon="2.9476637840271"><ele>179</ele><time>2026-4-28T21:41:1Z</time></trkpt>
<trkpt lat="48.870635986328" lon="2.9476637840271"><ele>179</ele><time>2026-4-28T21:41:4Z</time></trkpt>
<trkpt lat="48.870662689209" lon="2.9478275775909"><ele>178</ele><time>2026-4-28T21:41:7Z</time></trkpt>
<trkpt lat="48.870704650879" lon="2.9479553699493"><ele>177</ele><time>2026-4-28T21:41:10Z</time></trkpt>
<trkpt lat="48.870754241943" lon="2.9480612277985"><ele>177</ele><time>2026-4-28T21:41:13Z</time></trkpt>
<trkpt lat="48.870754241943" lon="2.9480612277985"><ele>177</ele><time>2026-4-28T21:41:16Z</time></trkpt>
<trkpt lat="48.870807647705" lon="2.9481346607208"><ele>177</ele><time>2026-4-28T21:41:19Z</time></trkpt>
<trkpt lat="48.870861053467" lon="2.9482197761536"><ele>177</ele><time>2026-4-28T21:41:22Z</time></trkpt>
<trkpt lat="48.870918273926" lon="2.9483013153076"><ele>177</ele><time>2026-4-28T21:41:25Z</time></trkpt>
<trkpt lat="48.870918273926" lon="2.9483013153076"><ele>177</ele><time>2026-4-28T21:41:28Z</time></trkpt>
<trkpt lat="48.870979309082" lon="2.9483811855316"><ele>177</ele><time>2026-4-28T21:41:31Z</time></trkpt>
<trkpt lat="48.871040344238" lon="2.9484622478485"><ele>177</ele><time>2026-4-28T21:41:34Z</time></trkpt>
<trkpt lat="48.871097564697" lon="2.9485402107239"><ele>177</ele><time>2026-4-28T21:41:37Z</time></trkpt>
<trkpt lat="48.871097564697" lon="2.9485402107239"><ele>177</ele><time>2026-4-28T21:41:40Z</time></trkpt>
<trkpt lat="48.871150970459" lon="2.9486248493195"><ele>178</ele><time>2026-4-28T21:41:43Z</time></trkpt>
<trkpt lat="48.871208190918" lon="2.9487144947052"><ele>178</ele><time>2026-4-28T21:41:46Z</time></trkpt>
<trkpt lat="48.87126159668" lon="2.9488017559052"><ele>178</ele><time>2026-4-28T21:41:49Z</time></trkpt>
<trkpt lat="48.87126159668" lon="2.9488017559052"><ele>178</ele><time>2026-4-28T21:41:52Z</time></trkpt>
<trkpt lat="48.87130355835" lon="2.9488785266876"><ele>178</ele><time>2026-4-28T21:41:55Z</time></trkpt>
<trkpt lat="48.87130355835" lon="2.9488785266876"><ele>178</ele><time>2026-4-28T21:41:58Z</time></trkpt>
<trkpt lat="48.87130355835" lon="2.9488785266876"><ele>178</ele><time>2026-4-28T21:42:1Z</time></trkpt>
<trkpt lat="48.87130355835" lon="2.9488785266876"><ele>178</ele><time>2026-4-28T21:42:4Z</time></trkpt>
<trkpt lat="48.87130355835" lon="2.9488785266876"><ele>178</ele><time>2026-4-28T21:42:7Z</time></trkpt>
<trkpt lat="48.871341705322" lon="2.9489731788635"><ele>179</ele><time>2026-4-28T21:42:10Z</time></trkpt>
<trkpt lat="48.871368408203" lon="2.9491057395935"><ele>179</ele><time>2026-4-28T21:42:13Z</time></trkpt>
<trkpt lat="48.871368408203" lon="2.9491057395935"><ele>179</ele><time>2026-4-28T21:42:16Z</time></trkpt>
<trkpt lat="48.871421813965" lon="2.9492177963257"><ele>179</ele><time>2026-4-28T21:42:19Z</time></trkpt>
<trkpt lat="48.871421813965" lon="2.9492177963257"><ele>179</ele><time>2026-4-28T21:42:22Z</time></trkpt>
<trkpt lat="48.871463775635" lon="2.9493036270142"><ele>179</ele><time>2026-4-28T21:42:25Z</time></trkpt>
<trkpt lat="48.871463775635" lon="2.9493036270142"><ele>179</ele><time>2026-4-28T21:42:28Z</time></trkpt>
<trkpt lat="48.871463775635" lon="2.9493036270142"><ele>179</ele><time>2026-4-28T21:42:31Z</time></trkpt>
<trkpt lat="48.871463775635" lon="2.9493036270142"><ele>179</ele><time>2026-4-28T21:42:34Z</time></trkpt>
<trkpt lat="48.871463775635" lon="2.9493036270142"><ele>179</ele><time>2026-4-28T21:42:37Z</time></trkpt>
<trkpt lat="48.871463775635" lon="2.9493036270142"><ele>179</ele><time>2026-4-28T21:42:40Z</time></trkpt>
<trkpt lat="48.871463775635" lon="2.9493036270142"><ele>179</ele><time>2026-4-28T21:42:43Z</time></trkpt>
<trkpt lat="48.871463775635" lon="2.9493036270142"><ele>179</ele><time>2026-4-28T21:42:46Z</time></trkpt>
<trkpt lat="48.871463775635" lon="2.9493036270142"><ele>179</ele><time>2026-4-28T21:42:49Z</time></trkpt>
<trkpt lat="48.871463775635" lon="2.9493036270142"><ele>179</ele><time>2026-4-28T21:42:52Z</time></trkpt>
<trkpt lat="48.871463775635" lon="2.9493036270142"><ele>179</ele><time>2026-4-28T21:42:55Z</time></trkpt>
<trkpt lat="48.871463775635" lon="2.9493036270142"><ele>179</ele><time>2026-4-28T21:42:58Z</time></trkpt>
<trkpt lat="48.871448516846" lon="2.9494247436523"><ele>178</ele><time>2026-4-28T21:43:1Z</time></trkpt>
<trkpt lat="48.871448516846" lon="2.9494247436523"><ele>178</ele><time>2026-4-28T21:43:4Z</time></trkpt>
<trkpt lat="48.871425628662" lon="2.9494645595551"><ele>178</ele><time>2026-4-28T21:43:7Z</time></trkpt>
<trkpt lat="48.871402740479" lon="2.949499130249"><ele>178</ele><time>2026-4-28T21:43:10Z</time></trkpt>
<trkpt lat="48.871376037598" lon="2.949533700943"><ele>178</ele><time>2026-4-28T21:43:13Z</time></trkpt>
<trkpt lat="48.871349334717" lon="2.9495713710785"><ele>178</ele><time>2026-4-28T21:43:16Z</time></trkpt>
<trkpt lat="48.871326446533" lon="2.9496026039124"><ele>178</ele><time>2026-4-28T21:43:19Z</time></trkpt>
<trkpt lat="48.871326446533" lon="2.9496026039124"><ele>178</ele><time>2026-4-28T21:43:22Z</time></trkpt>
<trkpt lat="48.871257781982" lon="2.9496829509735"><ele>178</ele><time>2026-4-28T21:43:25Z</time></trkpt>
<trkpt lat="48.871181488037" lon="2.9497532844543"><ele>178</ele><time>2026-4-28T21:43:28Z</time></trkpt>
<trkpt lat="48.871101379395" lon="2.9498085975647"><ele>178</ele><time>2026-4-28T21:43:31Z</time></trkpt>
<trkpt lat="48.871101379395" lon="2.9498085975647"><ele>178</ele><time>2026-4-28T21:43:34Z</time></trkpt>
<trkpt lat="48.871021270752" lon="2.9498755931854"><ele>177</ele><time>2026-4-28T21:43:37Z</time></trkpt>
<trkpt lat="48.871021270752" lon="2.9498755931854"><ele>177</ele><time>2026-4-28T21:43:40Z</time></trkpt>
<trkpt lat="48.870944976807" lon="2.9499480724335"><ele>176</ele><time>2026-4-28T21:43:43Z</time></trkpt>
<trkpt lat="48.870853424072" lon="2.9500260353088"><ele>176</ele><time>2026-4-28T21:43:46Z</time></trkpt>
<trkpt lat="48.870761871338" lon="2.9501163959503"><ele>175</ele><time>2026-4-28T21:43:49Z</time></trkpt>
<trkpt lat="48.870761871338" lon="2.9501163959503"><ele>175</ele><time>2026-4-28T21:43:52Z</time></trkpt>
<trkpt lat="48.870681762695" lon="2.9501814842224"><ele>175</ele><time>2026-4-28T21:43:55Z</time></trkpt>
<trkpt lat="48.870681762695" lon="2.9501814842224"><ele>175</ele><time>2026-4-28T21:43:58Z</time></trkpt>
<trkpt lat="48.870624542236" lon="2.9502377510071"><ele>175</ele><time>2026-4-28T21:44:1Z</time></trkpt>
<trkpt lat="48.870624542236" lon="2.9502377510071"><ele>175</ele><time>2026-4-28T21:44:4Z</time></trkpt>
<trkpt lat="48.870571136475" lon="2.9502944946289"><ele>174</ele><time>2026-4-28T21:44:7Z</time></trkpt>
<trkpt lat="48.870571136475" lon="2.9502944946289"><ele>174</ele><time>2026-4-28T21:44:10Z</time></trkpt>
<trkpt lat="48.870548248291" lon="2.9503939151764"><ele>174</ele><time>2026-4-28T21:44:13Z</time></trkpt>
<trkpt lat="48.870548248291" lon="2.9503939151764"><ele>174</ele><time>2026-4-28T21:44:16Z</time></trkpt>
<trkpt lat="48.870548248291" lon="2.9503939151764"><ele>174</ele><time>2026-4-28T21:44:19Z</time></trkpt>
<trkpt lat="48.870613098145" lon="2.9504804611206"><ele>173</ele><time>2026-4-28T21:44:22Z</time></trkpt>
<trkpt lat="48.870685577393" lon="2.9505472183228"><ele>173</ele><time>2026-4-28T21:44:25Z</time></trkpt>
<trkpt lat="48.870769500732" lon="2.950611114502"><ele>173</ele><time>2026-4-28T21:44:28Z</time></trkpt>
<trkpt lat="48.870769500732" lon="2.950611114502"><ele>173</ele><time>2026-4-28T21:44:31Z</time></trkpt>
<trkpt lat="48.870864868164" lon="2.9506368637085"><ele>172</ele><time>2026-4-28T21:44:34Z</time></trkpt>
<trkpt lat="48.870948791504" lon="2.9507014751434"><ele>172</ele><time>2026-4-28T21:44:37Z</time></trkpt>
<trkpt lat="48.870948791504" lon="2.9507014751434"><ele>172</ele><time>2026-4-28T21:44:40Z</time></trkpt>
<trkpt lat="48.871025085449" lon="2.9507415294647"><ele>172</ele><time>2026-4-28T21:44:43Z</time></trkpt>
<trkpt lat="48.871025085449" lon="2.9507415294647"><ele>172</ele><time>2026-4-28T21:44:46Z</time></trkpt>
<trkpt lat="48.87109375" lon="2.9507961273193"><ele>172</ele><time>2026-4-28T21:44:49Z</time></trkpt>
<trkpt lat="48.871173858643" lon="2.950882434845"><ele>171</ele><time>2026-4-28T21:44:52Z</time></trkpt>
<trkpt lat="48.871250152588" lon="2.9509718418121"><ele>171</ele><time>2026-4-28T21:44:55Z</time></trkpt>
<trkpt lat="48.871250152588" lon="2.9509718418121"><ele>171</ele><time>2026-4-28T21:44:58Z</time></trkpt>
<trkpt lat="48.871318817139" lon="2.9510776996613"><ele>171</ele><time>2026-4-28T21:45:1Z</time></trkpt>
<trkpt lat="48.871383666992" lon="2.951188325882"><ele>172</ele><time>2026-4-28T21:45:4Z</time></trkpt>
<trkpt lat="48.871444702148" lon="2.9512994289398"><ele>172</ele><time>2026-4-28T21:45:7Z</time></trkpt>
<trkpt lat="48.871444702148" lon="2.9512994289398"><ele>172</ele><time>2026-4-28T21:45:10Z</time></trkpt>
<trkpt lat="48.87149810791" lon="2.9514186382294"><ele>172</ele><time>2026-4-28T21:45:13Z</time></trkpt>
<trkpt lat="48.871543884277" lon="2.9515445232391"><ele>172</ele><time>2026-4-28T21:45:16Z</time></trkpt>
<trkpt lat="48.871589660645" lon="2.9516706466675"><ele>172</ele><time>2026-4-28T21:45:19Z</time></trkpt>
<trkpt lat="48.871589660645" lon="2.9516706466675"><ele>172</ele><time>2026-4-28T21:45:22Z</time></trkpt>
<trkpt lat="48.871627807617" lon="2.9517755508423"><ele>172</ele><time>2026-4-28T21:45:25Z</time></trkpt>
<trkpt lat="48.871627807617" lon="2.9517755508423"><ele>172</ele><time>2026-4-28T21:45:28Z</time></trkpt>
<trkpt lat="48.871643066406" lon="2.9518661499023"><ele>172</ele><time>2026-4-28T21:45:31Z</time></trkpt>
<trkpt lat="48.871643066406" lon="2.9518661499023"><ele>172</ele><time>2026-4-28T21:45:34Z</time></trkpt>
<trkpt lat="48.871662139893" lon="2.9519176483154"><ele>172</ele><time>2026-4-28T21:45:37Z</time></trkpt>
<trkpt lat="48.871677398682" lon="2.9519648551941"><ele>172</ele><time>2026-4-28T21:45:40Z</time></trkpt>
<trkpt lat="48.871700286865" lon="2.9520030021667"><ele>172</ele><time>2026-4-28T21:45:43Z</time></trkpt>
<trkpt lat="48.871700286865" lon="2.9520030021667"><ele>172</ele><time>2026-4-28T21:45:46Z</time></trkpt>
<trkpt lat="48.871700286865" lon="2.9520030021667"><ele>172</ele><time>2026-4-28T21:45:49Z</time></trkpt>
<trkpt lat="48.871730804443" lon="2.9520578384399"><ele>172</ele><time>2026-4-28T21:45:52Z</time></trkpt>
<trkpt lat="48.871746063232" lon="2.9520967006683"><ele>172</ele><time>2026-4-28T21:45:55Z</time></trkpt>
<trkpt lat="48.871746063232" lon="2.9520967006683"><ele>172</ele><time>2026-4-28T21:45:58Z</time></trkpt>
<trkpt lat="48.871730804443" lon="2.9521405696869"><ele>172</ele><time>2026-4-28T21:46:1Z</time></trkpt>
<trkpt lat="48.871700286865" lon="2.9521749019623"><ele>172</ele><time>2026-4-28T21:46:4Z</time></trkpt>
<trkpt lat="48.871662139893" lon="2.9522037506104"><ele>172</ele><time>2026-4-28T21:46:7Z</time></trkpt>
<trkpt lat="48.871620178223" lon="2.9522280693054"><ele>172</ele><time>2026-4-28T21:46:10Z</time></trkpt>
<trkpt lat="48.871574401855" lon="2.9522483348846"><ele>171</ele><time>2026-4-28T21:46:13Z</time></trkpt>
<trkpt lat="48.871490478516" lon="2.9522798061371"><ele>171</ele><time>2026-4-28T21:46:16Z</time></trkpt>
<trkpt lat="48.871421813965" lon="2.9522857666016"><ele>171</ele><time>2026-4-28T21:46:19Z</time></trkpt>
<trkpt lat="48.871421813965" lon="2.9522857666016"><ele>171</ele><time>2026-4-28T21:46:22Z</time></trkpt>
<trkpt lat="48.871421813965" lon="2.9522857666016"><ele>171</ele><time>2026-4-28T21:46:25Z</time></trkpt>
<trkpt lat="48.87133026123" lon="2.9523012638092"><ele>171</ele><time>2026-4-28T21:46:28Z</time></trkpt>
<trkpt lat="48.87133026123" lon="2.9523012638092"><ele>171</ele><time>2026-4-28T21:46:31Z</time></trkpt>
<trkpt lat="48.871242523193" lon="2.9523406028748"><ele>170</ele><time>2026-4-28T21:46:34Z</time></trkpt>
<trkpt lat="48.871162414551" lon="2.9523673057556"><ele>170</ele><time>2026-4-28T21:46:37Z</time></trkpt>
<trkpt lat="48.871078491211" lon="2.9523870944977"><ele>170</ele><time>2026-4-28T21:46:40Z</time></trkpt>
<trkpt lat="48.871078491211" lon="2.9523870944977"><ele>170</ele><time>2026-4-28T21:46:43Z</time></trkpt>
<trkpt lat="48.871006011963" lon="2.9524183273315"><ele>170</ele><time>2026-4-28T21:46:46Z</time></trkpt>
<trkpt lat="48.870937347412" lon="2.9524438381195"><ele>170</ele><time>2026-4-28T21:46:49Z</time></trkpt>
<trkpt lat="48.870937347412" lon="2.9524438381195"><ele>170</ele><time>2026-4-28T21:46:52Z</time></trkpt>
<trkpt lat="48.870868682861" lon="2.9524772167206"><ele>170</ele><time>2026-4-28T21:46:55Z</time></trkpt>
<trkpt lat="48.870868682861" lon="2.9524772167206"><ele>170</ele><time>2026-4-28T21:46:58Z</time></trkpt>
<trkpt lat="48.870803833008" lon="2.9525017738342"><ele>170</ele><time>2026-4-28T21:47:1Z</time></trkpt>
<trkpt lat="48.870803833008" lon="2.9525017738342"><ele>170</ele><time>2026-4-28T21:47:4Z</time></trkpt>
<trkpt lat="48.87073135376" lon="2.9525330066681"><ele>170</ele><time>2026-4-28T21:47:7Z</time></trkpt>
<trkpt lat="48.87073135376" lon="2.9525330066681"><ele>170</ele><time>2026-4-28T21:47:10Z</time></trkpt>
<trkpt lat="48.870670318604" lon="2.9525620937347"><ele>170</ele><time>2026-4-28T21:47:13Z</time></trkpt>
<trkpt lat="48.870670318604" lon="2.9525620937347"><ele>170</ele><time>2026-4-28T21:47:16Z</time></trkpt>
<trkpt lat="48.870597839355" lon="2.9525842666626"><ele>171</ele><time>2026-4-28T21:47:19Z</time></trkpt>
<trkpt lat="48.870597839355" lon="2.9525842666626"><ele>171</ele><time>2026-4-28T21:47:22Z</time></trkpt>
<trkpt lat="48.870532989502" lon="2.9526045322418"><ele>171</ele><time>2026-4-28T21:47:25Z</time></trkpt>
<trkpt lat="48.870532989502" lon="2.9526045322418"><ele>171</ele><time>2026-4-28T21:47:28Z</time></trkpt>
<trkpt lat="48.870460510254" lon="2.9526281356812"><ele>171</ele><time>2026-4-28T21:47:31Z</time></trkpt>
<trkpt lat="48.870460510254" lon="2.9526281356812"><ele>171</ele><time>2026-4-28T21:47:34Z</time></trkpt>
<trkpt lat="48.870391845703" lon="2.9526524543762"><ele>171</ele><time>2026-4-28T21:47:37Z</time></trkpt>
<trkpt lat="48.870391845703" lon="2.9526524543762"><ele>171</ele><time>2026-4-28T21:47:40Z</time></trkpt>
<trkpt lat="48.870315551758" lon="2.9526786804199"><ele>171</ele><time>2026-4-28T21:47:43Z</time></trkpt>
<trkpt lat="48.870262145996" lon="2.952695608139"><ele>171</ele><time>2026-4-28T21:47:46Z</time></trkpt>
<trkpt lat="48.870262145996" lon="2.952695608139"><ele>171</ele><time>2026-4-28T21:47:49Z</time></trkpt>
<trkpt lat="48.870262145996" lon="2.952695608139"><ele>171</ele><time>2026-4-28T21:47:52Z</time></trkpt>
<trkpt lat="48.870189666748" lon="2.9527168273926"><ele>172</ele><time>2026-4-28T21:47:55Z</time></trkpt>
<trkpt lat="48.870189666748" lon="2.9527168273926"><ele>172</ele><time>2026-4-28T21:47:58Z</time></trkpt>
<trkpt lat="48.870189666748" lon="2.9527168273926"><ele>172</ele><time>2026-4-28T21:48:1Z</time></trkpt>
<trkpt lat="48.870128631592" lon="2.9527361392975"><ele>172</ele><time>2026-4-28T21:48:4Z</time></trkpt>
<trkpt lat="48.870128631592" lon="2.9527361392975"><ele>172</ele><time>2026-4-28T21:48:7Z</time></trkpt>
<trkpt lat="48.870128631592" lon="2.9527361392975"><ele>172</ele><time>2026-4-28T21:48:10Z</time></trkpt>
<trkpt lat="48.870128631592" lon="2.9527361392975"><ele>172</ele><time>2026-4-28T21:48:13Z</time></trkpt>
<trkpt lat="48.870059967041" lon="2.9527451992035"><ele>172</ele><time>2026-4-28T21:48:16Z</time></trkpt>
<trkpt lat="48.870059967041" lon="2.9527451992035"><ele>172</ele><time>2026-4-28T21:48:19Z</time></trkpt>
<trkpt lat="48.869998931885" lon="2.9527537822723"><ele>172</ele><time>2026-4-28T21:48:22Z</time></trkpt>
<trkpt lat="48.869998931885" lon="2.9527537822723"><ele>172</ele><time>2026-4-28T21:48:25Z</time></trkpt>
<trkpt lat="48.869998931885" lon="2.9527537822723"><ele>172</ele><time>2026-4-28T21:48:28Z</time></trkpt>
<trkpt lat="48.869934082031" lon="2.9527549743652"><ele>172</ele><time>2026-4-28T21:48:31Z</time></trkpt>
<trkpt lat="48.869934082031" lon="2.9527549743652"><ele>172</ele><time>2026-4-28T21:48:34Z</time></trkpt>
<trkpt lat="48.869934082031" lon="2.9527549743652"><ele>172</ele><time>2026-4-28T21:48:37Z</time></trkpt>
<trkpt lat="48.869873046875" lon="2.9527561664581"><ele>173</ele><time>2026-4-28T21:48:40Z</time></trkpt>
<trkpt lat="48.869873046875" lon="2.9527561664581"><ele>173</ele><time>2026-4-28T21:48:43Z</time></trkpt>
<trkpt lat="48.869800567627" lon="2.9527680873871"><ele>173</ele><time>2026-4-28T21:48:46Z</time></trkpt>
<trkpt lat="48.869800567627" lon="2.9527680873871"><ele>173</ele><time>2026-4-28T21:48:49Z</time></trkpt>
<trkpt lat="48.869735717773" lon="2.9527857303619"><ele>173</ele><time>2026-4-28T21:48:52Z</time></trkpt>
<trkpt lat="48.869735717773" lon="2.9527857303619"><ele>173</ele><time>2026-4-28T21:48:55Z</time></trkpt>
<trkpt lat="48.869667053223" lon="2.9528052806854"><ele>173</ele><time>2026-4-28T21:48:58Z</time></trkpt>
<trkpt lat="48.869579315186" lon="2.9528217315674"><ele>174</ele><time>2026-4-28T21:49:1Z</time></trkpt>
<trkpt lat="48.869548797607" lon="2.9528293609619"><ele>174</ele><time>2026-4-28T21:49:4Z</time></trkpt>
<trkpt lat="48.869506835938" lon="2.9528329372406"><ele>174</ele><time>2026-4-28T21:49:7Z</time></trkpt>
<trkpt lat="48.86946105957" lon="2.9528360366821"><ele>174</ele><time>2026-4-28T21:49:10Z</time></trkpt>
<trkpt lat="48.869415283203" lon="2.9528443813324"><ele>174</ele><time>2026-4-28T21:49:13Z</time></trkpt>
<trkpt lat="48.869365692139" lon="2.9528594017029"><ele>174</ele><time>2026-4-28T21:49:16Z</time></trkpt>
<trkpt lat="48.869274139404" lon="2.9528934955597"><ele>174</ele><time>2026-4-28T21:49:19Z</time></trkpt>
<trkpt lat="48.869220733643" lon="2.9529187679291"><ele>174</ele><time>2026-4-28T21:49:22Z</time></trkpt>
<trkpt lat="48.869220733643" lon="2.9529187679291"><ele>174</ele><time>2026-4-28T21:49:25Z</time></trkpt>
<trkpt lat="48.869125366211" lon="2.9529674053192"><ele>174</ele><time>2026-4-28T21:49:28Z</time></trkpt>
<trkpt lat="48.869049072266" lon="2.9529950618744"><ele>175</ele><time>2026-4-28T21:49:31Z</time></trkpt>
<trkpt lat="48.868946075439" lon="2.9530389308929"><ele>175</ele><time>2026-4-28T21:49:34Z</time></trkpt>
<trkpt lat="48.868946075439" lon="2.9530389308929"><ele>175</ele><time>2026-4-28T21:49:37Z</time></trkpt>
<trkpt lat="48.868865966797" lon="2.9530987739563"><ele>176</ele><time>2026-4-28T21:49:40Z</time></trkpt>
<trkpt lat="48.868865966797" lon="2.9530987739563"><ele>176</ele><time>2026-4-28T21:49:43Z</time></trkpt>
<trkpt lat="48.868797302246" lon="2.9531574249268"><ele>176</ele><time>2026-4-28T21:49:46Z</time></trkpt>
<trkpt lat="48.868797302246" lon="2.9531574249268"><ele>176</ele><time>2026-4-28T21:49:49Z</time></trkpt>
<trkpt lat="48.868717193604" lon="2.9532160758972"><ele>177</ele><time>2026-4-28T21:49:52Z</time></trkpt>
<trkpt lat="48.868717193604" lon="2.9532160758972"><ele>177</ele><time>2026-4-28T21:49:55Z</time></trkpt>
<trkpt lat="48.868644714355" lon="2.9532713890076"><ele>178</ele><time>2026-4-28T21:49:58Z</time></trkpt>
<trkpt lat="48.868644714355" lon="2.9532713890076"><ele>178</ele><time>2026-4-28T21:50:1Z</time></trkpt>
<trkpt lat="48.868564605713" lon="2.9533295631409"><ele>179</ele><time>2026-4-28T21:50:4Z</time></trkpt>
<trkpt lat="48.868564605713" lon="2.9533295631409"><ele>179</ele><time>2026-4-28T21:50:7Z</time></trkpt>
<trkpt lat="48.868492126465" lon="2.9533846378326"><ele>180</ele><time>2026-4-28T21:50:10Z</time></trkpt>
<trkpt lat="48.868492126465" lon="2.9533846378326"><ele>180</ele><time>2026-4-28T21:50:13Z</time></trkpt>
<trkpt lat="48.86841583252" lon="2.9534151554108"><ele>181</ele><time>2026-4-28T21:50:16Z</time></trkpt>
<trkpt lat="48.86841583252" lon="2.9534151554108"><ele>181</ele><time>2026-4-28T21:50:19Z</time></trkpt>
<trkpt lat="48.868328094482" lon="2.9534475803375"><ele>182</ele><time>2026-4-28T21:50:22Z</time></trkpt>
<trkpt lat="48.868255615234" lon="2.9534957408905"><ele>182</ele><time>2026-4-28T21:50:25Z</time></trkpt>
<trkpt lat="48.868255615234" lon="2.9534957408905"><ele>182</ele><time>2026-4-28T21:50:28Z</time></trkpt>
<trkpt lat="48.868175506592" lon="2.9535474777222"><ele>183</ele><time>2026-4-28T21:50:31Z</time></trkpt>
<trkpt lat="48.868083953857" lon="2.953596830368"><ele>184</ele><time>2026-4-28T21:50:34Z</time></trkpt>
<trkpt lat="48.868011474609" lon="2.9536278247833"><ele>185</ele><time>2026-4-28T21:50:37Z</time></trkpt>
<trkpt lat="48.868011474609" lon="2.9536278247833"><ele>185</ele><time>2026-4-28T21:50:40Z</time></trkpt>
<trkpt lat="48.867935180664" lon="2.953654050827"><ele>185</ele><time>2026-4-28T21:50:43Z</time></trkpt>
<trkpt lat="48.867935180664" lon="2.953654050827"><ele>185</ele><time>2026-4-28T21:50:46Z</time></trkpt>
<trkpt lat="48.867851257324" lon="2.9536890983582"><ele>186</ele><time>2026-4-28T21:50:49Z</time></trkpt>
<trkpt lat="48.867767333984" lon="2.9537081718445"><ele>186</ele><time>2026-4-28T21:50:52Z</time></trkpt>
<trkpt lat="48.867767333984" lon="2.9537081718445"><ele>186</ele><time>2026-4-28T21:50:55Z</time></trkpt>
<trkpt lat="48.867668151855" lon="2.9537286758423"><ele>187</ele><time>2026-4-28T21:50:58Z</time></trkpt>
<trkpt lat="48.867584228516" lon="2.9537472724915"><ele>188</ele><time>2026-4-28T21:51:1Z</time></trkpt>
<trkpt lat="48.867492675781" lon="2.9537694454193"><ele>188</ele><time>2026-4-28T21:51:4Z</time></trkpt>
<trkpt lat="48.867435455322" lon="2.9537787437439"><ele>188</ele><time>2026-4-28T21:51:7Z</time></trkpt>
<trkpt lat="48.86735534668" lon="2.9537954330444"><ele>189</ele><time>2026-4-28T21:51:10Z</time></trkpt>
<trkpt lat="48.867294311523" lon="2.953807592392"><ele>189</ele><time>2026-4-28T21:51:13Z</time></trkpt>
<trkpt lat="48.867294311523" lon="2.953807592392"><ele>189</ele><time>2026-4-28T21:51:16Z</time></trkpt>
<trkpt lat="48.867183685303" lon="2.9538323879242"><ele>190</ele><time>2026-4-28T21:51:19Z</time></trkpt>
<trkpt lat="48.867126464844" lon="2.9538471698761"><ele>190</ele><time>2026-4-28T21:51:22Z</time></trkpt>
<trkpt lat="48.867065429688" lon="2.9538595676422"><ele>190</ele><time>2026-4-28T21:51:25Z</time></trkpt>
<trkpt lat="48.866962432861" lon="2.9538860321045"><ele>191</ele><time>2026-4-28T21:51:28Z</time></trkpt>
<trkpt lat="48.866893768311" lon="2.9539041519165"><ele>191</ele><time>2026-4-28T21:51:31Z</time></trkpt>
<trkpt lat="48.866828918457" lon="2.9539215564728"><ele>191</ele><time>2026-4-28T21:51:34Z</time></trkpt>
<trkpt lat="48.866764068604" lon="2.9539434909821"><ele>192</ele><time>2026-4-28T21:51:37Z</time></trkpt>
<trkpt lat="48.866706848145" lon="2.953964471817"><ele>192</ele><time>2026-4-28T21:51:40Z</time></trkpt>
<trkpt lat="48.866645812988" lon="2.954000711441"><ele>192</ele><time>2026-4-28T21:51:43Z</time></trkpt>
<trkpt lat="48.866584777832" lon="2.9540605545044"><ele>192</ele><time>2026-4-28T21:51:46Z</time></trkpt>
<trkpt lat="48.866523742676" lon="2.9541237354279"><ele>193</ele><time>2026-4-28T21:51:49Z</time></trkpt>
<trkpt lat="48.866470336914" lon="2.9541893005371"><ele>193</ele><time>2026-4-28T21:51:52Z</time></trkpt>
<trkpt lat="48.866424560547" lon="2.9542417526245"><ele>193</ele><time>2026-4-28T21:51:55Z</time></trkpt>
<trkpt lat="48.866371154785" lon="2.9542980194092"><ele>193</ele><time>2026-4-28T21:51:58Z</time></trkpt>
<trkpt lat="48.866325378418" lon="2.9543499946594"><ele>194</ele><time>2026-4-28T21:52:1Z</time></trkpt>
<trkpt lat="48.866325378418" lon="2.9543499946594"><ele>194</ele><time>2026-4-28T21:52:4Z</time></trkpt>
<trkpt lat="48.866233825684" lon="2.9544401168823"><ele>194</ele><time>2026-4-28T21:52:7Z</time></trkpt>
<trkpt lat="48.866233825684" lon="2.9544401168823"><ele>194</ele><time>2026-4-28T21:52:10Z</time></trkpt>
<trkpt lat="48.86616897583" lon="2.9545123577118"><ele>195</ele><time>2026-4-28T21:52:13Z</time></trkpt>
<trkpt lat="48.86616897583" lon="2.9545123577118"><ele>195</ele><time>2026-4-28T21:52:16Z</time></trkpt>
<trkpt lat="48.866111755371" lon="2.9545798301697"><ele>195</ele><time>2026-4-28T21:52:19Z</time></trkpt>
<trkpt lat="48.866111755371" lon="2.9545798301697"><ele>195</ele><time>2026-4-28T21:52:22Z</time></trkpt>
<trkpt lat="48.866111755371" lon="2.9545798301697"><ele>195</ele><time>2026-4-28T21:52:25Z</time></trkpt>
<trkpt lat="48.866111755371" lon="2.9545798301697"><ele>195</ele><time>2026-4-28T21:52:28Z</time></trkpt>
<trkpt lat="48.866111755371" lon="2.9545798301697"><ele>195</ele><time>2026-4-28T21:52:31Z</time></trkpt>
<trkpt lat="48.866111755371" lon="2.9545798301697"><ele>195</ele><time>2026-4-28T21:52:34Z</time></trkpt>
<trkpt lat="48.866111755371" lon="2.9545798301697"><ele>195</ele><time>2026-4-28T21:52:37Z</time></trkpt>
<trkpt lat="48.866111755371" lon="2.9545798301697"><ele>195</ele><time>2026-4-28T21:52:40Z</time></trkpt>
<trkpt lat="48.866111755371" lon="2.9545798301697"><ele>195</ele><time>2026-4-28T21:52:43Z</time></trkpt>
<trkpt lat="48.866111755371" lon="2.9545798301697"><ele>195</ele><time>2026-4-28T21:52:46Z</time></trkpt>
<trkpt lat="48.866111755371" lon="2.9545798301697"><ele>195</ele><time>2026-4-28T21:52:49Z</time></trkpt>
<trkpt lat="48.866111755371" lon="2.9545798301697"><ele>195</ele><time>2026-4-28T21:52:52Z</time></trkpt>
<trkpt lat="48.866111755371" lon="2.9545798301697"><ele>195</ele><time>2026-4-28T21:52:55Z</time></trkpt>
<trkpt lat="48.866111755371" lon="2.9545798301697"><ele>195</ele><time>2026-4-28T21:52:58Z</time></trkpt>
<trkpt lat="48.866111755371" lon="2.9545798301697"><ele>195</ele><time>2026-4-28T21:53:1Z</time></trkpt>
<trkpt lat="48.866035461426" lon="2.9546847343445"><ele>196</ele><time>2026-4-28T21:53:4Z</time></trkpt>
<trkpt lat="48.865978240967" lon="2.9547598361969"><ele>196</ele><time>2026-4-28T21:53:7Z</time></trkpt>
<trkpt lat="48.865924835205" lon="2.9548232555389"><ele>196</ele><time>2026-4-28T21:53:10Z</time></trkpt>
<trkpt lat="48.865871429443" lon="2.9548799991608"><ele>196</ele><time>2026-4-28T21:53:13Z</time></trkpt>
<trkpt lat="48.865818023682" lon="2.9549322128296"><ele>196</ele><time>2026-4-28T21:53:16Z</time></trkpt>
<trkpt lat="48.865711212158" lon="2.9550454616547"><ele>196</ele><time>2026-4-28T21:53:19Z</time></trkpt>
<trkpt lat="48.865653991699" lon="2.9551122188568"><ele>196</ele><time>2026-4-28T21:53:22Z</time></trkpt>
<trkpt lat="48.865600585938" lon="2.9551844596863"><ele>196</ele><time>2026-4-28T21:53:25Z</time></trkpt>
<trkpt lat="48.865550994873" lon="2.9552450180054"><ele>196</ele><time>2026-4-28T21:53:28Z</time></trkpt>
<trkpt lat="48.865493774414" lon="2.9553117752075"><ele>196</ele><time>2026-4-28T21:53:31Z</time></trkpt>
<trkpt lat="48.865432739258" lon="2.9553797245026"><ele>195</ele><time>2026-4-28T21:53:34Z</time></trkpt>
<trkpt lat="48.865371704102" lon="2.9554476737976"><ele>195</ele><time>2026-4-28T21:53:37Z</time></trkpt>
<trkpt lat="48.865314483643" lon="2.9555141925812"><ele>195</ele><time>2026-4-28T21:53:40Z</time></trkpt>
<trkpt lat="48.865253448486" lon="2.9555814266205"><ele>195</ele><time>2026-4-28T21:53:43Z</time></trkpt>
<trkpt lat="48.865200042725" lon="2.9556486606598"><ele>195</ele><time>2026-4-28T21:53:46Z</time></trkpt>
<trkpt lat="48.865142822266" lon="2.9557163715363"><ele>195</ele><time>2026-4-28T21:53:49Z</time></trkpt>
<trkpt lat="48.865093231201" lon="2.9557800292969"><ele>195</ele><time>2026-4-28T21:53:52Z</time></trkpt>
<trkpt lat="48.865028381348" lon="2.9558610916138"><ele>195</ele><time>2026-4-28T21:53:55Z</time></trkpt>
<trkpt lat="48.864978790283" lon="2.9559309482574"><ele>195</ele><time>2026-4-28T21:53:58Z</time></trkpt>
<trkpt lat="48.864925384521" lon="2.9560074806213"><ele>195</ele><time>2026-4-28T21:54:1Z</time></trkpt>
<trkpt lat="48.864868164062" lon="2.9560928344727"><ele>195</ele><time>2026-4-28T21:54:4Z</time></trkpt>
<trkpt lat="48.864810943604" lon="2.9561810493469"><ele>196</ele><time>2026-4-28T21:54:7Z</time></trkpt>
<trkpt lat="48.864753723145" lon="2.9562702178955"><ele>196</ele><time>2026-4-28T21:54:10Z</time></trkpt>
<trkpt lat="48.864696502686" lon="2.9563589096069"><ele>195</ele><time>2026-4-28T21:54:13Z</time></trkpt>
<trkpt lat="48.864631652832" lon="2.9564518928528"><ele>195</ele><time>2026-4-28T21:54:16Z</time></trkpt>
<trkpt lat="48.864574432373" lon="2.9565422534943"><ele>195</ele><time>2026-4-28T21:54:19Z</time></trkpt>
<trkpt lat="48.864513397217" lon="2.9566304683685"><ele>195</ele><time>2026-4-28T21:54:22Z</time></trkpt>
<trkpt lat="48.864456176758" lon="2.9567232131958"><ele>195</ele><time>2026-4-28T21:54:25Z</time></trkpt>
<trkpt lat="48.864402770996" lon="2.9568104743958"><ele>195</ele><time>2026-4-28T21:54:28Z</time></trkpt>
<trkpt lat="48.864349365234" lon="2.9568934440613"><ele>194</ele><time>2026-4-28T21:54:31Z</time></trkpt>
<trkpt lat="48.864292144775" lon="2.9569840431213"><ele>193</ele><time>2026-4-28T21:54:34Z</time></trkpt>
<trkpt lat="48.864231109619" lon="2.9570808410645"><ele>193</ele><time>2026-4-28T21:54:37Z</time></trkpt>
<trkpt lat="48.864162445068" lon="2.9571840763092"><ele>193</ele><time>2026-4-28T21:54:40Z</time></trkpt>
<trkpt lat="48.864097595215" lon="2.9572820663452"><ele>193</ele><time>2026-4-28T21:54:43Z</time></trkpt>
<trkpt lat="48.864036560059" lon="2.9573845863342"><ele>193</ele><time>2026-4-28T21:54:46Z</time></trkpt>
<trkpt lat="48.863975524902" lon="2.95747590065"><ele>193</ele><time>2026-4-28T21:54:49Z</time></trkpt>
<trkpt lat="48.863918304443" lon="2.9575614929199"><ele>192</ele><time>2026-4-28T21:54:52Z</time></trkpt>
<trkpt lat="48.863861083984" lon="2.9576497077942"><ele>191</ele><time>2026-4-28T21:54:55Z</time></trkpt>
<trkpt lat="48.863800048828" lon="2.957747220993"><ele>191</ele><time>2026-4-28T21:54:58Z</time></trkpt>
<trkpt lat="48.863739013672" lon="2.9578433036804"><ele>191</ele><time>2026-4-28T21:55:1Z</time></trkpt>
<trkpt lat="48.86368560791" lon="2.9579303264618"><ele>191</ele><time>2026-4-28T21:55:4Z</time></trkpt>
<trkpt lat="48.863628387451" lon="2.9580187797546"><ele>191</ele><time>2026-4-28T21:55:7Z</time></trkpt>
<trkpt lat="48.863567352295" lon="2.9581117630005"><ele>192</ele><time>2026-4-28T21:55:10Z</time></trkpt>
<trkpt lat="48.863498687744" lon="2.9582009315491"><ele>192</ele><time>2026-4-28T21:55:13Z</time></trkpt>
<trkpt lat="48.863437652588" lon="2.9582827091217"><ele>192</ele><time>2026-4-28T21:55:16Z</time></trkpt>
<trkpt lat="48.863380432129" lon="2.9583637714386"><ele>192</ele><time>2026-4-28T21:55:19Z</time></trkpt>
<trkpt lat="48.863334655762" lon="2.9584438800812"><ele>192</ele><time>2026-4-28T21:55:22Z</time></trkpt>
<trkpt lat="48.86328125" lon="2.9585239887238"><ele>192</ele><time>2026-4-28T21:55:25Z</time></trkpt>
<trkpt lat="48.863227844238" lon="2.9585998058319"><ele>192</ele><time>2026-4-28T21:55:28Z</time></trkpt>
<trkpt lat="48.863178253174" lon="2.9586737155914"><ele>192</ele><time>2026-4-28T21:55:31Z</time></trkpt>
<trkpt lat="48.863128662109" lon="2.9587473869324"><ele>192</ele><time>2026-4-28T21:55:34Z</time></trkpt>
<trkpt lat="48.863082885742" lon="2.9588186740875"><ele>192</ele><time>2026-4-28T21:55:37Z</time></trkpt>
<trkpt lat="48.863033294678" lon="2.9588944911957"><ele>192</ele><time>2026-4-28T21:55:40Z</time></trkpt>
<trkpt lat="48.862987518311" lon="2.9589705467224"><ele>192</ele><time>2026-4-28T21:55:43Z</time></trkpt>
<trkpt lat="48.862945556641" lon="2.9590404033661"><ele>192</ele><time>2026-4-28T21:55:46Z</time></trkpt>
<trkpt lat="48.862899780273" lon="2.9591126441956"><ele>192</ele><time>2026-4-28T21:55:49Z</time></trkpt>
<trkpt lat="48.862854003906" lon="2.9591789245605"><ele>192</ele><time>2026-4-28T21:55:52Z</time></trkpt>
<trkpt lat="48.862808227539" lon="2.9592554569244"><ele>192</ele><time>2026-4-28T21:55:55Z</time></trkpt>
<trkpt lat="48.862758636475" lon="2.959333896637"><ele>192</ele><time>2026-4-28T21:55:58Z</time></trkpt>
<trkpt lat="48.862705230713" lon="2.9594082832336"><ele>192</ele><time>2026-4-28T21:56:1Z</time></trkpt>
<trkpt lat="48.862651824951" lon="2.9594895839691"><ele>192</ele><time>2026-4-28T21:56:4Z</time></trkpt>
<trkpt lat="48.862602233887" lon="2.9595639705658"><ele>192</ele><time>2026-4-28T21:56:7Z</time></trkpt>
<trkpt lat="48.86255645752" lon="2.9596419334412"><ele>192</ele><time>2026-4-28T21:56:10Z</time></trkpt>
<trkpt lat="48.862510681152" lon="2.9597163200378"><ele>192</ele><time>2026-4-28T21:56:13Z</time></trkpt>
<trkpt lat="48.862461090088" lon="2.959792137146"><ele>192</ele><time>2026-4-28T21:56:16Z</time></trkpt>
<trkpt lat="48.862419128418" lon="2.9598512649536"><ele>192</ele><time>2026-4-28T21:56:19Z</time></trkpt>
<trkpt lat="48.862377166748" lon="2.9599182605743"><ele>192</ele><time>2026-4-28T21:56:22Z</time></trkpt>
<trkpt lat="48.862331390381" lon="2.9599885940552"><ele>192</ele><time>2026-4-28T21:56:25Z</time></trkpt>
<trkpt lat="48.862331390381" lon="2.9599885940552"><ele>192</ele><time>2026-4-28T21:56:28Z</time></trkpt>
<trkpt lat="48.862285614014" lon="2.9600646495819"><ele>192</ele><time>2026-4-28T21:56:31Z</time></trkpt>
<trkpt lat="48.862236022949" lon="2.9601426124573"><ele>192</ele><time>2026-4-28T21:56:34Z</time></trkpt>
<trkpt lat="48.862182617188" lon="2.9602136611938"><ele>192</ele><time>2026-4-28T21:56:37Z</time></trkpt>
<trkpt lat="48.862182617188" lon="2.9602136611938"><ele>192</ele><time>2026-4-28T21:56:40Z</time></trkpt>
<trkpt lat="48.862133026123" lon="2.9602906703949"><ele>192</ele><time>2026-4-28T21:56:43Z</time></trkpt>
<trkpt lat="48.862083435059" lon="2.9603717327118"><ele>192</ele><time>2026-4-28T21:56:46Z</time></trkpt>
<trkpt lat="48.862033843994" lon="2.9604511260986"><ele>192</ele><time>2026-4-28T21:56:49Z</time></trkpt>
<trkpt lat="48.862033843994" lon="2.9604511260986"><ele>192</ele><time>2026-4-28T21:56:52Z</time></trkpt>
<trkpt lat="48.86198425293" lon="2.9605309963226"><ele>193</ele><time>2026-4-28T21:56:55Z</time></trkpt>
<trkpt lat="48.86194229126" lon="2.9606037139893"><ele>193</ele><time>2026-4-28T21:56:58Z</time></trkpt>
<trkpt lat="48.86190032959" lon="2.9606788158417"><ele>193</ele><time>2026-4-28T21:57:1Z</time></trkpt>
<trkpt lat="48.86190032959" lon="2.9606788158417"><ele>193</ele><time>2026-4-28T21:57:4Z</time></trkpt>
<trkpt lat="48.86190032959" lon="2.9606788158417"><ele>193</ele><time>2026-4-28T21:57:7Z</time></trkpt>
<trkpt lat="48.861820220947" lon="2.960821390152"><ele>193</ele><time>2026-4-28T21:57:10Z</time></trkpt>
<trkpt lat="48.861770629883" lon="2.9609041213989"><ele>193</ele><time>2026-4-28T21:57:13Z</time></trkpt>
<trkpt lat="48.861770629883" lon="2.9609041213989"><ele>193</ele><time>2026-4-28T21:57:16Z</time></trkpt>
<trkpt lat="48.861721038818" lon="2.9609832763672"><ele>193</ele><time>2026-4-28T21:57:19Z</time></trkpt>
<trkpt lat="48.861663818359" lon="2.9610555171967"><ele>193</ele><time>2026-4-28T21:57:22Z</time></trkpt>
<trkpt lat="48.861614227295" lon="2.9611270427704"><ele>194</ele><time>2026-4-28T21:57:25Z</time></trkpt>
<trkpt lat="48.861614227295" lon="2.9611270427704"><ele>194</ele><time>2026-4-28T21:57:28Z</time></trkpt>
<trkpt lat="48.86156463623" lon="2.9611999988556"><ele>194</ele><time>2026-4-28T21:57:31Z</time></trkpt>
<trkpt lat="48.861515045166" lon="2.9612767696381"><ele>194</ele><time>2026-4-28T21:57:34Z</time></trkpt>
<trkpt lat="48.861465454102" lon="2.9613513946533"><ele>194</ele><time>2026-4-28T21:57:37Z</time></trkpt>
<trkpt lat="48.861465454102" lon="2.9613513946533"><ele>194</ele><time>2026-4-28T21:57:40Z</time></trkpt>
<trkpt lat="48.86141204834" lon="2.9614267349243"><ele>194</ele><time>2026-4-28T21:57:43Z</time></trkpt>
<trkpt lat="48.861358642578" lon="2.9615077972412"><ele>194</ele><time>2026-4-28T21:57:46Z</time></trkpt>
<trkpt lat="48.861301422119" lon="2.9615831375122"><ele>194</ele><time>2026-4-28T21:57:49Z</time></trkpt>
<trkpt lat="48.861251831055" lon="2.9616599082947"><ele>194</ele><time>2026-4-28T21:57:52Z</time></trkpt>
<trkpt lat="48.861209869385" lon="2.9617285728455"><ele>195</ele><time>2026-4-28T21:57:55Z</time></trkpt>
<trkpt lat="48.861167907715" lon="2.9617931842804"><ele>195</ele><time>2026-4-28T21:57:58Z</time></trkpt>
<trkpt lat="48.861122131348" lon="2.9618718624115"><ele>195</ele><time>2026-4-28T21:58:1Z</time></trkpt>
<trkpt lat="48.86107635498" lon="2.9619474411011"><ele>195</ele><time>2026-4-28T21:58:4Z</time></trkpt>
<trkpt lat="48.861034393311" lon="2.9620177745819"><ele>195</ele><time>2026-4-28T21:58:7Z</time></trkpt>
<trkpt lat="48.860992431641" lon="2.9620814323425"><ele>195</ele><time>2026-4-28T21:58:10Z</time></trkpt>
<trkpt lat="48.860992431641" lon="2.9620814323425"><ele>195</ele><time>2026-4-28T21:58:13Z</time></trkpt>
<trkpt lat="48.860919952393" lon="2.9622092247009"><ele>195</ele><time>2026-4-28T21:58:16Z</time></trkpt>
<trkpt lat="48.860877990723" lon="2.9622814655304"><ele>195</ele><time>2026-4-28T21:58:19Z</time></trkpt>
<trkpt lat="48.860877990723" lon="2.9622814655304"><ele>195</ele><time>2026-4-28T21:58:22Z</time></trkpt>
<trkpt lat="48.860809326172" lon="2.9623959064484"><ele>194</ele><time>2026-4-28T21:58:25Z</time></trkpt>
<trkpt lat="48.860809326172" lon="2.9623959064484"><ele>194</ele><time>2026-4-28T21:58:28Z</time></trkpt>
<trkpt lat="48.860752105713" lon="2.9624860286713"><ele>194</ele><time>2026-4-28T21:58:31Z</time></trkpt>
<trkpt lat="48.860752105713" lon="2.9624860286713"><ele>194</ele><time>2026-4-28T21:58:34Z</time></trkpt>
<trkpt lat="48.860698699951" lon="2.962539434433"><ele>194</ele><time>2026-4-28T21:58:37Z</time></trkpt>
<trkpt lat="48.860698699951" lon="2.962539434433"><ele>194</ele><time>2026-4-28T21:58:40Z</time></trkpt>
<trkpt lat="48.860626220703" lon="2.9625532627106"><ele>194</ele><time>2026-4-28T21:58:43Z</time></trkpt>
<trkpt lat="48.860626220703" lon="2.9625532627106"><ele>194</ele><time>2026-4-28T21:58:46Z</time></trkpt>
<trkpt lat="48.86058807373" lon="2.962616443634"><ele>194</ele><time>2026-4-28T21:58:49Z</time></trkpt>
<trkpt lat="48.86058807373" lon="2.962616443634"><ele>194</ele><time>2026-4-28T21:58:52Z</time></trkpt>
<trkpt lat="48.86058807373" lon="2.9627227783203"><ele>194</ele><time>2026-4-28T21:58:55Z</time></trkpt>
<trkpt lat="48.86058807373" lon="2.9627227783203"><ele>194</ele><time>2026-4-28T21:58:58Z</time></trkpt>
<trkpt lat="48.860546112061" lon="2.9627916812897"><ele>194</ele><time>2026-4-28T21:59:1Z</time></trkpt>
<trkpt lat="48.860473632812" lon="2.9629104137421"><ele>194</ele><time>2026-4-28T21:59:4Z</time></trkpt>
<trkpt lat="48.860431671143" lon="2.9629786014557"><ele>194</ele><time>2026-4-28T21:59:7Z</time></trkpt>
<trkpt lat="48.860385894775" lon="2.9630599021912"><ele>194</ele><time>2026-4-28T21:59:10Z</time></trkpt>
<trkpt lat="48.860328674316" lon="2.9631345272064"><ele>194</ele><time>2026-4-28T21:59:13Z</time></trkpt>
<trkpt lat="48.860260009766" lon="2.9632122516632"><ele>194</ele><time>2026-4-28T21:59:16Z</time></trkpt>
<trkpt lat="48.860195159912" lon="2.9632847309113"><ele>194</ele><time>2026-4-28T21:59:19Z</time></trkpt>
<trkpt lat="48.860134124756" lon="2.9633569717407"><ele>194</ele><time>2026-4-28T21:59:22Z</time></trkpt>
<trkpt lat="48.860076904297" lon="2.9634211063385"><ele>194</ele><time>2026-4-28T21:59:25Z</time></trkpt>
<trkpt lat="48.859985351562" lon="2.9635310173035"><ele>194</ele><time>2026-4-28T21:59:28Z</time></trkpt>
<trkpt lat="48.859985351562" lon="2.9635310173035"><ele>194</ele><time>2026-4-28T21:59:31Z</time></trkpt>
<trkpt lat="48.859928131104" lon="2.9635853767395"><ele>194</ele><time>2026-4-28T21:59:34Z</time></trkpt>
<trkpt lat="48.859836578369" lon="2.9635903835297"><ele>194</ele><time>2026-4-28T21:59:37Z</time></trkpt>
<trkpt lat="48.859836578369" lon="2.9635903835297"><ele>194</ele><time>2026-4-28T21:59:40Z</time></trkpt>
<trkpt lat="48.85977935791" lon="2.963604927063"><ele>194</ele><time>2026-4-28T21:59:43Z</time></trkpt>
<trkpt lat="48.85977935791" lon="2.963604927063"><ele>194</ele><time>2026-4-28T21:59:46Z</time></trkpt>
<trkpt lat="48.85977935791" lon="2.963604927063"><ele>194</ele><time>2026-4-28T21:59:49Z</time></trkpt>
<trkpt lat="48.85977935791" lon="2.963604927063"><ele>194</ele><time>2026-4-28T21:59:52Z</time></trkpt>
<trkpt lat="48.85977935791" lon="2.963604927063"><ele>194</ele><time>2026-4-28T21:59:55Z</time></trkpt>
<trkpt lat="48.85977935791" lon="2.963604927063"><ele>194</ele><time>2026-4-28T21:59:58Z</time></trkpt>
<trkpt lat="48.859794616699" lon="2.9636545181274"><ele>189</ele><time>2026-4-28T22:0:1Z</time></trkpt>
<trkpt lat="48.859794616699" lon="2.9636545181274"><ele>189</ele><time>2026-4-28T22:0:4Z</time></trkpt>
<trkpt lat="48.859794616699" lon="2.9636545181274"><ele>189</ele><time>2026-4-28T22:0:7Z</time></trkpt>
<trkpt lat="48.859794616699" lon="2.9636545181274"><ele>189</ele><time>2026-4-28T22:0:10Z</time></trkpt>
<trkpt lat="48.859794616699" lon="2.9636545181274"><ele>189</ele><time>2026-4-28T22:0:13Z</time></trkpt>
<trkpt lat="48.859794616699" lon="2.9636545181274"><ele>189</ele><time>2026-4-28T22:0:16Z</time></trkpt>
<trkpt lat="48.859794616699" lon="2.9636545181274"><ele>189</ele><time>2026-4-28T22:0:19Z</time></trkpt>
<trkpt lat="48.859794616699" lon="2.9636545181274"><ele>189</ele><time>2026-4-28T22:0:22Z</time></trkpt>
<trkpt lat="48.859794616699" lon="2.9636545181274"><ele>189</ele><time>2026-4-28T22:0:25Z</time></trkpt>
<trkpt lat="48.859794616699" lon="2.9636545181274"><ele>189</ele><time>2026-4-28T22:0:28Z</time></trkpt>
<trkpt lat="48.859794616699" lon="2.9636545181274"><ele>189</ele><time>2026-4-28T22:0:31Z</time></trkpt>
<trkpt lat="48.859703063965" lon="2.9637548923492"><ele>190</ele><time>2026-4-28T22:0:34Z</time></trkpt>
<trkpt lat="48.859703063965" lon="2.9637548923492"><ele>190</ele><time>2026-4-28T22:0:37Z</time></trkpt>
<trkpt lat="48.8596534729" lon="2.9638302326202"><ele>190</ele><time>2026-4-28T22:0:40Z</time></trkpt>
<trkpt lat="48.859630584717" lon="2.9638912677765"><ele>190</ele><time>2026-4-28T22:0:43Z</time></trkpt>
<trkpt lat="48.859615325928" lon="2.9639475345612"><ele>189</ele><time>2026-4-28T22:0:46Z</time></trkpt>
<trkpt lat="48.859615325928" lon="2.9639475345612"><ele>189</ele><time>2026-4-28T22:0:49Z</time></trkpt>
<trkpt lat="48.859596252441" lon="2.9639990329742"><ele>190</ele><time>2026-4-28T22:0:52Z</time></trkpt>
<trkpt lat="48.859546661377" lon="2.9641106128693"><ele>190</ele><time>2026-4-28T22:0:55Z</time></trkpt>
<trkpt lat="48.859493255615" lon="2.964188337326"><ele>190</ele><time>2026-4-28T22:0:58Z</time></trkpt>
<trkpt lat="48.859493255615" lon="2.964188337326"><ele>190</ele><time>2026-4-28T22:1:1Z</time></trkpt>
<trkpt lat="48.859436035156" lon="2.9642713069916"><ele>190</ele><time>2026-4-28T22:1:4Z</time></trkpt>
<trkpt lat="48.859378814697" lon="2.9643454551697"><ele>190</ele><time>2026-4-28T22:1:7Z</time></trkpt>
<trkpt lat="48.859378814697" lon="2.9643454551697"><ele>190</ele><time>2026-4-28T22:1:10Z</time></trkpt>
<trkpt lat="48.859302520752" lon="2.9644572734833"><ele>190</ele><time>2026-4-28T22:1:13Z</time></trkpt>
<trkpt lat="48.859256744385" lon="2.9645164012909"><ele>190</ele><time>2026-4-28T22:1:16Z</time></trkpt>
<trkpt lat="48.859214782715" lon="2.964572429657"><ele>191</ele><time>2026-4-28T22:1:19Z</time></trkpt>
<trkpt lat="48.859214782715" lon="2.964572429657"><ele>191</ele><time>2026-4-28T22:1:22Z</time></trkpt>
<trkpt lat="48.85916519165" lon="2.9646427631378"><ele>191</ele><time>2026-4-28T22:1:25Z</time></trkpt>
<trkpt lat="48.85912322998" lon="2.9647064208984"><ele>191</ele><time>2026-4-28T22:1:28Z</time></trkpt>
<trkpt lat="48.859077453613" lon="2.964768409729"><ele>191</ele><time>2026-4-28T22:1:31Z</time></trkpt>
<trkpt lat="48.859077453613" lon="2.964768409729"><ele>191</ele><time>2026-4-28T22:1:34Z</time></trkpt>
<trkpt lat="48.859035491943" lon="2.9648311138153"><ele>191</ele><time>2026-4-28T22:1:37Z</time></trkpt>
<trkpt lat="48.858989715576" lon="2.9648973941803"><ele>191</ele><time>2026-4-28T22:1:40Z</time></trkpt>
<trkpt lat="48.858943939209" lon="2.9649648666382"><ele>191</ele><time>2026-4-28T22:1:43Z</time></trkpt>
<trkpt lat="48.858943939209" lon="2.9649648666382"><ele>191</ele><time>2026-4-28T22:1:46Z</time></trkpt>
<trkpt lat="48.858901977539" lon="2.9650218486786"><ele>191</ele><time>2026-4-28T22:1:49Z</time></trkpt>
<trkpt lat="48.858825683594" lon="2.965117931366"><ele>192</ele><time>2026-4-28T22:1:52Z</time></trkpt>
<trkpt lat="48.858825683594" lon="2.965117931366"><ele>192</ele><time>2026-4-28T22:1:55Z</time></trkpt>
<trkpt lat="48.858825683594" lon="2.965117931366"><ele>192</ele><time>2026-4-28T22:1:58Z</time></trkpt>
<trkpt lat="48.858741760254" lon="2.9652271270752"><ele>192</ele><time>2026-4-28T22:2:1Z</time></trkpt>
<trkpt lat="48.858699798584" lon="2.9652934074402"><ele>192</ele><time>2026-4-28T22:2:4Z</time></trkpt>
<trkpt lat="48.858699798584" lon="2.9652934074402"><ele>192</ele><time>2026-4-28T22:2:7Z</time></trkpt>
<trkpt lat="48.85865020752" lon="2.9653656482697"><ele>192</ele><time>2026-4-28T22:2:10Z</time></trkpt>
<trkpt lat="48.858604431152" lon="2.9654262065887"><ele>192</ele><time>2026-4-28T22:2:13Z</time></trkpt>
<trkpt lat="48.85856628418" lon="2.9654884338379"><ele>192</ele><time>2026-4-28T22:2:16Z</time></trkpt>
<trkpt lat="48.85856628418" lon="2.9654884338379"><ele>192</ele><time>2026-4-28T22:2:19Z</time></trkpt>
<trkpt lat="48.858516693115" lon="2.9655640125275"><ele>192</ele><time>2026-4-28T22:2:22Z</time></trkpt>
<trkpt lat="48.858459472656" lon="2.9656467437744"><ele>192</ele><time>2026-4-28T22:2:25Z</time></trkpt>
<trkpt lat="48.858413696289" lon="2.9657123088837"><ele>192</ele><time>2026-4-28T22:2:28Z</time></trkpt>
<trkpt lat="48.858413696289" lon="2.9657123088837"><ele>192</ele><time>2026-4-28T22:2:31Z</time></trkpt>
<trkpt lat="48.85831451416" lon="2.9658370018005"><ele>193</ele><time>2026-4-28T22:2:34Z</time></trkpt>
<trkpt lat="48.858261108398" lon="2.9659111499786"><ele>193</ele><time>2026-4-28T22:2:37Z</time></trkpt>
<trkpt lat="48.858261108398" lon="2.9659111499786"><ele>193</ele><time>2026-4-28T22:2:40Z</time></trkpt>
<trkpt lat="48.858207702637" lon="2.9659852981567"><ele>193</ele><time>2026-4-28T22:2:43Z</time></trkpt>
<trkpt lat="48.85816192627" lon="2.9660527706146"><ele>193</ele><time>2026-4-28T22:2:46Z</time></trkpt>
<trkpt lat="48.858116149902" lon="2.9661195278168"><ele>193</ele><time>2026-4-28T22:2:49Z</time></trkpt>
<trkpt lat="48.858070373535" lon="2.9661884307861"><ele>193</ele><time>2026-4-28T22:2:52Z</time></trkpt>
<trkpt lat="48.858024597168" lon="2.9662556648254"><ele>193</ele><time>2026-4-28T22:2:55Z</time></trkpt>
<trkpt lat="48.857975006104" lon="2.9663243293762"><ele>193</ele><time>2026-4-28T22:2:58Z</time></trkpt>
<trkpt lat="48.857975006104" lon="2.9663243293762"><ele>193</ele><time>2026-4-28T22:3:1Z</time></trkpt>
<trkpt lat="48.857933044434" lon="2.9663863182068"><ele>193</ele><time>2026-4-28T22:3:4Z</time></trkpt>
<trkpt lat="48.857883453369" lon="2.966451883316"><ele>193</ele><time>2026-4-28T22:3:7Z</time></trkpt>
<trkpt lat="48.857841491699" lon="2.9665186405182"><ele>193</ele><time>2026-4-28T22:3:10Z</time></trkpt>
<trkpt lat="48.857841491699" lon="2.9665186405182"><ele>193</ele><time>2026-4-28T22:3:13Z</time></trkpt>
<trkpt lat="48.857791900635" lon="2.9665851593018"><ele>193</ele><time>2026-4-28T22:3:16Z</time></trkpt>
<trkpt lat="48.857746124268" lon="2.9666478633881"><ele>194</ele><time>2026-4-28T22:3:19Z</time></trkpt>
<trkpt lat="48.857696533203" lon="2.9667119979858"><ele>194</ele><time>2026-4-28T22:3:22Z</time></trkpt>
<trkpt lat="48.857696533203" lon="2.9667119979858"><ele>194</ele><time>2026-4-28T22:3:25Z</time></trkpt>
<trkpt lat="48.857654571533" lon="2.9667692184448"><ele>194</ele><time>2026-4-28T22:3:28Z</time></trkpt>
<trkpt lat="48.857612609863" lon="2.9668245315552"><ele>194</ele><time>2026-4-28T22:3:31Z</time></trkpt>
<trkpt lat="48.857566833496" lon="2.9668781757355"><ele>194</ele><time>2026-4-28T22:3:34Z</time></trkpt>
<trkpt lat="48.857566833496" lon="2.9668781757355"><ele>194</ele><time>2026-4-28T22:3:37Z</time></trkpt>
<trkpt lat="48.857524871826" lon="2.9669420719147"><ele>195</ele><time>2026-4-28T22:3:40Z</time></trkpt>
<trkpt lat="48.857475280762" lon="2.9670085906982"><ele>195</ele><time>2026-4-28T22:3:43Z</time></trkpt>
<trkpt lat="48.857421875" lon="2.9670794010162"><ele>195</ele><time>2026-4-28T22:3:46Z</time></trkpt>
<trkpt lat="48.857421875" lon="2.9670794010162"><ele>195</ele><time>2026-4-28T22:3:49Z</time></trkpt>
<trkpt lat="48.857372283936" lon="2.9671432971954"><ele>195</ele><time>2026-4-28T22:3:52Z</time></trkpt>
<trkpt lat="48.857372283936" lon="2.9671432971954"><ele>195</ele><time>2026-4-28T22:3:55Z</time></trkpt>
<trkpt lat="48.85729598999" lon="2.9672350883484"><ele>195</ele><time>2026-4-28T22:3:58Z</time></trkpt>
<trkpt lat="48.85729598999" lon="2.9672350883484"><ele>195</ele><time>2026-4-28T22:4:1Z</time></trkpt>
<trkpt lat="48.85721206665" lon="2.9673399925232"><ele>196</ele><time>2026-4-28T22:4:4Z</time></trkpt>
<trkpt lat="48.857166290283" lon="2.9674060344696"><ele>196</ele><time>2026-4-28T22:4:7Z</time></trkpt>
<trkpt lat="48.857166290283" lon="2.9674060344696"><ele>196</ele><time>2026-4-28T22:4:10Z</time></trkpt>
<trkpt lat="48.857124328613" lon="2.9674618244171"><ele>196</ele><time>2026-4-28T22:4:13Z</time></trkpt>
<trkpt lat="48.857036590576" lon="2.9675793647766"><ele>196</ele><time>2026-4-28T22:4:16Z</time></trkpt>
<trkpt lat="48.857036590576" lon="2.9675793647766"><ele>196</ele><time>2026-4-28T22:4:19Z</time></trkpt>
<trkpt lat="48.856983184814" lon="2.967643737793"><ele>196</ele><time>2026-4-28T22:4:22Z</time></trkpt>
<trkpt lat="48.85693359375" lon="2.9677114486694"><ele>195</ele><time>2026-4-28T22:4:25Z</time></trkpt>
<trkpt lat="48.856887817383" lon="2.9677760601044"><ele>195</ele><time>2026-4-28T22:4:28Z</time></trkpt>
<trkpt lat="48.856887817383" lon="2.9677760601044"><ele>195</ele><time>2026-4-28T22:4:31Z</time></trkpt>
<trkpt lat="48.856842041016" lon="2.9678399562836"><ele>195</ele><time>2026-4-28T22:4:34Z</time></trkpt>
<trkpt lat="48.856792449951" lon="2.9679024219513"><ele>195</ele><time>2026-4-28T22:4:37Z</time></trkpt>
<trkpt lat="48.856750488281" lon="2.9679570198059"><ele>195</ele><time>2026-4-28T22:4:40Z</time></trkpt>
<trkpt lat="48.856750488281" lon="2.9679570198059"><ele>195</ele><time>2026-4-28T22:4:43Z</time></trkpt>
<trkpt lat="48.856704711914" lon="2.9680171012878"><ele>195</ele><time>2026-4-28T22:4:46Z</time></trkpt>
<trkpt lat="48.856704711914" lon="2.9680171012878"><ele>195</ele><time>2026-4-28T22:4:49Z</time></trkpt>
<trkpt lat="48.856632232666" lon="2.9681234359741"><ele>195</ele><time>2026-4-28T22:4:52Z</time></trkpt>
<trkpt lat="48.856632232666" lon="2.9681234359741"><ele>195</ele><time>2026-4-28T22:4:55Z</time></trkpt>
<trkpt lat="48.856632232666" lon="2.9681234359741"><ele>195</ele><time>2026-4-28T22:4:58Z</time></trkpt>
<trkpt lat="48.85657119751" lon="2.9681987762451"><ele>195</ele><time>2026-4-28T22:5:1Z</time></trkpt>
<trkpt lat="48.85657119751" lon="2.9681987762451"><ele>195</ele><time>2026-4-28T22:5:4Z</time></trkpt>
<trkpt lat="48.85657119751" lon="2.9681987762451"><ele>195</ele><time>2026-4-28T22:5:7Z</time></trkpt>
<trkpt lat="48.85657119751" lon="2.9681987762451"><ele>195</ele><time>2026-4-28T22:5:10Z</time></trkpt>
<trkpt lat="48.85657119751" lon="2.9681987762451"><ele>195</ele><time>2026-4-28T22:5:13Z</time></trkpt>
<trkpt lat="48.85657119751" lon="2.9681987762451"><ele>195</ele><time>2026-4-28T22:5:16Z</time></trkpt>
<trkpt lat="48.856433868408" lon="2.968373298645"><ele>195</ele><time>2026-4-28T22:5:19Z</time></trkpt>
<trkpt lat="48.856388092041" lon="2.9684455394745"><ele>195</ele><time>2026-4-28T22:5:22Z</time></trkpt>
<trkpt lat="48.856330871582" lon="2.968531370163"><ele>195</ele><time>2026-4-28T22:5:25Z</time></trkpt>
<trkpt lat="48.85627746582" lon="2.9686045646667"><ele>195</ele><time>2026-4-28T22:5:28Z</time></trkpt>
<trkpt lat="48.856227874756" lon="2.9686689376831"><ele>195</ele><time>2026-4-28T22:5:31Z</time></trkpt>
<trkpt lat="48.856163024902" lon="2.9687592983246"><ele>194</ele><time>2026-4-28T22:5:34Z</time></trkpt>
<trkpt lat="48.856094360352" lon="2.9688501358032"><ele>194</ele><time>2026-4-28T22:5:37Z</time></trkpt>
<trkpt lat="48.856021881104" lon="2.9689404964447"><ele>194</ele><time>2026-4-28T22:5:40Z</time></trkpt>
<trkpt lat="48.855937957764" lon="2.9690473079681"><ele>193</ele><time>2026-4-28T22:5:43Z</time></trkpt>
<trkpt lat="48.855850219727" lon="2.9691679477692"><ele>192</ele><time>2026-4-28T22:5:46Z</time></trkpt>
<trkpt lat="48.855770111084" lon="2.9692757129669"><ele>192</ele><time>2026-4-28T22:5:49Z</time></trkpt>
<trkpt lat="48.855690002441" lon="2.9693791866302"><ele>190</ele><time>2026-4-28T22:5:52Z</time></trkpt>
<trkpt lat="48.855609893799" lon="2.9694671630859"><ele>189</ele><time>2026-4-28T22:5:55Z</time></trkpt>
<trkpt lat="48.855541229248" lon="2.9695265293121"><ele>188</ele><time>2026-4-28T22:5:58Z</time></trkpt>
<trkpt lat="48.855472564697" lon="2.969559431076"><ele>187</ele><time>2026-4-28T22:6:1Z</time></trkpt>
<trkpt lat="48.855472564697" lon="2.969559431076"><ele>187</ele><time>2026-4-28T22:6:4Z</time></trkpt>
<trkpt lat="48.855472564697" lon="2.969559431076"><ele>187</ele><time>2026-4-28T22:6:7Z</time></trkpt>
<trkpt lat="48.855472564697" lon="2.969559431076"><ele>187</ele><time>2026-4-28T22:6:10Z</time></trkpt>
<trkpt lat="48.855472564697" lon="2.969559431076"><ele>187</ele><time>2026-4-28T22:6:13Z</time></trkpt>
<trkpt lat="48.855472564697" lon="2.969559431076"><ele>187</ele><time>2026-4-28T22:6:16Z</time></trkpt>
<trkpt lat="48.855472564697" lon="2.969559431076"><ele>187</ele><time>2026-4-28T22:6:19Z</time></trkpt>
<trkpt lat="48.855472564697" lon="2.969559431076"><ele>187</ele><time>2026-4-28T22:6:22Z</time></trkpt>
<trkpt lat="48.855403900146" lon="2.9692919254303"><ele>188</ele><time>2026-4-28T22:6:25Z</time></trkpt>
<trkpt lat="48.855381011963" lon="2.9691965579987"><ele>188</ele><time>2026-4-28T22:6:28Z</time></trkpt>
<trkpt lat="48.855354309082" lon="2.9691073894501"><ele>188</ele><time>2026-4-28T22:6:31Z</time></trkpt>
<trkpt lat="48.855316162109" lon="2.9689917564392"><ele>188</ele><time>2026-4-28T22:6:34Z</time></trkpt>
<trkpt lat="48.855281829834" lon="2.9688849449158"><ele>188</ele><time>2026-4-28T22:6:37Z</time></trkpt>
<trkpt lat="48.855255126953" lon="2.9687988758087"><ele>188</ele><time>2026-4-28T22:6:40Z</time></trkpt>
<trkpt lat="48.855228424072" lon="2.9687056541443"><ele>188</ele><time>2026-4-28T22:6:43Z</time></trkpt>
<trkpt lat="48.855197906494" lon="2.968581199646"><ele>188</ele><time>2026-4-28T22:6:46Z</time></trkpt>
<trkpt lat="48.855167388916" lon="2.9684536457062"><ele>188</ele><time>2026-4-28T22:6:49Z</time></trkpt>
<trkpt lat="48.855144500732" lon="2.968338727951"><ele>188</ele><time>2026-4-28T22:6:52Z</time></trkpt>
<trkpt lat="48.855117797852" lon="2.968227148056"><ele>188</ele><time>2026-4-28T22:6:55Z</time></trkpt>
<trkpt lat="48.855098724365" lon="2.9681215286255"><ele>189</ele><time>2026-4-28T22:6:58Z</time></trkpt>
<trkpt lat="48.855079650879" lon="2.9680151939392"><ele>189</ele><time>2026-4-28T22:7:1Z</time></trkpt>
<trkpt lat="48.855056762695" lon="2.9679083824158"><ele>189</ele><time>2026-4-28T22:7:4Z</time></trkpt>
<trkpt lat="48.855037689209" lon="2.9678010940552"><ele>189</ele><time>2026-4-28T22:7:7Z</time></trkpt>
<trkpt lat="48.855014801025" lon="2.9676868915558"><ele>189</ele><time>2026-4-28T22:7:10Z</time></trkpt>
<trkpt lat="48.854995727539" lon="2.9675669670105"><ele>189</ele><time>2026-4-28T22:7:13Z</time></trkpt>
<trkpt lat="48.854969024658" lon="2.9674303531647"><ele>189</ele><time>2026-4-28T22:7:16Z</time></trkpt>
<trkpt lat="48.854942321777" lon="2.967306137085"><ele>189</ele><time>2026-4-28T22:7:19Z</time></trkpt>
<trkpt lat="48.854942321777" lon="2.967306137085"><ele>189</ele><time>2026-4-28T22:7:22Z</time></trkpt>
<trkpt lat="48.854911804199" lon="2.9671673774719"><ele>189</ele><time>2026-4-28T22:7:25Z</time></trkpt>
<trkpt lat="48.854892730713" lon="2.9670522212982"><ele>189</ele><time>2026-4-28T22:7:28Z</time></trkpt>
<trkpt lat="48.854869842529" lon="2.9669101238251"><ele>189</ele><time>2026-4-28T22:7:31Z</time></trkpt>
<trkpt lat="48.854869842529" lon="2.9669101238251"><ele>189</ele><time>2026-4-28T22:7:34Z</time></trkpt>
<trkpt lat="48.854839324951" lon="2.9667770862579"><ele>189</ele><time>2026-4-28T22:7:37Z</time></trkpt>
<trkpt lat="48.854816436768" lon="2.9666531085968"><ele>190</ele><time>2026-4-28T22:7:40Z</time></trkpt>
<trkpt lat="48.854801177979" lon="2.9665369987488"><ele>190</ele><time>2026-4-28T22:7:43Z</time></trkpt>
<trkpt lat="48.854801177979" lon="2.9665369987488"><ele>190</ele><time>2026-4-28T22:7:46Z</time></trkpt>
<trkpt lat="48.854778289795" lon="2.9664280414581"><ele>191</ele><time>2026-4-28T22:7:49Z</time></trkpt>
<trkpt lat="48.854755401611" lon="2.9663043022156"><ele>192</ele><time>2026-4-28T22:7:52Z</time></trkpt>
<trkpt lat="48.854736328125" lon="2.9661991596222"><ele>192</ele><time>2026-4-28T22:7:55Z</time></trkpt>
<trkpt lat="48.854736328125" lon="2.9661991596222"><ele>192</ele><time>2026-4-28T22:7:58Z</time></trkpt>
<trkpt lat="48.854721069336" lon="2.966096162796"><ele>192</ele><time>2026-4-28T22:8:1Z</time></trkpt>
<trkpt lat="48.854709625244" lon="2.9660046100616"><ele>192</ele><time>2026-4-28T22:8:4Z</time></trkpt>
<trkpt lat="48.854690551758" lon="2.9658894538879"><ele>191</ele><time>2026-4-28T22:8:7Z</time></trkpt>
<trkpt lat="48.854690551758" lon="2.9658894538879"><ele>191</ele><time>2026-4-28T22:8:10Z</time></trkpt>
<trkpt lat="48.854671478271" lon="2.9657731056213"><ele>191</ele><time>2026-4-28T22:8:13Z</time></trkpt>
<trkpt lat="48.854648590088" lon="2.9656524658203"><ele>191</ele><time>2026-4-28T22:8:16Z</time></trkpt>
<trkpt lat="48.854625701904" lon="2.9655289649963"><ele>191</ele><time>2026-4-28T22:8:19Z</time></trkpt>
<trkpt lat="48.854625701904" lon="2.9655289649963"><ele>191</ele><time>2026-4-28T22:8:22Z</time></trkpt>
<trkpt lat="48.854587554932" lon="2.9654076099396"><ele>191</ele><time>2026-4-28T22:8:25Z</time></trkpt>
<trkpt lat="48.854549407959" lon="2.9652719497681"><ele>190</ele><time>2026-4-28T22:8:28Z</time></trkpt>
<trkpt lat="48.854507446289" lon="2.9651372432709"><ele>191</ele><time>2026-4-28T22:8:31Z</time></trkpt>
<trkpt lat="48.854507446289" lon="2.9651372432709"><ele>191</ele><time>2026-4-28T22:8:34Z</time></trkpt>
<trkpt lat="48.854469299316" lon="2.9649972915649"><ele>191</ele><time>2026-4-28T22:8:37Z</time></trkpt>
<trkpt lat="48.854438781738" lon="2.9648699760437"><ele>192</ele><time>2026-4-28T22:8:40Z</time></trkpt>
<trkpt lat="48.854412078857" lon="2.9647452831268"><ele>192</ele><time>2026-4-28T22:8:43Z</time></trkpt>
<trkpt lat="48.854412078857" lon="2.9647452831268"><ele>192</ele><time>2026-4-28T22:8:46Z</time></trkpt>
<trkpt lat="48.854381561279" lon="2.9646008014679"><ele>193</ele><time>2026-4-28T22:8:49Z</time></trkpt>
<trkpt lat="48.854362487793" lon="2.9644839763641"><ele>193</ele><time>2026-4-28T22:8:52Z</time></trkpt>
<trkpt lat="48.854347229004" lon="2.9643695354462"><ele>193</ele><time>2026-4-28T22:8:55Z</time></trkpt>
<trkpt lat="48.854347229004" lon="2.9643695354462"><ele>193</ele><time>2026-4-28T22:8:58Z</time></trkpt>
<trkpt lat="48.854339599609" lon="2.9642772674561"><ele>192</ele><time>2026-4-28T22:9:1Z</time></trkpt>
<trkpt lat="48.854331970215" lon="2.9641788005829"><ele>192</ele><time>2026-4-28T22:9:4Z</time></trkpt>
<trkpt lat="48.85432434082" lon="2.9640548229218"><ele>192</ele><time>2026-4-28T22:9:7Z</time></trkpt>
<trkpt lat="48.85432434082" lon="2.9640548229218"><ele>192</ele><time>2026-4-28T22:9:10Z</time></trkpt>
<trkpt lat="48.854316711426" lon="2.9639203548431"><ele>191</ele><time>2026-4-28T22:9:13Z</time></trkpt>
<trkpt lat="48.854316711426" lon="2.9637496471405"><ele>191</ele><time>2026-4-28T22:9:16Z</time></trkpt>
<trkpt lat="48.85432434082" lon="2.9635832309723"><ele>190</ele><time>2026-4-28T22:9:19Z</time></trkpt>
<trkpt lat="48.85432434082" lon="2.9635832309723"><ele>190</ele><time>2026-4-28T22:9:22Z</time></trkpt>
<trkpt lat="48.854331970215" lon="2.9634265899658"><ele>189</ele><time>2026-4-28T22:9:25Z</time></trkpt>
<trkpt lat="48.854343414307" lon="2.9632802009583"><ele>188</ele><time>2026-4-28T22:9:28Z</time></trkpt>
<trkpt lat="48.854358673096" lon="2.9631240367889"><ele>188</ele><time>2026-4-28T22:9:31Z</time></trkpt>
<trkpt lat="48.854358673096" lon="2.9631240367889"><ele>188</ele><time>2026-4-28T22:9:34Z</time></trkpt>
<trkpt lat="48.854373931885" lon="2.9629399776459"><ele>188</ele><time>2026-4-28T22:9:37Z</time></trkpt>
<trkpt lat="48.854385375977" lon="2.9627809524536"><ele>187</ele><time>2026-4-28T22:9:40Z</time></trkpt>
<trkpt lat="48.854396820068" lon="2.9626088142395"><ele>186</ele><time>2026-4-28T22:9:43Z</time></trkpt>
<trkpt lat="48.854396820068" lon="2.9626088142395"><ele>186</ele><time>2026-4-28T22:9:46Z</time></trkpt>
<trkpt lat="48.854412078857" lon="2.9624319076538"><ele>186</ele><time>2026-4-28T22:9:49Z</time></trkpt>
<trkpt lat="48.854427337646" lon="2.9622735977173"><ele>185</ele><time>2026-4-28T22:9:52Z</time></trkpt>
<trkpt lat="48.854446411133" lon="2.9620983600616"><ele>185</ele><time>2026-4-28T22:9:55Z</time></trkpt>
<trkpt lat="48.854446411133" lon="2.9620983600616"><ele>185</ele><time>2026-4-28T22:9:58Z</time></trkpt>
<trkpt lat="48.854461669922" lon="2.9619324207306"><ele>184</ele><time>2026-4-28T22:10:1Z</time></trkpt>
<trkpt lat="48.8544921875" lon="2.9617583751678"><ele>183</ele><time>2026-4-28T22:10:4Z</time></trkpt>
<trkpt lat="48.854530334473" lon="2.9615535736084"><ele>183</ele><time>2026-4-28T22:10:7Z</time></trkpt>
<trkpt lat="48.854530334473" lon="2.9615535736084"><ele>183</ele><time>2026-4-28T22:10:10Z</time></trkpt>
<trkpt lat="48.854564666748" lon="2.9613659381866"><ele>183</ele><time>2026-4-28T22:10:13Z</time></trkpt>
<trkpt lat="48.854587554932" lon="2.9611999988556"><ele>183</ele><time>2026-4-28T22:10:16Z</time></trkpt>
<trkpt lat="48.85461807251" lon="2.9610280990601"><ele>184</ele><time>2026-4-28T22:10:19Z</time></trkpt>
<trkpt lat="48.854656219482" lon="2.9608633518219"><ele>184</ele><time>2026-4-28T22:10:22Z</time></trkpt>
<trkpt lat="48.854686737061" lon="2.9606900215149"><ele>185</ele><time>2026-4-28T22:10:25Z</time></trkpt>
<trkpt lat="48.85472869873" lon="2.9605162143707"><ele>187</ele><time>2026-4-28T22:10:28Z</time></trkpt>
<trkpt lat="48.85472869873" lon="2.9605162143707"><ele>187</ele><time>2026-4-28T22:10:31Z</time></trkpt>
<trkpt lat="48.854763031006" lon="2.9603176116943"><ele>187</ele><time>2026-4-28T22:10:34Z</time></trkpt>
<trkpt lat="48.854789733887" lon="2.9601314067841"><ele>187</ele><time>2026-4-28T22:10:37Z</time></trkpt>
<trkpt lat="48.854820251465" lon="2.9599688053131"><ele>188</ele><time>2026-4-28T22:10:40Z</time></trkpt>
<trkpt lat="48.854835510254" lon="2.9598205089569"><ele>188</ele><time>2026-4-28T22:10:43Z</time></trkpt>
<trkpt lat="48.85485458374" lon="2.9597017765045"><ele>188</ele><time>2026-4-28T22:10:46Z</time></trkpt>
<trkpt lat="48.854862213135" lon="2.9596176147461"><ele>188</ele><time>2026-4-28T22:10:49Z</time></trkpt>
<trkpt lat="48.854862213135" lon="2.9596176147461"><ele>188</ele><time>2026-4-28T22:10:52Z</time></trkpt>
<trkpt lat="48.854862213135" lon="2.9596176147461"><ele>188</ele><time>2026-4-28T22:10:55Z</time></trkpt>
<trkpt lat="48.854862213135" lon="2.9596176147461"><ele>188</ele><time>2026-4-28T22:10:58Z</time></trkpt>
<trkpt lat="48.854862213135" lon="2.9595663547516"><ele>189</ele><time>2026-4-28T22:11:1Z</time></trkpt>
<trkpt lat="48.854862213135" lon="2.9595663547516"><ele>189</ele><time>2026-4-28T22:11:4Z</time></trkpt>
<trkpt lat="48.854862213135" lon="2.9595663547516"><ele>189</ele><time>2026-4-28T22:11:7Z</time></trkpt>
<trkpt lat="48.854862213135" lon="2.9595663547516"><ele>189</ele><time>2026-4-28T22:11:10Z</time></trkpt>
<trkpt lat="48.854862213135" lon="2.9595663547516"><ele>189</ele><time>2026-4-28T22:11:13Z</time></trkpt>
<trkpt lat="48.854862213135" lon="2.9595663547516"><ele>189</ele><time>2026-4-28T22:11:16Z</time></trkpt>
<trkpt lat="48.854862213135" lon="2.9595663547516"><ele>189</ele><time>2026-4-28T22:11:19Z</time></trkpt>
<trkpt lat="48.854862213135" lon="2.9595663547516"><ele>189</ele><time>2026-4-28T22:11:22Z</time></trkpt>
<trkpt lat="48.854862213135" lon="2.9595663547516"><ele>189</ele><time>2026-4-28T22:11:25Z</time></trkpt>
<trkpt lat="48.854862213135" lon="2.9595663547516"><ele>189</ele><time>2026-4-28T22:11:28Z</time></trkpt>
<trkpt lat="48.854862213135" lon="2.9595663547516"><ele>189</ele><time>2026-4-28T22:11:31Z</time></trkpt>
<trkpt lat="48.854892730713" lon="2.9593048095703"><ele>188</ele><time>2026-4-28T22:11:34Z</time></trkpt>
<trkpt lat="48.854892730713" lon="2.9593048095703"><ele>188</ele><time>2026-4-28T22:11:37Z</time></trkpt>
<trkpt lat="48.854927062988" lon="2.9590985774994"><ele>188</ele><time>2026-4-28T22:11:40Z</time></trkpt>
<trkpt lat="48.854953765869" lon="2.9589114189148"><ele>188</ele><time>2026-4-28T22:11:43Z</time></trkpt>
<trkpt lat="48.854976654053" lon="2.9587466716766"><ele>189</ele><time>2026-4-28T22:11:46Z</time></trkpt>
<trkpt lat="48.854995727539" lon="2.9585797786713"><ele>190</ele><time>2026-4-28T22:11:49Z</time></trkpt>
<trkpt lat="48.855041503906" lon="2.9582359790802"><ele>190</ele><time>2026-4-28T22:11:52Z</time></trkpt>
<trkpt lat="48.855072021484" lon="2.9580047130585"><ele>188</ele><time>2026-4-28T22:11:55Z</time></trkpt>
<trkpt lat="48.855072021484" lon="2.9580047130585"><ele>188</ele><time>2026-4-28T22:11:58Z</time></trkpt>
<trkpt lat="48.855098724365" lon="2.9577901363373"><ele>187</ele><time>2026-4-28T22:12:1Z</time></trkpt>
<trkpt lat="48.855133056641" lon="2.9576141834259"><ele>186</ele><time>2026-4-28T22:12:4Z</time></trkpt>
<trkpt lat="48.855159759521" lon="2.9574565887451"><ele>185</ele><time>2026-4-28T22:12:7Z</time></trkpt>
<trkpt lat="48.855159759521" lon="2.9574565887451"><ele>185</ele><time>2026-4-28T22:12:10Z</time></trkpt>
<trkpt lat="48.855201721191" lon="2.9573059082031"><ele>184</ele><time>2026-4-28T22:12:13Z</time></trkpt>
<trkpt lat="48.855239868164" lon="2.9571561813354"><ele>182</ele><time>2026-4-28T22:12:16Z</time></trkpt>
<trkpt lat="48.855266571045" lon="2.9569625854492"><ele>180</ele><time>2026-4-28T22:12:19Z</time></trkpt>
<trkpt lat="48.855289459229" lon="2.9567868709564"><ele>178</ele><time>2026-4-28T22:12:22Z</time></trkpt>
<trkpt lat="48.855308532715" lon="2.956663608551"><ele>178</ele><time>2026-4-28T22:12:25Z</time></trkpt>
<trkpt lat="48.855335235596" lon="2.9565756320953"><ele>178</ele><time>2026-4-28T22:12:28Z</time></trkpt>
<trkpt lat="48.855369567871" lon="2.956463098526"><ele>177</ele><time>2026-4-28T22:12:31Z</time></trkpt>
<trkpt lat="48.855415344238" lon="2.9563357830048"><ele>174</ele><time>2026-4-28T22:12:34Z</time></trkpt>
<trkpt lat="48.855464935303" lon="2.9562118053436"><ele>171</ele><time>2026-4-28T22:12:37Z</time></trkpt>
<trkpt lat="48.855518341064" lon="2.9560976028442"><ele>168</ele><time>2026-4-28T22:12:40Z</time></trkpt>
<trkpt lat="48.855560302734" lon="2.9560079574585"><ele>166</ele><time>2026-4-28T22:12:43Z</time></trkpt>
<trkpt lat="48.855602264404" lon="2.9559245109558"><ele>166</ele><time>2026-4-28T22:12:46Z</time></trkpt>
<trkpt lat="48.855632781982" lon="2.9558446407318"><ele>166</ele><time>2026-4-28T22:12:49Z</time></trkpt>
<trkpt lat="48.855663299561" lon="2.9557709693909"><ele>165</ele><time>2026-4-28T22:12:52Z</time></trkpt>
<trkpt lat="48.855663299561" lon="2.9557709693909"><ele>165</ele><time>2026-4-28T22:12:55Z</time></trkpt>
<trkpt lat="48.855712890625" lon="2.9556567668915"><ele>165</ele><time>2026-4-28T22:12:58Z</time></trkpt>
<trkpt lat="48.855712890625" lon="2.9556567668915"><ele>165</ele><time>2026-4-28T22:13:1Z</time></trkpt>
<trkpt lat="48.855751037598" lon="2.9555735588074"><ele>165</ele><time>2026-4-28T22:13:4Z</time></trkpt>
<trkpt lat="48.855751037598" lon="2.9555735588074"><ele>165</ele><time>2026-4-28T22:13:7Z</time></trkpt>
<trkpt lat="48.855792999268" lon="2.955468416214"><ele>165</ele><time>2026-4-28T22:13:10Z</time></trkpt>
<trkpt lat="48.855792999268" lon="2.955468416214"><ele>165</ele><time>2026-4-28T22:13:13Z</time></trkpt>
<trkpt lat="48.855861663818" lon="2.9553141593933"><ele>165</ele><time>2026-4-28T22:13:16Z</time></trkpt>
<trkpt lat="48.855861663818" lon="2.9553141593933"><ele>165</ele><time>2026-4-28T22:13:19Z</time></trkpt>
<trkpt lat="48.85591506958" lon="2.9551799297333"><ele>165</ele><time>2026-4-28T22:13:22Z</time></trkpt>
<trkpt lat="48.85591506958" lon="2.9551799297333"><ele>165</ele><time>2026-4-28T22:13:25Z</time></trkpt>
<trkpt lat="48.855976104736" lon="2.9550330638885"><ele>165</ele><time>2026-4-28T22:13:28Z</time></trkpt>
<trkpt lat="48.856006622314" lon="2.9549512863159"><ele>165</ele><time>2026-4-28T22:13:31Z</time></trkpt>
<trkpt lat="48.856033325195" lon="2.9548695087433"><ele>165</ele><time>2026-4-28T22:13:34Z</time></trkpt>
<trkpt lat="48.856079101562" lon="2.9547235965729"><ele>165</ele><time>2026-4-28T22:13:37Z</time></trkpt>
<trkpt lat="48.856140136719" lon="2.9545736312866"><ele>165</ele><time>2026-4-28T22:13:40Z</time></trkpt>
<trkpt lat="48.856174468994" lon="2.9544992446899"><ele>165</ele><time>2026-4-28T22:13:43Z</time></trkpt>
<trkpt lat="48.856239318848" lon="2.9543490409851"><ele>165</ele><time>2026-4-28T22:13:46Z</time></trkpt>
<trkpt lat="48.85627746582" lon="2.9542760848999"><ele>165</ele><time>2026-4-28T22:13:49Z</time></trkpt>
<trkpt lat="48.856311798096" lon="2.9542021751404"><ele>165</ele><time>2026-4-28T22:13:52Z</time></trkpt>
<trkpt lat="48.856349945068" lon="2.9541349411011"><ele>165</ele><time>2026-4-28T22:13:55Z</time></trkpt>
<trkpt lat="48.856349945068" lon="2.9541349411011"><ele>165</ele><time>2026-4-28T22:13:58Z</time></trkpt>
<trkpt lat="48.856426239014" lon="2.9540317058563"><ele>166</ele><time>2026-4-28T22:14:1Z</time></trkpt>
<trkpt lat="48.856426239014" lon="2.9540317058563"><ele>166</ele><time>2026-4-28T22:14:4Z</time></trkpt>
<trkpt lat="48.856510162354" lon="2.9539661407471"><ele>167</ele><time>2026-4-28T22:14:7Z</time></trkpt>
<trkpt lat="48.856510162354" lon="2.9539661407471"><ele>167</ele><time>2026-4-28T22:14:10Z</time></trkpt>
<trkpt lat="48.856609344482" lon="2.9539480209351"><ele>167</ele><time>2026-4-28T22:14:13Z</time></trkpt>
<trkpt lat="48.856670379639" lon="2.9539453983307"><ele>167</ele><time>2026-4-28T22:14:16Z</time></trkpt>
<trkpt lat="48.856727600098" lon="2.9539484977722"><ele>168</ele><time>2026-4-28T22:14:19Z</time></trkpt>
<trkpt lat="48.856727600098" lon="2.9539484977722"><ele>168</ele><time>2026-4-28T22:14:22Z</time></trkpt>
<trkpt lat="48.856830596924" lon="2.9539711475372"><ele>168</ele><time>2026-4-28T22:14:25Z</time></trkpt>
<trkpt lat="48.856830596924" lon="2.9539711475372"><ele>168</ele><time>2026-4-28T22:14:28Z</time></trkpt>
<trkpt lat="48.856925964355" lon="2.953978061676"><ele>168</ele><time>2026-4-28T22:14:31Z</time></trkpt>
<trkpt lat="48.856983184814" lon="2.9539794921875"><ele>168</ele><time>2026-4-28T22:14:34Z</time></trkpt>
<trkpt lat="48.856983184814" lon="2.9539794921875"><ele>168</ele><time>2026-4-28T22:14:37Z</time></trkpt>
<trkpt lat="48.857086181641" lon="2.9539797306061"><ele>168</ele><time>2026-4-28T22:14:40Z</time></trkpt>
<trkpt lat="48.857086181641" lon="2.9539797306061"><ele>168</ele><time>2026-4-28T22:14:43Z</time></trkpt>
<trkpt lat="48.857189178467" lon="2.9539940357208"><ele>168</ele><time>2026-4-28T22:14:46Z</time></trkpt>
<trkpt lat="48.857189178467" lon="2.9539940357208"><ele>168</ele><time>2026-4-28T22:14:49Z</time></trkpt>
<trkpt lat="48.857269287109" lon="2.9540202617645"><ele>169</ele><time>2026-4-28T22:14:52Z</time></trkpt>
<trkpt lat="48.857269287109" lon="2.9540202617645"><ele>169</ele><time>2026-4-28T22:14:55Z</time></trkpt>
<trkpt lat="48.857357025146" lon="2.9540495872498"><ele>169</ele><time>2026-4-28T22:14:58Z</time></trkpt>
<trkpt lat="48.857357025146" lon="2.9540495872498"><ele>169</ele><time>2026-4-28T22:15:1Z</time></trkpt>
<trkpt lat="48.85746383667" lon="2.9540705680847"><ele>170</ele><time>2026-4-28T22:15:4Z</time></trkpt>
<trkpt lat="48.857532501221" lon="2.9540774822235"><ele>170</ele><time>2026-4-28T22:15:7Z</time></trkpt>
<trkpt lat="48.85758972168" lon="2.9540894031525"><ele>170</ele><time>2026-4-28T22:15:10Z</time></trkpt>
<trkpt lat="48.857692718506" lon="2.9541165828705"><ele>170</ele><time>2026-4-28T22:15:13Z</time></trkpt>
<trkpt lat="48.857692718506" lon="2.9541165828705"><ele>170</ele><time>2026-4-28T22:15:16Z</time></trkpt>
<trkpt lat="48.857814788818" lon="2.9541480541229"><ele>171</ele><time>2026-4-28T22:15:19Z</time></trkpt>
<trkpt lat="48.857883453369" lon="2.9541547298431"><ele>171</ele><time>2026-4-28T22:15:22Z</time></trkpt>
<trkpt lat="48.857883453369" lon="2.9541547298431"><ele>171</ele><time>2026-4-28T22:15:25Z</time></trkpt>
<trkpt lat="48.85799407959" lon="2.9541735649109"><ele>171</ele><time>2026-4-28T22:15:28Z</time></trkpt>
<trkpt lat="48.858108520508" lon="2.9541537761688"><ele>172</ele><time>2026-4-28T22:15:31Z</time></trkpt>
<trkpt lat="48.858108520508" lon="2.9541537761688"><ele>172</ele><time>2026-4-28T22:15:34Z</time></trkpt>
<trkpt lat="48.858184814453" lon="2.9540264606476"><ele>173</ele><time>2026-4-28T22:15:37Z</time></trkpt>
<trkpt lat="48.858184814453" lon="2.9540264606476"><ele>173</ele><time>2026-4-28T22:15:40Z</time></trkpt>
<trkpt lat="48.858215332031" lon="2.9539091587067"><ele>173</ele><time>2026-4-28T22:15:43Z</time></trkpt>
<trkpt lat="48.858215332031" lon="2.9539091587067"><ele>173</ele><time>2026-4-28T22:15:46Z</time></trkpt>
<trkpt lat="48.858226776123" lon="2.953794002533"><ele>174</ele><time>2026-4-28T22:15:49Z</time></trkpt>
<trkpt lat="48.858226776123" lon="2.953794002533"><ele>174</ele><time>2026-4-28T22:15:52Z</time></trkpt>
<trkpt lat="48.85823059082" lon="2.9536895751953"><ele>174</ele><time>2026-4-28T22:15:55Z</time></trkpt>
<trkpt lat="48.85823059082" lon="2.9536895751953"><ele>174</ele><time>2026-4-28T22:15:58Z</time></trkpt>
<trkpt lat="48.858238220215" lon="2.9535675048828"><ele>175</ele><time>2026-4-28T22:16:1Z</time></trkpt>
<trkpt lat="48.858238220215" lon="2.9535675048828"><ele>175</ele><time>2026-4-28T22:16:4Z</time></trkpt>
<trkpt lat="48.858253479004" lon="2.953426361084"><ele>175</ele><time>2026-4-28T22:16:7Z</time></trkpt>
<trkpt lat="48.858257293701" lon="2.9533488750458"><ele>176</ele><time>2026-4-28T22:16:10Z</time></trkpt>
<trkpt lat="48.858261108398" lon="2.9532744884491"><ele>176</ele><time>2026-4-28T22:16:13Z</time></trkpt>
<trkpt lat="48.858268737793" lon="2.9531934261322"><ele>176</ele><time>2026-4-28T22:16:16Z</time></trkpt>
<trkpt lat="48.858276367188" lon="2.9531152248383"><ele>176</ele><time>2026-4-28T22:16:19Z</time></trkpt>
<trkpt lat="48.858283996582" lon="2.9530415534973"><ele>176</ele><time>2026-4-28T22:16:22Z</time></trkpt>
<trkpt lat="48.858295440674" lon="2.9528946876526"><ele>176</ele><time>2026-4-28T22:16:25Z</time></trkpt>
<trkpt lat="48.858306884766" lon="2.9527804851532"><ele>176</ele><time>2026-4-28T22:16:28Z</time></trkpt>
<trkpt lat="48.85831451416" lon="2.9526665210724"><ele>176</ele><time>2026-4-28T22:16:31Z</time></trkpt>
<trkpt lat="48.858322143555" lon="2.9524691104889"><ele>176</ele><time>2026-4-28T22:16:34Z</time></trkpt>
<trkpt lat="48.858325958252" lon="2.9523603916168"><ele>176</ele><time>2026-4-28T22:16:37Z</time></trkpt>
<trkpt lat="48.858329772949" lon="2.9522631168365"><ele>176</ele><time>2026-4-28T22:16:40Z</time></trkpt>
<trkpt lat="48.858333587646" lon="2.9521653652191"><ele>176</ele><time>2026-4-28T22:16:43Z</time></trkpt>
<trkpt lat="48.858333587646" lon="2.9521653652191"><ele>176</ele><time>2026-4-28T22:16:46Z</time></trkpt>
<trkpt lat="48.858348846436" lon="2.9520049095154"><ele>176</ele><time>2026-4-28T22:16:49Z</time></trkpt>
<trkpt lat="48.858367919922" lon="2.9518959522247"><ele>177</ele><time>2026-4-28T22:16:52Z</time></trkpt>
<trkpt lat="48.858383178711" lon="2.9517858028412"><ele>177</ele><time>2026-4-28T22:16:55Z</time></trkpt>
<trkpt lat="48.858383178711" lon="2.9517858028412"><ele>177</ele><time>2026-4-28T22:16:58Z</time></trkpt>
<trkpt lat="48.858402252197" lon="2.9516525268555"><ele>177</ele><time>2026-4-28T22:17:1Z</time></trkpt>
<trkpt lat="48.858409881592" lon="2.951544046402"><ele>177</ele><time>2026-4-28T22:17:4Z</time></trkpt>
<trkpt lat="48.858417510986" lon="2.9514262676239"><ele>177</ele><time>2026-4-28T22:17:7Z</time></trkpt>
<trkpt lat="48.858417510986" lon="2.9514262676239"><ele>177</ele><time>2026-4-28T22:17:10Z</time></trkpt>
<trkpt lat="48.858421325684" lon="2.9513087272644"><ele>177</ele><time>2026-4-28T22:17:13Z</time></trkpt>
<trkpt lat="48.858428955078" lon="2.9511668682098"><ele>178</ele><time>2026-4-28T22:17:16Z</time></trkpt>
<trkpt lat="48.858428955078" lon="2.9510338306427"><ele>178</ele><time>2026-4-28T22:17:19Z</time></trkpt>
<trkpt lat="48.858417510986" lon="2.9509217739105"><ele>178</ele><time>2026-4-28T22:17:22Z</time></trkpt>
<trkpt lat="48.858417510986" lon="2.9509217739105"><ele>178</ele><time>2026-4-28T22:17:25Z</time></trkpt>
<trkpt lat="48.858417510986" lon="2.9507305622101"><ele>178</ele><time>2026-4-28T22:17:28Z</time></trkpt>
<trkpt lat="48.858417510986" lon="2.9507305622101"><ele>178</ele><time>2026-4-28T22:17:31Z</time></trkpt>
<trkpt lat="48.858425140381" lon="2.950611114502"><ele>178</ele><time>2026-4-28T22:17:34Z</time></trkpt>
<trkpt lat="48.858425140381" lon="2.9504699707031"><ele>180</ele><time>2026-4-28T22:17:37Z</time></trkpt>
<trkpt lat="48.858432769775" lon="2.9503500461578"><ele>181</ele><time>2026-4-28T22:17:40Z</time></trkpt>
<trkpt lat="48.858432769775" lon="2.9503500461578"><ele>181</ele><time>2026-4-28T22:17:43Z</time></trkpt>
<trkpt lat="48.85844039917" lon="2.9502272605896"><ele>181</ele><time>2026-4-28T22:17:46Z</time></trkpt>
<trkpt lat="48.858444213867" lon="2.9501075744629"><ele>181</ele><time>2026-4-28T22:17:49Z</time></trkpt>
<trkpt lat="48.858448028564" lon="2.9500060081482"><ele>182</ele><time>2026-4-28T22:17:52Z</time></trkpt>
<trkpt lat="48.858448028564" lon="2.9500060081482"><ele>182</ele><time>2026-4-28T22:17:55Z</time></trkpt>
<trkpt lat="48.858459472656" lon="2.9498956203461"><ele>182</ele><time>2026-4-28T22:17:58Z</time></trkpt>
<trkpt lat="48.858474731445" lon="2.9497852325439"><ele>184</ele><time>2026-4-28T22:18:1Z</time></trkpt>
<trkpt lat="48.858489990234" lon="2.9496607780457"><ele>184</ele><time>2026-4-28T22:18:4Z</time></trkpt>
<trkpt lat="48.858489990234" lon="2.9496607780457"><ele>184</ele><time>2026-4-28T22:18:7Z</time></trkpt>
<trkpt lat="48.858505249023" lon="2.9495344161987"><ele>184</ele><time>2026-4-28T22:18:10Z</time></trkpt>
<trkpt lat="48.858512878418" lon="2.9493916034698"><ele>187</ele><time>2026-4-28T22:18:13Z</time></trkpt>
<trkpt lat="48.858509063721" lon="2.9492433071136"><ele>188</ele><time>2026-4-28T22:18:16Z</time></trkpt>
<trkpt lat="48.858509063721" lon="2.9492433071136"><ele>188</ele><time>2026-4-28T22:18:19Z</time></trkpt>
<trkpt lat="48.858520507812" lon="2.9491260051727"><ele>188</ele><time>2026-4-28T22:18:22Z</time></trkpt>
<trkpt lat="48.858535766602" lon="2.949004650116"><ele>188</ele><time>2026-4-28T22:18:25Z</time></trkpt>
<trkpt lat="48.858543395996" lon="2.9488606452942"><ele>188</ele><time>2026-4-28T22:18:28Z</time></trkpt>
<trkpt lat="48.858543395996" lon="2.9488606452942"><ele>188</ele><time>2026-4-28T22:18:31Z</time></trkpt>
<trkpt lat="48.858551025391" lon="2.948721408844"><ele>188</ele><time>2026-4-28T22:18:34Z</time></trkpt>
<trkpt lat="48.858562469482" lon="2.9485666751862"><ele>188</ele><time>2026-4-28T22:18:37Z</time></trkpt>
<trkpt lat="48.858581542969" lon="2.9484348297119"><ele>187</ele><time>2026-4-28T22:18:40Z</time></trkpt>
<trkpt lat="48.858581542969" lon="2.9484348297119"><ele>187</ele><time>2026-4-28T22:18:43Z</time></trkpt>
<trkpt lat="48.858600616455" lon="2.9483208656311"><ele>187</ele><time>2026-4-28T22:18:46Z</time></trkpt>
<trkpt lat="48.858604431152" lon="2.9482164382935"><ele>187</ele><time>2026-4-28T22:18:49Z</time></trkpt>
<trkpt lat="48.858604431152" lon="2.9482164382935"><ele>187</ele><time>2026-4-28T22:18:52Z</time></trkpt>
<trkpt lat="48.858604431152" lon="2.9482164382935"><ele>187</ele><time>2026-4-28T22:18:55Z</time></trkpt>
<trkpt lat="48.858623504639" lon="2.9480237960815"><ele>187</ele><time>2026-4-28T22:18:58Z</time></trkpt>
<trkpt lat="48.858623504639" lon="2.9480237960815"><ele>187</ele><time>2026-4-28T22:19:1Z</time></trkpt>
<trkpt lat="48.858638763428" lon="2.9478716850281"><ele>186</ele><time>2026-4-28T22:19:4Z</time></trkpt>
<trkpt lat="48.858638763428" lon="2.9478716850281"><ele>186</ele><time>2026-4-28T22:19:7Z</time></trkpt>
<trkpt lat="48.858638763428" lon="2.9478716850281"><ele>186</ele><time>2026-4-28T22:19:10Z</time></trkpt>
<trkpt lat="48.858661651611" lon="2.9477701187134"><ele>185</ele><time>2026-4-28T22:19:13Z</time></trkpt>
<trkpt lat="48.858661651611" lon="2.9477701187134"><ele>185</ele><time>2026-4-28T22:19:16Z</time></trkpt>
<trkpt lat="48.858661651611" lon="2.9477701187134"><ele>185</ele><time>2026-4-28T22:19:19Z</time></trkpt>
<trkpt lat="48.8586769104" lon="2.9476673603058"><ele>184</ele><time>2026-4-28T22:19:22Z</time></trkpt>
<trkpt lat="48.8586769104" lon="2.9476673603058"><ele>184</ele><time>2026-4-28T22:19:25Z</time></trkpt>
<trkpt lat="48.858699798584" lon="2.9475622177124"><ele>183</ele><time>2026-4-28T22:19:28Z</time></trkpt>
<trkpt lat="48.858699798584" lon="2.9475622177124"><ele>183</ele><time>2026-4-28T22:19:31Z</time></trkpt>
<trkpt lat="48.858699798584" lon="2.9475622177124"><ele>183</ele><time>2026-4-28T22:19:34Z</time></trkpt>
<trkpt lat="48.858726501465" lon="2.9474167823792"><ele>182</ele><time>2026-4-28T22:19:37Z</time></trkpt>
<trkpt lat="48.858734130859" lon="2.9473106861115"><ele>182</ele><time>2026-4-28T22:19:40Z</time></trkpt>
<trkpt lat="48.858734130859" lon="2.9472069740295"><ele>181</ele><time>2026-4-28T22:19:43Z</time></trkpt>
<trkpt lat="48.858734130859" lon="2.9472069740295"><ele>181</ele><time>2026-4-28T22:19:46Z</time></trkpt>
<trkpt lat="48.858726501465" lon="2.9470791816711"><ele>177</ele><time>2026-4-28T22:19:49Z</time></trkpt>
<trkpt lat="48.858722686768" lon="2.9469487667084"><ele>173</ele><time>2026-4-28T22:19:52Z</time></trkpt>
<trkpt lat="48.858722686768" lon="2.9469487667084"><ele>173</ele><time>2026-4-28T22:19:55Z</time></trkpt>
<trkpt lat="48.858737945557" lon="2.9467971324921"><ele>171</ele><time>2026-4-28T22:19:58Z</time></trkpt>
<trkpt lat="48.858757019043" lon="2.9466466903687"><ele>169</ele><time>2026-4-28T22:20:1Z</time></trkpt>
<trkpt lat="48.858776092529" lon="2.9464919567108"><ele>169</ele><time>2026-4-28T22:20:4Z</time></trkpt>
<trkpt lat="48.858776092529" lon="2.9464919567108"><ele>169</ele><time>2026-4-28T22:20:7Z</time></trkpt>
<trkpt lat="48.858787536621" lon="2.9463670253754"><ele>169</ele><time>2026-4-28T22:20:10Z</time></trkpt>
<trkpt lat="48.858783721924" lon="2.9462435245514"><ele>169</ele><time>2026-4-28T22:20:13Z</time></trkpt>
<trkpt lat="48.858779907227" lon="2.9461004734039"><ele>170</ele><time>2026-4-28T22:20:16Z</time></trkpt>
<trkpt lat="48.858779907227" lon="2.9461004734039"><ele>170</ele><time>2026-4-28T22:20:19Z</time></trkpt>
<trkpt lat="48.858772277832" lon="2.9459471702576"><ele>170</ele><time>2026-4-28T22:20:22Z</time></trkpt>
<trkpt lat="48.85876083374" lon="2.9457724094391"><ele>170</ele><time>2026-4-28T22:20:25Z</time></trkpt>
<trkpt lat="48.858764648438" lon="2.9456481933594"><ele>170</ele><time>2026-4-28T22:20:28Z</time></trkpt>
<trkpt lat="48.858764648438" lon="2.9456481933594"><ele>170</ele><time>2026-4-28T22:20:31Z</time></trkpt>
<trkpt lat="48.858787536621" lon="2.9455144405365"><ele>170</ele><time>2026-4-28T22:20:34Z</time></trkpt>
<trkpt lat="48.858810424805" lon="2.945384979248"><ele>170</ele><time>2026-4-28T22:20:37Z</time></trkpt>
<trkpt lat="48.858821868896" lon="2.9452884197235"><ele>170</ele><time>2026-4-28T22:20:40Z</time></trkpt>
<trkpt lat="48.858821868896" lon="2.9452884197235"><ele>170</ele><time>2026-4-28T22:20:43Z</time></trkpt>
<trkpt lat="48.858821868896" lon="2.9452884197235"><ele>170</ele><time>2026-4-28T22:20:46Z</time></trkpt>
<trkpt lat="48.858821868896" lon="2.9452884197235"><ele>170</ele><time>2026-4-28T22:20:49Z</time></trkpt>
<trkpt lat="48.858753204346" lon="2.945232629776"><ele>170</ele><time>2026-4-28T22:20:52Z</time></trkpt>
<trkpt lat="48.858753204346" lon="2.945232629776"><ele>170</ele><time>2026-4-28T22:20:55Z</time></trkpt>
<trkpt lat="48.858692169189" lon="2.9451875686646"><ele>170</ele><time>2026-4-28T22:20:58Z</time></trkpt>
<trkpt lat="48.858631134033" lon="2.9451270103455"><ele>169</ele><time>2026-4-28T22:21:1Z</time></trkpt>
<trkpt lat="48.858631134033" lon="2.9451270103455"><ele>169</ele><time>2026-4-28T22:21:4Z</time></trkpt>
<trkpt lat="48.858577728271" lon="2.9450571537018"><ele>169</ele><time>2026-4-28T22:21:7Z</time></trkpt>
<trkpt lat="48.858577728271" lon="2.9450571537018"><ele>169</ele><time>2026-4-28T22:21:10Z</time></trkpt>
<trkpt lat="48.85852432251" lon="2.9450063705444"><ele>169</ele><time>2026-4-28T22:21:13Z</time></trkpt>
<trkpt lat="48.85852432251" lon="2.9450063705444"><ele>169</ele><time>2026-4-28T22:21:16Z</time></trkpt>
<trkpt lat="48.858474731445" lon="2.944961309433"><ele>168</ele><time>2026-4-28T22:21:19Z</time></trkpt>
<trkpt lat="48.858474731445" lon="2.944961309433"><ele>168</ele><time>2026-4-28T22:21:22Z</time></trkpt>
<trkpt lat="48.858383178711" lon="2.9448878765106"><ele>168</ele><time>2026-4-28T22:21:25Z</time></trkpt>
<trkpt lat="48.858383178711" lon="2.9448878765106"><ele>168</ele><time>2026-4-28T22:21:28Z</time></trkpt>
<trkpt lat="48.858291625977" lon="2.944831609726"><ele>168</ele><time>2026-4-28T22:21:31Z</time></trkpt>
<trkpt lat="48.858207702637" lon="2.9448108673096"><ele>167</ele><time>2026-4-28T22:21:34Z</time></trkpt>
<trkpt lat="48.858207702637" lon="2.9448108673096"><ele>167</ele><time>2026-4-28T22:21:37Z</time></trkpt>
<trkpt lat="48.858131408691" lon="2.9447667598724"><ele>167</ele><time>2026-4-28T22:21:40Z</time></trkpt>
<trkpt lat="48.858131408691" lon="2.9447667598724"><ele>167</ele><time>2026-4-28T22:21:43Z</time></trkpt>
<trkpt lat="48.858058929443" lon="2.9447159767151"><ele>167</ele><time>2026-4-28T22:21:46Z</time></trkpt>
<trkpt lat="48.858058929443" lon="2.9447159767151"><ele>167</ele><time>2026-4-28T22:21:49Z</time></trkpt>
<trkpt lat="48.858058929443" lon="2.9447159767151"><ele>167</ele><time>2026-4-28T22:21:52Z</time></trkpt>
<trkpt lat="48.858058929443" lon="2.9447159767151"><ele>167</ele><time>2026-4-28T22:21:55Z</time></trkpt>
<trkpt lat="48.858058929443" lon="2.9447159767151"><ele>167</ele><time>2026-4-28T22:21:58Z</time></trkpt>
<trkpt lat="48.858058929443" lon="2.9447159767151"><ele>167</ele><time>2026-4-28T22:22:1Z</time></trkpt>
<trkpt lat="48.858058929443" lon="2.9447159767151"><ele>167</ele><time>2026-4-28T22:22:4Z</time></trkpt>
<trkpt lat="48.858058929443" lon="2.9447159767151"><ele>167</ele><time>2026-4-28T22:22:7Z</time></trkpt>
<trkpt lat="48.858085632324" lon="2.9447584152222"><ele>165</ele><time>2026-4-28T22:22:10Z</time></trkpt>
<trkpt lat="48.858123779297" lon="2.9447982311249"><ele>164</ele><time>2026-4-28T22:22:13Z</time></trkpt>
<trkpt lat="48.858173370361" lon="2.9448301792145"><ele>164</ele><time>2026-4-28T22:22:16Z</time></trkpt>
<trkpt lat="48.858226776123" lon="2.9448568820953"><ele>164</ele><time>2026-4-28T22:22:19Z</time></trkpt>
<trkpt lat="48.858280181885" lon="2.9448792934418"><ele>164</ele><time>2026-4-28T22:22:22Z</time></trkpt>
<trkpt lat="48.858329772949" lon="2.9449088573456"><ele>164</ele><time>2026-4-28T22:22:25Z</time></trkpt>
<trkpt lat="48.858417510986" lon="2.9449729919434"><ele>164</ele><time>2026-4-28T22:22:28Z</time></trkpt>
<trkpt lat="48.858470916748" lon="2.9450190067291"><ele>164</ele><time>2026-4-28T22:22:31Z</time></trkpt>
<trkpt lat="48.858535766602" lon="2.945075750351"><ele>164</ele><time>2026-4-28T22:22:34Z</time></trkpt>
<trkpt lat="48.858619689941" lon="2.9451625347137"><ele>164</ele><time>2026-4-28T22:22:37Z</time></trkpt>
<trkpt lat="48.858692169189" lon="2.9452266693115"><ele>164</ele><time>2026-4-28T22:22:40Z</time></trkpt>
<trkpt lat="48.858692169189" lon="2.9452266693115"><ele>164</ele><time>2026-4-28T22:22:43Z</time></trkpt>
<trkpt lat="48.858741760254" lon="2.9452817440033"><ele>165</ele><time>2026-4-28T22:22:46Z</time></trkpt>
<trkpt lat="48.858741760254" lon="2.9452817440033"><ele>165</ele><time>2026-4-28T22:22:49Z</time></trkpt>
<trkpt lat="48.858741760254" lon="2.9452817440033"><ele>165</ele><time>2026-4-28T22:22:52Z</time></trkpt>
<trkpt lat="48.85880279541" lon="2.9452934265137"><ele>165</ele><time>2026-4-28T22:22:55Z</time></trkpt>
<trkpt lat="48.85880279541" lon="2.9452934265137"><ele>165</ele><time>2026-4-28T22:22:58Z</time></trkpt>
<trkpt lat="48.858856201172" lon="2.9451892375946"><ele>165</ele><time>2026-4-28T22:23:1Z</time></trkpt>
<trkpt lat="48.858890533447" lon="2.9451112747192"><ele>165</ele><time>2026-4-28T22:23:4Z</time></trkpt>
<trkpt lat="48.858917236328" lon="2.9450075626373"><ele>164</ele><time>2026-4-28T22:23:7Z</time></trkpt>
<trkpt lat="48.858947753906" lon="2.9448869228363"><ele>164</ele><time>2026-4-28T22:23:10Z</time></trkpt>
<trkpt lat="48.858978271484" lon="2.944769859314"><ele>164</ele><time>2026-4-28T22:23:13Z</time></trkpt>
<trkpt lat="48.859016418457" lon="2.9446206092834"><ele>162</ele><time>2026-4-28T22:23:16Z</time></trkpt>
<trkpt lat="48.859043121338" lon="2.9444918632507"><ele>162</ele><time>2026-4-28T22:23:19Z</time></trkpt>
<trkpt lat="48.859077453613" lon="2.9443416595459"><ele>162</ele><time>2026-4-28T22:23:22Z</time></trkpt>
<trkpt lat="48.8590965271" lon="2.944219827652"><ele>162</ele><time>2026-4-28T22:23:25Z</time></trkpt>
<trkpt lat="48.859127044678" lon="2.9441101551056"><ele>162</ele><time>2026-4-28T22:23:28Z</time></trkpt>
<trkpt lat="48.85916519165" lon="2.9439971446991"><ele>162</ele><time>2026-4-28T22:23:31Z</time></trkpt>
<trkpt lat="48.85920715332" lon="2.9439115524292"><ele>162</ele><time>2026-4-28T22:23:34Z</time></trkpt>
<trkpt lat="48.859252929688" lon="2.9438343048096"><ele>162</ele><time>2026-4-28T22:23:37Z</time></trkpt>
<trkpt lat="48.859306335449" lon="2.9437561035156"><ele>162</ele><time>2026-4-28T22:23:40Z</time></trkpt>
<trkpt lat="48.859352111816" lon="2.9436779022217"><ele>162</ele><time>2026-4-28T22:23:43Z</time></trkpt>
<trkpt lat="48.859409332275" lon="2.9435884952545"><ele>163</ele><time>2026-4-28T22:23:46Z</time></trkpt>
<trkpt lat="48.859462738037" lon="2.9435057640076"><ele>163</ele><time>2026-4-28T22:23:49Z</time></trkpt>
<trkpt lat="48.859516143799" lon="2.9434382915497"><ele>163</ele><time>2026-4-28T22:23:52Z</time></trkpt>
<trkpt lat="48.859558105469" lon="2.9433770179749"><ele>163</ele><time>2026-4-28T22:23:55Z</time></trkpt>
<trkpt lat="48.859558105469" lon="2.9433770179749"><ele>163</ele><time>2026-4-28T22:23:58Z</time></trkpt>
<trkpt lat="48.859603881836" lon="2.9432947635651"><ele>163</ele><time>2026-4-28T22:24:1Z</time></trkpt>
<trkpt lat="48.859603881836" lon="2.9432947635651"><ele>163</ele><time>2026-4-28T22:24:4Z</time></trkpt>
<trkpt lat="48.859603881836" lon="2.9432947635651"><ele>163</ele><time>2026-4-28T22:24:7Z</time></trkpt>
<trkpt lat="48.859603881836" lon="2.9432947635651"><ele>163</ele><time>2026-4-28T22:24:10Z</time></trkpt>
<trkpt lat="48.859603881836" lon="2.9432947635651"><ele>163</ele><time>2026-4-28T22:24:13Z</time></trkpt>
<trkpt lat="48.859603881836" lon="2.9432947635651"><ele>163</ele><time>2026-4-28T22:24:16Z</time></trkpt>
<trkpt lat="48.859519958496" lon="2.9432766437531"><ele>163</ele><time>2026-4-28T22:24:19Z</time></trkpt>
<trkpt lat="48.859439849854" lon="2.9432792663574"><ele>163</ele><time>2026-4-28T22:24:22Z</time></trkpt>
<trkpt lat="48.859371185303" lon="2.9432761669159"><ele>163</ele><time>2026-4-28T22:24:25Z</time></trkpt>
<trkpt lat="48.859302520752" lon="2.9432678222656"><ele>163</ele><time>2026-4-28T22:24:28Z</time></trkpt>
<trkpt lat="48.859241485596" lon="2.9432628154755"><ele>163</ele><time>2026-4-28T22:24:31Z</time></trkpt>
<trkpt lat="48.859176635742" lon="2.9432599544525"><ele>163</ele><time>2026-4-28T22:24:34Z</time></trkpt>
<trkpt lat="48.859107971191" lon="2.9432554244995"><ele>163</ele><time>2026-4-28T22:24:37Z</time></trkpt>
<trkpt lat="48.859027862549" lon="2.9432430267334"><ele>163</ele><time>2026-4-28T22:24:40Z</time></trkpt>
<trkpt lat="48.858940124512" lon="2.9432013034821"><ele>161</ele><time>2026-4-28T22:24:43Z</time></trkpt>
<trkpt lat="48.858840942383" lon="2.9431505203247"><ele>161</ele><time>2026-4-28T22:24:46Z</time></trkpt>
<trkpt lat="48.858745574951" lon="2.9430966377258"><ele>161</ele><time>2026-4-28T22:24:49Z</time></trkpt>
<trkpt lat="48.858642578125" lon="2.9430387020111"><ele>160</ele><time>2026-4-28T22:24:52Z</time></trkpt>
<trkpt lat="48.858535766602" lon="2.9429786205292"><ele>160</ele><time>2026-4-28T22:24:55Z</time></trkpt>
<trkpt lat="48.858421325684" lon="2.9429085254669"><ele>159</ele><time>2026-4-28T22:24:58Z</time></trkpt>
<trkpt lat="48.858306884766" lon="2.9428386688232"><ele>158</ele><time>2026-4-28T22:25:1Z</time></trkpt>
<trkpt lat="48.85818862915" lon="2.942773103714"><ele>157</ele><time>2026-4-28T22:25:4Z</time></trkpt>
<trkpt lat="48.858047485352" lon="2.942697763443"><ele>156</ele><time>2026-4-28T22:25:7Z</time></trkpt>
<trkpt lat="48.857917785645" lon="2.9426202774048"><ele>156</ele><time>2026-4-28T22:25:10Z</time></trkpt>
<trkpt lat="48.857795715332" lon="2.9425480365753"><ele>155</ele><time>2026-4-28T22:25:13Z</time></trkpt>
<trkpt lat="48.857662200928" lon="2.9424743652344"><ele>154</ele><time>2026-4-28T22:25:16Z</time></trkpt>
<trkpt lat="48.857509613037" lon="2.9423801898956"><ele>154</ele><time>2026-4-28T22:25:19Z</time></trkpt>
<trkpt lat="48.857364654541" lon="2.9422736167908"><ele>153</ele><time>2026-4-28T22:25:22Z</time></trkpt>
<trkpt lat="48.857208251953" lon="2.9421486854553"><ele>153</ele><time>2026-4-28T22:25:25Z</time></trkpt>
<trkpt lat="48.857028961182" lon="2.9420022964478"><ele>151</ele><time>2026-4-28T22:25:28Z</time></trkpt>
<trkpt lat="48.856861114502" lon="2.9418587684631"><ele>150</ele><time>2026-4-28T22:25:31Z</time></trkpt>
<trkpt lat="48.856708526611" lon="2.9417095184326"><ele>150</ele><time>2026-4-28T22:25:34Z</time></trkpt>
<trkpt lat="48.856575012207" lon="2.9415712356567"><ele>150</ele><time>2026-4-28T22:25:37Z</time></trkpt>
<trkpt lat="48.856460571289" lon="2.9414498806"><ele>149</ele><time>2026-4-28T22:25:40Z</time></trkpt>
<trkpt lat="48.856380462646" lon="2.9413628578186"><ele>148</ele><time>2026-4-28T22:25:43Z</time></trkpt>
<trkpt lat="48.856315612793" lon="2.9412925243378"><ele>148</ele><time>2026-4-28T22:25:46Z</time></trkpt>
<trkpt lat="48.856273651123" lon="2.9412317276001"><ele>148</ele><time>2026-4-28T22:25:49Z</time></trkpt>
<trkpt lat="48.856273651123" lon="2.9412317276001"><ele>148</ele><time>2026-4-28T22:25:52Z</time></trkpt>
<trkpt lat="48.856273651123" lon="2.9412317276001"><ele>148</ele><time>2026-4-28T22:25:55Z</time></trkpt>
<trkpt lat="48.856304168701" lon="2.9411194324493"><ele>148</ele><time>2026-4-28T22:25:58Z</time></trkpt>
<trkpt lat="48.856353759766" lon="2.9410464763641"><ele>148</ele><time>2026-4-28T22:26:1Z</time></trkpt>
<trkpt lat="48.856426239014" lon="2.9409537315369"><ele>147</ele><time>2026-4-28T22:26:4Z</time></trkpt>
<trkpt lat="48.856498718262" lon="2.9408626556396"><ele>147</ele><time>2026-4-28T22:26:7Z</time></trkpt>
<trkpt lat="48.856575012207" lon="2.9407863616943"><ele>147</ele><time>2026-4-28T22:26:10Z</time></trkpt>
<trkpt lat="48.856632232666" lon="2.9407231807709"><ele>146</ele><time>2026-4-28T22:26:13Z</time></trkpt>
<trkpt lat="48.85669708252" lon="2.9406452178955"><ele>146</ele><time>2026-4-28T22:26:16Z</time></trkpt>
<trkpt lat="48.856769561768" lon="2.94056224823"><ele>143</ele><time>2026-4-28T22:26:19Z</time></trkpt>
<trkpt lat="48.856845855713" lon="2.9404666423798"><ele>141</ele><time>2026-4-28T22:26:22Z</time></trkpt>
<trkpt lat="48.856914520264" lon="2.940381526947"><ele>140</ele><time>2026-4-28T22:26:25Z</time></trkpt>
<trkpt lat="48.856998443604" lon="2.9402928352356"><ele>139</ele><time>2026-4-28T22:26:28Z</time></trkpt>
<trkpt lat="48.857074737549" lon="2.9402012825012"><ele>139</ele><time>2026-4-28T22:26:31Z</time></trkpt>
<trkpt lat="48.857154846191" lon="2.9400980472565"><ele>138</ele><time>2026-4-28T22:26:34Z</time></trkpt>
<trkpt lat="48.857234954834" lon="2.9399948120117"><ele>137</ele><time>2026-4-28T22:26:37Z</time></trkpt>
<trkpt lat="48.857299804688" lon="2.9399189949036"><ele>137</ele><time>2026-4-28T22:26:40Z</time></trkpt>
<trkpt lat="48.857368469238" lon="2.9398384094238"><ele>137</ele><time>2026-4-28T22:26:43Z</time></trkpt>
<trkpt lat="48.857429504395" lon="2.9397649765015"><ele>136</ele><time>2026-4-28T22:26:46Z</time></trkpt>
<trkpt lat="48.857498168945" lon="2.9396829605103"><ele>137</ele><time>2026-4-28T22:26:49Z</time></trkpt>
<trkpt lat="48.857498168945" lon="2.9396829605103"><ele>137</ele><time>2026-4-28T22:26:52Z</time></trkpt>
<trkpt lat="48.857498168945" lon="2.9396829605103"><ele>137</ele><time>2026-4-28T22:26:55Z</time></trkpt>
<trkpt lat="48.857498168945" lon="2.9396829605103"><ele>137</ele><time>2026-4-28T22:26:58Z</time></trkpt>
<trkpt lat="48.857498168945" lon="2.9396829605103"><ele>137</ele><time>2026-4-28T22:27:1Z</time></trkpt>
<trkpt lat="48.857498168945" lon="2.9396829605103"><ele>137</ele><time>2026-4-28T22:27:4Z</time></trkpt>
<trkpt lat="48.857498168945" lon="2.9396829605103"><ele>137</ele><time>2026-4-28T22:27:7Z</time></trkpt>
<trkpt lat="48.857498168945" lon="2.9396829605103"><ele>137</ele><time>2026-4-28T22:27:10Z</time></trkpt>
<trkpt lat="48.857498168945" lon="2.9396829605103"><ele>137</ele><time>2026-4-28T22:27:13Z</time></trkpt>
<trkpt lat="48.857498168945" lon="2.9396829605103"><ele>137</ele><time>2026-4-28T22:27:16Z</time></trkpt>
<trkpt lat="48.857498168945" lon="2.9396829605103"><ele>137</ele><time>2026-4-28T22:27:19Z</time></trkpt>
<trkpt lat="48.857498168945" lon="2.9396829605103"><ele>137</ele><time>2026-4-28T22:27:22Z</time></trkpt>
<trkpt lat="48.857498168945" lon="2.9396829605103"><ele>137</ele><time>2026-4-28T22:27:25Z</time></trkpt>
<trkpt lat="48.857498168945" lon="2.9396829605103"><ele>137</ele><time>2026-4-28T22:27:28Z</time></trkpt>
<trkpt lat="48.857498168945" lon="2.9396829605103"><ele>137</ele><time>2026-4-28T22:27:31Z</time></trkpt>
<trkpt lat="48.857498168945" lon="2.9396829605103"><ele>137</ele><time>2026-4-28T22:27:34Z</time></trkpt>
<trkpt lat="48.857498168945" lon="2.9396829605103"><ele>137</ele><time>2026-4-28T22:27:37Z</time></trkpt>
<trkpt lat="48.857498168945" lon="2.9396829605103"><ele>137</ele><time>2026-4-28T22:27:40Z</time></trkpt>
<trkpt lat="48.857498168945" lon="2.9396829605103"><ele>137</ele><time>2026-4-28T22:27:43Z</time></trkpt>
<trkpt lat="48.857498168945" lon="2.9396829605103"><ele>137</ele><time>2026-4-28T22:27:46Z</time></trkpt>
<trkpt lat="48.857498168945" lon="2.9396829605103"><ele>137</ele><time>2026-4-28T22:27:49Z</time></trkpt>
<trkpt lat="48.857498168945" lon="2.9396829605103"><ele>137</ele><time>2026-4-28T22:27:52Z</time></trkpt>
<trkpt lat="48.857498168945" lon="2.9396829605103"><ele>137</ele><time>2026-4-28T22:27:55Z</time></trkpt>
<trkpt lat="48.857498168945" lon="2.9396829605103"><ele>137</ele><time>2026-4-28T22:27:58Z</time></trkpt>
<trkpt lat="48.857498168945" lon="2.9396829605103"><ele>137</ele><time>2026-4-28T22:28:1Z</time></trkpt>
<trkpt lat="48.857498168945" lon="2.9396829605103"><ele>137</ele><time>2026-4-28T22:28:4Z</time></trkpt>
<trkpt lat="48.857498168945" lon="2.9396829605103"><ele>137</ele><time>2026-4-28T22:28:7Z</time></trkpt>
<trkpt lat="48.857498168945" lon="2.9396829605103"><ele>137</ele><time>2026-4-28T22:28:10Z</time></trkpt>
<trkpt lat="48.857498168945" lon="2.9396829605103"><ele>137</ele><time>2026-4-28T22:28:13Z</time></trkpt>
<trkpt lat="48.857498168945" lon="2.9396829605103"><ele>137</ele><time>2026-4-28T22:28:16Z</time></trkpt>
<trkpt lat="48.857498168945" lon="2.9396829605103"><ele>137</ele><time>2026-4-28T22:28:19Z</time></trkpt>
<trkpt lat="48.857498168945" lon="2.9396829605103"><ele>137</ele><time>2026-4-28T22:28:22Z</time></trkpt>
<trkpt lat="48.857498168945" lon="2.9396829605103"><ele>137</ele><time>2026-4-28T22:28:25Z</time></trkpt>
<trkpt lat="48.857498168945" lon="2.9396829605103"><ele>137</ele><time>2026-4-28T22:28:28Z</time></trkpt>
<trkpt lat="48.857498168945" lon="2.9396829605103"><ele>137</ele><time>2026-4-28T22:28:31Z</time></trkpt>
<trkpt lat="48.857498168945" lon="2.9396829605103"><ele>137</ele><time>2026-4-28T22:28:34Z</time></trkpt>
<trkpt lat="48.857498168945" lon="2.9396829605103"><ele>137</ele><time>2026-4-28T22:28:37Z</time></trkpt>
<trkpt lat="48.857498168945" lon="2.9396829605103"><ele>137</ele><time>2026-4-28T22:28:40Z</time></trkpt>
<trkpt lat="48.857498168945" lon="2.9396829605103"><ele>137</ele><time>2026-4-28T22:28:43Z</time></trkpt>
<trkpt lat="48.857498168945" lon="2.9396829605103"><ele>137</ele><time>2026-4-28T22:28:46Z</time></trkpt>
<trkpt lat="48.857498168945" lon="2.9396829605103"><ele>137</ele><time>2026-4-28T22:28:49Z</time></trkpt>
<trkpt lat="48.857498168945" lon="2.9396829605103"><ele>137</ele><time>2026-4-28T22:28:52Z</time></trkpt>
<trkpt lat="48.857498168945" lon="2.9396829605103"><ele>137</ele><time>2026-4-28T22:28:55Z</time></trkpt>
<trkpt lat="48.857498168945" lon="2.9396829605103"><ele>137</ele><time>2026-4-28T22:28:58Z</time></trkpt>
<trkpt lat="48.857498168945" lon="2.9396829605103"><ele>137</ele><time>2026-4-28T22:29:1Z</time></trkpt>
<trkpt lat="48.857498168945" lon="2.9396829605103"><ele>137</ele><time>2026-4-28T22:29:4Z</time></trkpt>
<trkpt lat="48.857498168945" lon="2.9396829605103"><ele>137</ele><time>2026-4-28T22:29:7Z</time></trkpt>
<trkpt lat="48.857498168945" lon="2.9396829605103"><ele>137</ele><time>2026-4-28T22:29:10Z</time></trkpt>
<trkpt lat="48.857498168945" lon="2.9396829605103"><ele>137</ele><time>2026-4-28T22:29:13Z</time></trkpt>
<trkpt lat="48.857498168945" lon="2.9396829605103"><ele>137</ele><time>2026-4-28T22:29:16Z</time></trkpt>
<trkpt lat="48.857498168945" lon="2.9396829605103"><ele>137</ele><time>2026-4-28T22:29:19Z</time></trkpt>
<trkpt lat="48.857498168945" lon="2.9396829605103"><ele>137</ele><time>2026-4-28T22:29:22Z</time></trkpt>
<trkpt lat="48.857498168945" lon="2.9396829605103"><ele>137</ele><time>2026-4-28T22:29:25Z</time></trkpt>
<trkpt lat="48.857498168945" lon="2.9396829605103"><ele>137</ele><time>2026-4-28T22:29:28Z</time></trkpt>
<trkpt lat="48.831687927246" lon="2.9257893562317"><ele>181</ele><time>2026-4-28T22:29:31Z</time></trkpt>
<trkpt lat="48.831687927246" lon="2.9257893562317"><ele>181</ele><time>2026-4-28T22:29:34Z</time></trkpt>
<trkpt lat="48.831687927246" lon="2.9257893562317"><ele>181</ele><time>2026-4-28T22:29:37Z</time></trkpt>
<trkpt lat="48.831604003906" lon="2.9257335662842"><ele>153</ele><time>2026-4-28T22:29:40Z</time></trkpt>
<trkpt lat="48.831604003906" lon="2.9257335662842"><ele>153</ele><time>2026-4-28T22:29:43Z</time></trkpt>
<trkpt lat="48.831604003906" lon="2.9257335662842"><ele>153</ele><time>2026-4-28T22:29:46Z</time></trkpt>
<trkpt lat="48.831604003906" lon="2.9257335662842"><ele>153</ele><time>2026-4-28T22:29:49Z</time></trkpt>
<trkpt lat="48.831604003906" lon="2.9257335662842"><ele>153</ele><time>2026-4-28T22:29:52Z</time></trkpt>
<trkpt lat="48.831604003906" lon="2.9257335662842"><ele>153</ele><time>2026-4-28T22:29:55Z</time></trkpt>
<trkpt lat="48.831604003906" lon="2.9257335662842"><ele>153</ele><time>2026-4-28T22:29:58Z</time></trkpt>
<trkpt lat="48.831687927246" lon="2.9256319999695"><ele>167</ele><time>2026-4-28T22:30:1Z</time></trkpt>
<trkpt lat="48.831687927246" lon="2.9256319999695"><ele>167</ele><time>2026-4-28T22:30:4Z</time></trkpt>
<trkpt lat="48.831672668457" lon="2.92547082901"><ele>166</ele><time>2026-4-28T22:30:7Z</time></trkpt>
<trkpt lat="48.831661224365" lon="2.9253799915314"><ele>166</ele><time>2026-4-28T22:30:10Z</time></trkpt>
<trkpt lat="48.831642150879" lon="2.9252812862396"><ele>166</ele><time>2026-4-28T22:30:13Z</time></trkpt>
<trkpt lat="48.83162689209" lon="2.9251818656921"><ele>166</ele><time>2026-4-28T22:30:16Z</time></trkpt>
<trkpt lat="48.831611633301" lon="2.9250767230988"><ele>166</ele><time>2026-4-28T22:30:19Z</time></trkpt>
<trkpt lat="48.831592559814" lon="2.9249634742737"><ele>165</ele><time>2026-4-28T22:30:22Z</time></trkpt>
<trkpt lat="48.831573486328" lon="2.924861907959"><ele>165</ele><time>2026-4-28T22:30:25Z</time></trkpt>
<trkpt lat="48.831550598145" lon="2.9246890544891"><ele>165</ele><time>2026-4-28T22:30:28Z</time></trkpt>
<trkpt lat="48.831539154053" lon="2.9245798587799"><ele>165</ele><time>2026-4-28T22:30:31Z</time></trkpt>
<trkpt lat="48.831527709961" lon="2.9244868755341"><ele>165</ele><time>2026-4-28T22:30:34Z</time></trkpt>
<trkpt lat="48.831527709961" lon="2.9244868755341"><ele>165</ele><time>2026-4-28T22:30:37Z</time></trkpt>
<trkpt lat="48.831504821777" lon="2.9243259429932"><ele>165</ele><time>2026-4-28T22:30:40Z</time></trkpt>
<trkpt lat="48.83150100708" lon="2.9242248535156"><ele>165</ele><time>2026-4-28T22:30:43Z</time></trkpt>
<trkpt lat="48.83150100708" lon="2.9242248535156"><ele>165</ele><time>2026-4-28T22:30:46Z</time></trkpt>
<trkpt lat="48.831497192383" lon="2.9240527153015"><ele>164</ele><time>2026-4-28T22:30:49Z</time></trkpt>
<trkpt lat="48.831497192383" lon="2.9240527153015"><ele>164</ele><time>2026-4-28T22:30:52Z</time></trkpt>
<trkpt lat="48.831493377686" lon="2.923882484436"><ele>164</ele><time>2026-4-28T22:30:55Z</time></trkpt>
<trkpt lat="48.831493377686" lon="2.923882484436"><ele>164</ele><time>2026-4-28T22:30:58Z</time></trkpt>
<trkpt lat="48.831485748291" lon="2.9237041473389"><ele>164</ele><time>2026-4-28T22:31:1Z</time></trkpt>
<trkpt lat="48.831481933594" lon="2.9236152172089"><ele>164</ele><time>2026-4-28T22:31:4Z</time></trkpt>
<trkpt lat="48.831474304199" lon="2.9235253334045"><ele>164</ele><time>2026-4-28T22:31:7Z</time></trkpt>
<trkpt lat="48.831474304199" lon="2.9234330654144"><ele>164</ele><time>2026-4-28T22:31:10Z</time></trkpt>
<trkpt lat="48.831474304199" lon="2.9234330654144"><ele>164</ele><time>2026-4-28T22:31:13Z</time></trkpt>
<trkpt lat="48.831478118896" lon="2.9232597351074"><ele>164</ele><time>2026-4-28T22:31:16Z</time></trkpt>
<trkpt lat="48.831478118896" lon="2.9232597351074"><ele>164</ele><time>2026-4-28T22:31:19Z</time></trkpt>
<trkpt lat="48.831470489502" lon="2.9230680465698"><ele>164</ele><time>2026-4-28T22:31:22Z</time></trkpt>
<trkpt lat="48.831474304199" lon="2.9229664802551"><ele>164</ele><time>2026-4-28T22:31:25Z</time></trkpt>
<trkpt lat="48.831474304199" lon="2.922868013382"><ele>164</ele><time>2026-4-28T22:31:28Z</time></trkpt>
<trkpt lat="48.831478118896" lon="2.922767162323"><ele>164</ele><time>2026-4-28T22:31:31Z</time></trkpt>
<trkpt lat="48.831478118896" lon="2.9226543903351"><ele>164</ele><time>2026-4-28T22:31:34Z</time></trkpt>
<trkpt lat="48.831481933594" lon="2.9225523471832"><ele>164</ele><time>2026-4-28T22:31:37Z</time></trkpt>
<trkpt lat="48.831493377686" lon="2.9224524497986"><ele>164</ele><time>2026-4-28T22:31:40Z</time></trkpt>
<trkpt lat="48.831497192383" lon="2.9223568439484"><ele>164</ele><time>2026-4-28T22:31:43Z</time></trkpt>
<trkpt lat="48.831504821777" lon="2.9222514629364"><ele>164</ele><time>2026-4-28T22:31:46Z</time></trkpt>
<trkpt lat="48.831516265869" lon="2.9221546649933"><ele>164</ele><time>2026-4-28T22:31:49Z</time></trkpt>
<trkpt lat="48.831523895264" lon="2.9220414161682"><ele>164</ele><time>2026-4-28T22:31:52Z</time></trkpt>
<trkpt lat="48.831531524658" lon="2.9219224452972"><ele>164</ele><time>2026-4-28T22:31:55Z</time></trkpt>
<trkpt lat="48.831539154053" lon="2.9218094348907"><ele>164</ele><time>2026-4-28T22:31:58Z</time></trkpt>
<trkpt lat="48.831546783447" lon="2.9216957092285"><ele>163</ele><time>2026-4-28T22:32:1Z</time></trkpt>
<trkpt lat="48.831558227539" lon="2.9215822219849"><ele>162</ele><time>2026-4-28T22:32:4Z</time></trkpt>
<trkpt lat="48.831569671631" lon="2.9214630126953"><ele>162</ele><time>2026-4-28T22:32:7Z</time></trkpt>
<trkpt lat="48.831577301025" lon="2.9213378429413"><ele>161</ele><time>2026-4-28T22:32:10Z</time></trkpt>
<trkpt lat="48.831581115723" lon="2.9212107658386"><ele>161</ele><time>2026-4-28T22:32:13Z</time></trkpt>
<trkpt lat="48.831588745117" lon="2.9211022853851"><ele>161</ele><time>2026-4-28T22:32:16Z</time></trkpt>
<trkpt lat="48.831596374512" lon="2.9209871292114"><ele>161</ele><time>2026-4-28T22:32:19Z</time></trkpt>
<trkpt lat="48.831604003906" lon="2.9208838939667"><ele>161</ele><time>2026-4-28T22:32:22Z</time></trkpt>
<trkpt lat="48.831607818604" lon="2.9207866191864"><ele>161</ele><time>2026-4-28T22:32:25Z</time></trkpt>
<trkpt lat="48.831611633301" lon="2.9206831455231"><ele>161</ele><time>2026-4-28T22:32:28Z</time></trkpt>
<trkpt lat="48.831611633301" lon="2.9205760955811"><ele>161</ele><time>2026-4-28T22:32:31Z</time></trkpt>
<trkpt lat="48.831611633301" lon="2.9205760955811"><ele>161</ele><time>2026-4-28T22:32:34Z</time></trkpt>
<trkpt lat="48.831615447998" lon="2.9204697608948"><ele>161</ele><time>2026-4-28T22:32:37Z</time></trkpt>
<trkpt lat="48.831619262695" lon="2.9203634262085"><ele>161</ele><time>2026-4-28T22:32:40Z</time></trkpt>
<trkpt lat="48.831623077393" lon="2.9202616214752"><ele>161</ele><time>2026-4-28T22:32:43Z</time></trkpt>
<trkpt lat="48.831623077393" lon="2.9202616214752"><ele>161</ele><time>2026-4-28T22:32:46Z</time></trkpt>
<trkpt lat="48.83162689209" lon="2.9201655387878"><ele>162</ele><time>2026-4-28T22:32:49Z</time></trkpt>
<trkpt lat="48.831630706787" lon="2.9200663566589"><ele>162</ele><time>2026-4-28T22:32:52Z</time></trkpt>
<trkpt lat="48.831634521484" lon="2.9199666976929"><ele>162</ele><time>2026-4-28T22:32:55Z</time></trkpt>
<trkpt lat="48.831634521484" lon="2.9199666976929"><ele>162</ele><time>2026-4-28T22:32:58Z</time></trkpt>
<trkpt lat="48.831638336182" lon="2.9198725223541"><ele>162</ele><time>2026-4-28T22:33:1Z</time></trkpt>
<trkpt lat="48.831642150879" lon="2.9197700023651"><ele>162</ele><time>2026-4-28T22:33:4Z</time></trkpt>
<trkpt lat="48.831642150879" lon="2.9196627140045"><ele>162</ele><time>2026-4-28T22:33:7Z</time></trkpt>
<trkpt lat="48.831642150879" lon="2.9196627140045"><ele>162</ele><time>2026-4-28T22:33:10Z</time></trkpt>
<trkpt lat="48.831642150879" lon="2.9196627140045"><ele>162</ele><time>2026-4-28T22:33:13Z</time></trkpt>
<trkpt lat="48.831649780273" lon="2.9194986820221"><ele>163</ele><time>2026-4-28T22:33:16Z</time></trkpt>
<trkpt lat="48.831653594971" lon="2.9194078445435"><ele>163</ele><time>2026-4-28T22:33:19Z</time></trkpt>
<trkpt lat="48.831653594971" lon="2.9194078445435"><ele>163</ele><time>2026-4-28T22:33:22Z</time></trkpt>
<trkpt lat="48.831661224365" lon="2.9193110466003"><ele>163</ele><time>2026-4-28T22:33:25Z</time></trkpt>
<trkpt lat="48.831672668457" lon="2.9191949367523"><ele>163</ele><time>2026-4-28T22:33:28Z</time></trkpt>
<trkpt lat="48.831687927246" lon="2.9190604686737"><ele>164</ele><time>2026-4-28T22:33:31Z</time></trkpt>
<trkpt lat="48.831687927246" lon="2.9190604686737"><ele>164</ele><time>2026-4-28T22:33:34Z</time></trkpt>
<trkpt lat="48.831699371338" lon="2.9189283847809"><ele>164</ele><time>2026-4-28T22:33:37Z</time></trkpt>
<trkpt lat="48.831714630127" lon="2.9187819957733"><ele>164</ele><time>2026-4-28T22:33:40Z</time></trkpt>
<trkpt lat="48.831733703613" lon="2.9186322689056"><ele>164</ele><time>2026-4-28T22:33:43Z</time></trkpt>
<trkpt lat="48.831733703613" lon="2.9186322689056"><ele>164</ele><time>2026-4-28T22:33:46Z</time></trkpt>
<trkpt lat="48.831756591797" lon="2.918468952179"><ele>164</ele><time>2026-4-28T22:33:49Z</time></trkpt>
<trkpt lat="48.831787109375" lon="2.9182975292206"><ele>164</ele><time>2026-4-28T22:33:52Z</time></trkpt>
<trkpt lat="48.83182144165" lon="2.9181249141693"><ele>164</ele><time>2026-4-28T22:33:55Z</time></trkpt>
<trkpt lat="48.83182144165" lon="2.9181249141693"><ele>164</ele><time>2026-4-28T22:33:58Z</time></trkpt>
<trkpt lat="48.831855773926" lon="2.9179534912109"><ele>163</ele><time>2026-4-28T22:34:1Z</time></trkpt>
<trkpt lat="48.831897735596" lon="2.9177713394165"><ele>163</ele><time>2026-4-28T22:34:4Z</time></trkpt>
<trkpt lat="48.831939697266" lon="2.9175868034363"><ele>162</ele><time>2026-4-28T22:34:7Z</time></trkpt>
<trkpt lat="48.831939697266" lon="2.9175868034363"><ele>162</ele><time>2026-4-28T22:34:10Z</time></trkpt>
<trkpt lat="48.831977844238" lon="2.9173896312714"><ele>160</ele><time>2026-4-28T22:34:13Z</time></trkpt>
<trkpt lat="48.832019805908" lon="2.9171602725983"><ele>159</ele><time>2026-4-28T22:34:16Z</time></trkpt>
<trkpt lat="48.832046508789" lon="2.9169251918793"><ele>158</ele><time>2026-4-28T22:34:19Z</time></trkpt>
<trkpt lat="48.832046508789" lon="2.9169251918793"><ele>158</ele><time>2026-4-28T22:34:22Z</time></trkpt>
<trkpt lat="48.832054138184" lon="2.9166808128357"><ele>157</ele><time>2026-4-28T22:34:25Z</time></trkpt>
<trkpt lat="48.832038879395" lon="2.9164257049561"><ele>155</ele><time>2026-4-28T22:34:28Z</time></trkpt>
<trkpt lat="48.832012176514" lon="2.9161555767059"><ele>154</ele><time>2026-4-28T22:34:31Z</time></trkpt>
<trkpt lat="48.832012176514" lon="2.9161555767059"><ele>154</ele><time>2026-4-28T22:34:34Z</time></trkpt>
<trkpt lat="48.831981658936" lon="2.9158821105957"><ele>153</ele><time>2026-4-28T22:34:37Z</time></trkpt>
<trkpt lat="48.83194732666" lon="2.9156076908112"><ele>152</ele><time>2026-4-28T22:34:40Z</time></trkpt>
<trkpt lat="48.831912994385" lon="2.9153370857239"><ele>151</ele><time>2026-4-28T22:34:43Z</time></trkpt>
<trkpt lat="48.831912994385" lon="2.9153370857239"><ele>151</ele><time>2026-4-28T22:34:46Z</time></trkpt>
<trkpt lat="48.831871032715" lon="2.9150626659393"><ele>150</ele><time>2026-4-28T22:34:49Z</time></trkpt>
<trkpt lat="48.83182144165" lon="2.9147901535034"><ele>149</ele><time>2026-4-28T22:34:52Z</time></trkpt>
<trkpt lat="48.831771850586" lon="2.9145233631134"><ele>149</ele><time>2026-4-28T22:34:55Z</time></trkpt>
<trkpt lat="48.831771850586" lon="2.9145233631134"><ele>149</ele><time>2026-4-28T22:34:58Z</time></trkpt>
<trkpt lat="48.831714630127" lon="2.9142570495605"><ele>148</ele><time>2026-4-28T22:35:1Z</time></trkpt>
<trkpt lat="48.831657409668" lon="2.9140043258667"><ele>147</ele><time>2026-4-28T22:35:4Z</time></trkpt>
<trkpt lat="48.831596374512" lon="2.9137599468231"><ele>146</ele><time>2026-4-28T22:35:7Z</time></trkpt>
<trkpt lat="48.831596374512" lon="2.9137599468231"><ele>146</ele><time>2026-4-28T22:35:10Z</time></trkpt>
<trkpt lat="48.831535339355" lon="2.913544178009"><ele>146</ele><time>2026-4-28T22:35:13Z</time></trkpt>
<trkpt lat="48.831462860107" lon="2.9133081436157"><ele>145</ele><time>2026-4-28T22:35:16Z</time></trkpt>
<trkpt lat="48.831409454346" lon="2.9130792617798"><ele>145</ele><time>2026-4-28T22:35:19Z</time></trkpt>
<trkpt lat="48.831409454346" lon="2.9130792617798"><ele>145</ele><time>2026-4-28T22:35:22Z</time></trkpt>
<trkpt lat="48.83137512207" lon="2.9128439426422"><ele>145</ele><time>2026-4-28T22:35:25Z</time></trkpt>
<trkpt lat="48.831405639648" lon="2.9125859737396"><ele>144</ele><time>2026-4-28T22:35:28Z</time></trkpt>
<trkpt lat="48.831466674805" lon="2.9123404026031"><ele>143</ele><time>2026-4-28T22:35:31Z</time></trkpt>
<trkpt lat="48.831466674805" lon="2.9123404026031"><ele>143</ele><time>2026-4-28T22:35:34Z</time></trkpt>
<trkpt lat="48.831558227539" lon="2.9121286869049"><ele>142</ele><time>2026-4-28T22:35:37Z</time></trkpt>
<trkpt lat="48.831653594971" lon="2.9119260311127"><ele>142</ele><time>2026-4-28T22:35:40Z</time></trkpt>
<trkpt lat="48.831745147705" lon="2.9117302894592"><ele>141</ele><time>2026-4-28T22:35:43Z</time></trkpt>
<trkpt lat="48.831745147705" lon="2.9117302894592"><ele>141</ele><time>2026-4-28T22:35:46Z</time></trkpt>
<trkpt lat="48.83179473877" lon="2.9115300178528"><ele>141</ele><time>2026-4-28T22:35:49Z</time></trkpt>
<trkpt lat="48.831707000732" lon="2.911322593689"><ele>140</ele><time>2026-4-28T22:35:52Z</time></trkpt>
<trkpt lat="48.831527709961" lon="2.9111793041229"><ele>138</ele><time>2026-4-28T22:35:55Z</time></trkpt>
<trkpt lat="48.831527709961" lon="2.9111793041229"><ele>138</ele><time>2026-4-28T22:35:58Z</time></trkpt>
<trkpt lat="48.831336975098" lon="2.9111044406891"><ele>135</ele><time>2026-4-28T22:36:1Z</time></trkpt>
<trkpt lat="48.83113861084" lon="2.9110822677612"><ele>133</ele><time>2026-4-28T22:36:4Z</time></trkpt>
<trkpt lat="48.830940246582" lon="2.9110732078552"><ele>131</ele><time>2026-4-28T22:36:7Z</time></trkpt>
<trkpt lat="48.830940246582" lon="2.9110732078552"><ele>131</ele><time>2026-4-28T22:36:10Z</time></trkpt>
<trkpt lat="48.830768585205" lon="2.9110486507416"><ele>130</ele><time>2026-4-28T22:36:13Z</time></trkpt>
<trkpt lat="48.830596923828" lon="2.910994052887"><ele>129</ele><time>2026-4-28T22:36:16Z</time></trkpt>
<trkpt lat="48.830451965332" lon="2.9109034538269"><ele>128</ele><time>2026-4-28T22:36:19Z</time></trkpt>
<trkpt lat="48.830451965332" lon="2.9109034538269"><ele>128</ele><time>2026-4-28T22:36:22Z</time></trkpt>
<trkpt lat="48.83031463623" lon="2.9107813835144"><ele>127</ele><time>2026-4-28T22:36:25Z</time></trkpt>
<trkpt lat="48.830368041992" lon="2.910514831543"><ele>124</ele><time>2026-4-28T22:36:28Z</time></trkpt>
<trkpt lat="48.830497741699" lon="2.9102861881256"><ele>123</ele><time>2026-4-28T22:36:31Z</time></trkpt>
<trkpt lat="48.830497741699" lon="2.9102861881256"><ele>123</ele><time>2026-4-28T22:36:34Z</time></trkpt>
<trkpt lat="48.830673217773" lon="2.910208940506"><ele>123</ele><time>2026-4-28T22:36:37Z</time></trkpt>
<trkpt lat="48.830806732178" lon="2.9101662635803"><ele>124</ele><time>2026-4-28T22:36:40Z</time></trkpt>
<trkpt lat="48.830806732178" lon="2.9101662635803"><ele>124</ele><time>2026-4-28T22:36:43Z</time></trkpt>
<trkpt lat="48.830921173096" lon="2.9101529121399"><ele>124</ele><time>2026-4-28T22:36:46Z</time></trkpt>
<trkpt lat="48.830921173096" lon="2.9101529121399"><ele>124</ele><time>2026-4-28T22:36:49Z</time></trkpt>
<trkpt lat="48.830986022949" lon="2.9101343154907"><ele>123</ele><time>2026-4-28T22:36:52Z</time></trkpt>
<trkpt lat="48.830986022949" lon="2.9101343154907"><ele>123</ele><time>2026-4-28T22:36:55Z</time></trkpt>
<trkpt lat="48.831092834473" lon="2.9100985527039"><ele>124</ele><time>2026-4-28T22:36:58Z</time></trkpt>
<trkpt lat="48.831165313721" lon="2.9100737571716"><ele>123</ele><time>2026-4-28T22:37:1Z</time></trkpt>
<trkpt lat="48.831165313721" lon="2.9100737571716"><ele>123</ele><time>2026-4-28T22:37:4Z</time></trkpt>
<trkpt lat="48.831245422363" lon="2.9100406169891"><ele>123</ele><time>2026-4-28T22:37:7Z</time></trkpt>
<trkpt lat="48.831329345703" lon="2.9100041389465"><ele>122</ele><time>2026-4-28T22:37:10Z</time></trkpt>
<trkpt lat="48.83141708374" lon="2.9099590778351"><ele>122</ele><time>2026-4-28T22:37:13Z</time></trkpt>
<trkpt lat="48.83141708374" lon="2.9099590778351"><ele>122</ele><time>2026-4-28T22:37:16Z</time></trkpt>
<trkpt lat="48.831489562988" lon="2.9099099636078"><ele>121</ele><time>2026-4-28T22:37:19Z</time></trkpt>
<trkpt lat="48.831546783447" lon="2.9098098278046"><ele>121</ele><time>2026-4-28T22:37:22Z</time></trkpt>
<trkpt lat="48.831569671631" lon="2.909651517868"><ele>120</ele><time>2026-4-28T22:37:25Z</time></trkpt>
<trkpt lat="48.831569671631" lon="2.909651517868"><ele>120</ele><time>2026-4-28T22:37:28Z</time></trkpt>
<trkpt lat="48.831558227539" lon="2.9094657897949"><ele>119</ele><time>2026-4-28T22:37:31Z</time></trkpt>
<trkpt lat="48.831481933594" lon="2.9092991352081"><ele>118</ele><time>2026-4-28T22:37:34Z</time></trkpt>
<trkpt lat="48.831348419189" lon="2.9091949462891"><ele>118</ele><time>2026-4-28T22:37:37Z</time></trkpt>
<trkpt lat="48.831348419189" lon="2.9091949462891"><ele>118</ele><time>2026-4-28T22:37:40Z</time></trkpt>
<trkpt lat="48.831199645996" lon="2.9091467857361"><ele>117</ele><time>2026-4-28T22:37:43Z</time></trkpt>
<trkpt lat="48.831039428711" lon="2.9091768264771"><ele>115</ele><time>2026-4-28T22:37:46Z</time></trkpt>
<trkpt lat="48.830883026123" lon="2.9092297554016"><ele>113</ele><time>2026-4-28T22:37:49Z</time></trkpt>
<trkpt lat="48.830883026123" lon="2.9092297554016"><ele>113</ele><time>2026-4-28T22:37:52Z</time></trkpt>
<trkpt lat="48.830718994141" lon="2.9092972278595"><ele>112</ele><time>2026-4-28T22:37:55Z</time></trkpt>
<trkpt lat="48.830570220947" lon="2.9093713760376"><ele>111</ele><time>2026-4-28T22:37:58Z</time></trkpt>
<trkpt lat="48.830410003662" lon="2.9094426631927"><ele>110</ele><time>2026-4-28T22:38:1Z</time></trkpt>
<trkpt lat="48.830410003662" lon="2.9094426631927"><ele>110</ele><time>2026-4-28T22:38:4Z</time></trkpt>
<trkpt lat="48.830272674561" lon="2.9095060825348"><ele>109</ele><time>2026-4-28T22:38:7Z</time></trkpt>
<trkpt lat="48.830135345459" lon="2.9095523357391"><ele>109</ele><time>2026-4-28T22:38:10Z</time></trkpt>
<trkpt lat="48.829998016357" lon="2.9095087051392"><ele>108</ele><time>2026-4-28T22:38:13Z</time></trkpt>
<trkpt lat="48.829998016357" lon="2.9095087051392"><ele>108</ele><time>2026-4-28T22:38:16Z</time></trkpt>
<trkpt lat="48.829883575439" lon="2.9093449115753"><ele>107</ele><time>2026-4-28T22:38:19Z</time></trkpt>
<trkpt lat="48.829822540283" lon="2.909120798111"><ele>106</ele><time>2026-4-28T22:38:22Z</time></trkpt>
<trkpt lat="48.829837799072" lon="2.9088490009308"><ele>105</ele><time>2026-4-28T22:38:25Z</time></trkpt>
<trkpt lat="48.829837799072" lon="2.9088490009308"><ele>105</ele><time>2026-4-28T22:38:28Z</time></trkpt>
<trkpt lat="48.829921722412" lon="2.9085912704468"><ele>105</ele><time>2026-4-28T22:38:31Z</time></trkpt>
<trkpt lat="48.830024719238" lon="2.9083709716797"><ele>105</ele><time>2026-4-28T22:38:34Z</time></trkpt>
<trkpt lat="48.830131530762" lon="2.9081656932831"><ele>105</ele><time>2026-4-28T22:38:37Z</time></trkpt>
<trkpt lat="48.830131530762" lon="2.9081656932831"><ele>105</ele><time>2026-4-28T22:38:40Z</time></trkpt>
<trkpt lat="48.830226898193" lon="2.9079988002777"><ele>105</ele><time>2026-4-28T22:38:43Z</time></trkpt>
<trkpt lat="48.830303192139" lon="2.9078211784363"><ele>104</ele><time>2026-4-28T22:38:46Z</time></trkpt>
<trkpt lat="48.830337524414" lon="2.9076225757599"><ele>103</ele><time>2026-4-28T22:38:49Z</time></trkpt>
<trkpt lat="48.830337524414" lon="2.9076225757599"><ele>103</ele><time>2026-4-28T22:38:52Z</time></trkpt>
<trkpt lat="48.830310821533" lon="2.9073832035065"><ele>102</ele><time>2026-4-28T22:38:55Z</time></trkpt>
<trkpt lat="48.830257415771" lon="2.9071726799011"><ele>102</ele><time>2026-4-28T22:38:58Z</time></trkpt>
<trkpt lat="48.830211639404" lon="2.9069852828979"><ele>102</ele><time>2026-4-28T22:39:1Z</time></trkpt>
<trkpt lat="48.830211639404" lon="2.9069852828979"><ele>102</ele><time>2026-4-28T22:39:4Z</time></trkpt>
<trkpt lat="48.830165863037" lon="2.9068040847778"><ele>101</ele><time>2026-4-28T22:39:7Z</time></trkpt>
<trkpt lat="48.830123901367" lon="2.9066164493561"><ele>100</ele><time>2026-4-28T22:39:10Z</time></trkpt>
<trkpt lat="48.830085754395" lon="2.9064462184906"><ele>100</ele><time>2026-4-28T22:39:13Z</time></trkpt>
<trkpt lat="48.830085754395" lon="2.9064462184906"><ele>100</ele><time>2026-4-28T22:39:16Z</time></trkpt>
<trkpt lat="48.830051422119" lon="2.9062795639038"><ele>99</ele><time>2026-4-28T22:39:19Z</time></trkpt>
<trkpt lat="48.830020904541" lon="2.9061181545258"><ele>99</ele><time>2026-4-28T22:39:22Z</time></trkpt>
<trkpt lat="48.829990386963" lon="2.9059643745422"><ele>99</ele><time>2026-4-28T22:39:25Z</time></trkpt>
<trkpt lat="48.829990386963" lon="2.9059643745422"><ele>99</ele><time>2026-4-28T22:39:28Z</time></trkpt>
<trkpt lat="48.829963684082" lon="2.905818939209"><ele>98</ele><time>2026-4-28T22:39:31Z</time></trkpt>
<trkpt lat="48.829940795898" lon="2.9056715965271"><ele>98</ele><time>2026-4-28T22:39:34Z</time></trkpt>
<trkpt lat="48.829921722412" lon="2.9055283069611"><ele>98</ele><time>2026-4-28T22:39:37Z</time></trkpt>
<trkpt lat="48.829921722412" lon="2.9055283069611"><ele>98</ele><time>2026-4-28T22:39:40Z</time></trkpt>
<trkpt lat="48.829906463623" lon="2.905387878418"><ele>98</ele><time>2026-4-28T22:39:43Z</time></trkpt>
<trkpt lat="48.829891204834" lon="2.9052443504333"><ele>97</ele><time>2026-4-28T22:39:46Z</time></trkpt>
<trkpt lat="48.829875946045" lon="2.9050943851471"><ele>97</ele><time>2026-4-28T22:39:49Z</time></trkpt>
<trkpt lat="48.829875946045" lon="2.9050943851471"><ele>97</ele><time>2026-4-28T22:39:52Z</time></trkpt>
<trkpt lat="48.829856872559" lon="2.9049549102783"><ele>97</ele><time>2026-4-28T22:39:55Z</time></trkpt>
<trkpt lat="48.82984161377" lon="2.9048051834106"><ele>97</ele><time>2026-4-28T22:39:58Z</time></trkpt>
<trkpt lat="48.82982635498" lon="2.9046635627747"><ele>98</ele><time>2026-4-28T22:40:1Z</time></trkpt>
<trkpt lat="48.82982635498" lon="2.9046635627747"><ele>98</ele><time>2026-4-28T22:40:4Z</time></trkpt>
<trkpt lat="48.829811096191" lon="2.9045231342316"><ele>97</ele><time>2026-4-28T22:40:7Z</time></trkpt>
<trkpt lat="48.829795837402" lon="2.9043843746185"><ele>97</ele><time>2026-4-28T22:40:10Z</time></trkpt>
<trkpt lat="48.829784393311" lon="2.9042484760284"><ele>97</ele><time>2026-4-28T22:40:13Z</time></trkpt>
<trkpt lat="48.829784393311" lon="2.9042484760284"><ele>97</ele><time>2026-4-28T22:40:16Z</time></trkpt>
<trkpt lat="48.829780578613" lon="2.9041318893433"><ele>97</ele><time>2026-4-28T22:40:19Z</time></trkpt>
<trkpt lat="48.829780578613" lon="2.9041318893433"><ele>97</ele><time>2026-4-28T22:40:22Z</time></trkpt>
<trkpt lat="48.829788208008" lon="2.9040067195892"><ele>97</ele><time>2026-4-28T22:40:25Z</time></trkpt>
<trkpt lat="48.829788208008" lon="2.9040067195892"><ele>97</ele><time>2026-4-28T22:40:28Z</time></trkpt>
<trkpt lat="48.829788208008" lon="2.9040067195892"><ele>97</ele><time>2026-4-28T22:40:31Z</time></trkpt>
<trkpt lat="48.829818725586" lon="2.9038851261139"><ele>97</ele><time>2026-4-28T22:40:34Z</time></trkpt>
<trkpt lat="48.829818725586" lon="2.9038851261139"><ele>97</ele><time>2026-4-28T22:40:37Z</time></trkpt>
<trkpt lat="48.829818725586" lon="2.9038851261139"><ele>97</ele><time>2026-4-28T22:40:40Z</time></trkpt>
<trkpt lat="48.829845428467" lon="2.9037134647369"><ele>97</ele><time>2026-4-28T22:40:43Z</time></trkpt>
<trkpt lat="48.829856872559" lon="2.9035663604736"><ele>98</ele><time>2026-4-28T22:40:46Z</time></trkpt>
<trkpt lat="48.829856872559" lon="2.9035663604736"><ele>98</ele><time>2026-4-28T22:40:49Z</time></trkpt>
<trkpt lat="48.82986831665" lon="2.9034440517426"><ele>98</ele><time>2026-4-28T22:40:52Z</time></trkpt>
<trkpt lat="48.82986831665" lon="2.9034440517426"><ele>98</ele><time>2026-4-28T22:40:55Z</time></trkpt>
<trkpt lat="48.82986831665" lon="2.9033138751984"><ele>98</ele><time>2026-4-28T22:40:58Z</time></trkpt>
<trkpt lat="48.829872131348" lon="2.9032151699066"><ele>98</ele><time>2026-4-28T22:41:1Z</time></trkpt>
<trkpt lat="48.829875946045" lon="2.9030721187592"><ele>99</ele><time>2026-4-28T22:41:4Z</time></trkpt>
<trkpt lat="48.829875946045" lon="2.9029033184052"><ele>99</ele><time>2026-4-28T22:41:7Z</time></trkpt>
<trkpt lat="48.829864501953" lon="2.9027309417725"><ele>98</ele><time>2026-4-28T22:41:10Z</time></trkpt>
<trkpt lat="48.829845428467" lon="2.9025807380676"><ele>98</ele><time>2026-4-28T22:41:13Z</time></trkpt>
<trkpt lat="48.829830169678" lon="2.9024622440338"><ele>97</ele><time>2026-4-28T22:41:16Z</time></trkpt>
<trkpt lat="48.829818725586" lon="2.9023635387421"><ele>97</ele><time>2026-4-28T22:41:19Z</time></trkpt>
<trkpt lat="48.829803466797" lon="2.9022479057312"><ele>97</ele><time>2026-4-28T22:41:22Z</time></trkpt>
<trkpt lat="48.829788208008" lon="2.9021320343018"><ele>97</ele><time>2026-4-28T22:41:25Z</time></trkpt>
<trkpt lat="48.829776763916" lon="2.9020338058472"><ele>97</ele><time>2026-4-28T22:41:28Z</time></trkpt>
<trkpt lat="48.829776763916" lon="2.9020338058472"><ele>97</ele><time>2026-4-28T22:41:31Z</time></trkpt>
<trkpt lat="48.829753875732" lon="2.901885509491"><ele>98</ele><time>2026-4-28T22:41:34Z</time></trkpt>
<trkpt lat="48.829753875732" lon="2.901885509491"><ele>98</ele><time>2026-4-28T22:41:37Z</time></trkpt>
<trkpt lat="48.829730987549" lon="2.9017288684845"><ele>98</ele><time>2026-4-28T22:41:40Z</time></trkpt>
<trkpt lat="48.829730987549" lon="2.9017288684845"><ele>98</ele><time>2026-4-28T22:41:43Z</time></trkpt>
<trkpt lat="48.829738616943" lon="2.9015924930573"><ele>98</ele><time>2026-4-28T22:41:46Z</time></trkpt>
<trkpt lat="48.829738616943" lon="2.9015924930573"><ele>98</ele><time>2026-4-28T22:41:49Z</time></trkpt>
<trkpt lat="48.829761505127" lon="2.9014728069305"><ele>98</ele><time>2026-4-28T22:41:52Z</time></trkpt>
<trkpt lat="48.829811096191" lon="2.9013950824738"><ele>99</ele><time>2026-4-28T22:41:55Z</time></trkpt>
<trkpt lat="48.82986831665" lon="2.9013421535492"><ele>99</ele><time>2026-4-28T22:41:58Z</time></trkpt>
<trkpt lat="48.829936981201" lon="2.901260137558"><ele>99</ele><time>2026-4-28T22:42:1Z</time></trkpt>
<trkpt lat="48.829936981201" lon="2.901260137558"><ele>99</ele><time>2026-4-28T22:42:4Z</time></trkpt>
<trkpt lat="48.829990386963" lon="2.9011809825897"><ele>100</ele><time>2026-4-28T22:42:7Z</time></trkpt>
<trkpt lat="48.829990386963" lon="2.9011809825897"><ele>100</ele><time>2026-4-28T22:42:10Z</time></trkpt>
<trkpt lat="48.829990386963" lon="2.9011809825897"><ele>100</ele><time>2026-4-28T22:42:13Z</time></trkpt>
<trkpt lat="48.830009460449" lon="2.9011261463165"><ele>100</ele><time>2026-4-28T22:42:16Z</time></trkpt>
<trkpt lat="48.830024719238" lon="2.9010746479034"><ele>100</ele><time>2026-4-28T22:42:19Z</time></trkpt>
<trkpt lat="48.83003616333" lon="2.9010248184204"><ele>101</ele><time>2026-4-28T22:42:22Z</time></trkpt>
<trkpt lat="48.830043792725" lon="2.9009778499603"><ele>101</ele><time>2026-4-28T22:42:25Z</time></trkpt>
<trkpt lat="48.830055236816" lon="2.9009277820587"><ele>101</ele><time>2026-4-28T22:42:28Z</time></trkpt>
<trkpt lat="48.830062866211" lon="2.9008278846741"><ele>102</ele><time>2026-4-28T22:42:31Z</time></trkpt>
<trkpt lat="48.830039978027" lon="2.90074634552"><ele>102</ele><time>2026-4-28T22:42:34Z</time></trkpt>
<trkpt lat="48.830039978027" lon="2.90074634552"><ele>102</ele><time>2026-4-28T22:42:37Z</time></trkpt>
<trkpt lat="48.830039978027" lon="2.90074634552"><ele>102</ele><time>2026-4-28T22:42:40Z</time></trkpt>
<trkpt lat="48.830070495605" lon="2.9006471633911"><ele>103</ele><time>2026-4-28T22:42:43Z</time></trkpt>
<trkpt lat="48.830070495605" lon="2.9006471633911"><ele>103</ele><time>2026-4-28T22:42:46Z</time></trkpt>
<trkpt lat="48.830070495605" lon="2.9006471633911"><ele>103</ele><time>2026-4-28T22:42:49Z</time></trkpt>
<trkpt lat="48.83016204834" lon="2.9006395339966"><ele>103</ele><time>2026-4-28T22:42:52Z</time></trkpt>
<trkpt lat="48.830223083496" lon="2.9006636142731"><ele>103</ele><time>2026-4-28T22:42:55Z</time></trkpt>
<trkpt lat="48.830223083496" lon="2.9006636142731"><ele>103</ele><time>2026-4-28T22:42:58Z</time></trkpt>
<trkpt lat="48.830291748047" lon="2.9006927013397"><ele>104</ele><time>2026-4-28T22:43:1Z</time></trkpt>
<trkpt lat="48.830291748047" lon="2.9006927013397"><ele>104</ele><time>2026-4-28T22:43:4Z</time></trkpt>
<trkpt lat="48.830352783203" lon="2.9007158279419"><ele>105</ele><time>2026-4-28T22:43:7Z</time></trkpt>
<trkpt lat="48.830417633057" lon="2.9007658958435"><ele>105</ele><time>2026-4-28T22:43:10Z</time></trkpt>
<trkpt lat="48.830417633057" lon="2.9007658958435"><ele>105</ele><time>2026-4-28T22:43:13Z</time></trkpt>
<trkpt lat="48.830471038818" lon="2.9008326530457"><ele>106</ele><time>2026-4-28T22:43:16Z</time></trkpt>
<trkpt lat="48.830471038818" lon="2.9008326530457"><ele>106</ele><time>2026-4-28T22:43:19Z</time></trkpt>
<trkpt lat="48.830471038818" lon="2.9008326530457"><ele>106</ele><time>2026-4-28T22:43:22Z</time></trkpt>
<trkpt lat="48.830558776855" lon="2.9008882045746"><ele>106</ele><time>2026-4-28T22:43:25Z</time></trkpt>
<trkpt lat="48.830619812012" lon="2.9008913040161"><ele>107</ele><time>2026-4-28T22:43:28Z</time></trkpt>
<trkpt lat="48.830619812012" lon="2.9008913040161"><ele>107</ele><time>2026-4-28T22:43:31Z</time></trkpt>
<trkpt lat="48.83069229126" lon="2.9008874893188"><ele>107</ele><time>2026-4-28T22:43:34Z</time></trkpt>
<trkpt lat="48.83069229126" lon="2.9008874893188"><ele>107</ele><time>2026-4-28T22:43:37Z</time></trkpt>
<trkpt lat="48.830753326416" lon="2.9008779525757"><ele>108</ele><time>2026-4-28T22:43:40Z</time></trkpt>
<trkpt lat="48.830753326416" lon="2.9008779525757"><ele>108</ele><time>2026-4-28T22:43:43Z</time></trkpt>
<trkpt lat="48.830753326416" lon="2.9008779525757"><ele>108</ele><time>2026-4-28T22:43:46Z</time></trkpt>
<trkpt lat="48.83081817627" lon="2.9008848667145"><ele>109</ele><time>2026-4-28T22:43:49Z</time></trkpt>
<trkpt lat="48.83081817627" lon="2.9008848667145"><ele>109</ele><time>2026-4-28T22:43:52Z</time></trkpt>
<trkpt lat="48.83081817627" lon="2.9008848667145"><ele>109</ele><time>2026-4-28T22:43:55Z</time></trkpt>
<trkpt lat="48.830974578857" lon="2.9008684158325"><ele>110</ele><time>2026-4-28T22:43:58Z</time></trkpt>
<trkpt lat="48.830974578857" lon="2.9008684158325"><ele>110</ele><time>2026-4-28T22:44:1Z</time></trkpt>
<trkpt lat="48.831039428711" lon="2.9008510112762"><ele>110</ele><time>2026-4-28T22:44:4Z</time></trkpt>
<trkpt lat="48.831039428711" lon="2.9008510112762"><ele>110</ele><time>2026-4-28T22:44:7Z</time></trkpt>
<trkpt lat="48.831039428711" lon="2.9008510112762"><ele>110</ele><time>2026-4-28T22:44:10Z</time></trkpt>
<trkpt lat="48.831108093262" lon="2.9008102416992"><ele>111</ele><time>2026-4-28T22:44:13Z</time></trkpt>
<trkpt lat="48.831108093262" lon="2.9008102416992"><ele>111</ele><time>2026-4-28T22:44:16Z</time></trkpt>
<trkpt lat="48.831176757812" lon="2.9007439613342"><ele>111</ele><time>2026-4-28T22:44:19Z</time></trkpt>
<trkpt lat="48.831176757812" lon="2.9007439613342"><ele>111</ele><time>2026-4-28T22:44:22Z</time></trkpt>
<trkpt lat="48.831176757812" lon="2.9007439613342"><ele>111</ele><time>2026-4-28T22:44:25Z</time></trkpt>
<trkpt lat="48.83122253418" lon="2.9006631374359"><ele>111</ele><time>2026-4-28T22:44:28Z</time></trkpt>
<trkpt lat="48.83122253418" lon="2.9006631374359"><ele>111</ele><time>2026-4-28T22:44:31Z</time></trkpt>
<trkpt lat="48.831253051758" lon="2.9005799293518"><ele>112</ele><time>2026-4-28T22:44:34Z</time></trkpt>
<trkpt lat="48.831275939941" lon="2.9004919528961"><ele>113</ele><time>2026-4-28T22:44:37Z</time></trkpt>
<trkpt lat="48.831275939941" lon="2.9004919528961"><ele>113</ele><time>2026-4-28T22:44:40Z</time></trkpt>
<trkpt lat="48.831272125244" lon="2.9003841876984"><ele>113</ele><time>2026-4-28T22:44:43Z</time></trkpt>
<trkpt lat="48.831272125244" lon="2.9003841876984"><ele>113</ele><time>2026-4-28T22:44:46Z</time></trkpt>
<trkpt lat="48.83126449585" lon="2.9002966880798"><ele>115</ele><time>2026-4-28T22:44:49Z</time></trkpt>
<trkpt lat="48.83126449585" lon="2.9002966880798"><ele>115</ele><time>2026-4-28T22:44:52Z</time></trkpt>
<trkpt lat="48.83126449585" lon="2.9002966880798"><ele>115</ele><time>2026-4-28T22:44:55Z</time></trkpt>
<trkpt lat="48.831214904785" lon="2.9001388549805"><ele>117</ele><time>2026-4-28T22:44:58Z</time></trkpt>
<trkpt lat="48.831214904785" lon="2.9001388549805"><ele>117</ele><time>2026-4-28T22:45:1Z</time></trkpt>
<trkpt lat="48.831214904785" lon="2.9001388549805"><ele>117</ele><time>2026-4-28T22:45:4Z</time></trkpt>
<trkpt lat="48.831214904785" lon="2.9001388549805"><ele>117</ele><time>2026-4-28T22:45:7Z</time></trkpt>
<trkpt lat="48.831203460693" lon="2.9000916481018"><ele>119</ele><time>2026-4-28T22:45:10Z</time></trkpt>
<trkpt lat="48.831203460693" lon="2.9000916481018"><ele>119</ele><time>2026-4-28T22:45:13Z</time></trkpt>
<trkpt lat="48.831203460693" lon="2.9000916481018"><ele>119</ele><time>2026-4-28T22:45:16Z</time></trkpt>
<trkpt lat="48.831188201904" lon="2.9000384807587"><ele>119</ele><time>2026-4-28T22:45:19Z</time></trkpt>
<trkpt lat="48.831176757812" lon="2.899994134903"><ele>120</ele><time>2026-4-28T22:45:22Z</time></trkpt>
<trkpt lat="48.831176757812" lon="2.899994134903"><ele>120</ele><time>2026-4-28T22:45:25Z</time></trkpt>
<trkpt lat="48.831165313721" lon="2.8999528884888"><ele>120</ele><time>2026-4-28T22:45:28Z</time></trkpt>
<trkpt lat="48.831153869629" lon="2.8999092578888"><ele>120</ele><time>2026-4-28T22:45:31Z</time></trkpt>
<trkpt lat="48.831146240234" lon="2.8998606204987"><ele>121</ele><time>2026-4-28T22:45:34Z</time></trkpt>
<trkpt lat="48.831146240234" lon="2.8998606204987"><ele>121</ele><time>2026-4-28T22:45:37Z</time></trkpt>
<trkpt lat="48.831142425537" lon="2.8997709751129"><ele>121</ele><time>2026-4-28T22:45:40Z</time></trkpt>
<trkpt lat="48.831142425537" lon="2.8997709751129"><ele>121</ele><time>2026-4-28T22:45:43Z</time></trkpt>
<trkpt lat="48.831142425537" lon="2.8997709751129"><ele>121</ele><time>2026-4-28T22:45:46Z</time></trkpt>
<trkpt lat="48.831142425537" lon="2.8997709751129"><ele>121</ele><time>2026-4-28T22:45:49Z</time></trkpt>
<trkpt lat="48.831153869629" lon="2.8996484279633"><ele>122</ele><time>2026-4-28T22:45:52Z</time></trkpt>
<trkpt lat="48.831153869629" lon="2.8996484279633"><ele>122</ele><time>2026-4-28T22:45:55Z</time></trkpt>
<trkpt lat="48.831169128418" lon="2.8994898796082"><ele>124</ele><time>2026-4-28T22:45:58Z</time></trkpt>
<trkpt lat="48.831169128418" lon="2.8994898796082"><ele>124</ele><time>2026-4-28T22:46:1Z</time></trkpt>
<trkpt lat="48.831188201904" lon="2.8994042873383"><ele>125</ele><time>2026-4-28T22:46:4Z</time></trkpt>
<trkpt lat="48.831188201904" lon="2.8994042873383"><ele>125</ele><time>2026-4-28T22:46:7Z</time></trkpt>
<trkpt lat="48.831199645996" lon="2.8993108272552"><ele>126</ele><time>2026-4-28T22:46:10Z</time></trkpt>
<trkpt lat="48.831199645996" lon="2.8993108272552"><ele>126</ele><time>2026-4-28T22:46:13Z</time></trkpt>
<trkpt lat="48.83122253418" lon="2.8991918563843"><ele>128</ele><time>2026-4-28T22:46:16Z</time></trkpt>
<trkpt lat="48.83122253418" lon="2.8991918563843"><ele>128</ele><time>2026-4-28T22:46:19Z</time></trkpt>
<trkpt lat="48.83122253418" lon="2.8991918563843"><ele>128</ele><time>2026-4-28T22:46:22Z</time></trkpt>
<trkpt lat="48.831249237061" lon="2.8990681171417"><ele>129</ele><time>2026-4-28T22:46:25Z</time></trkpt>
<trkpt lat="48.83126449585" lon="2.8989701271057"><ele>129</ele><time>2026-4-28T22:46:28Z</time></trkpt>
<trkpt lat="48.831283569336" lon="2.8988630771637"><ele>130</ele><time>2026-4-28T22:46:31Z</time></trkpt>
<trkpt lat="48.831283569336" lon="2.8988630771637"><ele>130</ele><time>2026-4-28T22:46:34Z</time></trkpt>
<trkpt lat="48.83130645752" lon="2.8987774848938"><ele>131</ele><time>2026-4-28T22:46:37Z</time></trkpt>
<trkpt lat="48.831348419189" lon="2.8986973762512"><ele>132</ele><time>2026-4-28T22:46:40Z</time></trkpt>
<trkpt lat="48.831386566162" lon="2.8986165523529"><ele>132</ele><time>2026-4-28T22:46:43Z</time></trkpt>
<trkpt lat="48.831386566162" lon="2.8986165523529"><ele>132</ele><time>2026-4-28T22:46:46Z</time></trkpt>
<trkpt lat="48.831424713135" lon="2.898544549942"><ele>133</ele><time>2026-4-28T22:46:49Z</time></trkpt>
<trkpt lat="48.831424713135" lon="2.898544549942"><ele>133</ele><time>2026-4-28T22:46:52Z</time></trkpt>
<trkpt lat="48.831424713135" lon="2.898544549942"><ele>133</ele><time>2026-4-28T22:46:55Z</time></trkpt>
<trkpt lat="48.831481933594" lon="2.8984565734863"><ele>134</ele><time>2026-4-28T22:46:58Z</time></trkpt>
<trkpt lat="48.831481933594" lon="2.8984565734863"><ele>134</ele><time>2026-4-28T22:47:1Z</time></trkpt>
<trkpt lat="48.831523895264" lon="2.898401260376"><ele>134</ele><time>2026-4-28T22:47:4Z</time></trkpt>
<trkpt lat="48.831581115723" lon="2.8983452320099"><ele>135</ele><time>2026-4-28T22:47:7Z</time></trkpt>
<trkpt lat="48.831581115723" lon="2.8983452320099"><ele>135</ele><time>2026-4-28T22:47:10Z</time></trkpt>
<trkpt lat="48.831657409668" lon="2.8982715606689"><ele>135</ele><time>2026-4-28T22:47:13Z</time></trkpt>
<trkpt lat="48.831737518311" lon="2.8982093334198"><ele>136</ele><time>2026-4-28T22:47:16Z</time></trkpt>
<trkpt lat="48.831813812256" lon="2.8981432914734"><ele>136</ele><time>2026-4-28T22:47:19Z</time></trkpt>
<trkpt lat="48.83186340332" lon="2.8980989456177"><ele>137</ele><time>2026-4-28T22:47:22Z</time></trkpt>
<trkpt lat="48.831916809082" lon="2.8980512619019"><ele>137</ele><time>2026-4-28T22:47:25Z</time></trkpt>
<trkpt lat="48.831970214844" lon="2.898008108139"><ele>137</ele><time>2026-4-28T22:47:28Z</time></trkpt>
<trkpt lat="48.832019805908" lon="2.8979644775391"><ele>137</ele><time>2026-4-28T22:47:31Z</time></trkpt>
<trkpt lat="48.832103729248" lon="2.8978867530823"><ele>137</ele><time>2026-4-28T22:47:34Z</time></trkpt>
<trkpt lat="48.832103729248" lon="2.8978867530823"><ele>137</ele><time>2026-4-28T22:47:37Z</time></trkpt>
<trkpt lat="48.83219909668" lon="2.8978078365326"><ele>138</ele><time>2026-4-28T22:47:40Z</time></trkpt>
<trkpt lat="48.832294464111" lon="2.8977398872375"><ele>138</ele><time>2026-4-28T22:47:43Z</time></trkpt>
<trkpt lat="48.83239364624" lon="2.8976638317108"><ele>138</ele><time>2026-4-28T22:47:46Z</time></trkpt>
<trkpt lat="48.832454681396" lon="2.8976147174835"><ele>138</ele><time>2026-4-28T22:47:49Z</time></trkpt>
<trkpt lat="48.832515716553" lon="2.8975636959076"><ele>138</ele><time>2026-4-28T22:47:52Z</time></trkpt>
<trkpt lat="48.832572937012" lon="2.8975045681"><ele>138</ele><time>2026-4-28T22:47:55Z</time></trkpt>
<trkpt lat="48.832637786865" lon="2.8974523544312"><ele>139</ele><time>2026-4-28T22:47:58Z</time></trkpt>
<trkpt lat="48.832695007324" lon="2.8974061012268"><ele>139</ele><time>2026-4-28T22:48:1Z</time></trkpt>
<trkpt lat="48.832752227783" lon="2.8973581790924"><ele>139</ele><time>2026-4-28T22:48:4Z</time></trkpt>
<trkpt lat="48.832813262939" lon="2.8973062038422"><ele>139</ele><time>2026-4-28T22:48:7Z</time></trkpt>
<trkpt lat="48.832870483398" lon="2.8972537517548"><ele>139</ele><time>2026-4-28T22:48:10Z</time></trkpt>
<trkpt lat="48.832908630371" lon="2.8972051143646"><ele>140</ele><time>2026-4-28T22:48:13Z</time></trkpt>
<trkpt lat="48.832942962646" lon="2.8971555233002"><ele>140</ele><time>2026-4-28T22:48:16Z</time></trkpt>
<trkpt lat="48.832969665527" lon="2.8971107006073"><ele>140</ele><time>2026-4-28T22:48:19Z</time></trkpt>
<trkpt lat="48.832996368408" lon="2.8970711231232"><ele>140</ele><time>2026-4-28T22:48:22Z</time></trkpt>
<trkpt lat="48.832996368408" lon="2.8970711231232"><ele>140</ele><time>2026-4-28T22:48:25Z</time></trkpt>
<trkpt lat="48.832996368408" lon="2.8970711231232"><ele>140</ele><time>2026-4-28T22:48:28Z</time></trkpt>
<trkpt lat="48.832996368408" lon="2.8970711231232"><ele>140</ele><time>2026-4-28T22:48:31Z</time></trkpt>
<trkpt lat="48.832996368408" lon="2.8970711231232"><ele>140</ele><time>2026-4-28T22:48:34Z</time></trkpt>
<trkpt lat="48.832996368408" lon="2.8970711231232"><ele>140</ele><time>2026-4-28T22:48:37Z</time></trkpt>
<trkpt lat="48.832996368408" lon="2.8970711231232"><ele>140</ele><time>2026-4-28T22:48:40Z</time></trkpt>
<trkpt lat="48.832996368408" lon="2.8970711231232"><ele>140</ele><time>2026-4-28T22:48:43Z</time></trkpt>
<trkpt lat="48.832996368408" lon="2.8970711231232"><ele>140</ele><time>2026-4-28T22:48:46Z</time></trkpt>
<trkpt lat="48.832996368408" lon="2.8970711231232"><ele>140</ele><time>2026-4-28T22:48:49Z</time></trkpt>
<trkpt lat="48.832996368408" lon="2.8970711231232"><ele>140</ele><time>2026-4-28T22:48:52Z</time></trkpt>
<trkpt lat="48.832996368408" lon="2.8970711231232"><ele>140</ele><time>2026-4-28T22:48:55Z</time></trkpt>
<trkpt lat="48.832996368408" lon="2.8970711231232"><ele>140</ele><time>2026-4-28T22:48:58Z</time></trkpt>
<trkpt lat="48.832996368408" lon="2.8970711231232"><ele>140</ele><time>2026-4-28T22:49:1Z</time></trkpt>
<trkpt lat="48.832996368408" lon="2.8970711231232"><ele>140</ele><time>2026-4-28T22:49:4Z</time></trkpt>
<trkpt lat="48.832996368408" lon="2.8970711231232"><ele>140</ele><time>2026-4-28T22:49:7Z</time></trkpt>
<trkpt lat="48.832996368408" lon="2.8970711231232"><ele>140</ele><time>2026-4-28T22:49:10Z</time></trkpt>
<trkpt lat="48.833095550537" lon="2.8969783782959"><ele>141</ele><time>2026-4-28T22:49:13Z</time></trkpt>
<trkpt lat="48.833171844482" lon="2.8969194889069"><ele>141</ele><time>2026-4-28T22:49:16Z</time></trkpt>
<trkpt lat="48.833171844482" lon="2.8969194889069"><ele>141</ele><time>2026-4-28T22:49:19Z</time></trkpt>
<trkpt lat="48.833232879639" lon="2.8968782424927"><ele>141</ele><time>2026-4-28T22:49:22Z</time></trkpt>
<trkpt lat="48.8332862854" lon="2.8968470096588"><ele>140</ele><time>2026-4-28T22:49:25Z</time></trkpt>
<trkpt lat="48.833339691162" lon="2.8968205451965"><ele>140</ele><time>2026-4-28T22:49:28Z</time></trkpt>
<trkpt lat="48.833339691162" lon="2.8968205451965"><ele>140</ele><time>2026-4-28T22:49:31Z</time></trkpt>
<trkpt lat="48.833446502686" lon="2.8967704772949"><ele>140</ele><time>2026-4-28T22:49:34Z</time></trkpt>
<trkpt lat="48.833507537842" lon="2.8967468738556"><ele>140</ele><time>2026-4-28T22:49:37Z</time></trkpt>
<trkpt lat="48.833564758301" lon="2.8967216014862"><ele>141</ele><time>2026-4-28T22:49:40Z</time></trkpt>
<trkpt lat="48.833564758301" lon="2.8967216014862"><ele>141</ele><time>2026-4-28T22:49:43Z</time></trkpt>
<trkpt lat="48.833629608154" lon="2.8966915607452"><ele>141</ele><time>2026-4-28T22:49:46Z</time></trkpt>
<trkpt lat="48.833690643311" lon="2.8966641426086"><ele>141</ele><time>2026-4-28T22:49:49Z</time></trkpt>
<trkpt lat="48.833751678467" lon="2.8966407775879"><ele>141</ele><time>2026-4-28T22:49:52Z</time></trkpt>
<trkpt lat="48.833751678467" lon="2.8966407775879"><ele>141</ele><time>2026-4-28T22:49:55Z</time></trkpt>
<trkpt lat="48.833812713623" lon="2.8966112136841"><ele>141</ele><time>2026-4-28T22:49:58Z</time></trkpt>
<trkpt lat="48.833866119385" lon="2.8965783119202"><ele>141</ele><time>2026-4-28T22:50:1Z</time></trkpt>
<trkpt lat="48.833866119385" lon="2.8965783119202"><ele>141</ele><time>2026-4-28T22:50:4Z</time></trkpt>
<trkpt lat="48.833950042725" lon="2.896534204483"><ele>141</ele><time>2026-4-28T22:50:7Z</time></trkpt>
<trkpt lat="48.833950042725" lon="2.896534204483"><ele>141</ele><time>2026-4-28T22:50:10Z</time></trkpt>
<trkpt lat="48.834030151367" lon="2.8964924812317"><ele>141</ele><time>2026-4-28T22:50:13Z</time></trkpt>
<trkpt lat="48.834030151367" lon="2.8964924812317"><ele>141</ele><time>2026-4-28T22:50:16Z</time></trkpt>
<trkpt lat="48.834030151367" lon="2.8964924812317"><ele>141</ele><time>2026-4-28T22:50:19Z</time></trkpt>
<trkpt lat="48.834129333496" lon="2.8964433670044"><ele>142</ele><time>2026-4-28T22:50:22Z</time></trkpt>
<trkpt lat="48.834129333496" lon="2.8964433670044"><ele>142</ele><time>2026-4-28T22:50:25Z</time></trkpt>
<trkpt lat="48.834129333496" lon="2.8964433670044"><ele>142</ele><time>2026-4-28T22:50:28Z</time></trkpt>
<trkpt lat="48.834209442139" lon="2.89639544487"><ele>142</ele><time>2026-4-28T22:50:31Z</time></trkpt>
<trkpt lat="48.834209442139" lon="2.89639544487"><ele>142</ele><time>2026-4-28T22:50:34Z</time></trkpt>
<trkpt lat="48.834300994873" lon="2.8963305950165"><ele>142</ele><time>2026-4-28T22:50:37Z</time></trkpt>
<trkpt lat="48.834300994873" lon="2.8963305950165"><ele>142</ele><time>2026-4-28T22:50:40Z</time></trkpt>
<trkpt lat="48.834354400635" lon="2.8962922096252"><ele>142</ele><time>2026-4-28T22:50:43Z</time></trkpt>
<trkpt lat="48.834407806396" lon="2.896258354187"><ele>142</ele><time>2026-4-28T22:50:46Z</time></trkpt>
<trkpt lat="48.834461212158" lon="2.8962154388428"><ele>142</ele><time>2026-4-28T22:50:49Z</time></trkpt>
<trkpt lat="48.834461212158" lon="2.8962154388428"><ele>142</ele><time>2026-4-28T22:50:52Z</time></trkpt>
<trkpt lat="48.834564208984" lon="2.8961281776428"><ele>142</ele><time>2026-4-28T22:50:55Z</time></trkpt>
<trkpt lat="48.834617614746" lon="2.8960769176483"><ele>142</ele><time>2026-4-28T22:50:58Z</time></trkpt>
<trkpt lat="48.834617614746" lon="2.8960769176483"><ele>142</ele><time>2026-4-28T22:51:1Z</time></trkpt>
<trkpt lat="48.834667205811" lon="2.8960120677948"><ele>143</ele><time>2026-4-28T22:51:4Z</time></trkpt>
<trkpt lat="48.834743499756" lon="2.8959329128265"><ele>143</ele><time>2026-4-28T22:51:7Z</time></trkpt>
<trkpt lat="48.834743499756" lon="2.8959329128265"><ele>143</ele><time>2026-4-28T22:51:10Z</time></trkpt>
<trkpt lat="48.834743499756" lon="2.8959329128265"><ele>143</ele><time>2026-4-28T22:51:13Z</time></trkpt>
<trkpt lat="48.834815979004" lon="2.8958747386932"><ele>143</ele><time>2026-4-28T22:51:16Z</time></trkpt>
<trkpt lat="48.834815979004" lon="2.8958747386932"><ele>143</ele><time>2026-4-28T22:51:19Z</time></trkpt>
<trkpt lat="48.834815979004" lon="2.8958747386932"><ele>143</ele><time>2026-4-28T22:51:22Z</time></trkpt>
<trkpt lat="48.834884643555" lon="2.8958101272583"><ele>143</ele><time>2026-4-28T22:51:25Z</time></trkpt>
<trkpt lat="48.834884643555" lon="2.8958101272583"><ele>143</ele><time>2026-4-28T22:51:28Z</time></trkpt>
<trkpt lat="48.834957122803" lon="2.8957331180573"><ele>144</ele><time>2026-4-28T22:51:31Z</time></trkpt>
<trkpt lat="48.834957122803" lon="2.8957331180573"><ele>144</ele><time>2026-4-28T22:51:34Z</time></trkpt>
<trkpt lat="48.834957122803" lon="2.8957331180573"><ele>144</ele><time>2026-4-28T22:51:37Z</time></trkpt>
<trkpt lat="48.835021972656" lon="2.8956933021545"><ele>144</ele><time>2026-4-28T22:51:40Z</time></trkpt>
<trkpt lat="48.835021972656" lon="2.8956933021545"><ele>144</ele><time>2026-4-28T22:51:43Z</time></trkpt>
<trkpt lat="48.835021972656" lon="2.8956933021545"><ele>144</ele><time>2026-4-28T22:51:46Z</time></trkpt>
<trkpt lat="48.835102081299" lon="2.8956260681152"><ele>144</ele><time>2026-4-28T22:51:49Z</time></trkpt>
<trkpt lat="48.835102081299" lon="2.8956260681152"><ele>144</ele><time>2026-4-28T22:51:52Z</time></trkpt>
<trkpt lat="48.835159301758" lon="2.8955609798431"><ele>145</ele><time>2026-4-28T22:51:55Z</time></trkpt>
<trkpt lat="48.835159301758" lon="2.8955609798431"><ele>145</ele><time>2026-4-28T22:51:58Z</time></trkpt>
<trkpt lat="48.835159301758" lon="2.8955609798431"><ele>145</ele><time>2026-4-28T22:52:1Z</time></trkpt>
<trkpt lat="48.835220336914" lon="2.8954532146454"><ele>145</ele><time>2026-4-28T22:52:4Z</time></trkpt>
<trkpt lat="48.835220336914" lon="2.8954532146454"><ele>145</ele><time>2026-4-28T22:52:7Z</time></trkpt>
<trkpt lat="48.835289001465" lon="2.8953733444214"><ele>145</ele><time>2026-4-28T22:52:10Z</time></trkpt>
<trkpt lat="48.835350036621" lon="2.8952713012695"><ele>146</ele><time>2026-4-28T22:52:13Z</time></trkpt>
<trkpt lat="48.835350036621" lon="2.8952713012695"><ele>146</ele><time>2026-4-28T22:52:16Z</time></trkpt>
<trkpt lat="48.835350036621" lon="2.8952713012695"><ele>146</ele><time>2026-4-28T22:52:19Z</time></trkpt>
<trkpt lat="48.835422515869" lon="2.8951900005341"><ele>146</ele><time>2026-4-28T22:52:22Z</time></trkpt>
<trkpt lat="48.835422515869" lon="2.8951900005341"><ele>146</ele><time>2026-4-28T22:52:25Z</time></trkpt>
<trkpt lat="48.835483551025" lon="2.8951194286346"><ele>147</ele><time>2026-4-28T22:52:28Z</time></trkpt>
<trkpt lat="48.835559844971" lon="2.8950333595276"><ele>147</ele><time>2026-4-28T22:52:31Z</time></trkpt>
<trkpt lat="48.835559844971" lon="2.8950333595276"><ele>147</ele><time>2026-4-28T22:52:34Z</time></trkpt>
<trkpt lat="48.835620880127" lon="2.8949549198151"><ele>147</ele><time>2026-4-28T22:52:37Z</time></trkpt>
<trkpt lat="48.835620880127" lon="2.8949549198151"><ele>147</ele><time>2026-4-28T22:52:40Z</time></trkpt>
<trkpt lat="48.835689544678" lon="2.894905090332"><ele>148</ele><time>2026-4-28T22:52:43Z</time></trkpt>
<trkpt lat="48.835689544678" lon="2.894905090332"><ele>148</ele><time>2026-4-28T22:52:46Z</time></trkpt>
<trkpt lat="48.835762023926" lon="2.8948175907135"><ele>148</ele><time>2026-4-28T22:52:49Z</time></trkpt>
<trkpt lat="48.835762023926" lon="2.8948175907135"><ele>148</ele><time>2026-4-28T22:52:52Z</time></trkpt>
<trkpt lat="48.835826873779" lon="2.8947322368622"><ele>149</ele><time>2026-4-28T22:52:55Z</time></trkpt>
<trkpt lat="48.835826873779" lon="2.8947322368622"><ele>149</ele><time>2026-4-28T22:52:58Z</time></trkpt>
<trkpt lat="48.835899353027" lon="2.8946440219879"><ele>149</ele><time>2026-4-28T22:53:1Z</time></trkpt>
<trkpt lat="48.83597946167" lon="2.8945486545563"><ele>150</ele><time>2026-4-28T22:53:4Z</time></trkpt>
<trkpt lat="48.836048126221" lon="2.8944563865662"><ele>150</ele><time>2026-4-28T22:53:7Z</time></trkpt>
<trkpt lat="48.836048126221" lon="2.8944563865662"><ele>150</ele><time>2026-4-28T22:53:10Z</time></trkpt>
<trkpt lat="48.836120605469" lon="2.894364118576"><ele>151</ele><time>2026-4-28T22:53:13Z</time></trkpt>
<trkpt lat="48.836120605469" lon="2.894364118576"><ele>151</ele><time>2026-4-28T22:53:16Z</time></trkpt>
<trkpt lat="48.836181640625" lon="2.894282579422"><ele>152</ele><time>2026-4-28T22:53:19Z</time></trkpt>
<trkpt lat="48.836181640625" lon="2.894282579422"><ele>152</ele><time>2026-4-28T22:53:22Z</time></trkpt>
<trkpt lat="48.836242675781" lon="2.8941993713379"><ele>153</ele><time>2026-4-28T22:53:25Z</time></trkpt>
<trkpt lat="48.836242675781" lon="2.8941993713379"><ele>153</ele><time>2026-4-28T22:53:28Z</time></trkpt>
<trkpt lat="48.836273193359" lon="2.8941626548767"><ele>153</ele><time>2026-4-28T22:53:31Z</time></trkpt>
<trkpt lat="48.836307525635" lon="2.8941297531128"><ele>153</ele><time>2026-4-28T22:53:34Z</time></trkpt>
<trkpt lat="48.836338043213" lon="2.8940968513489"><ele>154</ele><time>2026-4-28T22:53:37Z</time></trkpt>
<trkpt lat="48.836368560791" lon="2.8940570354462"><ele>154</ele><time>2026-4-28T22:53:40Z</time></trkpt>
<trkpt lat="48.836395263672" lon="2.8940134048462"><ele>154</ele><time>2026-4-28T22:53:43Z</time></trkpt>
<trkpt lat="48.836444854736" lon="2.893926858902"><ele>154</ele><time>2026-4-28T22:53:46Z</time></trkpt>
<trkpt lat="48.836444854736" lon="2.893926858902"><ele>154</ele><time>2026-4-28T22:53:49Z</time></trkpt>
<trkpt lat="48.83650970459" lon="2.8938329219818"><ele>155</ele><time>2026-4-28T22:53:52Z</time></trkpt>
<trkpt lat="48.83650970459" lon="2.8938329219818"><ele>155</ele><time>2026-4-28T22:53:55Z</time></trkpt>
<trkpt lat="48.836582183838" lon="2.8937392234802"><ele>155</ele><time>2026-4-28T22:53:58Z</time></trkpt>
<trkpt lat="48.836669921875" lon="2.8936431407928"><ele>156</ele><time>2026-4-28T22:54:1Z</time></trkpt>
<trkpt lat="48.836715698242" lon="2.8935930728912"><ele>156</ele><time>2026-4-28T22:54:4Z</time></trkpt>
<trkpt lat="48.836761474609" lon="2.8935422897339"><ele>156</ele><time>2026-4-28T22:54:7Z</time></trkpt>
<trkpt lat="48.836761474609" lon="2.8935422897339"><ele>156</ele><time>2026-4-28T22:54:10Z</time></trkpt>
<trkpt lat="48.836849212646" lon="2.8934359550476"><ele>157</ele><time>2026-4-28T22:54:13Z</time></trkpt>
<trkpt lat="48.836894989014" lon="2.8933794498444"><ele>157</ele><time>2026-4-28T22:54:16Z</time></trkpt>
<trkpt lat="48.836940765381" lon="2.8933243751526"><ele>157</ele><time>2026-4-28T22:54:19Z</time></trkpt>
<trkpt lat="48.836990356445" lon="2.8932671546936"><ele>158</ele><time>2026-4-28T22:54:22Z</time></trkpt>
<trkpt lat="48.83703994751" lon="2.8932061195374"><ele>158</ele><time>2026-4-28T22:54:25Z</time></trkpt>
<trkpt lat="48.837093353271" lon="2.8931488990784"><ele>158</ele><time>2026-4-28T22:54:28Z</time></trkpt>
<trkpt lat="48.837146759033" lon="2.8931016921997"><ele>158</ele><time>2026-4-28T22:54:31Z</time></trkpt>
<trkpt lat="48.837207794189" lon="2.8930606842041"><ele>159</ele><time>2026-4-28T22:54:34Z</time></trkpt>
<trkpt lat="48.837257385254" lon="2.8929946422577"><ele>159</ele><time>2026-4-28T22:54:37Z</time></trkpt>
<trkpt lat="48.837326049805" lon="2.8929238319397"><ele>159</ele><time>2026-4-28T22:54:40Z</time></trkpt>
<trkpt lat="48.837368011475" lon="2.8928463459015"><ele>159</ele><time>2026-4-28T22:54:43Z</time></trkpt>
<trkpt lat="48.837409973145" lon="2.8927676677704"><ele>159</ele><time>2026-4-28T22:54:46Z</time></trkpt>
<trkpt lat="48.837463378906" lon="2.8926846981049"><ele>161</ele><time>2026-4-28T22:54:49Z</time></trkpt>
<trkpt lat="48.837524414062" lon="2.8925805091858"><ele>163</ele><time>2026-4-28T22:54:52Z</time></trkpt>
<trkpt lat="48.837593078613" lon="2.8924767971039"><ele>164</ele><time>2026-4-28T22:54:55Z</time></trkpt>
<trkpt lat="48.837650299072" lon="2.8923964500427"><ele>165</ele><time>2026-4-28T22:54:58Z</time></trkpt>
<trkpt lat="48.837707519531" lon="2.8923273086548"><ele>166</ele><time>2026-4-28T22:55:1Z</time></trkpt>
<trkpt lat="48.837776184082" lon="2.8922452926636"><ele>167</ele><time>2026-4-28T22:55:4Z</time></trkpt>
<trkpt lat="48.837856292725" lon="2.8921580314636"><ele>167</ele><time>2026-4-28T22:55:7Z</time></trkpt>
<trkpt lat="48.837940216064" lon="2.8920795917511"><ele>167</ele><time>2026-4-28T22:55:10Z</time></trkpt>
<trkpt lat="48.838020324707" lon="2.8920092582703"><ele>166</ele><time>2026-4-28T22:55:13Z</time></trkpt>
<trkpt lat="48.838115692139" lon="2.8919274806976"><ele>166</ele><time>2026-4-28T22:55:16Z</time></trkpt>
<trkpt lat="48.838203430176" lon="2.8918523788452"><ele>165</ele><time>2026-4-28T22:55:19Z</time></trkpt>
<trkpt lat="48.838291168213" lon="2.8917636871338"><ele>165</ele><time>2026-4-28T22:55:22Z</time></trkpt>
<trkpt lat="48.838375091553" lon="2.8916881084442"><ele>164</ele><time>2026-4-28T22:55:25Z</time></trkpt>
<trkpt lat="48.83846282959" lon="2.891592502594"><ele>163</ele><time>2026-4-28T22:55:28Z</time></trkpt>
<trkpt lat="48.83854675293" lon="2.8914911746979"><ele>163</ele><time>2026-4-28T22:55:31Z</time></trkpt>
<trkpt lat="48.838642120361" lon="2.8913810253143"><ele>162</ele><time>2026-4-28T22:55:34Z</time></trkpt>
<trkpt lat="48.838756561279" lon="2.8912727832794"><ele>161</ele><time>2026-4-28T22:55:37Z</time></trkpt>
<trkpt lat="48.838878631592" lon="2.8911728858948"><ele>161</ele><time>2026-4-28T22:55:40Z</time></trkpt>
<trkpt lat="48.838973999023" lon="2.8910932540894"><ele>161</ele><time>2026-4-28T22:55:43Z</time></trkpt>
<trkpt lat="48.839073181152" lon="2.8910019397736"><ele>161</ele><time>2026-4-28T22:55:46Z</time></trkpt>
<trkpt lat="48.839164733887" lon="2.890914440155"><ele>161</ele><time>2026-4-28T22:55:49Z</time></trkpt>
<trkpt lat="48.839248657227" lon="2.8908298015594"><ele>161</ele><time>2026-4-28T22:55:52Z</time></trkpt>
<trkpt lat="48.839332580566" lon="2.8907396793365"><ele>162</ele><time>2026-4-28T22:55:55Z</time></trkpt>
<trkpt lat="48.839412689209" lon="2.8906452655792"><ele>161</ele><time>2026-4-28T22:55:58Z</time></trkpt>
<trkpt lat="48.83948135376" lon="2.8905551433563"><ele>161</ele><time>2026-4-28T22:56:1Z</time></trkpt>
<trkpt lat="48.839553833008" lon="2.8904666900635"><ele>162</ele><time>2026-4-28T22:56:4Z</time></trkpt>
<trkpt lat="48.839630126953" lon="2.8903732299805"><ele>162</ele><time>2026-4-28T22:56:7Z</time></trkpt>
<trkpt lat="48.839710235596" lon="2.8902847766876"><ele>162</ele><time>2026-4-28T22:56:10Z</time></trkpt>
<trkpt lat="48.839775085449" lon="2.8902180194855"><ele>163</ele><time>2026-4-28T22:56:13Z</time></trkpt>
<trkpt lat="48.83984375" lon="2.8901488780975"><ele>163</ele><time>2026-4-28T22:56:16Z</time></trkpt>
<trkpt lat="48.839904785156" lon="2.8900876045227"><ele>163</ele><time>2026-4-28T22:56:19Z</time></trkpt>
<trkpt lat="48.839958190918" lon="2.8900375366211"><ele>163</ele><time>2026-4-28T22:56:22Z</time></trkpt>
<trkpt lat="48.840015411377" lon="2.8899846076965"><ele>163</ele><time>2026-4-28T22:56:25Z</time></trkpt>
<trkpt lat="48.840068817139" lon="2.8899159431458"><ele>163</ele><time>2026-4-28T22:56:28Z</time></trkpt>
<trkpt lat="48.840118408203" lon="2.8898742198944"><ele>163</ele><time>2026-4-28T22:56:31Z</time></trkpt>
<trkpt lat="48.840118408203" lon="2.8898742198944"><ele>163</ele><time>2026-4-28T22:56:34Z</time></trkpt>
<trkpt lat="48.84020614624" lon="2.8897924423218"><ele>163</ele><time>2026-4-28T22:56:37Z</time></trkpt>
<trkpt lat="48.840259552002" lon="2.8897461891174"><ele>163</ele><time>2026-4-28T22:56:40Z</time></trkpt>
<trkpt lat="48.840259552002" lon="2.8897461891174"><ele>163</ele><time>2026-4-28T22:56:43Z</time></trkpt>
<trkpt lat="48.840343475342" lon="2.8896734714508"><ele>164</ele><time>2026-4-28T22:56:46Z</time></trkpt>
<trkpt lat="48.840343475342" lon="2.8896734714508"><ele>164</ele><time>2026-4-28T22:56:49Z</time></trkpt>
<trkpt lat="48.840431213379" lon="2.8896079063416"><ele>164</ele><time>2026-4-28T22:56:52Z</time></trkpt>
<trkpt lat="48.840431213379" lon="2.8896079063416"><ele>164</ele><time>2026-4-28T22:56:55Z</time></trkpt>
<trkpt lat="48.840518951416" lon="2.8895523548126"><ele>164</ele><time>2026-4-28T22:56:58Z</time></trkpt>
<trkpt lat="48.840518951416" lon="2.8895523548126"><ele>164</ele><time>2026-4-28T22:57:1Z</time></trkpt>
<trkpt lat="48.84061050415" lon="2.8894970417023"><ele>165</ele><time>2026-4-28T22:57:4Z</time></trkpt>
<trkpt lat="48.840709686279" lon="2.8894376754761"><ele>165</ele><time>2026-4-28T22:57:7Z</time></trkpt>
<trkpt lat="48.840774536133" lon="2.8894023895264"><ele>165</ele><time>2026-4-28T22:57:10Z</time></trkpt>
<trkpt lat="48.840835571289" lon="2.8893733024597"><ele>165</ele><time>2026-4-28T22:57:13Z</time></trkpt>
<trkpt lat="48.840835571289" lon="2.8893733024597"><ele>165</ele><time>2026-4-28T22:57:16Z</time></trkpt>
<trkpt lat="48.840927124023" lon="2.8893296718597"><ele>166</ele><time>2026-4-28T22:57:19Z</time></trkpt>
<trkpt lat="48.840980529785" lon="2.8892998695374"><ele>166</ele><time>2026-4-28T22:57:22Z</time></trkpt>
<trkpt lat="48.841041564941" lon="2.8892679214478"><ele>166</ele><time>2026-4-28T22:57:25Z</time></trkpt>
<trkpt lat="48.841106414795" lon="2.8892381191254"><ele>167</ele><time>2026-4-28T22:57:28Z</time></trkpt>
<trkpt lat="48.841205596924" lon="2.8892042636871"><ele>167</ele><time>2026-4-28T22:57:31Z</time></trkpt>
<trkpt lat="48.841205596924" lon="2.8892042636871"><ele>167</ele><time>2026-4-28T22:57:34Z</time></trkpt>
<trkpt lat="48.841293334961" lon="2.8891768455505"><ele>168</ele><time>2026-4-28T22:57:37Z</time></trkpt>
<trkpt lat="48.841293334961" lon="2.8891768455505"><ele>168</ele><time>2026-4-28T22:57:40Z</time></trkpt>
<trkpt lat="48.841293334961" lon="2.8891768455505"><ele>168</ele><time>2026-4-28T22:57:43Z</time></trkpt>
<trkpt lat="48.841377258301" lon="2.889142036438"><ele>168</ele><time>2026-4-28T22:57:46Z</time></trkpt>
<trkpt lat="48.841377258301" lon="2.889142036438"><ele>168</ele><time>2026-4-28T22:57:49Z</time></trkpt>
<trkpt lat="48.841377258301" lon="2.889142036438"><ele>168</ele><time>2026-4-28T22:57:52Z</time></trkpt>
<trkpt lat="48.841377258301" lon="2.889142036438"><ele>168</ele><time>2026-4-28T22:57:55Z</time></trkpt>
<trkpt lat="48.841377258301" lon="2.889142036438"><ele>168</ele><time>2026-4-28T22:57:58Z</time></trkpt>
<trkpt lat="48.841442108154" lon="2.8890643119812"><ele>169</ele><time>2026-4-28T22:58:1Z</time></trkpt>
<trkpt lat="48.841510772705" lon="2.8890521526337"><ele>170</ele><time>2026-4-28T22:58:4Z</time></trkpt>
<trkpt lat="48.841510772705" lon="2.8890521526337"><ele>170</ele><time>2026-4-28T22:58:7Z</time></trkpt>
<trkpt lat="48.841510772705" lon="2.8890521526337"><ele>170</ele><time>2026-4-28T22:58:10Z</time></trkpt>
<trkpt lat="48.841510772705" lon="2.8890521526337"><ele>170</ele><time>2026-4-28T22:58:13Z</time></trkpt>
<trkpt lat="48.841510772705" lon="2.8890521526337"><ele>170</ele><time>2026-4-28T22:58:16Z</time></trkpt>
<trkpt lat="48.841510772705" lon="2.8890521526337"><ele>170</ele><time>2026-4-28T22:58:19Z</time></trkpt>
<trkpt lat="48.841510772705" lon="2.8890521526337"><ele>170</ele><time>2026-4-28T22:58:22Z</time></trkpt>
<trkpt lat="48.841510772705" lon="2.8890521526337"><ele>170</ele><time>2026-4-28T22:58:25Z</time></trkpt>
<trkpt lat="48.841510772705" lon="2.8890521526337"><ele>170</ele><time>2026-4-28T22:58:28Z</time></trkpt>
<trkpt lat="48.841510772705" lon="2.8890521526337"><ele>170</ele><time>2026-4-28T22:58:31Z</time></trkpt>
<trkpt lat="48.841510772705" lon="2.8890521526337"><ele>170</ele><time>2026-4-28T22:58:34Z</time></trkpt>
<trkpt lat="48.841510772705" lon="2.8890521526337"><ele>170</ele><time>2026-4-28T22:58:37Z</time></trkpt>
<trkpt lat="48.841510772705" lon="2.8890521526337"><ele>170</ele><time>2026-4-28T22:58:40Z</time></trkpt>
<trkpt lat="48.841510772705" lon="2.8890521526337"><ele>170</ele><time>2026-4-28T22:58:43Z</time></trkpt>
<trkpt lat="48.841510772705" lon="2.8890521526337"><ele>170</ele><time>2026-4-28T22:58:46Z</time></trkpt>
<trkpt lat="48.841510772705" lon="2.8890521526337"><ele>170</ele><time>2026-4-28T22:58:49Z</time></trkpt>
<trkpt lat="48.841510772705" lon="2.8890521526337"><ele>170</ele><time>2026-4-28T22:58:52Z</time></trkpt>
<trkpt lat="48.841510772705" lon="2.8890521526337"><ele>170</ele><time>2026-4-28T22:58:55Z</time></trkpt>
<trkpt lat="48.841510772705" lon="2.8890521526337"><ele>170</ele><time>2026-4-28T22:58:58Z</time></trkpt>
<trkpt lat="48.841510772705" lon="2.8890521526337"><ele>170</ele><time>2026-4-28T22:59:1Z</time></trkpt>
<trkpt lat="48.841510772705" lon="2.8890521526337"><ele>170</ele><time>2026-4-28T22:59:4Z</time></trkpt>
<trkpt lat="48.841510772705" lon="2.8890521526337"><ele>170</ele><time>2026-4-28T22:59:7Z</time></trkpt>
<trkpt lat="48.841510772705" lon="2.8890521526337"><ele>170</ele><time>2026-4-28T22:59:10Z</time></trkpt>
<trkpt lat="48.841510772705" lon="2.8890521526337"><ele>170</ele><time>2026-4-28T22:59:13Z</time></trkpt>
<trkpt lat="48.841510772705" lon="2.8890521526337"><ele>170</ele><time>2026-4-28T22:59:16Z</time></trkpt>
<trkpt lat="48.841510772705" lon="2.8890521526337"><ele>170</ele><time>2026-4-28T22:59:19Z</time></trkpt>
<trkpt lat="48.841510772705" lon="2.8890521526337"><ele>170</ele><time>2026-4-28T22:59:22Z</time></trkpt>
<trkpt lat="48.841510772705" lon="2.8890521526337"><ele>170</ele><time>2026-4-28T22:59:25Z</time></trkpt>
<trkpt lat="48.841567993164" lon="2.8890295028687"><ele>170</ele><time>2026-4-28T22:59:28Z</time></trkpt>
<trkpt lat="48.841567993164" lon="2.8890295028687"><ele>170</ele><time>2026-4-28T22:59:31Z</time></trkpt>
<trkpt lat="48.841567993164" lon="2.8890295028687"><ele>170</ele><time>2026-4-28T22:59:34Z</time></trkpt>
<trkpt lat="48.841602325439" lon="2.8889451026917"><ele>171</ele><time>2026-4-28T22:59:37Z</time></trkpt>
<trkpt lat="48.841602325439" lon="2.8889451026917"><ele>171</ele><time>2026-4-28T22:59:40Z</time></trkpt>
<trkpt lat="48.841659545898" lon="2.8888866901398"><ele>171</ele><time>2026-4-28T22:59:43Z</time></trkpt>
<trkpt lat="48.841709136963" lon="2.8888499736786"><ele>171</ele><time>2026-4-28T22:59:46Z</time></trkpt>
<trkpt lat="48.841709136963" lon="2.8888499736786"><ele>171</ele><time>2026-4-28T22:59:49Z</time></trkpt>
<trkpt lat="48.841777801514" lon="2.8887891769409"><ele>171</ele><time>2026-4-28T22:59:52Z</time></trkpt>
<trkpt lat="48.841777801514" lon="2.8887891769409"><ele>171</ele><time>2026-4-28T22:59:55Z</time></trkpt>
<trkpt lat="48.841831207275" lon="2.8887455463409"><ele>171</ele><time>2026-4-28T22:59:58Z</time></trkpt>
<trkpt lat="48.841831207275" lon="2.8887455463409"><ele>171</ele><time>2026-4-28T23:0:1Z</time></trkpt>
<trkpt lat="48.841888427734" lon="2.8886930942535"><ele>171</ele><time>2026-4-28T23:0:4Z</time></trkpt>
<trkpt lat="48.841888427734" lon="2.8886930942535"><ele>171</ele><time>2026-4-28T23:0:7Z</time></trkpt>
<trkpt lat="48.841957092285" lon="2.8886187076569"><ele>171</ele><time>2026-4-28T23:0:10Z</time></trkpt>
<trkpt lat="48.841957092285" lon="2.8886187076569"><ele>171</ele><time>2026-4-28T23:0:13Z</time></trkpt>
<trkpt lat="48.841983795166" lon="2.8885912895203"><ele>171</ele><time>2026-4-28T23:0:16Z</time></trkpt>
<trkpt lat="48.841983795166" lon="2.8885912895203"><ele>171</ele><time>2026-4-28T23:0:19Z</time></trkpt>
<trkpt lat="48.842010498047" lon="2.8885607719421"><ele>171</ele><time>2026-4-28T23:0:22Z</time></trkpt>
<trkpt lat="48.842037200928" lon="2.8885247707367"><ele>171</ele><time>2026-4-28T23:0:25Z</time></trkpt>
<trkpt lat="48.842060089111" lon="2.8884902000427"><ele>171</ele><time>2026-4-28T23:0:28Z</time></trkpt>
<trkpt lat="48.842060089111" lon="2.8884902000427"><ele>171</ele><time>2026-4-28T23:0:31Z</time></trkpt>
<trkpt lat="48.842086791992" lon="2.8884551525116"><ele>171</ele><time>2026-4-28T23:0:34Z</time></trkpt>
<trkpt lat="48.842144012451" lon="2.8883860111237"><ele>171</ele><time>2026-4-28T23:0:37Z</time></trkpt>
<trkpt lat="48.842144012451" lon="2.8883860111237"><ele>171</ele><time>2026-4-28T23:0:40Z</time></trkpt>
<trkpt lat="48.842197418213" lon="2.8883292675018"><ele>172</ele><time>2026-4-28T23:0:43Z</time></trkpt>
<trkpt lat="48.842197418213" lon="2.8883292675018"><ele>172</ele><time>2026-4-28T23:0:46Z</time></trkpt>
<trkpt lat="48.842247009277" lon="2.8882751464844"><ele>172</ele><time>2026-4-28T23:0:49Z</time></trkpt>
<trkpt lat="48.842247009277" lon="2.8882751464844"><ele>172</ele><time>2026-4-28T23:0:52Z</time></trkpt>
<trkpt lat="48.842247009277" lon="2.8882751464844"><ele>172</ele><time>2026-4-28T23:0:55Z</time></trkpt>
<trkpt lat="48.842300415039" lon="2.8882069587708"><ele>172</ele><time>2026-4-28T23:0:58Z</time></trkpt>
<trkpt lat="48.842300415039" lon="2.8882069587708"><ele>172</ele><time>2026-4-28T23:1:1Z</time></trkpt>
<trkpt lat="48.842300415039" lon="2.8882069587708"><ele>172</ele><time>2026-4-28T23:1:4Z</time></trkpt>
<trkpt lat="48.842342376709" lon="2.8881506919861"><ele>172</ele><time>2026-4-28T23:1:7Z</time></trkpt>
<trkpt lat="48.842388153076" lon="2.8880815505981"><ele>172</ele><time>2026-4-28T23:1:10Z</time></trkpt>
<trkpt lat="48.842388153076" lon="2.8880815505981"><ele>172</ele><time>2026-4-28T23:1:13Z</time></trkpt>
<trkpt lat="48.842388153076" lon="2.8880815505981"><ele>172</ele><time>2026-4-28T23:1:16Z</time></trkpt>
<trkpt lat="48.842430114746" lon="2.8880174160004"><ele>172</ele><time>2026-4-28T23:1:19Z</time></trkpt>
<trkpt lat="48.842430114746" lon="2.8880174160004"><ele>172</ele><time>2026-4-28T23:1:22Z</time></trkpt>
<trkpt lat="48.842430114746" lon="2.8880174160004"><ele>172</ele><time>2026-4-28T23:1:25Z</time></trkpt>
<trkpt lat="48.842479705811" lon="2.8879542350769"><ele>172</ele><time>2026-4-28T23:1:28Z</time></trkpt>
<trkpt lat="48.842479705811" lon="2.8879542350769"><ele>172</ele><time>2026-4-28T23:1:31Z</time></trkpt>
<trkpt lat="48.842479705811" lon="2.8879542350769"><ele>172</ele><time>2026-4-28T23:1:34Z</time></trkpt>
<trkpt lat="48.842479705811" lon="2.8879542350769"><ele>172</ele><time>2026-4-28T23:1:37Z</time></trkpt>
<trkpt lat="48.842540740967" lon="2.8878626823425"><ele>172</ele><time>2026-4-28T23:1:40Z</time></trkpt>
<trkpt lat="48.842540740967" lon="2.8878626823425"><ele>172</ele><time>2026-4-28T23:1:43Z</time></trkpt>
<trkpt lat="48.842540740967" lon="2.8878626823425"><ele>172</ele><time>2026-4-28T23:1:46Z</time></trkpt>
<trkpt lat="48.842540740967" lon="2.8878626823425"><ele>172</ele><time>2026-4-28T23:1:49Z</time></trkpt>
<trkpt lat="48.84260559082" lon="2.8878026008606"><ele>172</ele><time>2026-4-28T23:1:52Z</time></trkpt>
<trkpt lat="48.84260559082" lon="2.8878026008606"><ele>172</ele><time>2026-4-28T23:1:55Z</time></trkpt>
<trkpt lat="48.842651367188" lon="2.8877580165863"><ele>173</ele><time>2026-4-28T23:1:58Z</time></trkpt>
<trkpt lat="48.842651367188" lon="2.8877580165863"><ele>173</ele><time>2026-4-28T23:2:1Z</time></trkpt>
<trkpt lat="48.842708587646" lon="2.8876910209656"><ele>173</ele><time>2026-4-28T23:2:4Z</time></trkpt>
<trkpt lat="48.842708587646" lon="2.8876910209656"><ele>173</ele><time>2026-4-28T23:2:7Z</time></trkpt>
<trkpt lat="48.842758178711" lon="2.8876180648804"><ele>173</ele><time>2026-4-28T23:2:10Z</time></trkpt>
<trkpt lat="48.842807769775" lon="2.8875405788422"><ele>173</ele><time>2026-4-28T23:2:13Z</time></trkpt>
<trkpt lat="48.842807769775" lon="2.8875405788422"><ele>173</ele><time>2026-4-28T23:2:16Z</time></trkpt>
<trkpt lat="48.84285736084" lon="2.8874516487122"><ele>173</ele><time>2026-4-28T23:2:19Z</time></trkpt>
<trkpt lat="48.84285736084" lon="2.8874516487122"><ele>173</ele><time>2026-4-28T23:2:22Z</time></trkpt>
<trkpt lat="48.842903137207" lon="2.8873703479767"><ele>173</ele><time>2026-4-28T23:2:25Z</time></trkpt>
<trkpt lat="48.842952728271" lon="2.8872897624969"><ele>173</ele><time>2026-4-28T23:2:28Z</time></trkpt>
<trkpt lat="48.842952728271" lon="2.8872897624969"><ele>173</ele><time>2026-4-28T23:2:31Z</time></trkpt>
<trkpt lat="48.843006134033" lon="2.887188911438"><ele>174</ele><time>2026-4-28T23:2:34Z</time></trkpt>
<trkpt lat="48.843006134033" lon="2.887188911438"><ele>174</ele><time>2026-4-28T23:2:37Z</time></trkpt>
<trkpt lat="48.8430519104" lon="2.8870923519135"><ele>174</ele><time>2026-4-28T23:2:40Z</time></trkpt>
<trkpt lat="48.84309387207" lon="2.8869919776917"><ele>174</ele><time>2026-4-28T23:2:43Z</time></trkpt>
<trkpt lat="48.84309387207" lon="2.8869919776917"><ele>174</ele><time>2026-4-28T23:2:46Z</time></trkpt>
<trkpt lat="48.843143463135" lon="2.8868970870972"><ele>175</ele><time>2026-4-28T23:2:49Z</time></trkpt>
<trkpt lat="48.843143463135" lon="2.8868970870972"><ele>175</ele><time>2026-4-28T23:2:52Z</time></trkpt>
<trkpt lat="48.843143463135" lon="2.8868970870972"><ele>175</ele><time>2026-4-28T23:2:55Z</time></trkpt>
<trkpt lat="48.843185424805" lon="2.8868186473846"><ele>175</ele><time>2026-4-28T23:2:58Z</time></trkpt>
<trkpt lat="48.843185424805" lon="2.8868186473846"><ele>175</ele><time>2026-4-28T23:3:1Z</time></trkpt>
<trkpt lat="48.843185424805" lon="2.8868186473846"><ele>175</ele><time>2026-4-28T23:3:4Z</time></trkpt>
<trkpt lat="48.843185424805" lon="2.8868186473846"><ele>175</ele><time>2026-4-28T23:3:7Z</time></trkpt>
<trkpt lat="48.843185424805" lon="2.8868186473846"><ele>175</ele><time>2026-4-28T23:3:10Z</time></trkpt>
<trkpt lat="48.843185424805" lon="2.8868186473846"><ele>175</ele><time>2026-4-28T23:3:13Z</time></trkpt>
<trkpt lat="48.843185424805" lon="2.8868186473846"><ele>175</ele><time>2026-4-28T23:3:16Z</time></trkpt>
<trkpt lat="48.843185424805" lon="2.8868186473846"><ele>175</ele><time>2026-4-28T23:3:19Z</time></trkpt>
<trkpt lat="48.843185424805" lon="2.8868186473846"><ele>175</ele><time>2026-4-28T23:3:22Z</time></trkpt>
<trkpt lat="48.843185424805" lon="2.8868186473846"><ele>175</ele><time>2026-4-28T23:3:25Z</time></trkpt>
<trkpt lat="48.843185424805" lon="2.8868186473846"><ele>175</ele><time>2026-4-28T23:3:28Z</time></trkpt>
<trkpt lat="48.843185424805" lon="2.8868186473846"><ele>175</ele><time>2026-4-28T23:3:31Z</time></trkpt>
<trkpt lat="48.843185424805" lon="2.8868186473846"><ele>175</ele><time>2026-4-28T23:3:34Z</time></trkpt>
<trkpt lat="48.843185424805" lon="2.8868186473846"><ele>175</ele><time>2026-4-28T23:3:37Z</time></trkpt>
<trkpt lat="48.843185424805" lon="2.8868186473846"><ele>175</ele><time>2026-4-28T23:3:40Z</time></trkpt>
<trkpt lat="48.843185424805" lon="2.8868186473846"><ele>175</ele><time>2026-4-28T23:3:43Z</time></trkpt>
<trkpt lat="48.843250274658" lon="2.8867144584656"><ele>176</ele><time>2026-4-28T23:3:46Z</time></trkpt>
<trkpt lat="48.843250274658" lon="2.8867144584656"><ele>176</ele><time>2026-4-28T23:3:49Z</time></trkpt>
<trkpt lat="48.843288421631" lon="2.8866372108459"><ele>176</ele><time>2026-4-28T23:3:52Z</time></trkpt>
<trkpt lat="48.843311309814" lon="2.8865716457367"><ele>176</ele><time>2026-4-28T23:3:55Z</time></trkpt>
<trkpt lat="48.843334197998" lon="2.886519908905"><ele>176</ele><time>2026-4-28T23:3:58Z</time></trkpt>
<trkpt lat="48.843334197998" lon="2.886519908905"><ele>176</ele><time>2026-4-28T23:4:1Z</time></trkpt>
<trkpt lat="48.843357086182" lon="2.8864727020264"><ele>176</ele><time>2026-4-28T23:4:4Z</time></trkpt>
<trkpt lat="48.843395233154" lon="2.8863904476166"><ele>176</ele><time>2026-4-28T23:4:7Z</time></trkpt>
<trkpt lat="48.843395233154" lon="2.8863904476166"><ele>176</ele><time>2026-4-28T23:4:10Z</time></trkpt>
<trkpt lat="48.843433380127" lon="2.8863196372986"><ele>176</ele><time>2026-4-28T23:4:13Z</time></trkpt>
<trkpt lat="48.843475341797" lon="2.8862414360046"><ele>176</ele><time>2026-4-28T23:4:16Z</time></trkpt>
<trkpt lat="48.843475341797" lon="2.8862414360046"><ele>176</ele><time>2026-4-28T23:4:19Z</time></trkpt>
<trkpt lat="48.843509674072" lon="2.8861601352692"><ele>176</ele><time>2026-4-28T23:4:22Z</time></trkpt>
<trkpt lat="48.843509674072" lon="2.8861601352692"><ele>176</ele><time>2026-4-28T23:4:25Z</time></trkpt>
<trkpt lat="48.843547821045" lon="2.8860769271851"><ele>176</ele><time>2026-4-28T23:4:28Z</time></trkpt>
<trkpt lat="48.843547821045" lon="2.8860769271851"><ele>176</ele><time>2026-4-28T23:4:31Z</time></trkpt>
<trkpt lat="48.843547821045" lon="2.8860769271851"><ele>176</ele><time>2026-4-28T23:4:34Z</time></trkpt>
<trkpt lat="48.843547821045" lon="2.8860769271851"><ele>176</ele><time>2026-4-28T23:4:37Z</time></trkpt>
<trkpt lat="48.843593597412" lon="2.8859860897064"><ele>176</ele><time>2026-4-28T23:4:40Z</time></trkpt>
<trkpt lat="48.843593597412" lon="2.8859860897064"><ele>176</ele><time>2026-4-28T23:4:43Z</time></trkpt>
<trkpt lat="48.843593597412" lon="2.8859860897064"><ele>176</ele><time>2026-4-28T23:4:46Z</time></trkpt>
<trkpt lat="48.843593597412" lon="2.8859860897064"><ele>176</ele><time>2026-4-28T23:4:49Z</time></trkpt>
<trkpt lat="48.843593597412" lon="2.8859860897064"><ele>176</ele><time>2026-4-28T23:4:52Z</time></trkpt>
<trkpt lat="48.843593597412" lon="2.8859860897064"><ele>176</ele><time>2026-4-28T23:4:55Z</time></trkpt>
<trkpt lat="48.843593597412" lon="2.8859860897064"><ele>176</ele><time>2026-4-28T23:4:58Z</time></trkpt>
<trkpt lat="48.843593597412" lon="2.8859860897064"><ele>176</ele><time>2026-4-28T23:5:1Z</time></trkpt>
<trkpt lat="48.843593597412" lon="2.8859860897064"><ele>176</ele><time>2026-4-28T23:5:4Z</time></trkpt>
<trkpt lat="48.843688964844" lon="2.8857944011688"><ele>175</ele><time>2026-4-28T23:5:7Z</time></trkpt>
<trkpt lat="48.843688964844" lon="2.8857944011688"><ele>175</ele><time>2026-4-28T23:5:10Z</time></trkpt>
<trkpt lat="48.843734741211" lon="2.8856842517853"><ele>175</ele><time>2026-4-28T23:5:13Z</time></trkpt>
<trkpt lat="48.843784332275" lon="2.8855576515198"><ele>175</ele><time>2026-4-28T23:5:16Z</time></trkpt>
<trkpt lat="48.843811035156" lon="2.8854773044586"><ele>175</ele><time>2026-4-28T23:5:19Z</time></trkpt>
<trkpt lat="48.843837738037" lon="2.8854014873505"><ele>175</ele><time>2026-4-28T23:5:22Z</time></trkpt>
<trkpt lat="48.843868255615" lon="2.8853166103363"><ele>175</ele><time>2026-4-28T23:5:25Z</time></trkpt>
<trkpt lat="48.843894958496" lon="2.8852410316467"><ele>175</ele><time>2026-4-28T23:5:28Z</time></trkpt>
<trkpt lat="48.843933105469" lon="2.885116815567"><ele>175</ele><time>2026-4-28T23:5:31Z</time></trkpt>
<trkpt lat="48.843982696533" lon="2.8849859237671"><ele>175</ele><time>2026-4-28T23:5:34Z</time></trkpt>
<trkpt lat="48.843982696533" lon="2.8849859237671"><ele>175</ele><time>2026-4-28T23:5:37Z</time></trkpt>
<trkpt lat="48.8440284729" lon="2.884859085083"><ele>175</ele><time>2026-4-28T23:5:40Z</time></trkpt>
<trkpt lat="48.844081878662" lon="2.8847327232361"><ele>175</ele><time>2026-4-28T23:5:43Z</time></trkpt>
<trkpt lat="48.844139099121" lon="2.8845999240875"><ele>175</ele><time>2026-4-28T23:5:46Z</time></trkpt>
<trkpt lat="48.844173431396" lon="2.8845322132111"><ele>175</ele><time>2026-4-28T23:5:49Z</time></trkpt>
<trkpt lat="48.844200134277" lon="2.8844676017761"><ele>175</ele><time>2026-4-28T23:5:52Z</time></trkpt>
<trkpt lat="48.844230651855" lon="2.8844056129456"><ele>175</ele><time>2026-4-28T23:5:55Z</time></trkpt>
<trkpt lat="48.844257354736" lon="2.8843457698822"><ele>175</ele><time>2026-4-28T23:5:58Z</time></trkpt>
<trkpt lat="48.844284057617" lon="2.8842883110046"><ele>175</ele><time>2026-4-28T23:6:1Z</time></trkpt>
<trkpt lat="48.844306945801" lon="2.88423371315"><ele>175</ele><time>2026-4-28T23:6:4Z</time></trkpt>
<trkpt lat="48.844356536865" lon="2.8841183185577"><ele>175</ele><time>2026-4-28T23:6:7Z</time></trkpt>
<trkpt lat="48.844390869141" lon="2.8840415477753"><ele>175</ele><time>2026-4-28T23:6:10Z</time></trkpt>
<trkpt lat="48.844425201416" lon="2.883962392807"><ele>175</ele><time>2026-4-28T23:6:13Z</time></trkpt>
<trkpt lat="48.844459533691" lon="2.8838875293732"><ele>175</ele><time>2026-4-28T23:6:16Z</time></trkpt>
<trkpt lat="48.844493865967" lon="2.8838098049164"><ele>175</ele><time>2026-4-28T23:6:19Z</time></trkpt>
<trkpt lat="48.844532012939" lon="2.8837239742279"><ele>176</ele><time>2026-4-28T23:6:22Z</time></trkpt>
<trkpt lat="48.844581604004" lon="2.8836288452148"><ele>176</ele><time>2026-4-28T23:6:25Z</time></trkpt>
<trkpt lat="48.844635009766" lon="2.8835077285767"><ele>175</ele><time>2026-4-28T23:6:28Z</time></trkpt>
<trkpt lat="48.844688415527" lon="2.8833792209625"><ele>174</ele><time>2026-4-28T23:6:31Z</time></trkpt>
<trkpt lat="48.844741821289" lon="2.8832173347473"><ele>174</ele><time>2026-4-28T23:6:34Z</time></trkpt>
<trkpt lat="48.844776153564" lon="2.8830320835114"><ele>173</ele><time>2026-4-28T23:6:37Z</time></trkpt>
<trkpt lat="48.844787597656" lon="2.8828234672546"><ele>173</ele><time>2026-4-28T23:6:40Z</time></trkpt>
<trkpt lat="48.844799041748" lon="2.8825967311859"><ele>173</ele><time>2026-4-28T23:6:43Z</time></trkpt>
<trkpt lat="48.844814300537" lon="2.8823597431183"><ele>172</ele><time>2026-4-28T23:6:46Z</time></trkpt>
<trkpt lat="48.844833374023" lon="2.8821156024933"><ele>171</ele><time>2026-4-28T23:6:49Z</time></trkpt>
<trkpt lat="48.84485244751" lon="2.8818402290344"><ele>170</ele><time>2026-4-28T23:6:52Z</time></trkpt>
<trkpt lat="48.844867706299" lon="2.8815686702728"><ele>169</ele><time>2026-4-28T23:6:55Z</time></trkpt>
<trkpt lat="48.844882965088" lon="2.8813133239746"><ele>168</ele><time>2026-4-28T23:6:58Z</time></trkpt>
<trkpt lat="48.844890594482" lon="2.8810715675354"><ele>167</ele><time>2026-4-28T23:7:1Z</time></trkpt>
<trkpt lat="48.844886779785" lon="2.880842924118"><ele>166</ele><time>2026-4-28T23:7:4Z</time></trkpt>
<trkpt lat="48.844871520996" lon="2.8806190490723"><ele>165</ele><time>2026-4-28T23:7:7Z</time></trkpt>
<trkpt lat="48.844856262207" lon="2.8804261684418"><ele>165</ele><time>2026-4-28T23:7:10Z</time></trkpt>
<trkpt lat="48.844848632812" lon="2.8802852630615"><ele>164</ele><time>2026-4-28T23:7:13Z</time></trkpt>
<trkpt lat="48.844848632812" lon="2.8802852630615"><ele>164</ele><time>2026-4-28T23:7:16Z</time></trkpt>
<trkpt lat="48.844898223877" lon="2.8801288604736"><ele>164</ele><time>2026-4-28T23:7:19Z</time></trkpt>
<trkpt lat="48.844898223877" lon="2.8801288604736"><ele>164</ele><time>2026-4-28T23:7:22Z</time></trkpt>
<trkpt lat="48.844947814941" lon="2.8799691200256"><ele>164</ele><time>2026-4-28T23:7:25Z</time></trkpt>
<trkpt lat="48.844947814941" lon="2.8799691200256"><ele>164</ele><time>2026-4-28T23:7:28Z</time></trkpt>
<trkpt lat="48.844985961914" lon="2.8798611164093"><ele>164</ele><time>2026-4-28T23:7:31Z</time></trkpt>
<trkpt lat="48.844985961914" lon="2.8798611164093"><ele>164</ele><time>2026-4-28T23:7:34Z</time></trkpt>
<trkpt lat="48.844928741455" lon="2.8798732757568"><ele>164</ele><time>2026-4-28T23:7:37Z</time></trkpt>
<trkpt lat="48.844928741455" lon="2.8798732757568"><ele>164</ele><time>2026-4-28T23:7:40Z</time></trkpt>
<trkpt lat="48.84493637085" lon="2.8800311088562"><ele>164</ele><time>2026-4-28T23:7:43Z</time></trkpt>
<trkpt lat="48.844985961914" lon="2.8801577091217"><ele>164</ele><time>2026-4-28T23:7:46Z</time></trkpt>
<trkpt lat="48.844985961914" lon="2.8801577091217"><ele>164</ele><time>2026-4-28T23:7:49Z</time></trkpt>
<trkpt lat="48.845085144043" lon="2.8802495002747"><ele>164</ele><time>2026-4-28T23:7:52Z</time></trkpt>
<trkpt lat="48.845138549805" lon="2.8802788257599"><ele>164</ele><time>2026-4-28T23:7:55Z</time></trkpt>
<trkpt lat="48.845199584961" lon="2.8803105354309"><ele>164</ele><time>2026-4-28T23:7:58Z</time></trkpt>
<trkpt lat="48.845272064209" lon="2.8803493976593"><ele>164</ele><time>2026-4-28T23:8:1Z</time></trkpt>
<trkpt lat="48.845344543457" lon="2.8803832530975"><ele>164</ele><time>2026-4-28T23:8:4Z</time></trkpt>
<trkpt lat="48.845344543457" lon="2.8803832530975"><ele>164</ele><time>2026-4-28T23:8:7Z</time></trkpt>
<trkpt lat="48.8454246521" lon="2.8804121017456"><ele>164</ele><time>2026-4-28T23:8:10Z</time></trkpt>
<trkpt lat="48.845485687256" lon="2.8804311752319"><ele>164</ele><time>2026-4-28T23:8:13Z</time></trkpt>
<trkpt lat="48.845550537109" lon="2.8804476261139"><ele>164</ele><time>2026-4-28T23:8:16Z</time></trkpt>
<trkpt lat="48.845550537109" lon="2.8804476261139"><ele>164</ele><time>2026-4-28T23:8:19Z</time></trkpt>
<trkpt lat="48.845607757568" lon="2.8804631233215"><ele>163</ele><time>2026-4-28T23:8:22Z</time></trkpt>
<trkpt lat="48.845607757568" lon="2.8804631233215"><ele>163</ele><time>2026-4-28T23:8:25Z</time></trkpt>
<trkpt lat="48.845687866211" lon="2.8804850578308"><ele>163</ele><time>2026-4-28T23:8:28Z</time></trkpt>
<trkpt lat="48.845687866211" lon="2.8804850578308"><ele>163</ele><time>2026-4-28T23:8:31Z</time></trkpt>
<trkpt lat="48.845687866211" lon="2.8804850578308"><ele>163</ele><time>2026-4-28T23:8:34Z</time></trkpt>
<trkpt lat="48.845779418945" lon="2.8805131912231"><ele>162</ele><time>2026-4-28T23:8:37Z</time></trkpt>
<trkpt lat="48.845779418945" lon="2.8805131912231"><ele>162</ele><time>2026-4-28T23:8:40Z</time></trkpt>
<trkpt lat="48.845779418945" lon="2.8805131912231"><ele>162</ele><time>2026-4-28T23:8:43Z</time></trkpt>
<trkpt lat="48.845863342285" lon="2.8805224895477"><ele>162</ele><time>2026-4-28T23:8:46Z</time></trkpt>
<trkpt lat="48.845863342285" lon="2.8805224895477"><ele>162</ele><time>2026-4-28T23:8:49Z</time></trkpt>
<trkpt lat="48.845943450928" lon="2.8804833889008"><ele>161</ele><time>2026-4-28T23:8:52Z</time></trkpt>
<trkpt lat="48.845943450928" lon="2.8804833889008"><ele>161</ele><time>2026-4-28T23:8:55Z</time></trkpt>
<trkpt lat="48.845943450928" lon="2.8804833889008"><ele>161</ele><time>2026-4-28T23:8:58Z</time></trkpt>
<trkpt lat="48.846019744873" lon="2.8804042339325"><ele>161</ele><time>2026-4-28T23:9:1Z</time></trkpt>
<trkpt lat="48.846019744873" lon="2.8804042339325"><ele>161</ele><time>2026-4-28T23:9:4Z</time></trkpt>
<trkpt lat="48.846092224121" lon="2.8803069591522"><ele>160</ele><time>2026-4-28T23:9:7Z</time></trkpt>
<trkpt lat="48.846172332764" lon="2.8801920413971"><ele>160</ele><time>2026-4-28T23:9:10Z</time></trkpt>
<trkpt lat="48.846172332764" lon="2.8801920413971"><ele>160</ele><time>2026-4-28T23:9:13Z</time></trkpt>
<trkpt lat="48.846214294434" lon="2.8801240921021"><ele>160</ele><time>2026-4-28T23:9:16Z</time></trkpt>
<trkpt lat="48.846252441406" lon="2.8800549507141"><ele>159</ele><time>2026-4-28T23:9:19Z</time></trkpt>
<trkpt lat="48.846290588379" lon="2.8799834251404"><ele>159</ele><time>2026-4-28T23:9:22Z</time></trkpt>
<trkpt lat="48.846290588379" lon="2.8799834251404"><ele>159</ele><time>2026-4-28T23:9:25Z</time></trkpt>
<trkpt lat="48.846336364746" lon="2.8799004554749"><ele>159</ele><time>2026-4-28T23:9:28Z</time></trkpt>
<trkpt lat="48.846378326416" lon="2.8798108100891"><ele>159</ele><time>2026-4-28T23:9:31Z</time></trkpt>
<trkpt lat="48.846424102783" lon="2.8797364234924"><ele>159</ele><time>2026-4-28T23:9:34Z</time></trkpt>
<trkpt lat="48.846424102783" lon="2.8797364234924"><ele>159</ele><time>2026-4-28T23:9:37Z</time></trkpt>
<trkpt lat="48.846466064453" lon="2.8796546459198"><ele>159</ele><time>2026-4-28T23:9:40Z</time></trkpt>
<trkpt lat="48.846523284912" lon="2.8795611858368"><ele>159</ele><time>2026-4-28T23:9:43Z</time></trkpt>
<trkpt lat="48.846580505371" lon="2.8794710636139"><ele>159</ele><time>2026-4-28T23:9:46Z</time></trkpt>
<trkpt lat="48.846580505371" lon="2.8794710636139"><ele>159</ele><time>2026-4-28T23:9:49Z</time></trkpt>
<trkpt lat="48.846630096436" lon="2.8793938159943"><ele>160</ele><time>2026-4-28T23:9:52Z</time></trkpt>
<trkpt lat="48.846691131592" lon="2.8793163299561"><ele>160</ele><time>2026-4-28T23:9:55Z</time></trkpt>
<trkpt lat="48.846752166748" lon="2.8792576789856"><ele>160</ele><time>2026-4-28T23:9:58Z</time></trkpt>
<trkpt lat="48.846752166748" lon="2.8792576789856"><ele>160</ele><time>2026-4-28T23:10:1Z</time></trkpt>
<trkpt lat="48.846813201904" lon="2.8792109489441"><ele>160</ele><time>2026-4-28T23:10:4Z</time></trkpt>
<trkpt lat="48.846874237061" lon="2.8791670799255"><ele>160</ele><time>2026-4-28T23:10:7Z</time></trkpt>
<trkpt lat="48.846939086914" lon="2.8791244029999"><ele>160</ele><time>2026-4-28T23:10:10Z</time></trkpt>
<trkpt lat="48.846939086914" lon="2.8791244029999"><ele>160</ele><time>2026-4-28T23:10:13Z</time></trkpt>
<trkpt lat="48.847003936768" lon="2.8790845870972"><ele>160</ele><time>2026-4-28T23:10:16Z</time></trkpt>
<trkpt lat="48.847072601318" lon="2.8790357112885"><ele>160</ele><time>2026-4-28T23:10:19Z</time></trkpt>
<trkpt lat="48.847137451172" lon="2.8789792060852"><ele>160</ele><time>2026-4-28T23:10:22Z</time></trkpt>
<trkpt lat="48.847137451172" lon="2.8789792060852"><ele>160</ele><time>2026-4-28T23:10:25Z</time></trkpt>
<trkpt lat="48.847190856934" lon="2.8789143562317"><ele>160</ele><time>2026-4-28T23:10:28Z</time></trkpt>
<trkpt lat="48.847248077393" lon="2.8788466453552"><ele>160</ele><time>2026-4-28T23:10:31Z</time></trkpt>
<trkpt lat="48.847301483154" lon="2.8787887096405"><ele>160</ele><time>2026-4-28T23:10:34Z</time></trkpt>
<trkpt lat="48.847301483154" lon="2.8787887096405"><ele>160</ele><time>2026-4-28T23:10:37Z</time></trkpt>
<trkpt lat="48.847354888916" lon="2.8787279129028"><ele>160</ele><time>2026-4-28T23:10:40Z</time></trkpt>
<trkpt lat="48.847400665283" lon="2.8786613941193"><ele>160</ele><time>2026-4-28T23:10:43Z</time></trkpt>
<trkpt lat="48.84744644165" lon="2.8785905838013"><ele>160</ele><time>2026-4-28T23:10:46Z</time></trkpt>
<trkpt lat="48.84744644165" lon="2.8785905838013"><ele>160</ele><time>2026-4-28T23:10:49Z</time></trkpt>
<trkpt lat="48.847496032715" lon="2.8785116672516"><ele>160</ele><time>2026-4-28T23:10:52Z</time></trkpt>
<trkpt lat="48.847545623779" lon="2.8784379959106"><ele>160</ele><time>2026-4-28T23:10:55Z</time></trkpt>
<trkpt lat="48.847606658936" lon="2.8783595561981"><ele>160</ele><time>2026-4-28T23:10:58Z</time></trkpt>
<trkpt lat="48.847606658936" lon="2.8783595561981"><ele>160</ele><time>2026-4-28T23:11:1Z</time></trkpt>
<trkpt lat="48.847667694092" lon="2.8782796859741"><ele>160</ele><time>2026-4-28T23:11:4Z</time></trkpt>
<trkpt lat="48.847724914551" lon="2.8781936168671"><ele>160</ele><time>2026-4-28T23:11:7Z</time></trkpt>
<trkpt lat="48.847774505615" lon="2.878121137619"><ele>160</ele><time>2026-4-28T23:11:10Z</time></trkpt>
<trkpt lat="48.847774505615" lon="2.878121137619"><ele>160</ele><time>2026-4-28T23:11:13Z</time></trkpt>
<trkpt lat="48.847827911377" lon="2.8780400753021"><ele>159</ele><time>2026-4-28T23:11:16Z</time></trkpt>
<trkpt lat="48.847885131836" lon="2.8779580593109"><ele>159</ele><time>2026-4-28T23:11:19Z</time></trkpt>
<trkpt lat="48.847942352295" lon="2.8778729438782"><ele>159</ele><time>2026-4-28T23:11:22Z</time></trkpt>
<trkpt lat="48.847942352295" lon="2.8778729438782"><ele>159</ele><time>2026-4-28T23:11:25Z</time></trkpt>
<trkpt lat="48.847984313965" lon="2.8778109550476"><ele>159</ele><time>2026-4-28T23:11:28Z</time></trkpt>
<trkpt lat="48.847984313965" lon="2.8778109550476"><ele>159</ele><time>2026-4-28T23:11:31Z</time></trkpt>
<trkpt lat="48.848068237305" lon="2.8776698112488"><ele>158</ele><time>2026-4-28T23:11:34Z</time></trkpt>
<trkpt lat="48.848068237305" lon="2.8776698112488"><ele>158</ele><time>2026-4-28T23:11:37Z</time></trkpt>
<trkpt lat="48.848117828369" lon="2.8775818347931"><ele>158</ele><time>2026-4-28T23:11:40Z</time></trkpt>
<trkpt lat="48.848167419434" lon="2.8774909973145"><ele>157</ele><time>2026-4-28T23:11:43Z</time></trkpt>
<trkpt lat="48.848220825195" lon="2.8773980140686"><ele>156</ele><time>2026-4-28T23:11:46Z</time></trkpt>
<trkpt lat="48.848220825195" lon="2.8773980140686"><ele>156</ele><time>2026-4-28T23:11:49Z</time></trkpt>
<trkpt lat="48.848278045654" lon="2.8773074150085"><ele>155</ele><time>2026-4-28T23:11:52Z</time></trkpt>
<trkpt lat="48.848339080811" lon="2.8772015571594"><ele>154</ele><time>2026-4-28T23:11:55Z</time></trkpt>
<trkpt lat="48.848403930664" lon="2.8770749568939"><ele>153</ele><time>2026-4-28T23:11:58Z</time></trkpt>
<trkpt lat="48.848403930664" lon="2.8770749568939"><ele>153</ele><time>2026-4-28T23:12:1Z</time></trkpt>
<trkpt lat="48.848476409912" lon="2.8769226074219"><ele>153</ele><time>2026-4-28T23:12:4Z</time></trkpt>
<trkpt lat="48.848541259766" lon="2.8767774105072"><ele>154</ele><time>2026-4-28T23:12:7Z</time></trkpt>
<trkpt lat="48.848594665527" lon="2.8766407966614"><ele>154</ele><time>2026-4-28T23:12:10Z</time></trkpt>
<trkpt lat="48.848594665527" lon="2.8766407966614"><ele>154</ele><time>2026-4-28T23:12:13Z</time></trkpt>
<trkpt lat="48.848648071289" lon="2.8765046596527"><ele>153</ele><time>2026-4-28T23:12:16Z</time></trkpt>
<trkpt lat="48.848701477051" lon="2.8763566017151"><ele>152</ele><time>2026-4-28T23:12:19Z</time></trkpt>
<trkpt lat="48.848751068115" lon="2.876211643219"><ele>152</ele><time>2026-4-28T23:12:22Z</time></trkpt>
<trkpt lat="48.848751068115" lon="2.876211643219"><ele>152</ele><time>2026-4-28T23:12:25Z</time></trkpt>
<trkpt lat="48.84880065918" lon="2.8760685920715"><ele>152</ele><time>2026-4-28T23:12:28Z</time></trkpt>
<trkpt lat="48.84884262085" lon="2.875926733017"><ele>152</ele><time>2026-4-28T23:12:31Z</time></trkpt>
<trkpt lat="48.848880767822" lon="2.8757996559143"><ele>151</ele><time>2026-4-28T23:12:34Z</time></trkpt>
<trkpt lat="48.848880767822" lon="2.8757996559143"><ele>151</ele><time>2026-4-28T23:12:37Z</time></trkpt>
<trkpt lat="48.848922729492" lon="2.8756654262543"><ele>150</ele><time>2026-4-28T23:12:40Z</time></trkpt>
<trkpt lat="48.848964691162" lon="2.875527381897"><ele>149</ele><time>2026-4-28T23:12:43Z</time></trkpt>
<trkpt lat="48.849006652832" lon="2.8753845691681"><ele>148</ele><time>2026-4-28T23:12:46Z</time></trkpt>
<trkpt lat="48.849006652832" lon="2.8753845691681"><ele>148</ele><time>2026-4-28T23:12:49Z</time></trkpt>
<trkpt lat="48.849048614502" lon="2.8752508163452"><ele>149</ele><time>2026-4-28T23:12:52Z</time></trkpt>
<trkpt lat="48.849090576172" lon="2.8751137256622"><ele>149</ele><time>2026-4-28T23:12:55Z</time></trkpt>
<trkpt lat="48.849132537842" lon="2.8749792575836"><ele>150</ele><time>2026-4-28T23:12:58Z</time></trkpt>
<trkpt lat="48.849132537842" lon="2.8749792575836"><ele>150</ele><time>2026-4-28T23:13:1Z</time></trkpt>
<trkpt lat="48.849178314209" lon="2.8748426437378"><ele>150</ele><time>2026-4-28T23:13:4Z</time></trkpt>
<trkpt lat="48.849224090576" lon="2.8747091293335"><ele>150</ele><time>2026-4-28T23:13:7Z</time></trkpt>
<trkpt lat="48.849269866943" lon="2.8745744228363"><ele>150</ele><time>2026-4-28T23:13:10Z</time></trkpt>
<trkpt lat="48.849269866943" lon="2.8745744228363"><ele>150</ele><time>2026-4-28T23:13:13Z</time></trkpt>
<trkpt lat="48.849308013916" lon="2.8744506835938"><ele>150</ele><time>2026-4-28T23:13:16Z</time></trkpt>
<trkpt lat="48.849349975586" lon="2.8743245601654"><ele>151</ele><time>2026-4-28T23:13:19Z</time></trkpt>
<trkpt lat="48.849384307861" lon="2.8742079734802"><ele>152</ele><time>2026-4-28T23:13:22Z</time></trkpt>
<trkpt lat="48.849384307861" lon="2.8742079734802"><ele>152</ele><time>2026-4-28T23:13:25Z</time></trkpt>
<trkpt lat="48.849418640137" lon="2.8741016387939"><ele>152</ele><time>2026-4-28T23:13:28Z</time></trkpt>
<trkpt lat="48.849445343018" lon="2.8740136623383"><ele>152</ele><time>2026-4-28T23:13:31Z</time></trkpt>
<trkpt lat="48.849502563477" lon="2.87393450737"><ele>152</ele><time>2026-4-28T23:13:34Z</time></trkpt>
<trkpt lat="48.849502563477" lon="2.87393450737"><ele>152</ele><time>2026-4-28T23:13:37Z</time></trkpt>
<trkpt lat="48.849605560303" lon="2.8739626407623"><ele>152</ele><time>2026-4-28T23:13:40Z</time></trkpt>
<trkpt lat="48.849723815918" lon="2.8739955425262"><ele>152</ele><time>2026-4-28T23:13:43Z</time></trkpt>
<trkpt lat="48.849853515625" lon="2.8740313053131"><ele>151</ele><time>2026-4-28T23:13:46Z</time></trkpt>
<trkpt lat="48.849853515625" lon="2.8740313053131"><ele>151</ele><time>2026-4-28T23:13:49Z</time></trkpt>
<trkpt lat="48.849975585938" lon="2.8740549087524"><ele>151</ele><time>2026-4-28T23:13:52Z</time></trkpt>
<trkpt lat="48.850070953369" lon="2.8740568161011"><ele>149</ele><time>2026-4-28T23:13:55Z</time></trkpt>
<trkpt lat="48.850162506104" lon="2.8740174770355"><ele>146</ele><time>2026-4-28T23:13:58Z</time></trkpt>
<trkpt lat="48.850162506104" lon="2.8740174770355"><ele>146</ele><time>2026-4-28T23:14:1Z</time></trkpt>
<trkpt lat="48.850254058838" lon="2.8739657402039"><ele>145</ele><time>2026-4-28T23:14:4Z</time></trkpt>
<trkpt lat="48.850330352783" lon="2.8738987445831"><ele>144</ele><time>2026-4-28T23:14:7Z</time></trkpt>
<trkpt lat="48.850387573242" lon="2.8738353252411"><ele>144</ele><time>2026-4-28T23:14:10Z</time></trkpt>
<trkpt lat="48.850387573242" lon="2.8738353252411"><ele>144</ele><time>2026-4-28T23:14:13Z</time></trkpt>
<trkpt lat="48.850463867188" lon="2.8737955093384"><ele>143</ele><time>2026-4-28T23:14:16Z</time></trkpt>
<trkpt lat="48.850551605225" lon="2.8737640380859"><ele>143</ele><time>2026-4-28T23:14:19Z</time></trkpt>
<trkpt lat="48.850643157959" lon="2.8737378120422"><ele>142</ele><time>2026-4-28T23:14:22Z</time></trkpt>
<trkpt lat="48.850643157959" lon="2.8737378120422"><ele>142</ele><time>2026-4-28T23:14:25Z</time></trkpt>
<trkpt lat="48.850746154785" lon="2.8737256526947"><ele>141</ele><time>2026-4-28T23:14:28Z</time></trkpt>
<trkpt lat="48.850868225098" lon="2.87371134758"><ele>141</ele><time>2026-4-28T23:14:31Z</time></trkpt>
<trkpt lat="48.850986480713" lon="2.8736908435822"><ele>141</ele><time>2026-4-28T23:14:34Z</time></trkpt>
<trkpt lat="48.850986480713" lon="2.8736908435822"><ele>141</ele><time>2026-4-28T23:14:37Z</time></trkpt>
<trkpt lat="48.851089477539" lon="2.8736569881439"><ele>141</ele><time>2026-4-28T23:14:40Z</time></trkpt>
<trkpt lat="48.851207733154" lon="2.8736042976379"><ele>142</ele><time>2026-4-28T23:14:43Z</time></trkpt>
<trkpt lat="48.85132598877" lon="2.8735370635986"><ele>144</ele><time>2026-4-28T23:14:46Z</time></trkpt>
<trkpt lat="48.85132598877" lon="2.8735370635986"><ele>144</ele><time>2026-4-28T23:14:49Z</time></trkpt>
<trkpt lat="48.851467132568" lon="2.8734469413757"><ele>145</ele><time>2026-4-28T23:14:52Z</time></trkpt>
<trkpt lat="48.851596832275" lon="2.87335729599"><ele>144</ele><time>2026-4-28T23:14:55Z</time></trkpt>
<trkpt lat="48.851715087891" lon="2.8733069896698"><ele>142</ele><time>2026-4-28T23:14:58Z</time></trkpt>
<trkpt lat="48.851715087891" lon="2.8733069896698"><ele>142</ele><time>2026-4-28T23:15:1Z</time></trkpt>
<trkpt lat="48.851821899414" lon="2.8732800483704"><ele>140</ele><time>2026-4-28T23:15:4Z</time></trkpt>
<trkpt lat="48.851947784424" lon="2.8732478618622"><ele>139</ele><time>2026-4-28T23:15:7Z</time></trkpt>
<trkpt lat="48.852088928223" lon="2.8732368946075"><ele>137</ele><time>2026-4-28T23:15:10Z</time></trkpt>
<trkpt lat="48.852088928223" lon="2.8732368946075"><ele>137</ele><time>2026-4-28T23:15:13Z</time></trkpt>
<trkpt lat="48.852214813232" lon="2.8732492923737"><ele>136</ele><time>2026-4-28T23:15:16Z</time></trkpt>
<trkpt lat="48.852344512939" lon="2.87327003479"><ele>137</ele><time>2026-4-28T23:15:19Z</time></trkpt>
<trkpt lat="48.852451324463" lon="2.8732883930206"><ele>137</ele><time>2026-4-28T23:15:22Z</time></trkpt>
<trkpt lat="48.852451324463" lon="2.8732883930206"><ele>137</ele><time>2026-4-28T23:15:25Z</time></trkpt>
<trkpt lat="48.852584838867" lon="2.8733088970184"><ele>137</ele><time>2026-4-28T23:15:28Z</time></trkpt>
<trkpt lat="48.852718353271" lon="2.8733243942261"><ele>137</ele><time>2026-4-28T23:15:31Z</time></trkpt>
<trkpt lat="48.852825164795" lon="2.8733303546906"><ele>137</ele><time>2026-4-28T23:15:34Z</time></trkpt>
<trkpt lat="48.852920532227" lon="2.873316526413"><ele>137</ele><time>2026-4-28T23:15:37Z</time></trkpt>
<trkpt lat="48.853012084961" lon="2.8732869625092"><ele>137</ele><time>2026-4-28T23:15:40Z</time></trkpt>
<trkpt lat="48.853099822998" lon="2.8732581138611"><ele>137</ele><time>2026-4-28T23:15:43Z</time></trkpt>
<trkpt lat="48.853191375732" lon="2.8732190132141"><ele>137</ele><time>2026-4-28T23:15:46Z</time></trkpt>
<trkpt lat="48.853294372559" lon="2.8731553554535"><ele>136</ele><time>2026-4-28T23:15:49Z</time></trkpt>
<trkpt lat="48.853401184082" lon="2.8730835914612"><ele>136</ele><time>2026-4-28T23:15:52Z</time></trkpt>
<trkpt lat="48.853515625" lon="2.8730204105377"><ele>136</ele><time>2026-4-28T23:15:55Z</time></trkpt>
<trkpt lat="48.853652954102" lon="2.8729474544525"><ele>136</ele><time>2026-4-28T23:15:58Z</time></trkpt>
<trkpt lat="48.853797912598" lon="2.8728623390198"><ele>136</ele><time>2026-4-28T23:16:1Z</time></trkpt>
<trkpt lat="48.853916168213" lon="2.8727865219116"><ele>136</ele><time>2026-4-28T23:16:4Z</time></trkpt>
<trkpt lat="48.854030609131" lon="2.8727204799652"><ele>136</ele><time>2026-4-28T23:16:7Z</time></trkpt>
<trkpt lat="48.854118347168" lon="2.8726835250854"><ele>135</ele><time>2026-4-28T23:16:10Z</time></trkpt>
<trkpt lat="48.854198455811" lon="2.87260389328"><ele>135</ele><time>2026-4-28T23:16:13Z</time></trkpt>
<trkpt lat="48.85425567627" lon="2.8725106716156"><ele>136</ele><time>2026-4-28T23:16:16Z</time></trkpt>
<trkpt lat="48.85425567627" lon="2.8725106716156"><ele>136</ele><time>2026-4-28T23:16:19Z</time></trkpt>
<trkpt lat="48.854278564453" lon="2.8723266124725"><ele>136</ele><time>2026-4-28T23:16:22Z</time></trkpt>
<trkpt lat="48.854263305664" lon="2.8722157478333"><ele>136</ele><time>2026-4-28T23:16:25Z</time></trkpt>
<trkpt lat="48.854259490967" lon="2.8721210956573"><ele>136</ele><time>2026-4-28T23:16:28Z</time></trkpt>
<trkpt lat="48.854263305664" lon="2.8720302581787"><ele>137</ele><time>2026-4-28T23:16:31Z</time></trkpt>
<trkpt lat="48.854263305664" lon="2.8720302581787"><ele>137</ele><time>2026-4-28T23:16:34Z</time></trkpt>
<trkpt lat="48.854263305664" lon="2.8718857765198"><ele>137</ele><time>2026-4-28T23:16:37Z</time></trkpt>
<trkpt lat="48.854263305664" lon="2.8718857765198"><ele>137</ele><time>2026-4-28T23:16:40Z</time></trkpt>
<trkpt lat="48.854263305664" lon="2.8718857765198"><ele>137</ele><time>2026-4-28T23:16:43Z</time></trkpt>
<trkpt lat="48.854278564453" lon="2.8717660903931"><ele>137</ele><time>2026-4-28T23:16:46Z</time></trkpt>
<trkpt lat="48.854278564453" lon="2.8717660903931"><ele>137</ele><time>2026-4-28T23:16:49Z</time></trkpt>
<trkpt lat="48.854278564453" lon="2.8717660903931"><ele>137</ele><time>2026-4-28T23:16:52Z</time></trkpt>
<trkpt lat="48.854290008545" lon="2.8716306686401"><ele>138</ele><time>2026-4-28T23:16:55Z</time></trkpt>
<trkpt lat="48.854290008545" lon="2.8716306686401"><ele>138</ele><time>2026-4-28T23:16:58Z</time></trkpt>
<trkpt lat="48.854297637939" lon="2.8714499473572"><ele>138</ele><time>2026-4-28T23:17:1Z</time></trkpt>
<trkpt lat="48.854297637939" lon="2.8714499473572"><ele>138</ele><time>2026-4-28T23:17:4Z</time></trkpt>
<trkpt lat="48.854290008545" lon="2.8713517189026"><ele>138</ele><time>2026-4-28T23:17:7Z</time></trkpt>
<trkpt lat="48.854263305664" lon="2.871200799942"><ele>138</ele><time>2026-4-28T23:17:10Z</time></trkpt>
<trkpt lat="48.854263305664" lon="2.871200799942"><ele>138</ele><time>2026-4-28T23:17:13Z</time></trkpt>
<trkpt lat="48.85424041748" lon="2.8710894584656"><ele>139</ele><time>2026-4-28T23:17:16Z</time></trkpt>
<trkpt lat="48.85424041748" lon="2.8710894584656"><ele>139</ele><time>2026-4-28T23:17:19Z</time></trkpt>
<trkpt lat="48.85424041748" lon="2.8710894584656"><ele>139</ele><time>2026-4-28T23:17:22Z</time></trkpt>
<trkpt lat="48.854217529297" lon="2.8709626197815"><ele>139</ele><time>2026-4-28T23:17:25Z</time></trkpt>
<trkpt lat="48.854217529297" lon="2.8709626197815"><ele>139</ele><time>2026-4-28T23:17:28Z</time></trkpt>
<trkpt lat="48.854202270508" lon="2.8708214759827"><ele>139</ele><time>2026-4-28T23:17:31Z</time></trkpt>
<trkpt lat="48.854202270508" lon="2.8708214759827"><ele>139</ele><time>2026-4-28T23:17:34Z</time></trkpt>
<trkpt lat="48.854202270508" lon="2.8708214759827"><ele>139</ele><time>2026-4-28T23:17:37Z</time></trkpt>
<trkpt lat="48.854209899902" lon="2.8706710338593"><ele>140</ele><time>2026-4-28T23:17:40Z</time></trkpt>
<trkpt lat="48.854209899902" lon="2.8706710338593"><ele>140</ele><time>2026-4-28T23:17:43Z</time></trkpt>
<trkpt lat="48.854225158691" lon="2.8705151081085"><ele>140</ele><time>2026-4-28T23:17:46Z</time></trkpt>
<trkpt lat="48.854244232178" lon="2.8703649044037"><ele>140</ele><time>2026-4-28T23:17:49Z</time></trkpt>
<trkpt lat="48.854244232178" lon="2.8703649044037"><ele>140</ele><time>2026-4-28T23:17:52Z</time></trkpt>
<trkpt lat="48.85425567627" lon="2.8702762126923"><ele>141</ele><time>2026-4-28T23:17:55Z</time></trkpt>
<trkpt lat="48.854267120361" lon="2.8701281547546"><ele>141</ele><time>2026-4-28T23:17:58Z</time></trkpt>
<trkpt lat="48.854267120361" lon="2.8701281547546"><ele>141</ele><time>2026-4-28T23:18:1Z</time></trkpt>
<trkpt lat="48.854278564453" lon="2.8699598312378"><ele>141</ele><time>2026-4-28T23:18:4Z</time></trkpt>
<trkpt lat="48.85428237915" lon="2.8698675632477"><ele>140</ele><time>2026-4-28T23:18:7Z</time></trkpt>
<trkpt lat="48.85428237915" lon="2.8698675632477"><ele>140</ele><time>2026-4-28T23:18:10Z</time></trkpt>
<trkpt lat="48.854286193848" lon="2.8697752952576"><ele>140</ele><time>2026-4-28T23:18:13Z</time></trkpt>
<trkpt lat="48.854290008545" lon="2.869663476944"><ele>140</ele><time>2026-4-28T23:18:16Z</time></trkpt>
<trkpt lat="48.854297637939" lon="2.8695714473724"><ele>140</ele><time>2026-4-28T23:18:19Z</time></trkpt>
<trkpt lat="48.854297637939" lon="2.8695714473724"><ele>140</ele><time>2026-4-28T23:18:22Z</time></trkpt>
<trkpt lat="48.854305267334" lon="2.8694717884064"><ele>140</ele><time>2026-4-28T23:18:25Z</time></trkpt>
<trkpt lat="48.854305267334" lon="2.8693616390228"><ele>140</ele><time>2026-4-28T23:18:28Z</time></trkpt>
<trkpt lat="48.854301452637" lon="2.8692622184753"><ele>140</ele><time>2026-4-28T23:18:31Z</time></trkpt>
<trkpt lat="48.854301452637" lon="2.8692622184753"><ele>140</ele><time>2026-4-28T23:18:34Z</time></trkpt>
<trkpt lat="48.854301452637" lon="2.869170665741"><ele>140</ele><time>2026-4-28T23:18:37Z</time></trkpt>
<trkpt lat="48.854301452637" lon="2.869170665741"><ele>140</ele><time>2026-4-28T23:18:40Z</time></trkpt>
<trkpt lat="48.854301452637" lon="2.8691017627716"><ele>140</ele><time>2026-4-28T23:18:43Z</time></trkpt>
<trkpt lat="48.854301452637" lon="2.8691017627716"><ele>140</ele><time>2026-4-28T23:18:46Z</time></trkpt>
<trkpt lat="48.854297637939" lon="2.8690316677094"><ele>140</ele><time>2026-4-28T23:18:49Z</time></trkpt>
<trkpt lat="48.854293823242" lon="2.868953704834"><ele>141</ele><time>2026-4-28T23:18:52Z</time></trkpt>
<trkpt lat="48.854290008545" lon="2.8688626289368"><ele>141</ele><time>2026-4-28T23:18:55Z</time></trkpt>
<trkpt lat="48.854290008545" lon="2.8688626289368"><ele>141</ele><time>2026-4-28T23:18:58Z</time></trkpt>
<trkpt lat="48.854290008545" lon="2.868763923645"><ele>141</ele><time>2026-4-28T23:19:1Z</time></trkpt>
<trkpt lat="48.854293823242" lon="2.8685653209686"><ele>141</ele><time>2026-4-28T23:19:4Z</time></trkpt>
<trkpt lat="48.854293823242" lon="2.8685653209686"><ele>141</ele><time>2026-4-28T23:19:7Z</time></trkpt>
<trkpt lat="48.854312896729" lon="2.8683831691742"><ele>142</ele><time>2026-4-28T23:19:10Z</time></trkpt>
<trkpt lat="48.854320526123" lon="2.8682894706726"><ele>142</ele><time>2026-4-28T23:19:13Z</time></trkpt>
<trkpt lat="48.854331970215" lon="2.8681955337524"><ele>142</ele><time>2026-4-28T23:19:16Z</time></trkpt>
<trkpt lat="48.854331970215" lon="2.8681955337524"><ele>142</ele><time>2026-4-28T23:19:19Z</time></trkpt>
<trkpt lat="48.854339599609" lon="2.8681049346924"><ele>143</ele><time>2026-4-28T23:19:22Z</time></trkpt>
<trkpt lat="48.854347229004" lon="2.8680183887482"><ele>143</ele><time>2026-4-28T23:19:25Z</time></trkpt>
<trkpt lat="48.854347229004" lon="2.8680183887482"><ele>143</ele><time>2026-4-28T23:19:28Z</time></trkpt>
<trkpt lat="48.854347229004" lon="2.8680183887482"><ele>143</ele><time>2026-4-28T23:19:31Z</time></trkpt>
<trkpt lat="48.85436630249" lon="2.867858171463"><ele>144</ele><time>2026-4-28T23:19:34Z</time></trkpt>
<trkpt lat="48.85436630249" lon="2.867858171463"><ele>144</ele><time>2026-4-28T23:19:37Z</time></trkpt>
<trkpt lat="48.854393005371" lon="2.8676981925964"><ele>145</ele><time>2026-4-28T23:19:40Z</time></trkpt>
<trkpt lat="48.854393005371" lon="2.8676981925964"><ele>145</ele><time>2026-4-28T23:19:43Z</time></trkpt>
<trkpt lat="48.854393005371" lon="2.8676981925964"><ele>145</ele><time>2026-4-28T23:19:46Z</time></trkpt>
<trkpt lat="48.854427337646" lon="2.8675558567047"><ele>146</ele><time>2026-4-28T23:19:49Z</time></trkpt>
<trkpt lat="48.854427337646" lon="2.8675558567047"><ele>146</ele><time>2026-4-28T23:19:52Z</time></trkpt>
<trkpt lat="48.854427337646" lon="2.8675558567047"><ele>146</ele><time>2026-4-28T23:19:55Z</time></trkpt>
<trkpt lat="48.854476928711" lon="2.8674194812775"><ele>146</ele><time>2026-4-28T23:19:58Z</time></trkpt>
<trkpt lat="48.854496002197" lon="2.867338180542"><ele>146</ele><time>2026-4-28T23:20:1Z</time></trkpt>
<trkpt lat="48.854518890381" lon="2.8672456741333"><ele>146</ele><time>2026-4-28T23:20:4Z</time></trkpt>
<trkpt lat="48.854518890381" lon="2.8672456741333"><ele>146</ele><time>2026-4-28T23:20:7Z</time></trkpt>
<trkpt lat="48.85453414917" lon="2.8671486377716"><ele>146</ele><time>2026-4-28T23:20:10Z</time></trkpt>
<trkpt lat="48.854549407959" lon="2.867050409317"><ele>146</ele><time>2026-4-28T23:20:13Z</time></trkpt>
<trkpt lat="48.854564666748" lon="2.8669550418854"><ele>146</ele><time>2026-4-28T23:20:16Z</time></trkpt>
<trkpt lat="48.854564666748" lon="2.8669550418854"><ele>146</ele><time>2026-4-28T23:20:19Z</time></trkpt>
<trkpt lat="48.854591369629" lon="2.8668465614319"><ele>147</ele><time>2026-4-28T23:20:22Z</time></trkpt>
<trkpt lat="48.854614257812" lon="2.8667497634888"><ele>147</ele><time>2026-4-28T23:20:25Z</time></trkpt>
<trkpt lat="48.854637145996" lon="2.8666458129883"><ele>147</ele><time>2026-4-28T23:20:28Z</time></trkpt>
<trkpt lat="48.854637145996" lon="2.8666458129883"><ele>147</ele><time>2026-4-28T23:20:31Z</time></trkpt>
<trkpt lat="48.854656219482" lon="2.8665456771851"><ele>147</ele><time>2026-4-28T23:20:34Z</time></trkpt>
<trkpt lat="48.854671478271" lon="2.8664402961731"><ele>148</ele><time>2026-4-28T23:20:37Z</time></trkpt>
<trkpt lat="48.854686737061" lon="2.8663313388824"><ele>148</ele><time>2026-4-28T23:20:40Z</time></trkpt>
<trkpt lat="48.854705810547" lon="2.8662116527557"><ele>148</ele><time>2026-4-28T23:20:43Z</time></trkpt>
<trkpt lat="48.854724884033" lon="2.8661198616028"><ele>149</ele><time>2026-4-28T23:20:46Z</time></trkpt>
<trkpt lat="48.854740142822" lon="2.8660237789154"><ele>149</ele><time>2026-4-28T23:20:49Z</time></trkpt>
<trkpt lat="48.854755401611" lon="2.8659327030182"><ele>149</ele><time>2026-4-28T23:20:52Z</time></trkpt>
<trkpt lat="48.8547706604" lon="2.865832567215"><ele>149</ele><time>2026-4-28T23:20:55Z</time></trkpt>
<trkpt lat="48.854785919189" lon="2.8657252788544"><ele>150</ele><time>2026-4-28T23:20:58Z</time></trkpt>
<trkpt lat="48.854797363281" lon="2.8656320571899"><ele>150</ele><time>2026-4-28T23:21:1Z</time></trkpt>
<trkpt lat="48.85481262207" lon="2.8655397891998"><ele>150</ele><time>2026-4-28T23:21:4Z</time></trkpt>
<trkpt lat="48.854824066162" lon="2.8654549121857"><ele>151</ele><time>2026-4-28T23:21:7Z</time></trkpt>
<trkpt lat="48.854831695557" lon="2.8653647899628"><ele>151</ele><time>2026-4-28T23:21:10Z</time></trkpt>
<trkpt lat="48.854831695557" lon="2.8653647899628"><ele>151</ele><time>2026-4-28T23:21:13Z</time></trkpt>
<trkpt lat="48.854846954346" lon="2.8652107715607"><ele>152</ele><time>2026-4-28T23:21:16Z</time></trkpt>
<trkpt lat="48.854846954346" lon="2.8652107715607"><ele>152</ele><time>2026-4-28T23:21:19Z</time></trkpt>
<trkpt lat="48.85485458374" lon="2.8650314807892"><ele>153</ele><time>2026-4-28T23:21:22Z</time></trkpt>
<trkpt lat="48.854866027832" lon="2.8649344444275"><ele>153</ele><time>2026-4-28T23:21:25Z</time></trkpt>
<trkpt lat="48.854866027832" lon="2.8649344444275"><ele>153</ele><time>2026-4-28T23:21:28Z</time></trkpt>
<trkpt lat="48.854923248291" lon="2.8648126125336"><ele>153</ele><time>2026-4-28T23:21:31Z</time></trkpt>
<trkpt lat="48.854923248291" lon="2.8648126125336"><ele>153</ele><time>2026-4-28T23:21:34Z</time></trkpt>
<trkpt lat="48.855003356934" lon="2.8647148609161"><ele>154</ele><time>2026-4-28T23:21:37Z</time></trkpt>
<trkpt lat="48.855003356934" lon="2.8647148609161"><ele>154</ele><time>2026-4-28T23:21:40Z</time></trkpt>
<trkpt lat="48.855068206787" lon="2.8646640777588"><ele>154</ele><time>2026-4-28T23:21:43Z</time></trkpt>
<trkpt lat="48.855068206787" lon="2.8646640777588"><ele>154</ele><time>2026-4-28T23:21:46Z</time></trkpt>
<trkpt lat="48.855121612549" lon="2.8645992279053"><ele>155</ele><time>2026-4-28T23:21:49Z</time></trkpt>
<trkpt lat="48.855121612549" lon="2.8645992279053"><ele>155</ele><time>2026-4-28T23:21:52Z</time></trkpt>
<trkpt lat="48.855175018311" lon="2.8645317554474"><ele>155</ele><time>2026-4-28T23:21:55Z</time></trkpt>
<trkpt lat="48.855175018311" lon="2.8645317554474"><ele>155</ele><time>2026-4-28T23:21:58Z</time></trkpt>
<trkpt lat="48.85523223877" lon="2.8644654750824"><ele>156</ele><time>2026-4-28T23:22:1Z</time></trkpt>
<trkpt lat="48.85523223877" lon="2.8644654750824"><ele>156</ele><time>2026-4-28T23:22:4Z</time></trkpt>
<trkpt lat="48.855278015137" lon="2.8643789291382"><ele>156</ele><time>2026-4-28T23:22:7Z</time></trkpt>
<trkpt lat="48.855278015137" lon="2.8643789291382"><ele>156</ele><time>2026-4-28T23:22:10Z</time></trkpt>
<trkpt lat="48.855319976807" lon="2.8642821311951"><ele>157</ele><time>2026-4-28T23:22:13Z</time></trkpt>
<trkpt lat="48.855381011963" lon="2.8641767501831"><ele>158</ele><time>2026-4-28T23:22:16Z</time></trkpt>
<trkpt lat="48.855381011963" lon="2.8641767501831"><ele>158</ele><time>2026-4-28T23:22:19Z</time></trkpt>
<trkpt lat="48.855430603027" lon="2.8641006946564"><ele>158</ele><time>2026-4-28T23:22:22Z</time></trkpt>
<trkpt lat="48.855430603027" lon="2.8641006946564"><ele>158</ele><time>2026-4-28T23:22:25Z</time></trkpt>
<trkpt lat="48.855495452881" lon="2.8640029430389"><ele>159</ele><time>2026-4-28T23:22:28Z</time></trkpt>
<trkpt lat="48.855495452881" lon="2.8640029430389"><ele>159</ele><time>2026-4-28T23:22:31Z</time></trkpt>
<trkpt lat="48.85555267334" lon="2.8639185428619"><ele>159</ele><time>2026-4-28T23:22:34Z</time></trkpt>
<trkpt lat="48.85555267334" lon="2.8639185428619"><ele>159</ele><time>2026-4-28T23:22:37Z</time></trkpt>
<trkpt lat="48.85555267334" lon="2.8639185428619"><ele>159</ele><time>2026-4-28T23:22:40Z</time></trkpt>
<trkpt lat="48.85555267334" lon="2.8639185428619"><ele>159</ele><time>2026-4-28T23:22:43Z</time></trkpt>
<trkpt lat="48.85555267334" lon="2.8639185428619"><ele>159</ele><time>2026-4-28T23:22:46Z</time></trkpt>
<trkpt lat="48.85555267334" lon="2.8639185428619"><ele>159</ele><time>2026-4-28T23:22:49Z</time></trkpt>
<trkpt lat="48.85555267334" lon="2.8639185428619"><ele>159</ele><time>2026-4-28T23:22:52Z</time></trkpt>
<trkpt lat="48.855640411377" lon="2.8638997077942"><ele>162</ele><time>2026-4-28T23:22:55Z</time></trkpt>
<trkpt lat="48.855640411377" lon="2.8638997077942"><ele>162</ele><time>2026-4-28T23:22:58Z</time></trkpt>
<trkpt lat="48.855640411377" lon="2.8638997077942"><ele>162</ele><time>2026-4-28T23:23:1Z</time></trkpt>
<trkpt lat="48.85572052002" lon="2.8639788627625"><ele>162</ele><time>2026-4-28T23:23:4Z</time></trkpt>
<trkpt lat="48.85572052002" lon="2.8639788627625"><ele>162</ele><time>2026-4-28T23:23:7Z</time></trkpt>
<trkpt lat="48.855812072754" lon="2.8639941215515"><ele>163</ele><time>2026-4-28T23:23:10Z</time></trkpt>
<trkpt lat="48.855854034424" lon="2.863879442215"><ele>164</ele><time>2026-4-28T23:23:13Z</time></trkpt>
<trkpt lat="48.855854034424" lon="2.863879442215"><ele>164</ele><time>2026-4-28T23:23:16Z</time></trkpt>
<trkpt lat="48.855857849121" lon="2.8637199401855"><ele>164</ele><time>2026-4-28T23:23:19Z</time></trkpt>
<trkpt lat="48.85587310791" lon="2.8636083602905"><ele>164</ele><time>2026-4-28T23:23:22Z</time></trkpt>
<trkpt lat="48.85587310791" lon="2.8636083602905"><ele>164</ele><time>2026-4-28T23:23:25Z</time></trkpt>
<trkpt lat="48.855903625488" lon="2.8634970188141"><ele>164</ele><time>2026-4-28T23:23:28Z</time></trkpt>
<trkpt lat="48.855930328369" lon="2.8634021282196"><ele>165</ele><time>2026-4-28T23:23:31Z</time></trkpt>
<trkpt lat="48.855964660645" lon="2.8633086681366"><ele>165</ele><time>2026-4-28T23:23:34Z</time></trkpt>
<trkpt lat="48.855964660645" lon="2.8633086681366"><ele>165</ele><time>2026-4-28T23:23:37Z</time></trkpt>
<trkpt lat="48.855991363525" lon="2.863224029541"><ele>165</ele><time>2026-4-28T23:23:40Z</time></trkpt>
<trkpt lat="48.856033325195" lon="2.8631255626678"><ele>165</ele><time>2026-4-28T23:23:43Z</time></trkpt>
<trkpt lat="48.856075286865" lon="2.8630471229553"><ele>165</ele><time>2026-4-28T23:23:46Z</time></trkpt>
<trkpt lat="48.856075286865" lon="2.8630471229553"><ele>165</ele><time>2026-4-28T23:23:49Z</time></trkpt>
<trkpt lat="48.856075286865" lon="2.8630471229553"><ele>165</ele><time>2026-4-28T23:23:52Z</time></trkpt>
<trkpt lat="48.856132507324" lon="2.8629376888275"><ele>165</ele><time>2026-4-28T23:23:55Z</time></trkpt>
<trkpt lat="48.856132507324" lon="2.8629376888275"><ele>165</ele><time>2026-4-28T23:23:58Z</time></trkpt>
<trkpt lat="48.856132507324" lon="2.8629376888275"><ele>165</ele><time>2026-4-28T23:24:1Z</time></trkpt>
<trkpt lat="48.856204986572" lon="2.8627970218658"><ele>166</ele><time>2026-4-28T23:24:4Z</time></trkpt>
<trkpt lat="48.856204986572" lon="2.8627970218658"><ele>166</ele><time>2026-4-28T23:24:7Z</time></trkpt>
<trkpt lat="48.856258392334" lon="2.86266040802"><ele>166</ele><time>2026-4-28T23:24:10Z</time></trkpt>
<trkpt lat="48.856258392334" lon="2.86266040802"><ele>166</ele><time>2026-4-28T23:24:13Z</time></trkpt>
<trkpt lat="48.856258392334" lon="2.86266040802"><ele>166</ele><time>2026-4-28T23:24:16Z</time></trkpt>
<trkpt lat="48.856258392334" lon="2.86266040802"><ele>166</ele><time>2026-4-28T23:24:19Z</time></trkpt>
<trkpt lat="48.856258392334" lon="2.86266040802"><ele>166</ele><time>2026-4-28T23:24:22Z</time></trkpt>
<trkpt lat="48.856258392334" lon="2.86266040802"><ele>166</ele><time>2026-4-28T23:24:25Z</time></trkpt>
<trkpt lat="48.856258392334" lon="2.86266040802"><ele>166</ele><time>2026-4-28T23:24:28Z</time></trkpt>
<trkpt lat="48.856288909912" lon="2.8626139163971"><ele>167</ele><time>2026-4-28T23:24:31Z</time></trkpt>
<trkpt lat="48.856288909912" lon="2.8626139163971"><ele>167</ele><time>2026-4-28T23:24:34Z</time></trkpt>
<trkpt lat="48.856327056885" lon="2.8625626564026"><ele>167</ele><time>2026-4-28T23:24:37Z</time></trkpt>
<trkpt lat="48.856369018555" lon="2.8625087738037"><ele>167</ele><time>2026-4-28T23:24:40Z</time></trkpt>
<trkpt lat="48.856414794922" lon="2.8624458312988"><ele>167</ele><time>2026-4-28T23:24:43Z</time></trkpt>
<trkpt lat="48.856414794922" lon="2.8624458312988"><ele>167</ele><time>2026-4-28T23:24:46Z</time></trkpt>
<trkpt lat="48.856475830078" lon="2.8623707294464"><ele>168</ele><time>2026-4-28T23:24:49Z</time></trkpt>
<trkpt lat="48.856597900391" lon="2.8622176647186"><ele>169</ele><time>2026-4-28T23:24:52Z</time></trkpt>
<trkpt lat="48.856651306152" lon="2.8621423244476"><ele>170</ele><time>2026-4-28T23:24:55Z</time></trkpt>
<trkpt lat="48.856651306152" lon="2.8621423244476"><ele>170</ele><time>2026-4-28T23:24:58Z</time></trkpt>
<trkpt lat="48.856708526611" lon="2.8620617389679"><ele>170</ele><time>2026-4-28T23:25:1Z</time></trkpt>
<trkpt lat="48.856777191162" lon="2.8619749546051"><ele>170</ele><time>2026-4-28T23:25:4Z</time></trkpt>
<trkpt lat="48.85684967041" lon="2.861888885498"><ele>170</ele><time>2026-4-28T23:25:7Z</time></trkpt>
<trkpt lat="48.85684967041" lon="2.861888885498"><ele>170</ele><time>2026-4-28T23:25:10Z</time></trkpt>
<trkpt lat="48.856914520264" lon="2.861802816391"><ele>170</ele><time>2026-4-28T23:25:13Z</time></trkpt>
<trkpt lat="48.856983184814" lon="2.8617129325867"><ele>171</ele><time>2026-4-28T23:25:16Z</time></trkpt>
<trkpt lat="48.857036590576" lon="2.8616232872009"><ele>172</ele><time>2026-4-28T23:25:19Z</time></trkpt>
<trkpt lat="48.857036590576" lon="2.8616232872009"><ele>172</ele><time>2026-4-28T23:25:22Z</time></trkpt>
<trkpt lat="48.857086181641" lon="2.8615248203278"><ele>172</ele><time>2026-4-28T23:25:25Z</time></trkpt>
<trkpt lat="48.857147216797" lon="2.8614087104797"><ele>173</ele><time>2026-4-28T23:25:28Z</time></trkpt>
<trkpt lat="48.857196807861" lon="2.8613133430481"><ele>173</ele><time>2026-4-28T23:25:31Z</time></trkpt>
<trkpt lat="48.857196807861" lon="2.8613133430481"><ele>173</ele><time>2026-4-28T23:25:34Z</time></trkpt>
<trkpt lat="48.857246398926" lon="2.8612308502197"><ele>173</ele><time>2026-4-28T23:25:37Z</time></trkpt>
<trkpt lat="48.857292175293" lon="2.8611764907837"><ele>173</ele><time>2026-4-28T23:25:40Z</time></trkpt>
<trkpt lat="48.857349395752" lon="2.8611958026886"><ele>173</ele><time>2026-4-28T23:25:43Z</time></trkpt>
<trkpt lat="48.857349395752" lon="2.8611958026886"><ele>173</ele><time>2026-4-28T23:25:46Z</time></trkpt>
<trkpt lat="48.857395172119" lon="2.8612735271454"><ele>173</ele><time>2026-4-28T23:25:49Z</time></trkpt>
<trkpt lat="48.857437133789" lon="2.8613450527191"><ele>173</ele><time>2026-4-28T23:25:52Z</time></trkpt>
<trkpt lat="48.857482910156" lon="2.8614208698273"><ele>173</ele><time>2026-4-28T23:25:55Z</time></trkpt>
<trkpt lat="48.857482910156" lon="2.8614208698273"><ele>173</ele><time>2026-4-28T23:25:58Z</time></trkpt>
<trkpt lat="48.857543945312" lon="2.8614954948425"><ele>173</ele><time>2026-4-28T23:26:1Z</time></trkpt>
<trkpt lat="48.857627868652" lon="2.8615753650665"><ele>171</ele><time>2026-4-28T23:26:4Z</time></trkpt>
<trkpt lat="48.857707977295" lon="2.8616526126862"><ele>169</ele><time>2026-4-28T23:26:7Z</time></trkpt>
<trkpt lat="48.857707977295" lon="2.8616526126862"><ele>169</ele><time>2026-4-28T23:26:10Z</time></trkpt>
<trkpt lat="48.857791900635" lon="2.8617260456085"><ele>168</ele><time>2026-4-28T23:26:13Z</time></trkpt>
<trkpt lat="48.857879638672" lon="2.861811876297"><ele>166</ele><time>2026-4-28T23:26:16Z</time></trkpt>
<trkpt lat="48.857971191406" lon="2.8619174957275"><ele>165</ele><time>2026-4-28T23:26:19Z</time></trkpt>
<trkpt lat="48.857971191406" lon="2.8619174957275"><ele>165</ele><time>2026-4-28T23:26:22Z</time></trkpt>
<trkpt lat="48.858055114746" lon="2.8620247840881"><ele>164</ele><time>2026-4-28T23:26:25Z</time></trkpt>
<trkpt lat="48.858154296875" lon="2.8621232509613"><ele>164</ele><time>2026-4-28T23:26:28Z</time></trkpt>
<trkpt lat="48.858253479004" lon="2.8622288703918"><ele>164</ele><time>2026-4-28T23:26:31Z</time></trkpt>
<trkpt lat="48.858253479004" lon="2.8622288703918"><ele>164</ele><time>2026-4-28T23:26:34Z</time></trkpt>
<trkpt lat="48.858345031738" lon="2.862321138382"><ele>163</ele><time>2026-4-28T23:26:37Z</time></trkpt>
<trkpt lat="48.858432769775" lon="2.8624215126038"><ele>163</ele><time>2026-4-28T23:26:40Z</time></trkpt>
<trkpt lat="48.858520507812" lon="2.8625004291534"><ele>163</ele><time>2026-4-28T23:26:43Z</time></trkpt>
<trkpt lat="48.858520507812" lon="2.8625004291534"><ele>163</ele><time>2026-4-28T23:26:46Z</time></trkpt>
<trkpt lat="48.85863494873" lon="2.8625550270081"><ele>163</ele><time>2026-4-28T23:26:49Z</time></trkpt>
<trkpt lat="48.858745574951" lon="2.8626394271851"><ele>161</ele><time>2026-4-28T23:26:52Z</time></trkpt>
<trkpt lat="48.858852386475" lon="2.8627240657806"><ele>161</ele><time>2026-4-28T23:26:55Z</time></trkpt>
<trkpt lat="48.858852386475" lon="2.8627240657806"><ele>161</ele><time>2026-4-28T23:26:58Z</time></trkpt>
<trkpt lat="48.858947753906" lon="2.8628084659576"><ele>160</ele><time>2026-4-28T23:27:1Z</time></trkpt>
<trkpt lat="48.859066009521" lon="2.862877368927"><ele>159</ele><time>2026-4-28T23:27:4Z</time></trkpt>
<trkpt lat="48.85916519165" lon="2.8629341125488"><ele>157</ele><time>2026-4-28T23:27:7Z</time></trkpt>
<trkpt lat="48.85916519165" lon="2.8629341125488"><ele>157</ele><time>2026-4-28T23:27:10Z</time></trkpt>
<trkpt lat="48.859252929688" lon="2.8629877567291"><ele>157</ele><time>2026-4-28T23:27:13Z</time></trkpt>
<trkpt lat="48.859329223633" lon="2.8630523681641"><ele>157</ele><time>2026-4-28T23:27:16Z</time></trkpt>
<trkpt lat="48.859329223633" lon="2.8630523681641"><ele>157</ele><time>2026-4-28T23:27:19Z</time></trkpt>
<trkpt lat="48.859329223633" lon="2.8630523681641"><ele>157</ele><time>2026-4-28T23:27:22Z</time></trkpt>
<trkpt lat="48.859401702881" lon="2.8631227016449"><ele>157</ele><time>2026-4-28T23:27:25Z</time></trkpt>
<trkpt lat="48.859401702881" lon="2.8631227016449"><ele>157</ele><time>2026-4-28T23:27:28Z</time></trkpt>
<trkpt lat="48.859497070312" lon="2.8630709648132"><ele>157</ele><time>2026-4-28T23:27:31Z</time></trkpt>
<trkpt lat="48.859497070312" lon="2.8630709648132"><ele>157</ele><time>2026-4-28T23:27:34Z</time></trkpt>
<trkpt lat="48.859539031982" lon="2.8629894256592"><ele>157</ele><time>2026-4-28T23:27:37Z</time></trkpt>
<trkpt lat="48.859580993652" lon="2.8628947734833"><ele>157</ele><time>2026-4-28T23:27:40Z</time></trkpt>
<trkpt lat="48.859619140625" lon="2.8627893924713"><ele>158</ele><time>2026-4-28T23:27:43Z</time></trkpt>
<trkpt lat="48.859619140625" lon="2.8627893924713"><ele>158</ele><time>2026-4-28T23:27:46Z</time></trkpt>
<trkpt lat="48.859657287598" lon="2.8626916408539"><ele>158</ele><time>2026-4-28T23:27:49Z</time></trkpt>
<trkpt lat="48.859691619873" lon="2.8625991344452"><ele>158</ele><time>2026-4-28T23:27:52Z</time></trkpt>
<trkpt lat="48.859722137451" lon="2.8625082969666"><ele>158</ele><time>2026-4-28T23:27:55Z</time></trkpt>
<trkpt lat="48.859722137451" lon="2.8625082969666"><ele>158</ele><time>2026-4-28T23:27:58Z</time></trkpt>
<trkpt lat="48.859756469727" lon="2.8624329566956"><ele>159</ele><time>2026-4-28T23:28:1Z</time></trkpt>
<trkpt lat="48.859798431396" lon="2.8623671531677"><ele>159</ele><time>2026-4-28T23:28:4Z</time></trkpt>
<trkpt lat="48.859859466553" lon="2.8623435497284"><ele>159</ele><time>2026-4-28T23:28:7Z</time></trkpt>
<trkpt lat="48.859943389893" lon="2.8623909950256"><ele>159</ele><time>2026-4-28T23:28:10Z</time></trkpt>
<trkpt lat="48.860019683838" lon="2.8624722957611"><ele>159</ele><time>2026-4-28T23:28:13Z</time></trkpt>
<trkpt lat="48.86009979248" lon="2.8625707626343"><ele>159</ele><time>2026-4-28T23:28:16Z</time></trkpt>
<trkpt lat="48.860176086426" lon="2.8626720905304"><ele>159</ele><time>2026-4-28T23:28:19Z</time></trkpt>
<trkpt lat="48.860244750977" lon="2.8627777099609"><ele>159</ele><time>2026-4-28T23:28:22Z</time></trkpt>
<trkpt lat="48.860343933105" lon="2.8628726005554"><ele>158</ele><time>2026-4-28T23:28:25Z</time></trkpt>
<trkpt lat="48.86043548584" lon="2.8629443645477"><ele>157</ele><time>2026-4-28T23:28:28Z</time></trkpt>
<trkpt lat="48.860523223877" lon="2.8629002571106"><ele>157</ele><time>2026-4-28T23:28:31Z</time></trkpt>
<trkpt lat="48.86060333252" lon="2.8628225326538"><ele>157</ele><time>2026-4-28T23:28:34Z</time></trkpt>
<trkpt lat="48.860668182373" lon="2.8627283573151"><ele>157</ele><time>2026-4-28T23:28:37Z</time></trkpt>
<trkpt lat="48.860721588135" lon="2.8625893592834"><ele>157</ele><time>2026-4-28T23:28:40Z</time></trkpt>
<trkpt lat="48.860763549805" lon="2.862461566925"><ele>159</ele><time>2026-4-28T23:28:43Z</time></trkpt>
<trkpt lat="48.860832214355" lon="2.8623106479645"><ele>159</ele><time>2026-4-28T23:28:46Z</time></trkpt>
<trkpt lat="48.860885620117" lon="2.8621735572815"><ele>159</ele><time>2026-4-28T23:28:49Z</time></trkpt>
<trkpt lat="48.860935211182" lon="2.862033367157"><ele>159</ele><time>2026-4-28T23:28:52Z</time></trkpt>
<trkpt lat="48.860977172852" lon="2.8618955612183"><ele>159</ele><time>2026-4-28T23:28:55Z</time></trkpt>
<trkpt lat="48.861011505127" lon="2.8617641925812"><ele>157</ele><time>2026-4-28T23:28:58Z</time></trkpt>
<trkpt lat="48.8610496521" lon="2.8616273403168"><ele>156</ele><time>2026-4-28T23:29:1Z</time></trkpt>
<trkpt lat="48.86107635498" lon="2.8614928722382"><ele>156</ele><time>2026-4-28T23:29:4Z</time></trkpt>
<trkpt lat="48.861110687256" lon="2.8613421916962"><ele>156</ele><time>2026-4-28T23:29:7Z</time></trkpt>
<trkpt lat="48.861133575439" lon="2.8611860275269"><ele>155</ele><time>2026-4-28T23:29:10Z</time></trkpt>
<trkpt lat="48.861167907715" lon="2.8610587120056"><ele>156</ele><time>2026-4-28T23:29:13Z</time></trkpt>
<trkpt lat="48.861206054688" lon="2.8609602451324"><ele>156</ele><time>2026-4-28T23:29:16Z</time></trkpt>
<trkpt lat="48.861255645752" lon="2.8608546257019"><ele>157</ele><time>2026-4-28T23:29:19Z</time></trkpt>
<trkpt lat="48.861309051514" lon="2.860746383667"><ele>157</ele><time>2026-4-28T23:29:22Z</time></trkpt>
<trkpt lat="48.861309051514" lon="2.860746383667"><ele>157</ele><time>2026-4-28T23:29:25Z</time></trkpt>
<trkpt lat="48.861400604248" lon="2.8606398105621"><ele>157</ele><time>2026-4-28T23:29:28Z</time></trkpt>
<trkpt lat="48.86145401001" lon="2.860586643219"><ele>158</ele><time>2026-4-28T23:29:31Z</time></trkpt>
<trkpt lat="48.861526489258" lon="2.8605513572693"><ele>158</ele><time>2026-4-28T23:29:34Z</time></trkpt>
<trkpt lat="48.861526489258" lon="2.8605513572693"><ele>158</ele><time>2026-4-28T23:29:37Z</time></trkpt>
<trkpt lat="48.861621856689" lon="2.8605663776398"><ele>158</ele><time>2026-4-28T23:29:40Z</time></trkpt>
<trkpt lat="48.861621856689" lon="2.8605663776398"><ele>158</ele><time>2026-4-28T23:29:43Z</time></trkpt>
<trkpt lat="48.861698150635" lon="2.8606452941895"><ele>159</ele><time>2026-4-28T23:29:46Z</time></trkpt>
<trkpt lat="48.861698150635" lon="2.8606452941895"><ele>159</ele><time>2026-4-28T23:29:49Z</time></trkpt>
<trkpt lat="48.861698150635" lon="2.8606452941895"><ele>159</ele><time>2026-4-28T23:29:52Z</time></trkpt>
<trkpt lat="48.861698150635" lon="2.8606452941895"><ele>159</ele><time>2026-4-28T23:29:55Z</time></trkpt>
<trkpt lat="48.861698150635" lon="2.8606452941895"><ele>159</ele><time>2026-4-28T23:29:58Z</time></trkpt>
<trkpt lat="48.861698150635" lon="2.8606452941895"><ele>159</ele><time>2026-4-28T23:30:1Z</time></trkpt>
<trkpt lat="48.861698150635" lon="2.8606452941895"><ele>159</ele><time>2026-4-28T23:30:4Z</time></trkpt>
<trkpt lat="48.861698150635" lon="2.8606452941895"><ele>159</ele><time>2026-4-28T23:30:7Z</time></trkpt>
<trkpt lat="48.861698150635" lon="2.8606452941895"><ele>159</ele><time>2026-4-28T23:30:10Z</time></trkpt>
<trkpt lat="48.861698150635" lon="2.8606452941895"><ele>159</ele><time>2026-4-28T23:30:13Z</time></trkpt>
<trkpt lat="48.861698150635" lon="2.8606452941895"><ele>159</ele><time>2026-4-28T23:30:16Z</time></trkpt>
<trkpt lat="48.861698150635" lon="2.8606452941895"><ele>159</ele><time>2026-4-28T23:30:19Z</time></trkpt>
<trkpt lat="48.861698150635" lon="2.8606452941895"><ele>159</ele><time>2026-4-28T23:30:22Z</time></trkpt>
<trkpt lat="48.861698150635" lon="2.8606452941895"><ele>159</ele><time>2026-4-28T23:30:25Z</time></trkpt>
<trkpt lat="48.861698150635" lon="2.8606452941895"><ele>159</ele><time>2026-4-28T23:30:28Z</time></trkpt>
<trkpt lat="48.861698150635" lon="2.8606452941895"><ele>159</ele><time>2026-4-28T23:30:31Z</time></trkpt>
<trkpt lat="48.861843109131" lon="2.8604955673218"><ele>163</ele><time>2026-4-28T23:30:34Z</time></trkpt>
<trkpt lat="48.861930847168" lon="2.8604083061218"><ele>164</ele><time>2026-4-28T23:30:37Z</time></trkpt>
<trkpt lat="48.861995697021" lon="2.8603477478027"><ele>164</ele><time>2026-4-28T23:30:40Z</time></trkpt>
<trkpt lat="48.861995697021" lon="2.8603477478027"><ele>164</ele><time>2026-4-28T23:30:43Z</time></trkpt>
<trkpt lat="48.86205291748" lon="2.8603010177612"><ele>164</ele><time>2026-4-28T23:30:46Z</time></trkpt>
<trkpt lat="48.862113952637" lon="2.8602542877197"><ele>164</ele><time>2026-4-28T23:30:49Z</time></trkpt>
<trkpt lat="48.862209320068" lon="2.8601353168488"><ele>164</ele><time>2026-4-28T23:30:52Z</time></trkpt>
<trkpt lat="48.862209320068" lon="2.8601353168488"><ele>164</ele><time>2026-4-28T23:30:55Z</time></trkpt>
<trkpt lat="48.862258911133" lon="2.8599791526794"><ele>164</ele><time>2026-4-28T23:30:58Z</time></trkpt>
<trkpt lat="48.862258911133" lon="2.8599791526794"><ele>164</ele><time>2026-4-28T23:31:1Z</time></trkpt>
<trkpt lat="48.862308502197" lon="2.8598258495331"><ele>164</ele><time>2026-4-28T23:31:4Z</time></trkpt>
<trkpt lat="48.86238861084" lon="2.8597130775452"><ele>164</ele><time>2026-4-28T23:31:7Z</time></trkpt>
<trkpt lat="48.86238861084" lon="2.8597130775452"><ele>164</ele><time>2026-4-28T23:31:10Z</time></trkpt>
<trkpt lat="48.862434387207" lon="2.8596498966217"><ele>164</ele><time>2026-4-28T23:31:13Z</time></trkpt>
<trkpt lat="48.862483978271" lon="2.859587430954"><ele>164</ele><time>2026-4-28T23:31:16Z</time></trkpt>
<trkpt lat="48.862483978271" lon="2.859587430954"><ele>164</ele><time>2026-4-28T23:31:19Z</time></trkpt>
<trkpt lat="48.86255645752" lon="2.8594975471497"><ele>164</ele><time>2026-4-28T23:31:22Z</time></trkpt>
<trkpt lat="48.86255645752" lon="2.8594975471497"><ele>164</ele><time>2026-4-28T23:31:25Z</time></trkpt>
<trkpt lat="48.862609863281" lon="2.8594455718994"><ele>164</ele><time>2026-4-28T23:31:28Z</time></trkpt>
<trkpt lat="48.862609863281" lon="2.8594455718994"><ele>164</ele><time>2026-4-28T23:31:31Z</time></trkpt>
<trkpt lat="48.862609863281" lon="2.8594455718994"><ele>164</ele><time>2026-4-28T23:31:34Z</time></trkpt>
<trkpt lat="48.862682342529" lon="2.8593583106995"><ele>165</ele><time>2026-4-28T23:31:37Z</time></trkpt>
<trkpt lat="48.862682342529" lon="2.8593583106995"><ele>165</ele><time>2026-4-28T23:31:40Z</time></trkpt>
<trkpt lat="48.862682342529" lon="2.8593583106995"><ele>165</ele><time>2026-4-28T23:31:43Z</time></trkpt>
<trkpt lat="48.86275100708" lon="2.8592936992645"><ele>165</ele><time>2026-4-28T23:31:46Z</time></trkpt>
<trkpt lat="48.86275100708" lon="2.8592936992645"><ele>165</ele><time>2026-4-28T23:31:49Z</time></trkpt>
<trkpt lat="48.862819671631" lon="2.8592216968536"><ele>165</ele><time>2026-4-28T23:31:52Z</time></trkpt>
<trkpt lat="48.862819671631" lon="2.8592216968536"><ele>165</ele><time>2026-4-28T23:31:55Z</time></trkpt>
<trkpt lat="48.862819671631" lon="2.8592216968536"><ele>165</ele><time>2026-4-28T23:31:58Z</time></trkpt>
<trkpt lat="48.862880706787" lon="2.8591513633728"><ele>165</ele><time>2026-4-28T23:32:1Z</time></trkpt>
<trkpt lat="48.862880706787" lon="2.8591513633728"><ele>165</ele><time>2026-4-28T23:32:4Z</time></trkpt>
<trkpt lat="48.862880706787" lon="2.8591513633728"><ele>165</ele><time>2026-4-28T23:32:7Z</time></trkpt>
<trkpt lat="48.862941741943" lon="2.8590757846832"><ele>166</ele><time>2026-4-28T23:32:10Z</time></trkpt>
<trkpt lat="48.862941741943" lon="2.8590757846832"><ele>166</ele><time>2026-4-28T23:32:13Z</time></trkpt>
<trkpt lat="48.863021850586" lon="2.8589885234833"><ele>166</ele><time>2026-4-28T23:32:16Z</time></trkpt>
<trkpt lat="48.863021850586" lon="2.8589885234833"><ele>166</ele><time>2026-4-28T23:32:19Z</time></trkpt>
<trkpt lat="48.863021850586" lon="2.8589885234833"><ele>166</ele><time>2026-4-28T23:32:22Z</time></trkpt>
<trkpt lat="48.863090515137" lon="2.8589129447937"><ele>166</ele><time>2026-4-28T23:32:25Z</time></trkpt>
<trkpt lat="48.863140106201" lon="2.8588538169861"><ele>166</ele><time>2026-4-28T23:32:28Z</time></trkpt>
<trkpt lat="48.863140106201" lon="2.8588538169861"><ele>166</ele><time>2026-4-28T23:32:31Z</time></trkpt>
<trkpt lat="48.863193511963" lon="2.8587846755981"><ele>166</ele><time>2026-4-28T23:32:34Z</time></trkpt>
<trkpt lat="48.863254547119" lon="2.8587160110474"><ele>166</ele><time>2026-4-28T23:32:37Z</time></trkpt>
<trkpt lat="48.863304138184" lon="2.8586559295654"><ele>166</ele><time>2026-4-28T23:32:40Z</time></trkpt>
<trkpt lat="48.863304138184" lon="2.8586559295654"><ele>166</ele><time>2026-4-28T23:32:43Z</time></trkpt>
<trkpt lat="48.863353729248" lon="2.8586065769196"><ele>166</ele><time>2026-4-28T23:32:46Z</time></trkpt>
<trkpt lat="48.863414764404" lon="2.8585584163666"><ele>166</ele><time>2026-4-28T23:32:49Z</time></trkpt>
<trkpt lat="48.863414764404" lon="2.8585584163666"><ele>166</ele><time>2026-4-28T23:32:52Z</time></trkpt>
<trkpt lat="48.863506317139" lon="2.8584995269775"><ele>167</ele><time>2026-4-28T23:32:55Z</time></trkpt>
<trkpt lat="48.863594055176" lon="2.858553647995"><ele>167</ele><time>2026-4-28T23:32:58Z</time></trkpt>
<trkpt lat="48.863594055176" lon="2.858553647995"><ele>167</ele><time>2026-4-28T23:33:1Z</time></trkpt>
<trkpt lat="48.863647460938" lon="2.8586800098419"><ele>167</ele><time>2026-4-28T23:33:4Z</time></trkpt>
<trkpt lat="48.86372756958" lon="2.8588407039642"><ele>166</ele><time>2026-4-28T23:33:7Z</time></trkpt>
<trkpt lat="48.863815307617" lon="2.8590114116669"><ele>166</ele><time>2026-4-28T23:33:10Z</time></trkpt>
<trkpt lat="48.863815307617" lon="2.8590114116669"><ele>166</ele><time>2026-4-28T23:33:13Z</time></trkpt>
<trkpt lat="48.863883972168" lon="2.8591392040253"><ele>165</ele><time>2026-4-28T23:33:16Z</time></trkpt>
<trkpt lat="48.863994598389" lon="2.8591845035553"><ele>165</ele><time>2026-4-28T23:33:19Z</time></trkpt>
<trkpt lat="48.864082336426" lon="2.8591372966766"><ele>164</ele><time>2026-4-28T23:33:22Z</time></trkpt>
<trkpt lat="48.864082336426" lon="2.8591372966766"><ele>164</ele><time>2026-4-28T23:33:25Z</time></trkpt>
<trkpt lat="48.864166259766" lon="2.8590614795685"><ele>164</ele><time>2026-4-28T23:33:28Z</time></trkpt>
<trkpt lat="48.864250183105" lon="2.8589603900909"><ele>164</ele><time>2026-4-28T23:33:31Z</time></trkpt>
<trkpt lat="48.864311218262" lon="2.8588843345642"><ele>164</ele><time>2026-4-28T23:33:34Z</time></trkpt>
<trkpt lat="48.864311218262" lon="2.8588843345642"><ele>164</ele><time>2026-4-28T23:33:37Z</time></trkpt>
<trkpt lat="48.864368438721" lon="2.8588209152222"><ele>164</ele><time>2026-4-28T23:33:40Z</time></trkpt>
<trkpt lat="48.864421844482" lon="2.8587534427643"><ele>164</ele><time>2026-4-28T23:33:43Z</time></trkpt>
<trkpt lat="48.864482879639" lon="2.8586797714233"><ele>164</ele><time>2026-4-28T23:33:46Z</time></trkpt>
<trkpt lat="48.864482879639" lon="2.8586797714233"><ele>164</ele><time>2026-4-28T23:33:49Z</time></trkpt>
<trkpt lat="48.864562988281" lon="2.8585941791534"><ele>164</ele><time>2026-4-28T23:33:52Z</time></trkpt>
<trkpt lat="48.864654541016" lon="2.8585064411163"><ele>164</ele><time>2026-4-28T23:33:55Z</time></trkpt>
<trkpt lat="48.864757537842" lon="2.8583898544312"><ele>164</ele><time>2026-4-28T23:33:58Z</time></trkpt>
<trkpt lat="48.864757537842" lon="2.8583898544312"><ele>164</ele><time>2026-4-28T23:34:1Z</time></trkpt>
<trkpt lat="48.864868164062" lon="2.8582055568695"><ele>163</ele><time>2026-4-28T23:34:4Z</time></trkpt>
<trkpt lat="48.864971160889" lon="2.8580751419067"><ele>162</ele><time>2026-4-28T23:34:7Z</time></trkpt>
<trkpt lat="48.865055084229" lon="2.8579270839691"><ele>162</ele><time>2026-4-28T23:34:10Z</time></trkpt>
<trkpt lat="48.865055084229" lon="2.8579270839691"><ele>162</ele><time>2026-4-28T23:34:13Z</time></trkpt>
<trkpt lat="48.865119934082" lon="2.8577992916107"><ele>162</ele><time>2026-4-28T23:34:16Z</time></trkpt>
<trkpt lat="48.865177154541" lon="2.8576767444611"><ele>162</ele><time>2026-4-28T23:34:19Z</time></trkpt>
<trkpt lat="48.865245819092" lon="2.8575413227081"><ele>162</ele><time>2026-4-28T23:34:22Z</time></trkpt>
<trkpt lat="48.865245819092" lon="2.8575413227081"><ele>162</ele><time>2026-4-28T23:34:25Z</time></trkpt>
<trkpt lat="48.865329742432" lon="2.8573906421661"><ele>161</ele><time>2026-4-28T23:34:28Z</time></trkpt>
<trkpt lat="48.865390777588" lon="2.8572742938995"><ele>161</ele><time>2026-4-28T23:34:31Z</time></trkpt>
<trkpt lat="48.865440368652" lon="2.8571426868439"><ele>161</ele><time>2026-4-28T23:34:34Z</time></trkpt>
<trkpt lat="48.865440368652" lon="2.8571426868439"><ele>161</ele><time>2026-4-28T23:34:37Z</time></trkpt>
<trkpt lat="48.865482330322" lon="2.8570234775543"><ele>161</ele><time>2026-4-28T23:34:40Z</time></trkpt>
<trkpt lat="48.8655128479" lon="2.8569033145905"><ele>161</ele><time>2026-4-28T23:34:43Z</time></trkpt>
<trkpt lat="48.865547180176" lon="2.8567833900452"><ele>161</ele><time>2026-4-28T23:34:46Z</time></trkpt>
<trkpt lat="48.865547180176" lon="2.8567833900452"><ele>161</ele><time>2026-4-28T23:34:49Z</time></trkpt>
<trkpt lat="48.86559677124" lon="2.8566133975983"><ele>161</ele><time>2026-4-28T23:34:52Z</time></trkpt>
<trkpt lat="48.865642547607" lon="2.856454372406"><ele>162</ele><time>2026-4-28T23:34:55Z</time></trkpt>
<trkpt lat="48.865699768066" lon="2.8562638759613"><ele>161</ele><time>2026-4-28T23:34:58Z</time></trkpt>
<trkpt lat="48.865699768066" lon="2.8562638759613"><ele>161</ele><time>2026-4-28T23:35:1Z</time></trkpt>
<trkpt lat="48.865745544434" lon="2.8560798168182"><ele>161</ele><time>2026-4-28T23:35:4Z</time></trkpt>
<trkpt lat="48.865768432617" lon="2.8559126853943"><ele>162</ele><time>2026-4-28T23:35:7Z</time></trkpt>
<trkpt lat="48.865779876709" lon="2.8557412624359"><ele>163</ele><time>2026-4-28T23:35:10Z</time></trkpt>
<trkpt lat="48.865779876709" lon="2.8557412624359"><ele>163</ele><time>2026-4-28T23:35:13Z</time></trkpt>
<trkpt lat="48.865787506104" lon="2.8555853366852"><ele>163</ele><time>2026-4-28T23:35:16Z</time></trkpt>
<trkpt lat="48.865802764893" lon="2.8554601669312"><ele>162</ele><time>2026-4-28T23:35:19Z</time></trkpt>
<trkpt lat="48.865814208984" lon="2.8553631305695"><ele>162</ele><time>2026-4-28T23:35:22Z</time></trkpt>
<trkpt lat="48.865814208984" lon="2.8553631305695"><ele>162</ele><time>2026-4-28T23:35:25Z</time></trkpt>
<trkpt lat="48.865814208984" lon="2.8553631305695"><ele>162</ele><time>2026-4-28T23:35:28Z</time></trkpt>
<trkpt lat="48.865840911865" lon="2.8551895618439"><ele>162</ele><time>2026-4-28T23:35:31Z</time></trkpt>
<trkpt lat="48.865840911865" lon="2.8551895618439"><ele>162</ele><time>2026-4-28T23:35:34Z</time></trkpt>
<trkpt lat="48.865840911865" lon="2.8551895618439"><ele>162</ele><time>2026-4-28T23:35:37Z</time></trkpt>
<trkpt lat="48.865859985352" lon="2.8550441265106"><ele>162</ele><time>2026-4-28T23:35:40Z</time></trkpt>
<trkpt lat="48.865859985352" lon="2.8550441265106"><ele>162</ele><time>2026-4-28T23:35:43Z</time></trkpt>
<trkpt lat="48.865859985352" lon="2.8550441265106"><ele>162</ele><time>2026-4-28T23:35:46Z</time></trkpt>
<trkpt lat="48.865859985352" lon="2.8550441265106"><ele>162</ele><time>2026-4-28T23:35:49Z</time></trkpt>
<trkpt lat="48.865859985352" lon="2.8550441265106"><ele>162</ele><time>2026-4-28T23:35:52Z</time></trkpt>
<trkpt lat="48.865859985352" lon="2.8550441265106"><ele>162</ele><time>2026-4-28T23:35:55Z</time></trkpt>
<trkpt lat="48.865859985352" lon="2.8550441265106"><ele>162</ele><time>2026-4-28T23:35:58Z</time></trkpt>
<trkpt lat="48.865859985352" lon="2.8550441265106"><ele>162</ele><time>2026-4-28T23:36:1Z</time></trkpt>
<trkpt lat="48.865859985352" lon="2.8550441265106"><ele>162</ele><time>2026-4-28T23:36:4Z</time></trkpt>
<trkpt lat="48.865859985352" lon="2.8550441265106"><ele>162</ele><time>2026-4-28T23:36:7Z</time></trkpt>
<trkpt lat="48.865859985352" lon="2.8550441265106"><ele>162</ele><time>2026-4-28T23:36:10Z</time></trkpt>
<trkpt lat="48.865859985352" lon="2.8550441265106"><ele>162</ele><time>2026-4-28T23:36:13Z</time></trkpt>
<trkpt lat="48.865859985352" lon="2.8550441265106"><ele>162</ele><time>2026-4-28T23:36:16Z</time></trkpt>
<trkpt lat="48.865993499756" lon="2.8549373149872"><ele>161</ele><time>2026-4-28T23:36:19Z</time></trkpt>
<trkpt lat="48.865993499756" lon="2.8549373149872"><ele>161</ele><time>2026-4-28T23:36:22Z</time></trkpt>
<trkpt lat="48.866092681885" lon="2.8548629283905"><ele>161</ele><time>2026-4-28T23:36:25Z</time></trkpt>
<trkpt lat="48.866184234619" lon="2.854808807373"><ele>161</ele><time>2026-4-28T23:36:28Z</time></trkpt>
<trkpt lat="48.866268157959" lon="2.8547673225403"><ele>162</ele><time>2026-4-28T23:36:31Z</time></trkpt>
<trkpt lat="48.866268157959" lon="2.8547673225403"><ele>162</ele><time>2026-4-28T23:36:34Z</time></trkpt>
<trkpt lat="48.866355895996" lon="2.8547296524048"><ele>162</ele><time>2026-4-28T23:36:37Z</time></trkpt>
<trkpt lat="48.866527557373" lon="2.8546605110168"><ele>162</ele><time>2026-4-28T23:36:40Z</time></trkpt>
<trkpt lat="48.866611480713" lon="2.8546316623688"><ele>162</ele><time>2026-4-28T23:36:43Z</time></trkpt>
<trkpt lat="48.866611480713" lon="2.8546316623688"><ele>162</ele><time>2026-4-28T23:36:46Z</time></trkpt>
<trkpt lat="48.866706848145" lon="2.8546092510223"><ele>162</ele><time>2026-4-28T23:36:49Z</time></trkpt>
<trkpt lat="48.866802215576" lon="2.854576587677"><ele>162</ele><time>2026-4-28T23:36:52Z</time></trkpt>
<trkpt lat="48.866897583008" lon="2.8545422554016"><ele>162</ele><time>2026-4-28T23:36:55Z</time></trkpt>
<trkpt lat="48.866897583008" lon="2.8545422554016"><ele>162</ele><time>2026-4-28T23:36:58Z</time></trkpt>
<trkpt lat="48.866992950439" lon="2.8545050621033"><ele>163</ele><time>2026-4-28T23:37:1Z</time></trkpt>
<trkpt lat="48.867088317871" lon="2.8544778823853"><ele>162</ele><time>2026-4-28T23:37:4Z</time></trkpt>
<trkpt lat="48.867202758789" lon="2.8544516563416"><ele>161</ele><time>2026-4-28T23:37:7Z</time></trkpt>
<trkpt lat="48.867202758789" lon="2.8544516563416"><ele>161</ele><time>2026-4-28T23:37:10Z</time></trkpt>
<trkpt lat="48.86731338501" lon="2.8544223308563"><ele>160</ele><time>2026-4-28T23:37:13Z</time></trkpt>
<trkpt lat="48.867431640625" lon="2.8543927669525"><ele>160</ele><time>2026-4-28T23:37:16Z</time></trkpt>
<trkpt lat="48.867553710938" lon="2.85435795784"><ele>159</ele><time>2026-4-28T23:37:19Z</time></trkpt>
<trkpt lat="48.867553710938" lon="2.85435795784"><ele>159</ele><time>2026-4-28T23:37:22Z</time></trkpt>
<trkpt lat="48.867668151855" lon="2.8543272018433"><ele>159</ele><time>2026-4-28T23:37:25Z</time></trkpt>
<trkpt lat="48.867790222168" lon="2.8542940616608"><ele>159</ele><time>2026-4-28T23:37:28Z</time></trkpt>
<trkpt lat="48.867908477783" lon="2.8542664051056"><ele>158</ele><time>2026-4-28T23:37:31Z</time></trkpt>
<trkpt lat="48.867908477783" lon="2.8542664051056"><ele>158</ele><time>2026-4-28T23:37:34Z</time></trkpt>
<trkpt lat="48.868015289307" lon="2.8542368412018"><ele>157</ele><time>2026-4-28T23:37:37Z</time></trkpt>
<trkpt lat="48.86812210083" lon="2.8542077541351"><ele>156</ele><time>2026-4-28T23:37:40Z</time></trkpt>
<trkpt lat="48.868244171143" lon="2.8541767597198"><ele>155</ele><time>2026-4-28T23:37:43Z</time></trkpt>
<trkpt lat="48.868244171143" lon="2.8541767597198"><ele>155</ele><time>2026-4-28T23:37:46Z</time></trkpt>
<trkpt lat="48.868385314941" lon="2.8541507720947"><ele>154</ele><time>2026-4-28T23:37:49Z</time></trkpt>
<trkpt lat="48.868518829346" lon="2.8541281223297"><ele>153</ele><time>2026-4-28T23:37:52Z</time></trkpt>
<trkpt lat="48.86865234375" lon="2.8540964126587"><ele>152</ele><time>2026-4-28T23:37:55Z</time></trkpt>
<trkpt lat="48.86865234375" lon="2.8540964126587"><ele>152</ele><time>2026-4-28T23:37:58Z</time></trkpt>
<trkpt lat="48.868793487549" lon="2.8540580272675"><ele>152</ele><time>2026-4-28T23:38:1Z</time></trkpt>
<trkpt lat="48.868923187256" lon="2.8540222644806"><ele>151</ele><time>2026-4-28T23:38:4Z</time></trkpt>
<trkpt lat="48.869033813477" lon="2.8539834022522"><ele>151</ele><time>2026-4-28T23:38:7Z</time></trkpt>
<trkpt lat="48.869033813477" lon="2.8539834022522"><ele>151</ele><time>2026-4-28T23:38:10Z</time></trkpt>
<trkpt lat="48.869136810303" lon="2.853964805603"><ele>151</ele><time>2026-4-28T23:38:13Z</time></trkpt>
<trkpt lat="48.869251251221" lon="2.8539316654205"><ele>151</ele><time>2026-4-28T23:38:16Z</time></trkpt>
<trkpt lat="48.869365692139" lon="2.8539001941681"><ele>151</ele><time>2026-4-28T23:38:19Z</time></trkpt>
<trkpt lat="48.869472503662" lon="2.8538680076599"><ele>152</ele><time>2026-4-28T23:38:22Z</time></trkpt>
<trkpt lat="48.869567871094" lon="2.8538403511047"><ele>152</ele><time>2026-4-28T23:38:25Z</time></trkpt>
<trkpt lat="48.869667053223" lon="2.8538160324097"><ele>152</ele><time>2026-4-28T23:38:28Z</time></trkpt>
<trkpt lat="48.869762420654" lon="2.8537952899933"><ele>151</ele><time>2026-4-28T23:38:31Z</time></trkpt>
<trkpt lat="48.869857788086" lon="2.8537714481354"><ele>151</ele><time>2026-4-28T23:38:34Z</time></trkpt>
<trkpt lat="48.869937896729" lon="2.8537483215332"><ele>151</ele><time>2026-4-28T23:38:37Z</time></trkpt>
<trkpt lat="48.870029449463" lon="2.8537218570709"><ele>150</ele><time>2026-4-28T23:38:40Z</time></trkpt>
<trkpt lat="48.870124816895" lon="2.8536970615387"><ele>149</ele><time>2026-4-28T23:38:43Z</time></trkpt>
<trkpt lat="48.870227813721" lon="2.8536696434021"><ele>149</ele><time>2026-4-28T23:38:46Z</time></trkpt>
<trkpt lat="48.870334625244" lon="2.8536400794983"><ele>149</ele><time>2026-4-28T23:38:49Z</time></trkpt>
<trkpt lat="48.870433807373" lon="2.8536124229431"><ele>148</ele><time>2026-4-28T23:38:52Z</time></trkpt>
<trkpt lat="48.870540618896" lon="2.8535823822021"><ele>147</ele><time>2026-4-28T23:38:55Z</time></trkpt>
<trkpt lat="48.870651245117" lon="2.8535499572754"><ele>147</ele><time>2026-4-28T23:38:58Z</time></trkpt>
<trkpt lat="48.870769500732" lon="2.8535149097443"><ele>147</ele><time>2026-4-28T23:39:1Z</time></trkpt>
<trkpt lat="48.870887756348" lon="2.8534786701202"><ele>146</ele><time>2026-4-28T23:39:4Z</time></trkpt>
<trkpt lat="48.871002197266" lon="2.8534505367279"><ele>146</ele><time>2026-4-28T23:39:7Z</time></trkpt>
<trkpt lat="48.87109375" lon="2.8534245491028"><ele>146</ele><time>2026-4-28T23:39:10Z</time></trkpt>
<trkpt lat="48.871154785156" lon="2.8534059524536"><ele>147</ele><time>2026-4-28T23:39:13Z</time></trkpt>
<trkpt lat="48.87121963501" lon="2.8533847332001"><ele>147</ele><time>2026-4-28T23:39:16Z</time></trkpt>
<trkpt lat="48.871295928955" lon="2.853363275528"><ele>147</ele><time>2026-4-28T23:39:19Z</time></trkpt>
<trkpt lat="48.871295928955" lon="2.853363275528"><ele>147</ele><time>2026-4-28T23:39:22Z</time></trkpt>
<trkpt lat="48.871376037598" lon="2.8533420562744"><ele>147</ele><time>2026-4-28T23:39:25Z</time></trkpt>
<trkpt lat="48.871376037598" lon="2.8533420562744"><ele>147</ele><time>2026-4-28T23:39:28Z</time></trkpt>
<trkpt lat="48.871376037598" lon="2.8533420562744"><ele>147</ele><time>2026-4-28T23:39:31Z</time></trkpt>
<trkpt lat="48.871376037598" lon="2.8533420562744"><ele>147</ele><time>2026-4-28T23:39:34Z</time></trkpt>
<trkpt lat="48.871376037598" lon="2.8533420562744"><ele>147</ele><time>2026-4-28T23:39:37Z</time></trkpt>
<trkpt lat="48.871376037598" lon="2.8533420562744"><ele>147</ele><time>2026-4-28T23:39:40Z</time></trkpt>
<trkpt lat="48.871376037598" lon="2.8533420562744"><ele>147</ele><time>2026-4-28T23:39:43Z</time></trkpt>
<trkpt lat="48.871376037598" lon="2.8533420562744"><ele>147</ele><time>2026-4-28T23:39:46Z</time></trkpt>
<trkpt lat="48.871376037598" lon="2.8533420562744"><ele>147</ele><time>2026-4-28T23:39:49Z</time></trkpt>
<trkpt lat="48.871376037598" lon="2.8533420562744"><ele>147</ele><time>2026-4-28T23:39:52Z</time></trkpt>
<trkpt lat="48.871376037598" lon="2.8533420562744"><ele>147</ele><time>2026-4-28T23:39:55Z</time></trkpt>
<trkpt lat="48.871376037598" lon="2.8533420562744"><ele>147</ele><time>2026-4-28T23:39:58Z</time></trkpt>
<trkpt lat="48.871376037598" lon="2.8533420562744"><ele>147</ele><time>2026-4-28T23:40:1Z</time></trkpt>
<trkpt lat="48.871376037598" lon="2.8533420562744"><ele>147</ele><time>2026-4-28T23:40:4Z</time></trkpt>
<trkpt lat="48.871376037598" lon="2.8533420562744"><ele>147</ele><time>2026-4-28T23:40:7Z</time></trkpt>
<trkpt lat="48.871376037598" lon="2.8533420562744"><ele>147</ele><time>2026-4-28T23:40:10Z</time></trkpt>
<trkpt lat="48.871376037598" lon="2.8533420562744"><ele>147</ele><time>2026-4-28T23:40:13Z</time></trkpt>
<trkpt lat="48.871376037598" lon="2.8533420562744"><ele>147</ele><time>2026-4-28T23:40:16Z</time></trkpt>
<trkpt lat="48.871376037598" lon="2.8533420562744"><ele>147</ele><time>2026-4-28T23:40:19Z</time></trkpt>
<trkpt lat="48.871376037598" lon="2.8533420562744"><ele>147</ele><time>2026-4-28T23:40:22Z</time></trkpt>
<trkpt lat="48.871376037598" lon="2.8533420562744"><ele>147</ele><time>2026-4-28T23:40:25Z</time></trkpt>
<trkpt lat="48.871376037598" lon="2.8533420562744"><ele>147</ele><time>2026-4-28T23:40:28Z</time></trkpt>
<trkpt lat="48.871376037598" lon="2.8533420562744"><ele>147</ele><time>2026-4-28T23:40:31Z</time></trkpt>
<trkpt lat="48.871406555176" lon="2.8534653186798"><ele>148</ele><time>2026-4-28T23:40:34Z</time></trkpt>
<trkpt lat="48.871406555176" lon="2.8534653186798"><ele>148</ele><time>2026-4-28T23:40:37Z</time></trkpt>
<trkpt lat="48.871368408203" lon="2.8536138534546"><ele>148</ele><time>2026-4-28T23:40:40Z</time></trkpt>
<trkpt lat="48.871326446533" lon="2.8537454605103"><ele>148</ele><time>2026-4-28T23:40:43Z</time></trkpt>
<trkpt lat="48.871326446533" lon="2.8537454605103"><ele>148</ele><time>2026-4-28T23:40:46Z</time></trkpt>
<trkpt lat="48.871288299561" lon="2.8538761138916"><ele>148</ele><time>2026-4-28T23:40:49Z</time></trkpt>
<trkpt lat="48.871288299561" lon="2.8538761138916"><ele>148</ele><time>2026-4-28T23:40:52Z</time></trkpt>
<trkpt lat="48.871234893799" lon="2.8540327548981"><ele>149</ele><time>2026-4-28T23:40:55Z</time></trkpt>
<trkpt lat="48.871192932129" lon="2.8541398048401"><ele>149</ele><time>2026-4-28T23:40:58Z</time></trkpt>
<trkpt lat="48.87113571167" lon="2.8542692661285"><ele>149</ele><time>2026-4-28T23:41:1Z</time></trkpt>
<trkpt lat="48.87113571167" lon="2.8542692661285"><ele>149</ele><time>2026-4-28T23:41:4Z</time></trkpt>
<trkpt lat="48.87109375" lon="2.854376077652"><ele>149</ele><time>2026-4-28T23:41:7Z</time></trkpt>
<trkpt lat="48.871059417725" lon="2.8544592857361"><ele>149</ele><time>2026-4-28T23:41:10Z</time></trkpt>
<trkpt lat="48.871025085449" lon="2.8545472621918"><ele>149</ele><time>2026-4-28T23:41:13Z</time></trkpt>
<trkpt lat="48.871025085449" lon="2.8545472621918"><ele>149</ele><time>2026-4-28T23:41:16Z</time></trkpt>
<trkpt lat="48.870983123779" lon="2.8546576499939"><ele>149</ele><time>2026-4-28T23:41:19Z</time></trkpt>
<trkpt lat="48.870941162109" lon="2.854768037796"><ele>150</ele><time>2026-4-28T23:41:22Z</time></trkpt>
<trkpt lat="48.870906829834" lon="2.8548679351807"><ele>151</ele><time>2026-4-28T23:41:25Z</time></trkpt>
<trkpt lat="48.870906829834" lon="2.8548679351807"><ele>151</ele><time>2026-4-28T23:41:28Z</time></trkpt>
<trkpt lat="48.870872497559" lon="2.8549807071686"><ele>151</ele><time>2026-4-28T23:41:31Z</time></trkpt>
<trkpt lat="48.870834350586" lon="2.8550996780396"><ele>151</ele><time>2026-4-28T23:41:34Z</time></trkpt>
<trkpt lat="48.870796203613" lon="2.8551964759827"><ele>150</ele><time>2026-4-28T23:41:37Z</time></trkpt>
<trkpt lat="48.870796203613" lon="2.8551964759827"><ele>150</ele><time>2026-4-28T23:41:40Z</time></trkpt>
<trkpt lat="48.870761871338" lon="2.8552930355072"><ele>150</ele><time>2026-4-28T23:41:43Z</time></trkpt>
<trkpt lat="48.870719909668" lon="2.8553900718689"><ele>150</ele><time>2026-4-28T23:41:46Z</time></trkpt>
<trkpt lat="48.870685577393" lon="2.8554885387421"><ele>150</ele><time>2026-4-28T23:41:49Z</time></trkpt>
<trkpt lat="48.870685577393" lon="2.8554885387421"><ele>150</ele><time>2026-4-28T23:41:52Z</time></trkpt>
<trkpt lat="48.870685577393" lon="2.8554885387421"><ele>150</ele><time>2026-4-28T23:41:55Z</time></trkpt>
<trkpt lat="48.870716094971" lon="2.8556203842163"><ele>150</ele><time>2026-4-28T23:41:58Z</time></trkpt>
<trkpt lat="48.870796203613" lon="2.8556640148163"><ele>149</ele><time>2026-4-28T23:42:1Z</time></trkpt>
<trkpt lat="48.870796203613" lon="2.8556640148163"><ele>149</ele><time>2026-4-28T23:42:4Z</time></trkpt>
<trkpt lat="48.870895385742" lon="2.8557085990906"><ele>148</ele><time>2026-4-28T23:42:7Z</time></trkpt>
<trkpt lat="48.870979309082" lon="2.8557453155518"><ele>147</ele><time>2026-4-28T23:42:10Z</time></trkpt>
<trkpt lat="48.871086120605" lon="2.8558006286621"><ele>147</ele><time>2026-4-28T23:42:13Z</time></trkpt>
<trkpt lat="48.871086120605" lon="2.8558006286621"><ele>147</ele><time>2026-4-28T23:42:16Z</time></trkpt>
<trkpt lat="48.871196746826" lon="2.8558604717255"><ele>147</ele><time>2026-4-28T23:42:19Z</time></trkpt>
<trkpt lat="48.871318817139" lon="2.8559236526489"><ele>147</ele><time>2026-4-28T23:42:22Z</time></trkpt>
<trkpt lat="48.871444702148" lon="2.855984210968"><ele>146</ele><time>2026-4-28T23:42:25Z</time></trkpt>
<trkpt lat="48.871444702148" lon="2.855984210968"><ele>146</ele><time>2026-4-28T23:42:28Z</time></trkpt>
<trkpt lat="48.871562957764" lon="2.8560543060303"><ele>146</ele><time>2026-4-28T23:42:31Z</time></trkpt>
<trkpt lat="48.871681213379" lon="2.85613322258"><ele>145</ele><time>2026-4-28T23:42:34Z</time></trkpt>
<trkpt lat="48.871803283691" lon="2.8562226295471"><ele>145</ele><time>2026-4-28T23:42:37Z</time></trkpt>
<trkpt lat="48.871803283691" lon="2.8562226295471"><ele>145</ele><time>2026-4-28T23:42:40Z</time></trkpt>
<trkpt lat="48.871925354004" lon="2.856306552887"><ele>144</ele><time>2026-4-28T23:42:43Z</time></trkpt>
<trkpt lat="48.872047424316" lon="2.8563797473907"><ele>144</ele><time>2026-4-28T23:42:46Z</time></trkpt>
<trkpt lat="48.872180938721" lon="2.8564698696136"><ele>142</ele><time>2026-4-28T23:42:49Z</time></trkpt>
<trkpt lat="48.872180938721" lon="2.8564698696136"><ele>142</ele><time>2026-4-28T23:42:52Z</time></trkpt>
<trkpt lat="48.872314453125" lon="2.8565671443939"><ele>139</ele><time>2026-4-28T23:42:55Z</time></trkpt>
<trkpt lat="48.87243270874" lon="2.8566565513611"><ele>138</ele><time>2026-4-28T23:42:58Z</time></trkpt>
<trkpt lat="48.872543334961" lon="2.8567345142365"><ele>136</ele><time>2026-4-28T23:43:1Z</time></trkpt>
<trkpt lat="48.872543334961" lon="2.8567345142365"><ele>136</ele><time>2026-4-28T23:43:4Z</time></trkpt>
<trkpt lat="48.872661590576" lon="2.8568170070648"><ele>134</ele><time>2026-4-28T23:43:7Z</time></trkpt>
<trkpt lat="48.872787475586" lon="2.8569116592407"><ele>134</ele><time>2026-4-28T23:43:10Z</time></trkpt>
<trkpt lat="48.872898101807" lon="2.8570125102997"><ele>133</ele><time>2026-4-28T23:43:13Z</time></trkpt>
<trkpt lat="48.872898101807" lon="2.8570125102997"><ele>133</ele><time>2026-4-28T23:43:16Z</time></trkpt>
<trkpt lat="48.873016357422" lon="2.8571360111237"><ele>133</ele><time>2026-4-28T23:43:19Z</time></trkpt>
<trkpt lat="48.873115539551" lon="2.8572504520416"><ele>133</ele><time>2026-4-28T23:43:22Z</time></trkpt>
<trkpt lat="48.873188018799" lon="2.8573346138"><ele>135</ele><time>2026-4-28T23:43:25Z</time></trkpt>
<trkpt lat="48.873188018799" lon="2.8573346138"><ele>135</ele><time>2026-4-28T23:43:28Z</time></trkpt>
<trkpt lat="48.873233795166" lon="2.8573899269104"><ele>135</ele><time>2026-4-28T23:43:31Z</time></trkpt>
<trkpt lat="48.873233795166" lon="2.8573899269104"><ele>135</ele><time>2026-4-28T23:43:34Z</time></trkpt>
<trkpt lat="48.87329864502" lon="2.8574693202972"><ele>135</ele><time>2026-4-28T23:43:37Z</time></trkpt>
<trkpt lat="48.87329864502" lon="2.8574693202972"><ele>135</ele><time>2026-4-28T23:43:40Z</time></trkpt>
<trkpt lat="48.873344421387" lon="2.857533454895"><ele>135</ele><time>2026-4-28T23:43:43Z</time></trkpt>
<trkpt lat="48.873394012451" lon="2.8575868606567"><ele>135</ele><time>2026-4-28T23:43:46Z</time></trkpt>
<trkpt lat="48.873458862305" lon="2.857631444931"><ele>133</ele><time>2026-4-28T23:43:49Z</time></trkpt>
<trkpt lat="48.873458862305" lon="2.857631444931"><ele>133</ele><time>2026-4-28T23:43:52Z</time></trkpt>
<trkpt lat="48.873527526855" lon="2.8576562404633"><ele>131</ele><time>2026-4-28T23:43:55Z</time></trkpt>
<trkpt lat="48.873607635498" lon="2.8576493263245"><ele>131</ele><time>2026-4-28T23:43:58Z</time></trkpt>
<trkpt lat="48.873687744141" lon="2.8576233386993"><ele>131</ele><time>2026-4-28T23:44:1Z</time></trkpt>
<trkpt lat="48.873687744141" lon="2.8576233386993"><ele>131</ele><time>2026-4-28T23:44:4Z</time></trkpt>
<trkpt lat="48.873760223389" lon="2.8575909137726"><ele>131</ele><time>2026-4-28T23:44:7Z</time></trkpt>
<trkpt lat="48.873760223389" lon="2.8575909137726"><ele>131</ele><time>2026-4-28T23:44:10Z</time></trkpt>
<trkpt lat="48.873821258545" lon="2.8575446605682"><ele>131</ele><time>2026-4-28T23:44:13Z</time></trkpt>
<trkpt lat="48.873821258545" lon="2.8575446605682"><ele>131</ele><time>2026-4-28T23:44:16Z</time></trkpt>
<trkpt lat="48.873821258545" lon="2.8575446605682"><ele>131</ele><time>2026-4-28T23:44:19Z</time></trkpt>
<trkpt lat="48.873874664307" lon="2.8574740886688"><ele>131</ele><time>2026-4-28T23:44:22Z</time></trkpt>
<trkpt lat="48.873874664307" lon="2.8574740886688"><ele>131</ele><time>2026-4-28T23:44:25Z</time></trkpt>
<trkpt lat="48.873874664307" lon="2.8574740886688"><ele>131</ele><time>2026-4-28T23:44:28Z</time></trkpt>
<trkpt lat="48.873928070068" lon="2.8573694229126"><ele>132</ele><time>2026-4-28T23:44:31Z</time></trkpt>
<trkpt lat="48.874008178711" lon="2.8572494983673"><ele>132</ele><time>2026-4-28T23:44:34Z</time></trkpt>
<trkpt lat="48.874008178711" lon="2.8572494983673"><ele>132</ele><time>2026-4-28T23:44:37Z</time></trkpt>
<trkpt lat="48.874053955078" lon="2.8571889400482"><ele>132</ele><time>2026-4-28T23:44:40Z</time></trkpt>
<trkpt lat="48.874095916748" lon="2.8571255207062"><ele>133</ele><time>2026-4-28T23:44:43Z</time></trkpt>
<trkpt lat="48.874141693115" lon="2.8570575714111"><ele>133</ele><time>2026-4-28T23:44:46Z</time></trkpt>
<trkpt lat="48.874141693115" lon="2.8570575714111"><ele>133</ele><time>2026-4-28T23:44:49Z</time></trkpt>
<trkpt lat="48.874195098877" lon="2.8569984436035"><ele>133</ele><time>2026-4-28T23:44:52Z</time></trkpt>
<trkpt lat="48.874256134033" lon="2.8569407463074"><ele>133</ele><time>2026-4-28T23:44:55Z</time></trkpt>
<trkpt lat="48.874313354492" lon="2.8568878173828"><ele>133</ele><time>2026-4-28T23:44:58Z</time></trkpt>
<trkpt lat="48.874313354492" lon="2.8568878173828"><ele>133</ele><time>2026-4-28T23:45:1Z</time></trkpt>
<trkpt lat="48.874393463135" lon="2.8568089008331"><ele>134</ele><time>2026-4-28T23:45:4Z</time></trkpt>
<trkpt lat="48.874465942383" lon="2.8567354679108"><ele>135</ele><time>2026-4-28T23:45:7Z</time></trkpt>
<trkpt lat="48.874549865723" lon="2.8566534519196"><ele>135</ele><time>2026-4-28T23:45:10Z</time></trkpt>
<trkpt lat="48.874549865723" lon="2.8566534519196"><ele>135</ele><time>2026-4-28T23:45:13Z</time></trkpt>
<trkpt lat="48.87463760376" lon="2.8565561771393"><ele>134</ele><time>2026-4-28T23:45:16Z</time></trkpt>
<trkpt lat="48.874759674072" lon="2.8564147949219"><ele>134</ele><time>2026-4-28T23:45:19Z</time></trkpt>
<trkpt lat="48.874877929688" lon="2.8562731742859"><ele>132</ele><time>2026-4-28T23:45:22Z</time></trkpt>
<trkpt lat="48.874877929688" lon="2.8562731742859"><ele>132</ele><time>2026-4-28T23:45:25Z</time></trkpt>
<trkpt lat="48.874984741211" lon="2.8561587333679"><ele>130</ele><time>2026-4-28T23:45:28Z</time></trkpt>
<trkpt lat="48.875099182129" lon="2.8560383319855"><ele>131</ele><time>2026-4-28T23:45:31Z</time></trkpt>
<trkpt lat="48.875221252441" lon="2.8559014797211"><ele>131</ele><time>2026-4-28T23:45:34Z</time></trkpt>
<trkpt lat="48.875221252441" lon="2.8559014797211"><ele>131</ele><time>2026-4-28T23:45:37Z</time></trkpt>
<trkpt lat="48.87536239624" lon="2.8557667732239"><ele>131</ele><time>2026-4-28T23:45:40Z</time></trkpt>
<trkpt lat="48.875640869141" lon="2.8555026054382"><ele>129</ele><time>2026-4-28T23:45:43Z</time></trkpt>
<trkpt lat="48.875843048096" lon="2.8553669452667"><ele>127</ele><time>2026-4-28T23:45:46Z</time></trkpt>
<trkpt lat="48.876022338867" lon="2.8552534580231"><ele>124</ele><time>2026-4-28T23:45:49Z</time></trkpt>
<trkpt lat="48.876182556152" lon="2.8551366329193"><ele>121</ele><time>2026-4-28T23:45:52Z</time></trkpt>
<trkpt lat="48.876331329346" lon="2.8550109863281"><ele>119</ele><time>2026-4-28T23:45:55Z</time></trkpt>
<trkpt lat="48.876491546631" lon="2.854855298996"><ele>118</ele><time>2026-4-28T23:45:58Z</time></trkpt>
<trkpt lat="48.876659393311" lon="2.8546905517578"><ele>117</ele><time>2026-4-28T23:46:1Z</time></trkpt>
<trkpt lat="48.876815795898" lon="2.8545336723328"><ele>117</ele><time>2026-4-28T23:46:4Z</time></trkpt>
<trkpt lat="48.876945495605" lon="2.8543922901154"><ele>117</ele><time>2026-4-28T23:46:7Z</time></trkpt>
<trkpt lat="48.877048492432" lon="2.8542890548706"><ele>116</ele><time>2026-4-28T23:46:10Z</time></trkpt>
<trkpt lat="48.877048492432" lon="2.8542890548706"><ele>116</ele><time>2026-4-28T23:46:13Z</time></trkpt>
<trkpt lat="48.877098083496" lon="2.8542463779449"><ele>115</ele><time>2026-4-28T23:46:16Z</time></trkpt>
<trkpt lat="48.87716293335" lon="2.8542034626007"><ele>114</ele><time>2026-4-28T23:46:19Z</time></trkpt>
<trkpt lat="48.877243041992" lon="2.8541285991669"><ele>112</ele><time>2026-4-28T23:46:22Z</time></trkpt>
<trkpt lat="48.877342224121" lon="2.854080915451"><ele>108</ele><time>2026-4-28T23:46:25Z</time></trkpt>
<trkpt lat="48.877452850342" lon="2.8540470600128"><ele>106</ele><time>2026-4-28T23:46:28Z</time></trkpt>
<trkpt lat="48.877563476562" lon="2.8540093898773"><ele>104</ele><time>2026-4-28T23:46:31Z</time></trkpt>
<trkpt lat="48.877681732178" lon="2.8539729118347"><ele>103</ele><time>2026-4-28T23:46:34Z</time></trkpt>
<trkpt lat="48.877807617188" lon="2.8539371490479"><ele>101</ele><time>2026-4-28T23:46:37Z</time></trkpt>
<trkpt lat="48.877937316895" lon="2.8539083003998"><ele>100</ele><time>2026-4-28T23:46:40Z</time></trkpt>
<trkpt lat="48.878051757812" lon="2.8539001941681"><ele>100</ele><time>2026-4-28T23:46:43Z</time></trkpt>
<trkpt lat="48.878120422363" lon="2.8540511131287"><ele>99</ele><time>2026-4-28T23:46:46Z</time></trkpt>
<trkpt lat="48.878162384033" lon="2.8542535305023"><ele>98</ele><time>2026-4-28T23:46:49Z</time></trkpt>
<trkpt lat="48.878185272217" lon="2.8544583320618"><ele>97</ele><time>2026-4-28T23:46:52Z</time></trkpt>
<trkpt lat="48.878196716309" lon="2.8546576499939"><ele>96</ele><time>2026-4-28T23:46:55Z</time></trkpt>
<trkpt lat="48.878196716309" lon="2.8548305034637"><ele>95</ele><time>2026-4-28T23:46:58Z</time></trkpt>
<trkpt lat="48.878196716309" lon="2.8549971580505"><ele>94</ele><time>2026-4-28T23:47:1Z</time></trkpt>
<trkpt lat="48.878200531006" lon="2.8551778793335"><ele>93</ele><time>2026-4-28T23:47:4Z</time></trkpt>
<trkpt lat="48.87818145752" lon="2.8552913665771"><ele>93</ele><time>2026-4-28T23:47:7Z</time></trkpt>
<trkpt lat="48.87818145752" lon="2.8552913665771"><ele>93</ele><time>2026-4-28T23:47:10Z</time></trkpt>
<trkpt lat="48.87818145752" lon="2.8552913665771"><ele>93</ele><time>2026-4-28T23:47:13Z</time></trkpt>
</trkseg></trk></gpx>